<?xml version="1.0" encoding="UTF-8" standalone="no" ?>
<gpx xmlns="http://www.topografix.com/GPX/1/1" xmlns:xsi="http://www.w3.org/2001/XMLSchema-instance" xsi:schemaLocation="http://www.topografix.com/GPX/1/1 http://www.topografix.com/GPX/1/1/gpx.xsd" version="1.1" creator="VisuGPX - https://www.visugpx.com">
  <metadata>
    <name>DB Clem split</name>
  </metadata>
  <wpt lat="42.20966" lon="-1.51524">
    <ele>292.9</ele>
    <name><![CDATA[CP1]]></name>
  </wpt>
  <wpt lat="40.40677" lon="-1.44426">
    <ele>1162.2</ele>
    <name><![CDATA[CP2]]></name>
  </wpt>
  <wpt lat="37.54317" lon="-3.04779">
    <ele>794.7</ele>
    <name><![CDATA[CP3]]></name>
  </wpt>
  <wpt lat="37.04445" lon="-2.52483">
    <ele>472.4</ele>
    <name><![CDATA[CP4]]></name>
  </wpt>
  <trk>
    <name><![CDATA[DB Clem cp1]]></name>
    <extensions>
      <line xmlns="http://www.topografix.com/GPX/gpx_style/0/2">
        <color>0000FF</color>
        <width>4</width>
      </line>
    </extensions>
    <trkseg>
      <trkpt lat="43.49569" lon="-1.49675">
        <ele>3.350408</ele>
        <time>2022-02-21T13:24:47.948Z</time>
      </trkpt>
      <trkpt lat="43.49424" lon="-1.49665">
        <ele>3.354164</ele>
        <time>2022-02-21T13:25:20.491Z</time>
      </trkpt>
      <trkpt lat="43.49398" lon="-1.49681">
        <ele>3.35605</ele>
        <time>2022-02-21T13:25:26.809Z</time>
      </trkpt>
      <trkpt lat="43.49398" lon="-1.49659">
        <ele>3.357115</ele>
        <time>2022-02-21T13:25:30.223Z</time>
      </trkpt>
      <trkpt lat="43.49394" lon="-1.49577">
        <ele>3.361171</ele>
        <time>2022-02-21T13:25:43.631Z</time>
      </trkpt>
      <trkpt lat="43.49388" lon="-1.49544">
        <ele>3.437993</ele>
        <time>2022-02-21T13:25:49.518Z</time>
      </trkpt>
      <trkpt lat="43.49381" lon="-1.49514">
        <ele>3.923289</ele>
        <time>2022-02-21T13:25:55.399Z</time>
      </trkpt>
      <trkpt lat="43.49379" lon="-1.49494">
        <ele>4.24341</ele>
        <time>2022-02-21T13:25:59.467Z</time>
      </trkpt>
      <trkpt lat="43.49376" lon="-1.49477">
        <ele>4.512837</ele>
        <time>2022-02-21T13:26:03.007Z</time>
      </trkpt>
      <trkpt lat="43.49371" lon="-1.49472">
        <ele>4.633885</ele>
        <time>2022-02-21T13:26:04.661Z</time>
      </trkpt>
      <trkpt lat="43.49369" lon="-1.49461">
        <ele>4.811399</ele>
        <time>2022-02-21T13:26:07.080Z</time>
      </trkpt>
      <trkpt lat="43.49369" lon="-1.49457">
        <ele>4.870263</ele>
        <time>2022-02-21T13:26:07.936Z</time>
      </trkpt>
      <trkpt lat="43.49376" lon="-1.49445">
        <ele>5.09487</ele>
        <time>2022-02-21T13:26:11.080Z</time>
      </trkpt>
      <trkpt lat="43.49382" lon="-1.49427">
        <ele>5.404025</ele>
        <time>2022-02-21T13:26:15.737Z</time>
      </trkpt>
      <trkpt lat="43.4938" lon="-1.49402">
        <ele>5.799738</ele>
        <time>2022-02-21T13:26:21.533Z</time>
      </trkpt>
      <trkpt lat="43.49374" lon="-1.49368">
        <ele>6.329709</ele>
        <time>2022-02-21T13:26:30.597Z</time>
      </trkpt>
      <trkpt lat="43.4935" lon="-1.49233">
        <ele>9.698432</ele>
        <time>2022-02-21T13:27:14.310Z</time>
      </trkpt>
      <trkpt lat="43.49354" lon="-1.49197">
        <ele>10.787256</ele>
        <time>2022-02-21T13:27:26.070Z</time>
      </trkpt>
      <trkpt lat="43.49364" lon="-1.49161">
        <ele>11.946365</ele>
        <time>2022-02-21T13:27:39.233Z</time>
      </trkpt>
      <trkpt lat="43.49363" lon="-1.49156">
        <ele>12.084471</ele>
        <time>2022-02-21T13:27:40.906Z</time>
      </trkpt>
      <trkpt lat="43.49368" lon="-1.49146">
        <ele>12.465443</ele>
        <time>2022-02-21T13:27:45.047Z</time>
      </trkpt>
      <trkpt lat="43.49375" lon="-1.49147">
        <ele>12.757928</ele>
        <time>2022-02-21T13:27:47.706Z</time>
      </trkpt>
      <trkpt lat="43.49379" lon="-1.49139">
        <ele>13.053897</ele>
        <time>2022-02-21T13:27:50.968Z</time>
      </trkpt>
      <trkpt lat="43.494" lon="-1.49105">
        <ele>14.401701</ele>
        <time>2022-02-21T13:28:04.460Z</time>
      </trkpt>
      <trkpt lat="43.49415" lon="-1.4909">
        <ele>14.864779</ele>
        <time>2022-02-21T13:28:12.264Z</time>
      </trkpt>
      <trkpt lat="43.49451" lon="-1.49073">
        <ele>15.595068</ele>
        <time>2022-02-21T13:28:26.707Z</time>
      </trkpt>
      <trkpt lat="43.49461" lon="-1.49053">
        <ele>15.920091</ele>
        <time>2022-02-21T13:28:32.523Z</time>
      </trkpt>
      <trkpt lat="43.49459" lon="-1.49034">
        <ele>16.18432</ele>
        <time>2022-02-21T13:28:38.076Z</time>
      </trkpt>
      <trkpt lat="43.49448" lon="-1.49004">
        <ele>16.657946</ele>
        <time>2022-02-21T13:28:45.409Z</time>
      </trkpt>
      <trkpt lat="43.49428" lon="-1.48958">
        <ele>17.399714</ele>
        <time>2022-02-21T13:28:55.840Z</time>
      </trkpt>
      <trkpt lat="43.49396" lon="-1.48884">
        <ele>18.060147</ele>
        <time>2022-02-21T13:29:09.850Z</time>
      </trkpt>
      <trkpt lat="43.4938" lon="-1.48865">
        <ele>18.067524</ele>
        <time>2022-02-21T13:29:14.448Z</time>
      </trkpt>
      <trkpt lat="43.49318" lon="-1.4883">
        <ele>18.091636</ele>
        <time>2022-02-21T13:29:28.461Z</time>
      </trkpt>
      <trkpt lat="43.49306" lon="-1.48826">
        <ele>18.096266</ele>
        <time>2022-02-21T13:29:31.320Z</time>
      </trkpt>
      <trkpt lat="43.49305" lon="-1.48828">
        <ele>18.096909</ele>
        <time>2022-02-21T13:29:31.754Z</time>
      </trkpt>
      <trkpt lat="43.493" lon="-1.48834">
        <ele>18.099384</ele>
        <time>2022-02-21T13:29:33.395Z</time>
      </trkpt>
      <trkpt lat="43.49295" lon="-1.48829">
        <ele>18.10143</ele>
        <time>2022-02-21T13:29:34.635Z</time>
      </trkpt>
      <trkpt lat="43.49296" lon="-1.48819">
        <ele>18.10405</ele>
        <time>2022-02-21T13:29:36.267Z</time>
      </trkpt>
      <trkpt lat="43.49289" lon="-1.4881">
        <ele>18.10749</ele>
        <time>2022-02-21T13:29:38.569Z</time>
      </trkpt>
      <trkpt lat="43.49282" lon="-1.48792">
        <ele>18.112886</ele>
        <time>2022-02-21T13:29:42.300Z</time>
      </trkpt>
      <trkpt lat="43.49267" lon="-1.48756">
        <ele>18.422233</ele>
        <time>2022-02-21T13:29:49.894Z</time>
      </trkpt>
      <trkpt lat="43.49238" lon="-1.48685">
        <ele>19.130153</ele>
        <time>2022-02-21T13:30:06.486Z</time>
      </trkpt>
      <trkpt lat="43.49209" lon="-1.48701">
        <ele>19.503708</ele>
        <time>2022-02-21T13:30:16.007Z</time>
      </trkpt>
      <trkpt lat="43.49178" lon="-1.48714">
        <ele>19.884325</ele>
        <time>2022-02-21T13:30:25.880Z</time>
      </trkpt>
      <trkpt lat="43.49145" lon="-1.48704">
        <ele>20.257488</ele>
        <time>2022-02-21T13:30:36.505Z</time>
      </trkpt>
      <trkpt lat="43.49117" lon="-1.48686">
        <ele>20.218291</ele>
        <time>2022-02-21T13:30:45.267Z</time>
      </trkpt>
      <trkpt lat="43.49078" lon="-1.48676">
        <ele>20.16838</ele>
        <time>2022-02-21T13:30:54.918Z</time>
      </trkpt>
      <trkpt lat="43.49067" lon="-1.48668">
        <ele>20.152562</ele>
        <time>2022-02-21T13:30:57.880Z</time>
      </trkpt>
      <trkpt lat="43.49057" lon="-1.48606">
        <ele>20.094463</ele>
        <time>2022-02-21T13:31:07.708Z</time>
      </trkpt>
      <trkpt lat="43.49049" lon="-1.48524">
        <ele>19.787382</ele>
        <time>2022-02-21T13:31:19.337Z</time>
      </trkpt>
      <trkpt lat="43.49047" lon="-1.48509">
        <ele>19.574332</ele>
        <time>2022-02-21T13:31:21.255Z</time>
      </trkpt>
      <trkpt lat="43.49046" lon="-1.48495">
        <ele>19.354705</ele>
        <time>2022-02-21T13:31:23.165Z</time>
      </trkpt>
      <trkpt lat="43.49034" lon="-1.484">
        <ele>17.914353</ele>
        <time>2022-02-21T13:31:35.428Z</time>
      </trkpt>
      <trkpt lat="43.49027" lon="-1.48322">
        <ele>16.747041</ele>
        <time>2022-02-21T13:31:45.545Z</time>
      </trkpt>
      <trkpt lat="43.49013" lon="-1.48228">
        <ele>16.166101</ele>
        <time>2022-02-21T13:31:59.414Z</time>
      </trkpt>
      <trkpt lat="43.49005" lon="-1.48229">
        <ele>16.136437</ele>
        <time>2022-02-21T13:32:02.484Z</time>
      </trkpt>
      <trkpt lat="43.48993" lon="-1.48234">
        <ele>16.094283</ele>
        <time>2022-02-21T13:32:06.865Z</time>
      </trkpt>
      <trkpt lat="43.48983" lon="-1.48238">
        <ele>16.058178</ele>
        <time>2022-02-21T13:32:10.674Z</time>
      </trkpt>
      <trkpt lat="43.48971" lon="-1.48243">
        <ele>16.016275</ele>
        <time>2022-02-21T13:32:15.129Z</time>
      </trkpt>
      <trkpt lat="43.48958" lon="-1.48249">
        <ele>15.967511</ele>
        <time>2022-02-21T13:32:20.243Z</time>
      </trkpt>
      <trkpt lat="43.48951" lon="-1.48251">
        <ele>15.943257</ele>
        <time>2022-02-21T13:32:22.853Z</time>
      </trkpt>
      <trkpt lat="43.48911" lon="-1.48272">
        <ele>15.795219</ele>
        <time>2022-02-21T13:32:38.905Z</time>
      </trkpt>
      <trkpt lat="43.48869" lon="-1.48283">
        <ele>15.921724</ele>
        <time>2022-02-21T13:32:49.693Z</time>
      </trkpt>
      <trkpt lat="43.48791" lon="-1.48317">
        <ele>16.747825</ele>
        <time>2022-02-21T13:33:12.381Z</time>
      </trkpt>
      <trkpt lat="43.48783" lon="-1.48305">
        <ele>16.869049</ele>
        <time>2022-02-21T13:33:15.893Z</time>
      </trkpt>
      <trkpt lat="43.48776" lon="-1.48293">
        <ele>16.975291</ele>
        <time>2022-02-21T13:33:19.587Z</time>
      </trkpt>
      <trkpt lat="43.48769" lon="-1.48291">
        <ele>17.052472</ele>
        <time>2022-02-21T13:33:22.309Z</time>
      </trkpt>
      <trkpt lat="43.48762" lon="-1.48289">
        <ele>17.121063</ele>
        <time>2022-02-21T13:33:24.684Z</time>
      </trkpt>
      <trkpt lat="43.48763" lon="-1.48282">
        <ele>17.169537</ele>
        <time>2022-02-21T13:33:26.356Z</time>
      </trkpt>
      <trkpt lat="43.48728" lon="-1.48297">
        <ele>17.535843</ele>
        <time>2022-02-21T13:33:36.944Z</time>
      </trkpt>
      <trkpt lat="43.48718" lon="-1.48297">
        <ele>17.713865</ele>
        <time>2022-02-21T13:33:39.865Z</time>
      </trkpt>
      <trkpt lat="43.48696" lon="-1.48297">
        <ele>18.132317</ele>
        <time>2022-02-21T13:33:46.999Z</time>
      </trkpt>
      <trkpt lat="43.48689" lon="-1.48303">
        <ele>18.279536</ele>
        <time>2022-02-21T13:33:49.609Z</time>
      </trkpt>
      <trkpt lat="43.48683" lon="-1.48297">
        <ele>18.398378</ele>
        <time>2022-02-21T13:33:51.531Z</time>
      </trkpt>
      <trkpt lat="43.48671" lon="-1.4829">
        <ele>18.637001</ele>
        <time>2022-02-21T13:33:55.723Z</time>
      </trkpt>
      <trkpt lat="43.48584" lon="-1.48284">
        <ele>20.241713</ele>
        <time>2022-02-21T13:34:23.360Z</time>
      </trkpt>
      <trkpt lat="43.48552" lon="-1.48281">
        <ele>20.83717</ele>
        <time>2022-02-21T13:34:34.021Z</time>
      </trkpt>
      <trkpt lat="43.48529" lon="-1.4828">
        <ele>21.230238</ele>
        <time>2022-02-21T13:34:41.525Z</time>
      </trkpt>
      <trkpt lat="43.4851" lon="-1.48278">
        <ele>21.553969</ele>
        <time>2022-02-21T13:34:47.760Z</time>
      </trkpt>
      <trkpt lat="43.48461" lon="-1.48269">
        <ele>22.399324</ele>
        <time>2022-02-21T13:35:03.167Z</time>
      </trkpt>
      <trkpt lat="43.48454" lon="-1.48267">
        <ele>22.52196</ele>
        <time>2022-02-21T13:35:05.364Z</time>
      </trkpt>
      <trkpt lat="43.48377" lon="-1.48253">
        <ele>23.845601</ele>
        <time>2022-02-21T13:35:27.775Z</time>
      </trkpt>
      <trkpt lat="43.48361" lon="-1.48249">
        <ele>24.224823</ele>
        <time>2022-02-21T13:35:32.395Z</time>
      </trkpt>
      <trkpt lat="43.4832" lon="-1.48241">
        <ele>25.25507</ele>
        <time>2022-02-21T13:35:45.047Z</time>
      </trkpt>
      <trkpt lat="43.48265" lon="-1.48249">
        <ele>26.63198</ele>
        <time>2022-02-21T13:36:03.967Z</time>
      </trkpt>
      <trkpt lat="43.48241" lon="-1.48247">
        <ele>27.251404</ele>
        <time>2022-02-21T13:36:13.251Z</time>
      </trkpt>
      <trkpt lat="43.48236" lon="-1.48257">
        <ele>27.473491</ele>
        <time>2022-02-21T13:36:16.728Z</time>
      </trkpt>
      <trkpt lat="43.48228" lon="-1.48255">
        <ele>27.68097</ele>
        <time>2022-02-21T13:36:19.981Z</time>
      </trkpt>
      <trkpt lat="43.48199" lon="-1.48265">
        <ele>28.419057</ele>
        <time>2022-02-21T13:36:31.854Z</time>
      </trkpt>
      <trkpt lat="43.4817" lon="-1.48265">
        <ele>29.416774</ele>
        <time>2022-02-21T13:36:43.343Z</time>
      </trkpt>
      <trkpt lat="43.48142" lon="-1.48266">
        <ele>30.386991</ele>
        <time>2022-02-21T13:36:54.630Z</time>
      </trkpt>
      <trkpt lat="43.48134" lon="-1.48267">
        <ele>30.678671</ele>
        <time>2022-02-21T13:36:57.868Z</time>
      </trkpt>
      <trkpt lat="43.4813" lon="-1.48273">
        <ele>30.877988</ele>
        <time>2022-02-21T13:37:00.195Z</time>
      </trkpt>
      <trkpt lat="43.48122" lon="-1.48275">
        <ele>31.142616</ele>
        <time>2022-02-21T13:37:03.152Z</time>
      </trkpt>
      <trkpt lat="43.4808" lon="-1.48305">
        <ele>32.794813</ele>
        <time>2022-02-21T13:37:22.093Z</time>
      </trkpt>
      <trkpt lat="43.48066" lon="-1.48319">
        <ele>33.40275</ele>
        <time>2022-02-21T13:37:28.953Z</time>
      </trkpt>
      <trkpt lat="43.47996" lon="-1.48386">
        <ele>35.884997</ele>
        <time>2022-02-21T13:38:02.442Z</time>
      </trkpt>
      <trkpt lat="43.47952" lon="-1.48414">
        <ele>37.122747</ele>
        <time>2022-02-21T13:38:20.194Z</time>
      </trkpt>
      <trkpt lat="43.47935" lon="-1.48422">
        <ele>37.604175</ele>
        <time>2022-02-21T13:38:26.349Z</time>
      </trkpt>
      <trkpt lat="43.47926" lon="-1.48427">
        <ele>37.848537</ele>
        <time>2022-02-21T13:38:29.282Z</time>
      </trkpt>
      <trkpt lat="43.4791" lon="-1.4843">
        <ele>38.240194</ele>
        <time>2022-02-21T13:38:34.191Z</time>
      </trkpt>
      <trkpt lat="43.47868" lon="-1.48431">
        <ele>39.277253</ele>
        <time>2022-02-21T13:38:47.541Z</time>
      </trkpt>
      <trkpt lat="43.47835" lon="-1.48426">
        <ele>39.719415</ele>
        <time>2022-02-21T13:38:57.719Z</time>
      </trkpt>
      <trkpt lat="43.47747" lon="-1.48407">
        <ele>40.906574</ele>
        <time>2022-02-21T13:39:23.234Z</time>
      </trkpt>
      <trkpt lat="43.47726" lon="-1.48401">
        <ele>41.197335</ele>
        <time>2022-02-21T13:39:29.216Z</time>
      </trkpt>
      <trkpt lat="43.47683" lon="-1.48396">
        <ele>41.54663</ele>
        <time>2022-02-21T13:39:40.734Z</time>
      </trkpt>
      <trkpt lat="43.47638" lon="-1.48407">
        <ele>41.201703</ele>
        <time>2022-02-21T13:39:53.647Z</time>
      </trkpt>
      <trkpt lat="43.47594" lon="-1.48422">
        <ele>40.864816</ele>
        <time>2022-02-21T13:40:04.962Z</time>
      </trkpt>
      <trkpt lat="43.47568" lon="-1.48434">
        <ele>40.662818</ele>
        <time>2022-02-21T13:40:10.519Z</time>
      </trkpt>
      <trkpt lat="43.4754" lon="-1.48455">
        <ele>40.417992</ele>
        <time>2022-02-21T13:40:16.550Z</time>
      </trkpt>
      <trkpt lat="43.47496" lon="-1.48488">
        <ele>37.855125</ele>
        <time>2022-02-21T13:40:24.607Z</time>
      </trkpt>
      <trkpt lat="43.475" lon="-1.48459">
        <ele>36.20423</ele>
        <time>2022-02-21T13:40:27.805Z</time>
      </trkpt>
      <trkpt lat="43.47523" lon="-1.4842">
        <ele>33.352865</ele>
        <time>2022-02-21T13:40:33.133Z</time>
      </trkpt>
      <trkpt lat="43.47507" lon="-1.48346">
        <ele>28.907389</ele>
        <time>2022-02-21T13:40:41.216Z</time>
      </trkpt>
      <trkpt lat="43.47497" lon="-1.48335">
        <ele>27.90948</ele>
        <time>2022-02-21T13:40:43.024Z</time>
      </trkpt>
      <trkpt lat="43.47406" lon="-1.48306">
        <ele>19.700244</ele>
        <time>2022-02-21T13:40:56.127Z</time>
      </trkpt>
      <trkpt lat="43.4737" lon="-1.48353">
        <ele>15.232188</ele>
        <time>2022-02-21T13:41:03.083Z</time>
      </trkpt>
      <trkpt lat="43.47361" lon="-1.48356">
        <ele>14.369893</ele>
        <time>2022-02-21T13:41:04.431Z</time>
      </trkpt>
      <trkpt lat="43.47353" lon="-1.48338">
        <ele>13.012939</ele>
        <time>2022-02-21T13:41:06.571Z</time>
      </trkpt>
      <trkpt lat="43.47367" lon="-1.48312">
        <ele>10.854783</ele>
        <time>2022-02-21T13:41:10.179Z</time>
      </trkpt>
      <trkpt lat="43.47362" lon="-1.4827">
        <ele>9.280073</ele>
        <time>2022-02-21T13:41:15.002Z</time>
      </trkpt>
      <trkpt lat="43.47337" lon="-1.48211">
        <ele>7.843021</ele>
        <time>2022-02-21T13:41:23.492Z</time>
      </trkpt>
      <trkpt lat="43.47278" lon="-1.48347">
        <ele>4.606953</ele>
        <time>2022-02-21T13:42:01.139Z</time>
      </trkpt>
      <trkpt lat="43.47247" lon="-1.48397">
        <ele>4.320759</ele>
        <time>2022-02-21T13:42:17.832Z</time>
      </trkpt>
      <trkpt lat="43.47178" lon="-1.48446">
        <ele>3.855232</ele>
        <time>2022-02-21T13:42:46.426Z</time>
      </trkpt>
      <trkpt lat="43.47131" lon="-1.48463">
        <ele>3.564244</ele>
        <time>2022-02-21T13:43:03.764Z</time>
      </trkpt>
      <trkpt lat="43.47025" lon="-1.48478">
        <ele>2.935321</ele>
        <time>2022-02-21T13:43:41.391Z</time>
      </trkpt>
      <trkpt lat="43.46935" lon="-1.48493">
        <ele>2.475569</ele>
        <time>2022-02-21T13:44:13.493Z</time>
      </trkpt>
      <trkpt lat="43.46879" lon="-1.48493">
        <ele>2.408448</ele>
        <time>2022-02-21T13:44:33.631Z</time>
      </trkpt>
      <trkpt lat="43.46764" lon="-1.48466">
        <ele>2.331899</ele>
        <time>2022-02-21T13:45:16.958Z</time>
      </trkpt>
      <trkpt lat="43.46657" lon="-1.48413">
        <ele>3.053262</ele>
        <time>2022-02-21T13:46:04.570Z</time>
      </trkpt>
      <trkpt lat="43.46568" lon="-1.48353">
        <ele>3.268</ele>
        <time>2022-02-21T13:46:43.575Z</time>
      </trkpt>
      <trkpt lat="43.465" lon="-1.48301">
        <ele>2.982109</ele>
        <time>2022-02-21T13:47:11.594Z</time>
      </trkpt>
      <trkpt lat="43.46363" lon="-1.48174">
        <ele>1.954289</ele>
        <time>2022-02-21T13:48:08.390Z</time>
      </trkpt>
      <trkpt lat="43.46305" lon="-1.48137">
        <ele>1.458839</ele>
        <time>2022-02-21T13:48:31.170Z</time>
      </trkpt>
      <trkpt lat="43.46242" lon="-1.48118">
        <ele>1.363807</ele>
        <time>2022-02-21T13:48:54.632Z</time>
      </trkpt>
      <trkpt lat="43.46214" lon="-1.48116">
        <ele>1.359913</ele>
        <time>2022-02-21T13:49:04.957Z</time>
      </trkpt>
      <trkpt lat="43.46168" lon="-1.48121">
        <ele>1.353441</ele>
        <time>2022-02-21T13:49:22.259Z</time>
      </trkpt>
      <trkpt lat="43.46116" lon="-1.48139">
        <ele>1.348785</ele>
        <time>2022-02-21T13:49:42.724Z</time>
      </trkpt>
      <trkpt lat="43.46042" lon="-1.48187">
        <ele>1.641846</ele>
        <time>2022-02-21T13:50:13.869Z</time>
      </trkpt>
      <trkpt lat="43.45996" lon="-1.48237">
        <ele>1.850104</ele>
        <time>2022-02-21T13:50:36.619Z</time>
      </trkpt>
      <trkpt lat="43.45962" lon="-1.48291">
        <ele>2.076189</ele>
        <time>2022-02-21T13:50:57.166Z</time>
      </trkpt>
      <trkpt lat="43.45905" lon="-1.48411">
        <ele>2.781436</ele>
        <time>2022-02-21T13:51:40.334Z</time>
      </trkpt>
      <trkpt lat="43.45854" lon="-1.48589">
        <ele>3.263978</ele>
        <time>2022-02-21T13:52:35.149Z</time>
      </trkpt>
      <trkpt lat="43.45834" lon="-1.48628">
        <ele>3.291475</ele>
        <time>2022-02-21T13:52:48.010Z</time>
      </trkpt>
      <trkpt lat="43.45807" lon="-1.48654">
        <ele>3.317273</ele>
        <time>2022-02-21T13:53:00.004Z</time>
      </trkpt>
      <trkpt lat="43.45782" lon="-1.48658">
        <ele>3.337142</ele>
        <time>2022-02-21T13:53:09.179Z</time>
      </trkpt>
      <trkpt lat="43.45767" lon="-1.48655">
        <ele>3.331757</ele>
        <time>2022-02-21T13:53:14.837Z</time>
      </trkpt>
      <trkpt lat="43.45724" lon="-1.48634">
        <ele>3.194617</ele>
        <time>2022-02-21T13:53:31.064Z</time>
      </trkpt>
      <trkpt lat="43.45716" lon="-1.48628">
        <ele>3.166451</ele>
        <time>2022-02-21T13:53:34.351Z</time>
      </trkpt>
      <trkpt lat="43.45712" lon="-1.48625">
        <ele>3.152403</ele>
        <time>2022-02-21T13:53:35.983Z</time>
      </trkpt>
      <trkpt lat="43.45646" lon="-1.48557">
        <ele>2.901989</ele>
        <time>2022-02-21T13:54:05.407Z</time>
      </trkpt>
      <trkpt lat="43.45586" lon="-1.48473">
        <ele>2.889336</ele>
        <time>2022-02-21T13:54:37.411Z</time>
      </trkpt>
      <trkpt lat="43.4558" lon="-1.4846">
        <ele>2.909097</ele>
        <time>2022-02-21T13:54:41.722Z</time>
      </trkpt>
      <trkpt lat="43.45558" lon="-1.48421">
        <ele>2.972193</ele>
        <time>2022-02-21T13:54:56.005Z</time>
      </trkpt>
      <trkpt lat="43.45508" lon="-1.48351">
        <ele>3.098326</ele>
        <time>2022-02-21T13:55:23.923Z</time>
      </trkpt>
      <trkpt lat="43.45423" lon="-1.48275">
        <ele>2.704001</ele>
        <time>2022-02-21T13:56:00.128Z</time>
      </trkpt>
      <trkpt lat="43.45384" lon="-1.48232">
        <ele>2.477837</ele>
        <time>2022-02-21T13:56:17.876Z</time>
      </trkpt>
      <trkpt lat="43.45361" lon="-1.48189">
        <ele>2.301811</ele>
        <time>2022-02-21T13:56:31.598Z</time>
      </trkpt>
      <trkpt lat="43.45359" lon="-1.48182">
        <ele>2.278635</ele>
        <time>2022-02-21T13:56:33.392Z</time>
      </trkpt>
      <trkpt lat="43.45337" lon="-1.48147">
        <ele>2.126042</ele>
        <time>2022-02-21T13:56:45.020Z</time>
      </trkpt>
      <trkpt lat="43.45306" lon="-1.48072">
        <ele>1.836089</ele>
        <time>2022-02-21T13:57:07.098Z</time>
      </trkpt>
      <trkpt lat="43.45293" lon="-1.4801">
        <ele>1.623987</ele>
        <time>2022-02-21T13:57:23.642Z</time>
      </trkpt>
      <trkpt lat="43.45291" lon="-1.47921">
        <ele>1.693962</ele>
        <time>2022-02-21T13:57:48.870Z</time>
      </trkpt>
      <trkpt lat="43.45325" lon="-1.47773">
        <ele>2.406488</ele>
        <time>2022-02-21T13:58:35.136Z</time>
      </trkpt>
      <trkpt lat="43.4532" lon="-1.47741">
        <ele>2.55754</ele>
        <time>2022-02-21T13:58:44.891Z</time>
      </trkpt>
      <trkpt lat="43.45302" lon="-1.47708">
        <ele>2.685924</ele>
        <time>2022-02-21T13:58:57.123Z</time>
      </trkpt>
      <trkpt lat="43.45275" lon="-1.47682">
        <ele>2.792439</ele>
        <time>2022-02-21T13:59:10.347Z</time>
      </trkpt>
      <trkpt lat="43.45223" lon="-1.4765">
        <ele>2.975279</ele>
        <time>2022-02-21T13:59:32.519Z</time>
      </trkpt>
      <trkpt lat="43.45164" lon="-1.47631">
        <ele>3.169802</ele>
        <time>2022-02-21T13:59:55.278Z</time>
      </trkpt>
      <trkpt lat="43.45132" lon="-1.47613">
        <ele>3.18194</ele>
        <time>2022-02-21T14:00:07.864Z</time>
      </trkpt>
      <trkpt lat="43.45083" lon="-1.47604">
        <ele>3.146903</ele>
        <time>2022-02-21T14:00:25.897Z</time>
      </trkpt>
      <trkpt lat="43.44982" lon="-1.47554">
        <ele>3.08016</ele>
        <time>2022-02-21T14:01:05.404Z</time>
      </trkpt>
      <trkpt lat="43.4494" lon="-1.4752">
        <ele>3.235468</ele>
        <time>2022-02-21T14:01:23.940Z</time>
      </trkpt>
      <trkpt lat="43.44899" lon="-1.47471">
        <ele>3.408934</ele>
        <time>2022-02-21T14:01:45.095Z</time>
      </trkpt>
      <trkpt lat="43.44843" lon="-1.47387">
        <ele>3.6493</ele>
        <time>2022-02-21T14:02:17.854Z</time>
      </trkpt>
      <trkpt lat="43.44826" lon="-1.47375">
        <ele>3.650039</ele>
        <time>2022-02-21T14:02:25.478Z</time>
      </trkpt>
      <trkpt lat="43.448" lon="-1.47372">
        <ele>3.651045</ele>
        <time>2022-02-21T14:02:35.768Z</time>
      </trkpt>
      <trkpt lat="43.4476" lon="-1.47385">
        <ele>3.652597</ele>
        <time>2022-02-21T14:02:51.145Z</time>
      </trkpt>
      <trkpt lat="43.44644" lon="-1.47471">
        <ele>3.37436</ele>
        <time>2022-02-21T14:03:38.579Z</time>
      </trkpt>
      <trkpt lat="43.445" lon="-1.47538">
        <ele>2.469819</ele>
        <time>2022-02-21T14:04:31.954Z</time>
      </trkpt>
      <trkpt lat="43.44427" lon="-1.47554">
        <ele>2.110465</ele>
        <time>2022-02-21T14:04:58.222Z</time>
      </trkpt>
      <trkpt lat="43.44372" lon="-1.47558">
        <ele>1.841956</ele>
        <time>2022-02-21T14:05:18.097Z</time>
      </trkpt>
      <trkpt lat="43.44243" lon="-1.47555">
        <ele>1.638828</ele>
        <time>2022-02-21T14:06:05.003Z</time>
      </trkpt>
      <trkpt lat="43.44159" lon="-1.47534">
        <ele>1.60556</ele>
        <time>2022-02-21T14:06:36.857Z</time>
      </trkpt>
      <trkpt lat="43.44071" lon="-1.47522">
        <ele>2.024442</ele>
        <time>2022-02-21T14:07:11.201Z</time>
      </trkpt>
      <trkpt lat="43.43925" lon="-1.47491">
        <ele>2.845321</ele>
        <time>2022-02-21T14:08:11.010Z</time>
      </trkpt>
      <trkpt lat="43.4392" lon="-1.4749">
        <ele>2.875197</ele>
        <time>2022-02-21T14:08:12.813Z</time>
      </trkpt>
      <trkpt lat="43.43903" lon="-1.47486">
        <ele>2.993021</ele>
        <time>2022-02-21T14:08:19.984Z</time>
      </trkpt>
      <trkpt lat="43.43844" lon="-1.47448">
        <ele>3.434381</ele>
        <time>2022-02-21T14:08:46.429Z</time>
      </trkpt>
      <trkpt lat="43.43812" lon="-1.47418">
        <ele>3.698756</ele>
        <time>2022-02-21T14:09:02.033Z</time>
      </trkpt>
      <trkpt lat="43.43791" lon="-1.47387">
        <ele>3.933113</ele>
        <time>2022-02-21T14:09:14.544Z</time>
      </trkpt>
      <trkpt lat="43.43755" lon="-1.47255">
        <ele>4.712191</ele>
        <time>2022-02-21T14:09:56.670Z</time>
      </trkpt>
      <trkpt lat="43.43756" lon="-1.47236">
        <ele>4.816241</ele>
        <time>2022-02-21T14:10:02.424Z</time>
      </trkpt>
      <trkpt lat="43.43757" lon="-1.47221">
        <ele>4.900444</ele>
        <time>2022-02-21T14:10:06.870Z</time>
      </trkpt>
      <trkpt lat="43.43764" lon="-1.47137">
        <ele>5.275427</ele>
        <time>2022-02-21T14:10:31.767Z</time>
      </trkpt>
      <trkpt lat="43.4376" lon="-1.4703">
        <ele>5.700943</ele>
        <time>2022-02-21T14:11:02.837Z</time>
      </trkpt>
      <trkpt lat="43.43745" lon="-1.46917">
        <ele>6.046641</ele>
        <time>2022-02-21T14:11:35.395Z</time>
      </trkpt>
      <trkpt lat="43.43758" lon="-1.4661">
        <ele>6.01476</ele>
        <time>2022-02-21T14:12:58.408Z</time>
      </trkpt>
      <trkpt lat="43.4378" lon="-1.46443">
        <ele>5.666323</ele>
        <time>2022-02-21T14:13:42.741Z</time>
      </trkpt>
      <trkpt lat="43.4378" lon="-1.46388">
        <ele>5.481936</ele>
        <time>2022-02-21T14:13:56.836Z</time>
      </trkpt>
      <trkpt lat="43.43768" lon="-1.46335">
        <ele>5.296785</ele>
        <time>2022-02-21T14:14:10.975Z</time>
      </trkpt>
      <trkpt lat="43.4361" lon="-1.46061">
        <ele>4.318841</ele>
        <time>2022-02-21T14:15:42.641Z</time>
      </trkpt>
      <trkpt lat="43.43577" lon="-1.46009">
        <ele>4.113302</ele>
        <time>2022-02-21T14:16:00.776Z</time>
      </trkpt>
      <trkpt lat="43.43481" lon="-1.45881">
        <ele>3.533141</ele>
        <time>2022-02-21T14:16:48.534Z</time>
      </trkpt>
      <trkpt lat="43.43447" lon="-1.45848">
        <ele>3.423927</ele>
        <time>2022-02-21T14:17:03.506Z</time>
      </trkpt>
      <trkpt lat="43.43393" lon="-1.45811">
        <ele>3.298252</ele>
        <time>2022-02-21T14:17:25.421Z</time>
      </trkpt>
      <trkpt lat="43.43343" lon="-1.45782">
        <ele>3.185543</ele>
        <time>2022-02-21T14:17:45.267Z</time>
      </trkpt>
      <trkpt lat="43.43303" lon="-1.45772">
        <ele>3.097839</ele>
        <time>2022-02-21T14:18:00.516Z</time>
      </trkpt>
      <trkpt lat="43.43274" lon="-1.45753">
        <ele>3.023757</ele>
        <time>2022-02-21T14:18:12.248Z</time>
      </trkpt>
      <trkpt lat="43.43242" lon="-1.45742">
        <ele>2.944715</ele>
        <time>2022-02-21T14:18:24.626Z</time>
      </trkpt>
      <trkpt lat="43.43229" lon="-1.45744">
        <ele>2.915203</ele>
        <time>2022-02-21T14:18:29.193Z</time>
      </trkpt>
      <trkpt lat="43.43219" lon="-1.45757">
        <ele>2.882695</ele>
        <time>2022-02-21T14:18:34.246Z</time>
      </trkpt>
      <trkpt lat="43.4321" lon="-1.45778">
        <ele>2.841084</ele>
        <time>2022-02-21T14:18:40.640Z</time>
      </trkpt>
      <trkpt lat="43.43203" lon="-1.45851">
        <ele>2.715237</ele>
        <time>2022-02-21T14:18:59.809Z</time>
      </trkpt>
      <trkpt lat="43.43175" lon="-1.45995">
        <ele>2.210948</ele>
        <time>2022-02-21T14:19:38.273Z</time>
      </trkpt>
      <trkpt lat="43.43154" lon="-1.46057">
        <ele>1.968637</ele>
        <time>2022-02-21T14:19:55.998Z</time>
      </trkpt>
      <trkpt lat="43.43122" lon="-1.46111">
        <ele>1.873163</ele>
        <time>2022-02-21T14:20:14.190Z</time>
      </trkpt>
      <trkpt lat="43.43099" lon="-1.46126">
        <ele>1.943811</ele>
        <time>2022-02-21T14:20:23.565Z</time>
      </trkpt>
      <trkpt lat="43.43058" lon="-1.46138">
        <ele>2.062559</ele>
        <time>2022-02-21T14:20:39.772Z</time>
      </trkpt>
      <trkpt lat="43.43012" lon="-1.46125">
        <ele>2.192439</ele>
        <time>2022-02-21T14:20:58.162Z</time>
      </trkpt>
      <trkpt lat="43.42854" lon="-1.46062">
        <ele>2.934255</ele>
        <time>2022-02-21T14:22:04.624Z</time>
      </trkpt>
      <trkpt lat="43.42705" lon="-1.46015">
        <ele>3.275472</ele>
        <time>2022-02-21T14:23:03.161Z</time>
      </trkpt>
      <trkpt lat="43.4269" lon="-1.46015">
        <ele>3.279299</ele>
        <time>2022-02-21T14:23:08.659Z</time>
      </trkpt>
      <trkpt lat="43.42677" lon="-1.46042">
        <ele>3.285186</ele>
        <time>2022-02-21T14:23:17.156Z</time>
      </trkpt>
      <trkpt lat="43.42668" lon="-1.46049">
        <ele>3.287868</ele>
        <time>2022-02-21T14:23:21.002Z</time>
      </trkpt>
      <trkpt lat="43.42615" lon="-1.46017">
        <ele>3.250403</ele>
        <time>2022-02-21T14:23:42.138Z</time>
      </trkpt>
      <trkpt lat="43.42619" lon="-1.46004">
        <ele>3.222436</ele>
        <time>2022-02-21T14:23:45.877Z</time>
      </trkpt>
      <trkpt lat="43.42618" lon="-1.45991">
        <ele>3.197411</ele>
        <time>2022-02-21T14:23:49.369Z</time>
      </trkpt>
      <trkpt lat="43.42601" lon="-1.4597">
        <ele>3.138255</ele>
        <time>2022-02-21T14:23:57.357Z</time>
      </trkpt>
      <trkpt lat="43.42589" lon="-1.45953">
        <ele>3.090972</ele>
        <time>2022-02-21T14:24:01.379Z</time>
      </trkpt>
      <trkpt lat="43.42536" lon="-1.45894">
        <ele>2.910585</ele>
        <time>2022-02-21T14:24:16.376Z</time>
      </trkpt>
      <trkpt lat="43.42486" lon="-1.45867">
        <ele>2.852373</ele>
        <time>2022-02-21T14:24:28.470Z</time>
      </trkpt>
      <trkpt lat="43.42445" lon="-1.4583">
        <ele>2.933275</ele>
        <time>2022-02-21T14:24:39.712Z</time>
      </trkpt>
      <trkpt lat="43.42393" lon="-1.45771">
        <ele>3.04513</ele>
        <time>2022-02-21T14:24:56.139Z</time>
      </trkpt>
      <trkpt lat="43.42347" lon="-1.45747">
        <ele>3.153655</ele>
        <time>2022-02-21T14:25:08.748Z</time>
      </trkpt>
      <trkpt lat="43.4232" lon="-1.45742">
        <ele>3.328143</ele>
        <time>2022-02-21T14:25:15.906Z</time>
      </trkpt>
      <trkpt lat="43.42208" lon="-1.45735">
        <ele>4.059586</ele>
        <time>2022-02-21T14:25:46.087Z</time>
      </trkpt>
      <trkpt lat="43.42179" lon="-1.45728">
        <ele>4.254257</ele>
        <time>2022-02-21T14:25:54.159Z</time>
      </trkpt>
      <trkpt lat="43.42105" lon="-1.45693">
        <ele>4.420558</ele>
        <time>2022-02-21T14:26:14.068Z</time>
      </trkpt>
      <trkpt lat="43.42092" lon="-1.45682">
        <ele>4.44912</ele>
        <time>2022-02-21T14:26:17.869Z</time>
      </trkpt>
      <trkpt lat="43.42072" lon="-1.45652">
        <ele>4.503887</ele>
        <time>2022-02-21T14:26:25.053Z</time>
      </trkpt>
      <trkpt lat="43.42026" lon="-1.45572">
        <ele>4.574204</ele>
        <time>2022-02-21T14:26:41.691Z</time>
      </trkpt>
      <trkpt lat="43.42009" lon="-1.45564">
        <ele>4.504613</ele>
        <time>2022-02-21T14:26:45.816Z</time>
      </trkpt>
      <trkpt lat="43.41968" lon="-1.45572">
        <ele>4.352111</ele>
        <time>2022-02-21T14:26:54.796Z</time>
      </trkpt>
      <trkpt lat="43.41801" lon="-1.45703">
        <ele>3.935006</ele>
        <time>2022-02-21T14:27:37.115Z</time>
      </trkpt>
      <trkpt lat="43.41743" lon="-1.45742">
        <ele>3.925184</ele>
        <time>2022-02-21T14:27:52.594Z</time>
      </trkpt>
      <trkpt lat="43.41627" lon="-1.45797">
        <ele>4.286172</ele>
        <time>2022-02-21T14:28:24.776Z</time>
      </trkpt>
      <trkpt lat="43.41594" lon="-1.45818">
        <ele>4.432038</ele>
        <time>2022-02-21T14:28:34.233Z</time>
      </trkpt>
      <trkpt lat="43.41377" lon="-1.46016">
        <ele>4.830244</ele>
        <time>2022-02-21T14:29:35.723Z</time>
      </trkpt>
      <trkpt lat="43.41352" lon="-1.46114">
        <ele>4.800583</ele>
        <time>2022-02-21T14:29:52.827Z</time>
      </trkpt>
      <trkpt lat="43.41348" lon="-1.46167">
        <ele>4.785275</ele>
        <time>2022-02-21T14:30:01.758Z</time>
      </trkpt>
      <trkpt lat="43.41327" lon="-1.46225">
        <ele>4.7683</ele>
        <time>2022-02-21T14:30:12.797Z</time>
      </trkpt>
      <trkpt lat="43.41319" lon="-1.46242">
        <ele>4.765105</ele>
        <time>2022-02-21T14:30:16.265Z</time>
      </trkpt>
      <trkpt lat="43.41313" lon="-1.46266">
        <ele>4.761061</ele>
        <time>2022-02-21T14:30:20.680Z</time>
      </trkpt>
      <trkpt lat="43.4122" lon="-1.46315">
        <ele>4.739324</ele>
        <time>2022-02-21T14:30:43.450Z</time>
      </trkpt>
      <trkpt lat="43.41186" lon="-1.46336">
        <ele>4.731087</ele>
        <time>2022-02-21T14:30:52.135Z</time>
      </trkpt>
      <trkpt lat="43.41173" lon="-1.46344">
        <ele>4.725812</ele>
        <time>2022-02-21T14:30:55.471Z</time>
      </trkpt>
      <trkpt lat="43.41172" lon="-1.46329">
        <ele>4.721578</ele>
        <time>2022-02-21T14:30:58.664Z</time>
      </trkpt>
      <trkpt lat="43.41147" lon="-1.46272">
        <ele>4.702625</ele>
        <time>2022-02-21T14:31:09.415Z</time>
      </trkpt>
      <trkpt lat="43.41086" lon="-1.46244">
        <ele>4.677649</ele>
        <time>2022-02-21T14:31:23.514Z</time>
      </trkpt>
      <trkpt lat="43.4107" lon="-1.46221">
        <ele>4.668469</ele>
        <time>2022-02-21T14:31:28.643Z</time>
      </trkpt>
      <trkpt lat="43.41052" lon="-1.46216">
        <ele>4.661349</ele>
        <time>2022-02-21T14:31:32.555Z</time>
      </trkpt>
      <trkpt lat="43.40927" lon="-1.4613">
        <ele>4.769702</ele>
        <time>2022-02-21T14:32:03.753Z</time>
      </trkpt>
      <trkpt lat="43.40873" lon="-1.46127">
        <ele>4.859437</ele>
        <time>2022-02-21T14:32:16.256Z</time>
      </trkpt>
      <trkpt lat="43.40773" lon="-1.46095">
        <ele>5.350109</ele>
        <time>2022-02-21T14:32:40.848Z</time>
      </trkpt>
      <trkpt lat="43.40692" lon="-1.46079">
        <ele>5.998586</ele>
        <time>2022-02-21T14:33:01.911Z</time>
      </trkpt>
      <trkpt lat="43.40655" lon="-1.46061">
        <ele>6.756702</ele>
        <time>2022-02-21T14:33:13.279Z</time>
      </trkpt>
      <trkpt lat="43.40575" lon="-1.46028">
        <ele>8.406263</ele>
        <time>2022-02-21T14:33:41.030Z</time>
      </trkpt>
      <trkpt lat="43.40567" lon="-1.46024">
        <ele>8.564614</ele>
        <time>2022-02-21T14:33:43.971Z</time>
      </trkpt>
      <trkpt lat="43.40535" lon="-1.46014">
        <ele>9.218069</ele>
        <time>2022-02-21T14:33:56.525Z</time>
      </trkpt>
      <trkpt lat="43.4052" lon="-1.46009">
        <ele>9.597596</ele>
        <time>2022-02-21T14:34:02.749Z</time>
      </trkpt>
      <trkpt lat="43.40514" lon="-1.46008">
        <ele>9.743116</ele>
        <time>2022-02-21T14:34:05.075Z</time>
      </trkpt>
      <trkpt lat="43.40391" lon="-1.45985">
        <ele>12.693134</ele>
        <time>2022-02-21T14:34:49.288Z</time>
      </trkpt>
      <trkpt lat="43.40377" lon="-1.45985">
        <ele>13.030368</ele>
        <time>2022-02-21T14:34:54.150Z</time>
      </trkpt>
      <trkpt lat="43.40332" lon="-1.45989">
        <ele>13.712206</ele>
        <time>2022-02-21T14:35:08.506Z</time>
      </trkpt>
      <trkpt lat="43.40321" lon="-1.45997">
        <ele>13.811389</ele>
        <time>2022-02-21T14:35:12.124Z</time>
      </trkpt>
      <trkpt lat="43.40311" lon="-1.45979">
        <ele>13.949742</ele>
        <time>2022-02-21T14:35:16.983Z</time>
      </trkpt>
      <trkpt lat="43.40269" lon="-1.45937">
        <ele>14.378004</ele>
        <time>2022-02-21T14:35:31.197Z</time>
      </trkpt>
      <trkpt lat="43.40261" lon="-1.45928">
        <ele>14.459633</ele>
        <time>2022-02-21T14:35:33.797Z</time>
      </trkpt>
      <trkpt lat="43.4022" lon="-1.45878">
        <ele>14.914143</ele>
        <time>2022-02-21T14:35:46.592Z</time>
      </trkpt>
      <trkpt lat="43.40199" lon="-1.4584">
        <ele>14.891495</ele>
        <time>2022-02-21T14:35:54.489Z</time>
      </trkpt>
      <trkpt lat="43.40184" lon="-1.45816">
        <ele>14.809821</ele>
        <time>2022-02-21T14:36:00.096Z</time>
      </trkpt>
      <trkpt lat="43.40151" lon="-1.45782">
        <ele>14.668732</ele>
        <time>2022-02-21T14:36:09.576Z</time>
      </trkpt>
      <trkpt lat="43.40106" lon="-1.45741">
        <ele>14.484365</ele>
        <time>2022-02-21T14:36:21.290Z</time>
      </trkpt>
      <trkpt lat="43.40082" lon="-1.45719">
        <ele>14.38508</ele>
        <time>2022-02-21T14:36:27.421Z</time>
      </trkpt>
      <trkpt lat="43.40066" lon="-1.45712">
        <ele>14.294706</ele>
        <time>2022-02-21T14:36:30.857Z</time>
      </trkpt>
      <trkpt lat="43.40037" lon="-1.45699">
        <ele>14.090014</ele>
        <time>2022-02-21T14:36:37.261Z</time>
      </trkpt>
      <trkpt lat="43.40014" lon="-1.45678">
        <ele>13.905442</ele>
        <time>2022-02-21T14:36:43.099Z</time>
      </trkpt>
      <trkpt lat="43.40004" lon="-1.45662">
        <ele>13.803673</ele>
        <time>2022-02-21T14:36:46.222Z</time>
      </trkpt>
      <trkpt lat="43.39943" lon="-1.45591">
        <ele>13.271652</ele>
        <time>2022-02-21T14:37:02.799Z</time>
      </trkpt>
      <trkpt lat="43.39894" lon="-1.45533">
        <ele>13.377215</ele>
        <time>2022-02-21T14:37:16.367Z</time>
      </trkpt>
      <trkpt lat="43.39816" lon="-1.45479">
        <ele>13.762102</ele>
        <time>2022-02-21T14:37:36.992Z</time>
      </trkpt>
      <trkpt lat="43.39735" lon="-1.45431">
        <ele>14.945875</ele>
        <time>2022-02-21T14:38:04.188Z</time>
      </trkpt>
      <trkpt lat="43.39706" lon="-1.4543">
        <ele>15.582803</ele>
        <time>2022-02-21T14:38:13.358Z</time>
      </trkpt>
      <trkpt lat="43.39699" lon="-1.45438">
        <ele>15.787817</ele>
        <time>2022-02-21T14:38:16.510Z</time>
      </trkpt>
      <trkpt lat="43.39688" lon="-1.45468">
        <ele>16.330437</ele>
        <time>2022-02-21T14:38:24.588Z</time>
      </trkpt>
      <trkpt lat="43.39678" lon="-1.45502">
        <ele>16.921354</ele>
        <time>2022-02-21T14:38:33.859Z</time>
      </trkpt>
      <trkpt lat="43.39683" lon="-1.45544">
        <ele>17.607524</ele>
        <time>2022-02-21T14:38:44.873Z</time>
      </trkpt>
      <trkpt lat="43.39682" lon="-1.45559">
        <ele>17.86269</ele>
        <time>2022-02-21T14:38:49.066Z</time>
      </trkpt>
      <trkpt lat="43.39674" lon="-1.45575">
        <ele>18.218792</ele>
        <time>2022-02-21T14:38:53.907Z</time>
      </trkpt>
      <trkpt lat="43.39655" lon="-1.45587">
        <ele>18.852226</ele>
        <time>2022-02-21T14:39:02.269Z</time>
      </trkpt>
      <trkpt lat="43.39635" lon="-1.45582">
        <ele>19.415259</ele>
        <time>2022-02-21T14:39:09.818Z</time>
      </trkpt>
      <trkpt lat="43.39601" lon="-1.45575">
        <ele>20.425932</ele>
        <time>2022-02-21T14:39:22.598Z</time>
      </trkpt>
      <trkpt lat="43.3958" lon="-1.45578">
        <ele>21.039205</ele>
        <time>2022-02-21T14:39:29.862Z</time>
      </trkpt>
      <trkpt lat="43.39509" lon="-1.4561">
        <ele>23.222605</ele>
        <time>2022-02-21T14:39:56.065Z</time>
      </trkpt>
      <trkpt lat="43.39498" lon="-1.45624">
        <ele>23.832596</ele>
        <time>2022-02-21T14:40:01.773Z</time>
      </trkpt>
      <trkpt lat="43.39466" lon="-1.45691">
        <ele>26.236581</ele>
        <time>2022-02-21T14:40:26.625Z</time>
      </trkpt>
      <trkpt lat="43.39449" lon="-1.45726">
        <ele>27.495846</ele>
        <time>2022-02-21T14:40:41.952Z</time>
      </trkpt>
      <trkpt lat="43.39431" lon="-1.45784">
        <ele>29.380525</ele>
        <time>2022-02-21T14:41:03.298Z</time>
      </trkpt>
      <trkpt lat="43.39425" lon="-1.45802">
        <ele>29.989555</ele>
        <time>2022-02-21T14:41:09.874Z</time>
      </trkpt>
      <trkpt lat="43.39417" lon="-1.45828">
        <ele>30.70084</ele>
        <time>2022-02-21T14:41:17.804Z</time>
      </trkpt>
      <trkpt lat="43.39409" lon="-1.45882">
        <ele>31.484186</ele>
        <time>2022-02-21T14:41:32.832Z</time>
      </trkpt>
      <trkpt lat="43.39413" lon="-1.45914">
        <ele>31.9497</ele>
        <time>2022-02-21T14:41:42.700Z</time>
      </trkpt>
      <trkpt lat="43.39424" lon="-1.45935">
        <ele>32.329091</ele>
        <time>2022-02-21T14:41:47.970Z</time>
      </trkpt>
      <trkpt lat="43.39427" lon="-1.45938">
        <ele>32.40414</ele>
        <time>2022-02-21T14:41:49.567Z</time>
      </trkpt>
      <trkpt lat="43.39437" lon="-1.45946">
        <ele>32.63243</ele>
        <time>2022-02-21T14:41:54.368Z</time>
      </trkpt>
      <trkpt lat="43.39448" lon="-1.45936">
        <ele>32.87957</ele>
        <time>2022-02-21T14:41:57.267Z</time>
      </trkpt>
      <trkpt lat="43.39448" lon="-1.45921">
        <ele>33.091823</ele>
        <time>2022-02-21T14:42:00.573Z</time>
      </trkpt>
      <trkpt lat="43.39423" lon="-1.45885">
        <ele>33.798146</ele>
        <time>2022-02-21T14:42:10.748Z</time>
      </trkpt>
      <trkpt lat="43.394" lon="-1.45848">
        <ele>33.997314</ele>
        <time>2022-02-21T14:42:18.522Z</time>
      </trkpt>
      <trkpt lat="43.39337" lon="-1.45748">
        <ele>33.250216</ele>
        <time>2022-02-21T14:42:36.145Z</time>
      </trkpt>
      <trkpt lat="43.39289" lon="-1.45677">
        <ele>32.732015</ele>
        <time>2022-02-21T14:42:50.999Z</time>
      </trkpt>
      <trkpt lat="43.39252" lon="-1.45625">
        <ele>32.629242</ele>
        <time>2022-02-21T14:43:05.855Z</time>
      </trkpt>
      <trkpt lat="43.3924" lon="-1.45608">
        <ele>32.596562</ele>
        <time>2022-02-21T14:43:10.198Z</time>
      </trkpt>
      <trkpt lat="43.39207" lon="-1.45573">
        <ele>32.515953</ele>
        <time>2022-02-21T14:43:19.844Z</time>
      </trkpt>
      <trkpt lat="43.39154" lon="-1.45518">
        <ele>32.290277</ele>
        <time>2022-02-21T14:43:33.737Z</time>
      </trkpt>
      <trkpt lat="43.39141" lon="-1.45497">
        <ele>31.579117</ele>
        <time>2022-02-21T14:43:37.765Z</time>
      </trkpt>
      <trkpt lat="43.39057" lon="-1.45297">
        <ele>25.784372</ele>
        <time>2022-02-21T14:44:05.502Z</time>
      </trkpt>
      <trkpt lat="43.39042" lon="-1.45274">
        <ele>24.96433</ele>
        <time>2022-02-21T14:44:08.881Z</time>
      </trkpt>
      <trkpt lat="43.39013" lon="-1.45241">
        <ele>23.579358</ele>
        <time>2022-02-21T14:44:14.754Z</time>
      </trkpt>
      <trkpt lat="43.39004" lon="-1.45248">
        <ele>23.198159</ele>
        <time>2022-02-21T14:44:16.441Z</time>
      </trkpt>
      <trkpt lat="43.38994" lon="-1.45243">
        <ele>22.818324</ele>
        <time>2022-02-21T14:44:18.135Z</time>
      </trkpt>
      <trkpt lat="43.3899" lon="-1.45231">
        <ele>22.44532</ele>
        <time>2022-02-21T14:44:19.718Z</time>
      </trkpt>
      <trkpt lat="43.38994" lon="-1.45218">
        <ele>22.070304</ele>
        <time>2022-02-21T14:44:21.357Z</time>
      </trkpt>
      <trkpt lat="43.38946" lon="-1.45174">
        <ele>19.923181</ele>
        <time>2022-02-21T14:44:31.258Z</time>
      </trkpt>
      <trkpt lat="43.38819" lon="-1.45118">
        <ele>20.306334</ele>
        <time>2022-02-21T14:45:02.297Z</time>
      </trkpt>
      <trkpt lat="43.38757" lon="-1.45066">
        <ele>20.774639</ele>
        <time>2022-02-21T14:45:27.579Z</time>
      </trkpt>
      <trkpt lat="43.38739" lon="-1.45049">
        <ele>20.950971</ele>
        <time>2022-02-21T14:45:35.363Z</time>
      </trkpt>
      <trkpt lat="43.38677" lon="-1.44981">
        <ele>21.585397</ele>
        <time>2022-02-21T14:46:00.517Z</time>
      </trkpt>
      <trkpt lat="43.38609" lon="-1.44885">
        <ele>20.947666</ele>
        <time>2022-02-21T14:46:19.858Z</time>
      </trkpt>
      <trkpt lat="43.38555" lon="-1.44781">
        <ele>17.911369</ele>
        <time>2022-02-21T14:46:35.101Z</time>
      </trkpt>
      <trkpt lat="43.38482" lon="-1.44617">
        <ele>13.945803</ele>
        <time>2022-02-21T14:46:58.118Z</time>
      </trkpt>
      <trkpt lat="43.38479" lon="-1.4461">
        <ele>13.783775</ele>
        <time>2022-02-21T14:46:59.279Z</time>
      </trkpt>
      <trkpt lat="43.3847" lon="-1.44589">
        <ele>13.334447</ele>
        <time>2022-02-21T14:47:02.315Z</time>
      </trkpt>
      <trkpt lat="43.38443" lon="-1.44558">
        <ele>12.437073</ele>
        <time>2022-02-21T14:47:08.818Z</time>
      </trkpt>
      <trkpt lat="43.38434" lon="-1.44559">
        <ele>12.191099</ele>
        <time>2022-02-21T14:47:10.724Z</time>
      </trkpt>
      <trkpt lat="43.38418" lon="-1.44544">
        <ele>11.69298</ele>
        <time>2022-02-21T14:47:14.706Z</time>
      </trkpt>
      <trkpt lat="43.38414" lon="-1.4453">
        <ele>11.56643</ele>
        <time>2022-02-21T14:47:16.771Z</time>
      </trkpt>
      <trkpt lat="43.38399" lon="-1.44526">
        <ele>11.611818</ele>
        <time>2022-02-21T14:47:21.506Z</time>
      </trkpt>
      <trkpt lat="43.38391" lon="-1.44523">
        <ele>11.636725</ele>
        <time>2022-02-21T14:47:23.828Z</time>
      </trkpt>
      <trkpt lat="43.38382" lon="-1.44506">
        <ele>11.682148</ele>
        <time>2022-02-21T14:47:28.031Z</time>
      </trkpt>
      <trkpt lat="43.38387" lon="-1.4446">
        <ele>11.784417</ele>
        <time>2022-02-21T14:47:38.864Z</time>
      </trkpt>
      <trkpt lat="43.38382" lon="-1.44429">
        <ele>11.852518</ele>
        <time>2022-02-21T14:47:46.951Z</time>
      </trkpt>
      <trkpt lat="43.38348" lon="-1.44355">
        <ele>12.042499</ele>
        <time>2022-02-21T14:48:07.926Z</time>
      </trkpt>
      <trkpt lat="43.38347" lon="-1.44318">
        <ele>12.159691</ele>
        <time>2022-02-21T14:48:15.862Z</time>
      </trkpt>
      <trkpt lat="43.38129" lon="-1.43832">
        <ele>14.859417</ele>
        <time>2022-02-21T14:50:01.739Z</time>
      </trkpt>
      <trkpt lat="43.38093" lon="-1.43752">
        <ele>15.360671</ele>
        <time>2022-02-21T14:50:20.943Z</time>
      </trkpt>
      <trkpt lat="43.38056" lon="-1.43668">
        <ele>15.58249</ele>
        <time>2022-02-21T14:50:38.204Z</time>
      </trkpt>
      <trkpt lat="43.38003" lon="-1.43575">
        <ele>15.247424</ele>
        <time>2022-02-21T14:50:57.000Z</time>
      </trkpt>
      <trkpt lat="43.37972" lon="-1.43542">
        <ele>15.093801</ele>
        <time>2022-02-21T14:51:04.860Z</time>
      </trkpt>
      <trkpt lat="43.37965" lon="-1.43534">
        <ele>15.05901</ele>
        <time>2022-02-21T14:51:06.613Z</time>
      </trkpt>
      <trkpt lat="43.37918" lon="-1.43498">
        <ele>14.623638</ele>
        <time>2022-02-21T14:51:16.922Z</time>
      </trkpt>
      <trkpt lat="43.37768" lon="-1.43413">
        <ele>13.089632</ele>
        <time>2022-02-21T14:51:49.188Z</time>
      </trkpt>
      <trkpt lat="43.37727" lon="-1.43391">
        <ele>12.999384</ele>
        <time>2022-02-21T14:51:58.153Z</time>
      </trkpt>
      <trkpt lat="43.37656" lon="-1.43354">
        <ele>12.842836</ele>
        <time>2022-02-21T14:52:14.559Z</time>
      </trkpt>
      <trkpt lat="43.37603" lon="-1.43338">
        <ele>12.883806</ele>
        <time>2022-02-21T14:52:27.417Z</time>
      </trkpt>
      <trkpt lat="43.37355" lon="-1.43253">
        <ele>16.192652</ele>
        <time>2022-02-21T14:53:41.076Z</time>
      </trkpt>
      <trkpt lat="43.37273" lon="-1.43211">
        <ele>17.610088</ele>
        <time>2022-02-21T14:54:09.450Z</time>
      </trkpt>
      <trkpt lat="43.3721" lon="-1.43173">
        <ele>18.454047</ele>
        <time>2022-02-21T14:54:30.020Z</time>
      </trkpt>
      <trkpt lat="43.37196" lon="-1.43174">
        <ele>18.622383</ele>
        <time>2022-02-21T14:54:34.513Z</time>
      </trkpt>
      <trkpt lat="43.37186" lon="-1.43162">
        <ele>18.788692</ele>
        <time>2022-02-21T14:54:38.477Z</time>
      </trkpt>
      <trkpt lat="43.37185" lon="-1.43143">
        <ele>18.95642</ele>
        <time>2022-02-21T14:54:42.249Z</time>
      </trkpt>
      <trkpt lat="43.37172" lon="-1.43108">
        <ele>19.29205</ele>
        <time>2022-02-21T14:54:50.269Z</time>
      </trkpt>
      <trkpt lat="43.37079" lon="-1.42987">
        <ele>20.368665</ele>
        <time>2022-02-21T14:55:21.114Z</time>
      </trkpt>
      <trkpt lat="43.37053" lon="-1.42954">
        <ele>20.597408</ele>
        <time>2022-02-21T14:55:30.057Z</time>
      </trkpt>
      <trkpt lat="43.37029" lon="-1.42911">
        <ele>20.850155</ele>
        <time>2022-02-21T14:55:40.268Z</time>
      </trkpt>
      <trkpt lat="43.36994" lon="-1.42827">
        <ele>21.966868</ele>
        <time>2022-02-21T14:55:59.232Z</time>
      </trkpt>
      <trkpt lat="43.36968" lon="-1.42772">
        <ele>22.94871</ele>
        <time>2022-02-21T14:56:14.224Z</time>
      </trkpt>
      <trkpt lat="43.36926" lon="-1.42711">
        <ele>24.213526</ele>
        <time>2022-02-21T14:56:36.278Z</time>
      </trkpt>
      <trkpt lat="43.36881" lon="-1.42677">
        <ele>25.610161</ele>
        <time>2022-02-21T14:56:55.717Z</time>
      </trkpt>
      <trkpt lat="43.36833" lon="-1.42647">
        <ele>27.353659</ele>
        <time>2022-02-21T14:57:15.898Z</time>
      </trkpt>
      <trkpt lat="43.36808" lon="-1.42627">
        <ele>28.327668</ele>
        <time>2022-02-21T14:57:27.564Z</time>
      </trkpt>
      <trkpt lat="43.36706" lon="-1.42523">
        <ele>32.39529</ele>
        <time>2022-02-21T14:58:17.685Z</time>
      </trkpt>
      <trkpt lat="43.36663" lon="-1.42483">
        <ele>33.948687</ele>
        <time>2022-02-21T14:58:37.024Z</time>
      </trkpt>
      <trkpt lat="43.36655" lon="-1.42475">
        <ele>34.243917</ele>
        <time>2022-02-21T14:58:40.359Z</time>
      </trkpt>
      <trkpt lat="43.36584" lon="-1.42404">
        <ele>36.536203</ele>
        <time>2022-02-21T14:59:12.230Z</time>
      </trkpt>
      <trkpt lat="43.36545" lon="-1.42357">
        <ele>37.354739</ele>
        <time>2022-02-21T14:59:30.379Z</time>
      </trkpt>
      <trkpt lat="43.36521" lon="-1.42316">
        <ele>37.955267</ele>
        <time>2022-02-21T14:59:42.089Z</time>
      </trkpt>
      <trkpt lat="43.36504" lon="-1.42275">
        <ele>38.493835</ele>
        <time>2022-02-21T14:59:51.268Z</time>
      </trkpt>
      <trkpt lat="43.36484" lon="-1.42192">
        <ele>38.760927</ele>
        <time>2022-02-21T15:00:05.576Z</time>
      </trkpt>
      <trkpt lat="43.36465" lon="-1.42106">
        <ele>38.395004</ele>
        <time>2022-02-21T15:00:18.452Z</time>
      </trkpt>
      <trkpt lat="43.36446" lon="-1.42052">
        <ele>38.149038</ele>
        <time>2022-02-21T15:00:27.234Z</time>
      </trkpt>
      <trkpt lat="43.36415" lon="-1.41997">
        <ele>38.074521</ele>
        <time>2022-02-21T15:00:37.378Z</time>
      </trkpt>
      <trkpt lat="43.36385" lon="-1.41957">
        <ele>38.496873</ele>
        <time>2022-02-21T15:00:46.438Z</time>
      </trkpt>
      <trkpt lat="43.36353" lon="-1.41928">
        <ele>38.878859</ele>
        <time>2022-02-21T15:00:56.484Z</time>
      </trkpt>
      <trkpt lat="43.36301" lon="-1.41894">
        <ele>39.456274</ele>
        <time>2022-02-21T15:01:13.564Z</time>
      </trkpt>
      <trkpt lat="43.36092" lon="-1.4182">
        <ele>44.917571</ele>
        <time>2022-02-21T15:02:32.220Z</time>
      </trkpt>
      <trkpt lat="43.35952" lon="-1.4177">
        <ele>49.062254</ele>
        <time>2022-02-21T15:03:25.587Z</time>
      </trkpt>
      <trkpt lat="43.35843" lon="-1.41737">
        <ele>52.041918</ele>
        <time>2022-02-21T15:04:05.962Z</time>
      </trkpt>
      <trkpt lat="43.35743" lon="-1.41727">
        <ele>54.589885</ele>
        <time>2022-02-21T15:04:40.935Z</time>
      </trkpt>
      <trkpt lat="43.35689" lon="-1.4173">
        <ele>55.150773</ele>
        <time>2022-02-21T15:04:58.854Z</time>
      </trkpt>
      <trkpt lat="43.35601" lon="-1.41754">
        <ele>56.08338</ele>
        <time>2022-02-21T15:05:22.508Z</time>
      </trkpt>
      <trkpt lat="43.35546" lon="-1.41784">
        <ele>56.296491</ele>
        <time>2022-02-21T15:05:35.122Z</time>
      </trkpt>
      <trkpt lat="43.35516" lon="-1.41799">
        <ele>56.162866</ele>
        <time>2022-02-21T15:05:41.456Z</time>
      </trkpt>
      <trkpt lat="43.35449" lon="-1.41825">
        <ele>55.863927</ele>
        <time>2022-02-21T15:05:55.648Z</time>
      </trkpt>
      <trkpt lat="43.35401" lon="-1.41831">
        <ele>55.661928</ele>
        <time>2022-02-21T15:06:05.586Z</time>
      </trkpt>
      <trkpt lat="43.35359" lon="-1.41825">
        <ele>56.308071</ele>
        <time>2022-02-21T15:06:15.478Z</time>
      </trkpt>
      <trkpt lat="43.35307" lon="-1.418">
        <ele>57.239422</ele>
        <time>2022-02-21T15:06:32.201Z</time>
      </trkpt>
      <trkpt lat="43.35244" lon="-1.41742">
        <ele>58.498984</ele>
        <time>2022-02-21T15:06:58.554Z</time>
      </trkpt>
      <trkpt lat="43.35193" lon="-1.41685">
        <ele>60.535409</ele>
        <time>2022-02-21T15:07:23.950Z</time>
      </trkpt>
      <trkpt lat="43.35137" lon="-1.41618">
        <ele>63.000347</ele>
        <time>2022-02-21T15:07:52.115Z</time>
      </trkpt>
      <trkpt lat="43.35087" lon="-1.41549">
        <ele>65.654018</ele>
        <time>2022-02-21T15:08:21.376Z</time>
      </trkpt>
      <trkpt lat="43.35057" lon="-1.41495">
        <ele>67.899234</ele>
        <time>2022-02-21T15:08:42.079Z</time>
      </trkpt>
      <trkpt lat="43.34937" lon="-1.41162">
        <ele>81.00353</ele>
        <time>2022-02-21T15:10:50.301Z</time>
      </trkpt>
      <trkpt lat="43.34912" lon="-1.41068">
        <ele>84.430722</ele>
        <time>2022-02-21T15:11:24.947Z</time>
      </trkpt>
      <trkpt lat="43.34891" lon="-1.40963">
        <ele>88.055112</ele>
        <time>2022-02-21T15:12:01.508Z</time>
      </trkpt>
      <trkpt lat="43.34859" lon="-1.40725">
        <ele>93.957634</ele>
        <time>2022-02-21T15:13:13.713Z</time>
      </trkpt>
      <trkpt lat="43.3484" lon="-1.40651">
        <ele>95.335531</ele>
        <time>2022-02-21T15:13:30.692Z</time>
      </trkpt>
      <trkpt lat="43.3482" lon="-1.40598">
        <ele>94.766454</ele>
        <time>2022-02-21T15:13:40.858Z</time>
      </trkpt>
      <trkpt lat="43.34788" lon="-1.40541">
        <ele>94.090873</ele>
        <time>2022-02-21T15:13:51.147Z</time>
      </trkpt>
      <trkpt lat="43.34677" lon="-1.40394">
        <ele>91.008041</ele>
        <time>2022-02-21T15:14:17.660Z</time>
      </trkpt>
      <trkpt lat="43.34601" lon="-1.40293">
        <ele>88.193003</ele>
        <time>2022-02-21T15:14:36.244Z</time>
      </trkpt>
      <trkpt lat="43.34545" lon="-1.40248">
        <ele>87.6308</ele>
        <time>2022-02-21T15:14:48.532Z</time>
      </trkpt>
      <trkpt lat="43.34486" lon="-1.40226">
        <ele>87.099479</ele>
        <time>2022-02-21T15:15:01.183Z</time>
      </trkpt>
      <trkpt lat="43.34473" lon="-1.40239">
        <ele>86.955479</ele>
        <time>2022-02-21T15:15:04.750Z</time>
      </trkpt>
      <trkpt lat="43.34461" lon="-1.40233">
        <ele>86.845072</ele>
        <time>2022-02-21T15:15:07.780Z</time>
      </trkpt>
      <trkpt lat="43.34456" lon="-1.40217">
        <ele>86.734582</ele>
        <time>2022-02-21T15:15:10.948Z</time>
      </trkpt>
      <trkpt lat="43.34402" lon="-1.40221">
        <ele>86.50727</ele>
        <time>2022-02-21T15:15:24.151Z</time>
      </trkpt>
      <trkpt lat="43.34258" lon="-1.40249">
        <ele>85.858201</ele>
        <time>2022-02-21T15:15:55.213Z</time>
      </trkpt>
      <trkpt lat="43.34231" lon="-1.40246">
        <ele>85.281498</ele>
        <time>2022-02-21T15:16:00.224Z</time>
      </trkpt>
      <trkpt lat="43.34194" lon="-1.40231">
        <ele>84.476549</ele>
        <time>2022-02-21T15:16:07.012Z</time>
      </trkpt>
      <trkpt lat="43.34144" lon="-1.40204">
        <ele>83.330546</ele>
        <time>2022-02-21T15:16:16.584Z</time>
      </trkpt>
      <trkpt lat="43.34141" lon="-1.40203">
        <ele>83.269574</ele>
        <time>2022-02-21T15:16:17.101Z</time>
      </trkpt>
      <trkpt lat="43.3411" lon="-1.40188">
        <ele>82.568645</ele>
        <time>2022-02-21T15:16:22.981Z</time>
      </trkpt>
      <trkpt lat="43.34069" lon="-1.40182">
        <ele>81.911477</ele>
        <time>2022-02-21T15:16:30.273Z</time>
      </trkpt>
      <trkpt lat="43.3403" lon="-1.40185">
        <ele>81.38601</ele>
        <time>2022-02-21T15:16:37.385Z</time>
      </trkpt>
      <trkpt lat="43.33995" lon="-1.40196">
        <ele>80.902432</ele>
        <time>2022-02-21T15:16:44.173Z</time>
      </trkpt>
      <trkpt lat="43.33936" lon="-1.40227">
        <ele>80.057426</ele>
        <time>2022-02-21T15:16:56.980Z</time>
      </trkpt>
      <trkpt lat="43.33874" lon="-1.40271">
        <ele>80.036063</ele>
        <time>2022-02-21T15:17:14.037Z</time>
      </trkpt>
      <trkpt lat="43.33819" lon="-1.40314">
        <ele>80.228757</ele>
        <time>2022-02-21T15:17:30.110Z</time>
      </trkpt>
      <trkpt lat="43.33783" lon="-1.40332">
        <ele>80.344728</ele>
        <time>2022-02-21T15:17:39.815Z</time>
      </trkpt>
      <trkpt lat="43.33697" lon="-1.40361">
        <ele>79.827922</ele>
        <time>2022-02-21T15:17:58.985Z</time>
      </trkpt>
      <trkpt lat="43.33671" lon="-1.40364">
        <ele>79.592132</ele>
        <time>2022-02-21T15:18:04.232Z</time>
      </trkpt>
      <trkpt lat="43.33661" lon="-1.40363">
        <ele>79.498737</ele>
        <time>2022-02-21T15:18:06.217Z</time>
      </trkpt>
      <trkpt lat="43.33653" lon="-1.40378">
        <ele>79.375235</ele>
        <time>2022-02-21T15:18:08.879Z</time>
      </trkpt>
      <trkpt lat="43.33639" lon="-1.40377">
        <ele>79.252048</ele>
        <time>2022-02-21T15:18:11.535Z</time>
      </trkpt>
      <trkpt lat="43.33636" lon="-1.40373">
        <ele>79.209343</ele>
        <time>2022-02-21T15:18:12.420Z</time>
      </trkpt>
      <trkpt lat="43.33633" lon="-1.40354">
        <ele>79.085932</ele>
        <time>2022-02-21T15:18:14.996Z</time>
      </trkpt>
      <trkpt lat="43.3353" lon="-1.40308">
        <ele>77.044297</ele>
        <time>2022-02-21T15:18:35.187Z</time>
      </trkpt>
      <trkpt lat="43.33445" lon="-1.40246">
        <ele>74.81703</ele>
        <time>2022-02-21T15:18:52.095Z</time>
      </trkpt>
      <trkpt lat="43.33429" lon="-1.40234">
        <ele>74.184657</ele>
        <time>2022-02-21T15:18:55.323Z</time>
      </trkpt>
      <trkpt lat="43.33397" lon="-1.40208">
        <ele>72.534558</ele>
        <time>2022-02-21T15:19:01.641Z</time>
      </trkpt>
      <trkpt lat="43.33322" lon="-1.40138">
        <ele>68.444749</ele>
        <time>2022-02-21T15:19:16.393Z</time>
      </trkpt>
      <trkpt lat="43.33277" lon="-1.40083">
        <ele>65.47181</ele>
        <time>2022-02-21T15:19:25.622Z</time>
      </trkpt>
      <trkpt lat="43.33228" lon="-1.40004">
        <ele>60.862267</ele>
        <time>2022-02-21T15:19:36.972Z</time>
      </trkpt>
      <trkpt lat="43.33222" lon="-1.39993">
        <ele>60.238138</ele>
        <time>2022-02-21T15:19:38.497Z</time>
      </trkpt>
      <trkpt lat="43.33179" lon="-1.39904">
        <ele>55.498476</ele>
        <time>2022-02-21T15:19:50.326Z</time>
      </trkpt>
      <trkpt lat="43.33127" lon="-1.39768">
        <ele>51.22422</ele>
        <time>2022-02-21T15:20:08.880Z</time>
      </trkpt>
      <trkpt lat="43.33121" lon="-1.39751">
        <ele>50.684146</ele>
        <time>2022-02-21T15:20:11.342Z</time>
      </trkpt>
      <trkpt lat="43.33095" lon="-1.39674">
        <ele>48.405487</ele>
        <time>2022-02-21T15:20:21.997Z</time>
      </trkpt>
      <trkpt lat="43.33086" lon="-1.39645">
        <ele>47.713321</ele>
        <time>2022-02-21T15:20:25.975Z</time>
      </trkpt>
      <trkpt lat="43.32962" lon="-1.39239">
        <ele>38.785513</ele>
        <time>2022-02-21T15:21:21.076Z</time>
      </trkpt>
      <trkpt lat="43.32921" lon="-1.39106">
        <ele>41.044112</ele>
        <time>2022-02-21T15:21:48.455Z</time>
      </trkpt>
      <trkpt lat="43.3289" lon="-1.39007">
        <ele>43.016931</ele>
        <time>2022-02-21T15:22:25.156Z</time>
      </trkpt>
      <trkpt lat="43.32877" lon="-1.38963">
        <ele>45.053693</ele>
        <time>2022-02-21T15:22:44.476Z</time>
      </trkpt>
      <trkpt lat="43.32818" lon="-1.38778">
        <ele>54.377102</ele>
        <time>2022-02-21T15:24:05.614Z</time>
      </trkpt>
      <trkpt lat="43.32777" lon="-1.38689">
        <ele>58.136318</ele>
        <time>2022-02-21T15:24:46.316Z</time>
      </trkpt>
      <trkpt lat="43.32756" lon="-1.38653">
        <ele>59.747219</ele>
        <time>2022-02-21T15:25:01.511Z</time>
      </trkpt>
      <trkpt lat="43.3266" lon="-1.38509">
        <ele>65.798081</ele>
        <time>2022-02-21T15:25:57.069Z</time>
      </trkpt>
      <trkpt lat="43.32532" lon="-1.38271">
        <ele>73.832121</ele>
        <time>2022-02-21T15:27:26.836Z</time>
      </trkpt>
      <trkpt lat="43.32506" lon="-1.38201">
        <ele>75.993629</ele>
        <time>2022-02-21T15:27:51.025Z</time>
      </trkpt>
      <trkpt lat="43.3245" lon="-1.38051">
        <ele>79.808735</ele>
        <time>2022-02-21T15:28:38.339Z</time>
      </trkpt>
      <trkpt lat="43.32385" lon="-1.37806">
        <ele>85.409386</ele>
        <time>2022-02-21T15:29:43.768Z</time>
      </trkpt>
      <trkpt lat="43.32346" lon="-1.37682">
        <ele>89.058887</ele>
        <time>2022-02-21T15:30:22.480Z</time>
      </trkpt>
      <trkpt lat="43.32281" lon="-1.37578">
        <ele>94.327119</ele>
        <time>2022-02-21T15:31:12.370Z</time>
      </trkpt>
      <trkpt lat="43.32231" lon="-1.37463">
        <ele>100.772068</ele>
        <time>2022-02-21T15:32:04.334Z</time>
      </trkpt>
      <trkpt lat="43.32169" lon="-1.37301">
        <ele>111.230549</ele>
        <time>2022-02-21T15:33:30.231Z</time>
      </trkpt>
      <trkpt lat="43.32106" lon="-1.37188">
        <ele>120.535672</ele>
        <time>2022-02-21T15:34:40.359Z</time>
      </trkpt>
      <trkpt lat="43.32083" lon="-1.37131">
        <ele>124.760184</ele>
        <time>2022-02-21T15:35:14.055Z</time>
      </trkpt>
      <trkpt lat="43.3208" lon="-1.37123">
        <ele>125.326365</ele>
        <time>2022-02-21T15:35:18.674Z</time>
      </trkpt>
      <trkpt lat="43.32042" lon="-1.3701">
        <ele>131.601733</ele>
        <time>2022-02-21T15:36:15.864Z</time>
      </trkpt>
      <trkpt lat="43.3203" lon="-1.36978">
        <ele>133.246049</ele>
        <time>2022-02-21T15:36:29.900Z</time>
      </trkpt>
      <trkpt lat="43.31994" lon="-1.36817">
        <ele>140.037939</ele>
        <time>2022-02-21T15:37:24.750Z</time>
      </trkpt>
      <trkpt lat="43.31989" lon="-1.36746">
        <ele>142.051574</ele>
        <time>2022-02-21T15:37:47.712Z</time>
      </trkpt>
      <trkpt lat="43.31994" lon="-1.36659">
        <ele>144.517798</ele>
        <time>2022-02-21T15:38:13.073Z</time>
      </trkpt>
      <trkpt lat="43.31979" lon="-1.3665">
        <ele>145.147311</ele>
        <time>2022-02-21T15:38:19.561Z</time>
      </trkpt>
      <trkpt lat="43.31957" lon="-1.36592">
        <ele>147.006067</ele>
        <time>2022-02-21T15:38:37.598Z</time>
      </trkpt>
      <trkpt lat="43.31946" lon="-1.36516">
        <ele>149.212056</ele>
        <time>2022-02-21T15:38:57.145Z</time>
      </trkpt>
      <trkpt lat="43.31908" lon="-1.36387">
        <ele>154.623441</ele>
        <time>2022-02-21T15:39:44.124Z</time>
      </trkpt>
      <trkpt lat="43.31906" lon="-1.36383">
        <ele>155.056221</ele>
        <time>2022-02-21T15:39:46.239Z</time>
      </trkpt>
      <trkpt lat="43.31893" lon="-1.36381">
        <ele>156.519458</ele>
        <time>2022-02-21T15:39:54.747Z</time>
      </trkpt>
      <trkpt lat="43.31875" lon="-1.36361">
        <ele>159.220983</ele>
        <time>2022-02-21T15:40:09.613Z</time>
      </trkpt>
      <trkpt lat="43.31853" lon="-1.36379">
        <ele>162.238167</ele>
        <time>2022-02-21T15:40:29.935Z</time>
      </trkpt>
      <trkpt lat="43.3185" lon="-1.36432">
        <ele>166.687874</ele>
        <time>2022-02-21T15:41:04.739Z</time>
      </trkpt>
      <trkpt lat="43.3183" lon="-1.36471">
        <ele>170.720398</ele>
        <time>2022-02-21T15:41:39.541Z</time>
      </trkpt>
      <trkpt lat="43.31817" lon="-1.36478">
        <ele>172.416518</ele>
        <time>2022-02-21T15:41:56.094Z</time>
      </trkpt>
      <trkpt lat="43.31745" lon="-1.36525">
        <ele>183.376085</ele>
        <time>2022-02-21T15:43:19.275Z</time>
      </trkpt>
      <trkpt lat="43.31711" lon="-1.3651">
        <ele>188.394661</ele>
        <time>2022-02-21T15:43:54.354Z</time>
      </trkpt>
      <trkpt lat="43.31691" lon="-1.36494">
        <ele>191.517843</ele>
        <time>2022-02-21T15:44:15.590Z</time>
      </trkpt>
      <trkpt lat="43.31631" lon="-1.36408">
        <ele>200.233085</ele>
        <time>2022-02-21T15:45:25.332Z</time>
      </trkpt>
      <trkpt lat="43.31623" lon="-1.36403">
        <ele>200.622315</ele>
        <time>2022-02-21T15:45:30.429Z</time>
      </trkpt>
      <trkpt lat="43.31568" lon="-1.36408">
        <ele>203.023907</ele>
        <time>2022-02-21T15:45:56.250Z</time>
      </trkpt>
      <trkpt lat="43.31522" lon="-1.36376">
        <ele>205.298017</ele>
        <time>2022-02-21T15:46:13.287Z</time>
      </trkpt>
      <trkpt lat="43.31503" lon="-1.36369">
        <ele>206.199584</ele>
        <time>2022-02-21T15:46:19.028Z</time>
      </trkpt>
      <trkpt lat="43.31494" lon="-1.36392">
        <ele>205.658258</ele>
        <time>2022-02-21T15:46:22.859Z</time>
      </trkpt>
      <trkpt lat="43.3149" lon="-1.36399">
        <ele>205.110915</ele>
        <time>2022-02-21T15:46:24.529Z</time>
      </trkpt>
      <trkpt lat="43.31454" lon="-1.36461">
        <ele>200.28815</ele>
        <time>2022-02-21T15:46:36.969Z</time>
      </trkpt>
      <trkpt lat="43.3141" lon="-1.36476">
        <ele>196.496916</ele>
        <time>2022-02-21T15:46:46.075Z</time>
      </trkpt>
      <trkpt lat="43.3137" lon="-1.36473">
        <ele>193.105394</ele>
        <time>2022-02-21T15:46:53.774Z</time>
      </trkpt>
      <trkpt lat="43.31298" lon="-1.36451">
        <ele>181.227636</ele>
        <time>2022-02-21T15:47:11.120Z</time>
      </trkpt>
      <trkpt lat="43.31253" lon="-1.36449">
        <ele>172.527494</ele>
        <time>2022-02-21T15:47:21.704Z</time>
      </trkpt>
      <trkpt lat="43.31204" lon="-1.36427">
        <ele>162.737766</ele>
        <time>2022-02-21T15:47:33.618Z</time>
      </trkpt>
      <trkpt lat="43.31123" lon="-1.36376">
        <ele>146.626147</ele>
        <time>2022-02-21T15:47:54.532Z</time>
      </trkpt>
      <trkpt lat="43.31066" lon="-1.36304">
        <ele>133.093948</ele>
        <time>2022-02-21T15:48:12.652Z</time>
      </trkpt>
      <trkpt lat="43.31051" lon="-1.36274">
        <ele>128.423778</ele>
        <time>2022-02-21T15:48:19.089Z</time>
      </trkpt>
      <trkpt lat="43.31035" lon="-1.36262">
        <ele>125.365995</ele>
        <time>2022-02-21T15:48:23.552Z</time>
      </trkpt>
      <trkpt lat="43.31029" lon="-1.36271">
        <ele>124.279266</ele>
        <time>2022-02-21T15:48:25.711Z</time>
      </trkpt>
      <trkpt lat="43.31028" lon="-1.36296">
        <ele>121.969159</ele>
        <time>2022-02-21T15:48:30.211Z</time>
      </trkpt>
      <trkpt lat="43.31027" lon="-1.3639">
        <ele>113.360852</ele>
        <time>2022-02-21T15:48:43.140Z</time>
      </trkpt>
      <trkpt lat="43.31032" lon="-1.36428">
        <ele>109.773636</ele>
        <time>2022-02-21T15:48:48.615Z</time>
      </trkpt>
      <trkpt lat="43.31047" lon="-1.36488">
        <ele>103.97245</ele>
        <time>2022-02-21T15:48:57.227Z</time>
      </trkpt>
      <trkpt lat="43.31043" lon="-1.36501">
        <ele>102.671758</ele>
        <time>2022-02-21T15:48:59.313Z</time>
      </trkpt>
      <trkpt lat="43.31018" lon="-1.36499">
        <ele>100.016794</ele>
        <time>2022-02-21T15:49:03.981Z</time>
      </trkpt>
      <trkpt lat="43.31" lon="-1.36475">
        <ele>97.367253</ele>
        <time>2022-02-21T15:49:08.664Z</time>
      </trkpt>
      <trkpt lat="43.30979" lon="-1.36439">
        <ele>93.697132</ele>
        <time>2022-02-21T15:49:15.216Z</time>
      </trkpt>
      <trkpt lat="43.3097" lon="-1.36413">
        <ele>91.475592</ele>
        <time>2022-02-21T15:49:19.249Z</time>
      </trkpt>
      <trkpt lat="43.30956" lon="-1.36395">
        <ele>89.391968</ele>
        <time>2022-02-21T15:49:22.884Z</time>
      </trkpt>
      <trkpt lat="43.30909" lon="-1.36292">
        <ele>82.268168</ele>
        <time>2022-02-21T15:49:35.571Z</time>
      </trkpt>
      <trkpt lat="43.30877" lon="-1.36233">
        <ele>80.164697</ele>
        <time>2022-02-21T15:49:43.564Z</time>
      </trkpt>
      <trkpt lat="43.30854" lon="-1.36205">
        <ele>78.943631</ele>
        <time>2022-02-21T15:49:49.260Z</time>
      </trkpt>
      <trkpt lat="43.30842" lon="-1.36144">
        <ele>77.161267</ele>
        <time>2022-02-21T15:50:00.434Z</time>
      </trkpt>
      <trkpt lat="43.30825" lon="-1.36124">
        <ele>76.858085</ele>
        <time>2022-02-21T15:50:07.906Z</time>
      </trkpt>
      <trkpt lat="43.30802" lon="-1.3611">
        <ele>77.743197</ele>
        <time>2022-02-21T15:50:16.232Z</time>
      </trkpt>
      <trkpt lat="43.30791" lon="-1.3611">
        <ele>78.097823</ele>
        <time>2022-02-21T15:50:20.767Z</time>
      </trkpt>
      <trkpt lat="43.30783" lon="-1.36112">
        <ele>78.408822</ele>
        <time>2022-02-21T15:50:23.928Z</time>
      </trkpt>
      <trkpt lat="43.30749" lon="-1.36104">
        <ele>79.607197</ele>
        <time>2022-02-21T15:50:37.494Z</time>
      </trkpt>
      <trkpt lat="43.30711" lon="-1.3609">
        <ele>80.997005</ele>
        <time>2022-02-21T15:50:54.445Z</time>
      </trkpt>
      <trkpt lat="43.30651" lon="-1.3612">
        <ele>83.012493</ele>
        <time>2022-02-21T15:51:24.774Z</time>
      </trkpt>
      <trkpt lat="43.30638" lon="-1.36121">
        <ele>83.165184</ele>
        <time>2022-02-21T15:51:30.234Z</time>
      </trkpt>
      <trkpt lat="43.30619" lon="-1.361">
        <ele>83.463804</ele>
        <time>2022-02-21T15:51:41.200Z</time>
      </trkpt>
      <trkpt lat="43.30597" lon="-1.36063">
        <ele>83.887322</ele>
        <time>2022-02-21T15:51:52.821Z</time>
      </trkpt>
      <trkpt lat="43.30563" lon="-1.36012">
        <ele>84.490413</ele>
        <time>2022-02-21T15:52:03.743Z</time>
      </trkpt>
      <trkpt lat="43.30567" lon="-1.35998">
        <ele>84.621684</ele>
        <time>2022-02-21T15:52:06.467Z</time>
      </trkpt>
      <trkpt lat="43.30532" lon="-1.3595">
        <ele>84.590948</ele>
        <time>2022-02-21T15:52:15.879Z</time>
      </trkpt>
      <trkpt lat="43.30497" lon="-1.35887">
        <ele>82.510645</ele>
        <time>2022-02-21T15:52:26.083Z</time>
      </trkpt>
      <trkpt lat="43.3047" lon="-1.35805">
        <ele>80.116402</ele>
        <time>2022-02-21T15:52:36.492Z</time>
      </trkpt>
      <trkpt lat="43.30447" lon="-1.35709">
        <ele>77.788989</ele>
        <time>2022-02-21T15:52:48.277Z</time>
      </trkpt>
      <trkpt lat="43.30443" lon="-1.35655">
        <ele>76.836786</ele>
        <time>2022-02-21T15:52:54.891Z</time>
      </trkpt>
      <trkpt lat="43.30448" lon="-1.35603">
        <ele>75.921078</ele>
        <time>2022-02-21T15:53:01.704Z</time>
      </trkpt>
      <trkpt lat="43.30494" lon="-1.35446">
        <ele>74.435808</ele>
        <time>2022-02-21T15:53:26.861Z</time>
      </trkpt>
      <trkpt lat="43.305" lon="-1.3539">
        <ele>74.651853</ele>
        <time>2022-02-21T15:53:38.423Z</time>
      </trkpt>
      <trkpt lat="43.3049" lon="-1.3533">
        <ele>74.889569</ele>
        <time>2022-02-21T15:53:50.974Z</time>
      </trkpt>
      <trkpt lat="43.30432" lon="-1.35182">
        <ele>75.930731</ele>
        <time>2022-02-21T15:54:24.401Z</time>
      </trkpt>
      <trkpt lat="43.30398" lon="-1.35128">
        <ele>76.46776</ele>
        <time>2022-02-21T15:54:38.820Z</time>
      </trkpt>
      <trkpt lat="43.30352" lon="-1.35087">
        <ele>77.026814</ele>
        <time>2022-02-21T15:54:53.701Z</time>
      </trkpt>
      <trkpt lat="43.30208" lon="-1.35016">
        <ele>78.455959</ele>
        <time>2022-02-21T15:55:34.195Z</time>
      </trkpt>
      <trkpt lat="43.30151" lon="-1.34995">
        <ele>79.529809</ele>
        <time>2022-02-21T15:55:50.528Z</time>
      </trkpt>
      <trkpt lat="43.3007" lon="-1.34989">
        <ele>81.426474</ele>
        <time>2022-02-21T15:56:16.312Z</time>
      </trkpt>
      <trkpt lat="43.29991" lon="-1.35001">
        <ele>83.894119</ele>
        <time>2022-02-21T15:56:47.349Z</time>
      </trkpt>
      <trkpt lat="43.29914" lon="-1.35001">
        <ele>88.231775</ele>
        <time>2022-02-21T15:57:24.218Z</time>
      </trkpt>
      <trkpt lat="43.29822" lon="-1.35016">
        <ele>93.482543</ele>
        <time>2022-02-21T15:58:17.202Z</time>
      </trkpt>
      <trkpt lat="43.29695" lon="-1.35011">
        <ele>100.913972</ele>
        <time>2022-02-21T15:59:29.569Z</time>
      </trkpt>
      <trkpt lat="43.29604" lon="-1.35026">
        <ele>102.796762</ele>
        <time>2022-02-21T16:00:05.974Z</time>
      </trkpt>
      <trkpt lat="43.29514" lon="-1.35074">
        <ele>101.425242</ele>
        <time>2022-02-21T16:00:23.996Z</time>
      </trkpt>
      <trkpt lat="43.29342" lon="-1.35235">
        <ele>89.269692</ele>
        <time>2022-02-21T16:00:54.994Z</time>
      </trkpt>
      <trkpt lat="43.29285" lon="-1.35282">
        <ele>86.373136</ele>
        <time>2022-02-21T16:01:05.153Z</time>
      </trkpt>
      <trkpt lat="43.29232" lon="-1.35315">
        <ele>84.070986</ele>
        <time>2022-02-21T16:01:14.406Z</time>
      </trkpt>
      <trkpt lat="43.29198" lon="-1.35325">
        <ele>82.672416</ele>
        <time>2022-02-21T16:01:20.636Z</time>
      </trkpt>
      <trkpt lat="43.29143" lon="-1.35323">
        <ele>82.436357</ele>
        <time>2022-02-21T16:01:32.446Z</time>
      </trkpt>
      <trkpt lat="43.29097" lon="-1.35313">
        <ele>84.001283</ele>
        <time>2022-02-21T16:01:47.587Z</time>
      </trkpt>
      <trkpt lat="43.28871" lon="-1.35193">
        <ele>93.291188</ele>
        <time>2022-02-21T16:03:45.799Z</time>
      </trkpt>
      <trkpt lat="43.28727" lon="-1.35161">
        <ele>94.681773</ele>
        <time>2022-02-21T16:04:29.924Z</time>
      </trkpt>
      <trkpt lat="43.28677" lon="-1.35163">
        <ele>94.442178</ele>
        <time>2022-02-21T16:04:38.557Z</time>
      </trkpt>
      <trkpt lat="43.28607" lon="-1.35185">
        <ele>92.348751</ele>
        <time>2022-02-21T16:04:50.417Z</time>
      </trkpt>
      <trkpt lat="43.28568" lon="-1.35211">
        <ele>90.40982</ele>
        <time>2022-02-21T16:04:57.178Z</time>
      </trkpt>
      <trkpt lat="43.28442" lon="-1.35321">
        <ele>84.881348</ele>
        <time>2022-02-21T16:05:21.294Z</time>
      </trkpt>
      <trkpt lat="43.28349" lon="-1.35376">
        <ele>82.423051</ele>
        <time>2022-02-21T16:05:39.977Z</time>
      </trkpt>
      <trkpt lat="43.28284" lon="-1.35397">
        <ele>82.010753</ele>
        <time>2022-02-21T16:05:54.271Z</time>
      </trkpt>
      <trkpt lat="43.28209" lon="-1.35393">
        <ele>82.228487</ele>
        <time>2022-02-21T16:06:12.826Z</time>
      </trkpt>
      <trkpt lat="43.28129" lon="-1.35362">
        <ele>82.708325</ele>
        <time>2022-02-21T16:06:34.497Z</time>
      </trkpt>
      <trkpt lat="43.28022" lon="-1.35304">
        <ele>84.258396</ele>
        <time>2022-02-21T16:07:07.150Z</time>
      </trkpt>
      <trkpt lat="43.2796" lon="-1.35247">
        <ele>85.635293</ele>
        <time>2022-02-21T16:07:31.021Z</time>
      </trkpt>
      <trkpt lat="43.27903" lon="-1.35172">
        <ele>87.55834</ele>
        <time>2022-02-21T16:07:58.415Z</time>
      </trkpt>
      <trkpt lat="43.27865" lon="-1.35138">
        <ele>88.663122</ele>
        <time>2022-02-21T16:08:15.170Z</time>
      </trkpt>
      <trkpt lat="43.27679" lon="-1.35036">
        <ele>93.360473</ele>
        <time>2022-02-21T16:09:25.402Z</time>
      </trkpt>
      <trkpt lat="43.27552" lon="-1.34962">
        <ele>94.354616</ele>
        <time>2022-02-21T16:10:00.392Z</time>
      </trkpt>
      <trkpt lat="43.27344" lon="-1.34863">
        <ele>94.749497</ele>
        <time>2022-02-21T16:10:49.296Z</time>
      </trkpt>
      <trkpt lat="43.2722" lon="-1.34765">
        <ele>94.179016</ele>
        <time>2022-02-21T16:11:22.892Z</time>
      </trkpt>
      <trkpt lat="43.27019" lon="-1.34645">
        <ele>90.517136</ele>
        <time>2022-02-21T16:12:02.914Z</time>
      </trkpt>
      <trkpt lat="43.26952" lon="-1.34583">
        <ele>89.63445</ele>
        <time>2022-02-21T16:12:17.609Z</time>
      </trkpt>
      <trkpt lat="43.2687" lon="-1.34488">
        <ele>88.521098</ele>
        <time>2022-02-21T16:12:40.110Z</time>
      </trkpt>
      <trkpt lat="43.26836" lon="-1.34449">
        <ele>88.415258</ele>
        <time>2022-02-21T16:12:50.844Z</time>
      </trkpt>
      <trkpt lat="43.26802" lon="-1.34395">
        <ele>88.288788</ele>
        <time>2022-02-21T16:13:03.970Z</time>
      </trkpt>
      <trkpt lat="43.26761" lon="-1.34306">
        <ele>88.103214</ele>
        <time>2022-02-21T16:13:20.152Z</time>
      </trkpt>
      <trkpt lat="43.26735" lon="-1.34234">
        <ele>86.824817</ele>
        <time>2022-02-21T16:13:30.966Z</time>
      </trkpt>
      <trkpt lat="43.26696" lon="-1.34068">
        <ele>84.117027</ele>
        <time>2022-02-21T16:13:53.093Z</time>
      </trkpt>
      <trkpt lat="43.26635" lon="-1.33905">
        <ele>82.422381</ele>
        <time>2022-02-21T16:14:18.274Z</time>
      </trkpt>
      <trkpt lat="43.26615" lon="-1.33829">
        <ele>81.922296</ele>
        <time>2022-02-21T16:14:31.795Z</time>
      </trkpt>
      <trkpt lat="43.26608" lon="-1.33777">
        <ele>81.974007</ele>
        <time>2022-02-21T16:14:40.881Z</time>
      </trkpt>
      <trkpt lat="43.26604" lon="-1.33726">
        <ele>82.02425</ele>
        <time>2022-02-21T16:14:49.860Z</time>
      </trkpt>
      <trkpt lat="43.26609" lon="-1.33654">
        <ele>82.094766</ele>
        <time>2022-02-21T16:15:02.581Z</time>
      </trkpt>
      <trkpt lat="43.2666" lon="-1.33444">
        <ele>82.247811</ele>
        <time>2022-02-21T16:15:37.985Z</time>
      </trkpt>
      <trkpt lat="43.26667" lon="-1.33396">
        <ele>82.278035</ele>
        <time>2022-02-21T16:15:46.072Z</time>
      </trkpt>
      <trkpt lat="43.26671" lon="-1.33313">
        <ele>82.897619</ele>
        <time>2022-02-21T16:16:00.794Z</time>
      </trkpt>
      <trkpt lat="43.26673" lon="-1.33249">
        <ele>83.541231</ele>
        <time>2022-02-21T16:16:13.983Z</time>
      </trkpt>
      <trkpt lat="43.26674" lon="-1.33219">
        <ele>83.839842</ele>
        <time>2022-02-21T16:16:21.000Z</time>
      </trkpt>
      <trkpt lat="43.26673" lon="-1.33145">
        <ele>84.58077</ele>
        <time>2022-02-21T16:16:38.134Z</time>
      </trkpt>
      <trkpt lat="43.26668" lon="-1.33101">
        <ele>85.30352</ele>
        <time>2022-02-21T16:16:48.726Z</time>
      </trkpt>
      <trkpt lat="43.26647" lon="-1.33031">
        <ele>86.857915</ele>
        <time>2022-02-21T16:17:07.899Z</time>
      </trkpt>
      <trkpt lat="43.266" lon="-1.32904">
        <ele>89.775959</ele>
        <time>2022-02-21T16:17:47.560Z</time>
      </trkpt>
      <trkpt lat="43.26555" lon="-1.32819">
        <ele>92.14087</ele>
        <time>2022-02-21T16:18:16.507Z</time>
      </trkpt>
      <trkpt lat="43.26373" lon="-1.32586">
        <ele>99.511056</ele>
        <time>2022-02-21T16:19:50.400Z</time>
      </trkpt>
      <trkpt lat="43.26241" lon="-1.32344">
        <ele>104.171419</ele>
        <time>2022-02-21T16:21:03.699Z</time>
      </trkpt>
      <trkpt lat="43.26115" lon="-1.32205">
        <ele>104.87179</ele>
        <time>2022-02-21T16:21:39.634Z</time>
      </trkpt>
      <trkpt lat="43.26047" lon="-1.32075">
        <ele>106.898697</ele>
        <time>2022-02-21T16:22:10.040Z</time>
      </trkpt>
      <trkpt lat="43.26003" lon="-1.32019">
        <ele>108.064845</ele>
        <time>2022-02-21T16:22:32.002Z</time>
      </trkpt>
      <trkpt lat="43.25894" lon="-1.31953">
        <ele>114.13698</ele>
        <time>2022-02-21T16:23:26.600Z</time>
      </trkpt>
      <trkpt lat="43.25815" lon="-1.31919">
        <ele>118.860055</ele>
        <time>2022-02-21T16:24:13.977Z</time>
      </trkpt>
      <trkpt lat="43.25778" lon="-1.31914">
        <ele>121.183464</ele>
        <time>2022-02-21T16:24:37.112Z</time>
      </trkpt>
      <trkpt lat="43.25663" lon="-1.31915">
        <ele>128.448439</ele>
        <time>2022-02-21T16:25:45.532Z</time>
      </trkpt>
      <trkpt lat="43.25631" lon="-1.31929">
        <ele>129.423101</ele>
        <time>2022-02-21T16:26:01.104Z</time>
      </trkpt>
      <trkpt lat="43.25591" lon="-1.31971">
        <ele>127.232403</ele>
        <time>2022-02-21T16:26:11.194Z</time>
      </trkpt>
      <trkpt lat="43.25566" lon="-1.3202">
        <ele>125.343372</ele>
        <time>2022-02-21T16:26:17.820Z</time>
      </trkpt>
      <trkpt lat="43.25541" lon="-1.32109">
        <ele>122.294047</ele>
        <time>2022-02-21T16:26:28.055Z</time>
      </trkpt>
      <trkpt lat="43.25512" lon="-1.32144">
        <ele>119.654071</ele>
        <time>2022-02-21T16:26:33.434Z</time>
      </trkpt>
      <trkpt lat="43.25474" lon="-1.32155">
        <ele>116.818736</ele>
        <time>2022-02-21T16:26:38.921Z</time>
      </trkpt>
      <trkpt lat="43.25454" lon="-1.3215">
        <ele>115.309305</ele>
        <time>2022-02-21T16:26:41.900Z</time>
      </trkpt>
      <trkpt lat="43.25426" lon="-1.32136">
        <ele>113.16571</ele>
        <time>2022-02-21T16:26:46.175Z</time>
      </trkpt>
      <trkpt lat="43.25381" lon="-1.32093">
        <ele>109.127621</ele>
        <time>2022-02-21T16:26:54.522Z</time>
      </trkpt>
      <trkpt lat="43.25354" lon="-1.32045">
        <ele>109.435816</ele>
        <time>2022-02-21T16:27:05.151Z</time>
      </trkpt>
      <trkpt lat="43.2531" lon="-1.31972">
        <ele>110.427885</ele>
        <time>2022-02-21T16:27:28.063Z</time>
      </trkpt>
      <trkpt lat="43.25288" lon="-1.31948">
        <ele>110.83787</ele>
        <time>2022-02-21T16:27:38.785Z</time>
      </trkpt>
      <trkpt lat="43.25196" lon="-1.31879">
        <ele>113.436553</ele>
        <time>2022-02-21T16:28:22.141Z</time>
      </trkpt>
      <trkpt lat="43.25152" lon="-1.31854">
        <ele>114.920948</ele>
        <time>2022-02-21T16:28:39.960Z</time>
      </trkpt>
      <trkpt lat="43.2513" lon="-1.31845">
        <ele>115.657974</ele>
        <time>2022-02-21T16:28:48.623Z</time>
      </trkpt>
      <trkpt lat="43.25061" lon="-1.31832">
        <ele>117.34228</ele>
        <time>2022-02-21T16:29:13.862Z</time>
      </trkpt>
      <trkpt lat="43.2503" lon="-1.31834">
        <ele>117.605219</ele>
        <time>2022-02-21T16:29:24.177Z</time>
      </trkpt>
      <trkpt lat="43.24962" lon="-1.31851">
        <ele>118.181281</ele>
        <time>2022-02-21T16:29:42.728Z</time>
      </trkpt>
      <trkpt lat="43.2491" lon="-1.31849">
        <ele>118.61271</ele>
        <time>2022-02-21T16:29:53.634Z</time>
      </trkpt>
      <trkpt lat="43.2488" lon="-1.31839">
        <ele>118.28075</ele>
        <time>2022-02-21T16:29:59.657Z</time>
      </trkpt>
      <trkpt lat="43.24761" lon="-1.31766">
        <ele>116.422418</ele>
        <time>2022-02-21T16:30:23.729Z</time>
      </trkpt>
      <trkpt lat="43.24723" lon="-1.31728">
        <ele>115.878753</ele>
        <time>2022-02-21T16:30:33.051Z</time>
      </trkpt>
      <trkpt lat="43.24706" lon="-1.31703">
        <ele>115.668986</ele>
        <time>2022-02-21T16:30:38.058Z</time>
      </trkpt>
      <trkpt lat="43.24619" lon="-1.31535">
        <ele>114.277355</ele>
        <time>2022-02-21T16:31:08.810Z</time>
      </trkpt>
      <trkpt lat="43.24581" lon="-1.31402">
        <ele>112.779658</ele>
        <time>2022-02-21T16:31:29.255Z</time>
      </trkpt>
      <trkpt lat="43.24499" lon="-1.31184">
        <ele>109.550179</ele>
        <time>2022-02-21T16:32:01.807Z</time>
      </trkpt>
      <trkpt lat="43.24447" lon="-1.31053">
        <ele>107.751774</ele>
        <time>2022-02-21T16:32:21.945Z</time>
      </trkpt>
      <trkpt lat="43.24416" lon="-1.30932">
        <ele>106.535124</ele>
        <time>2022-02-21T16:32:39.878Z</time>
      </trkpt>
      <trkpt lat="43.24401" lon="-1.30824">
        <ele>106.460822</ele>
        <time>2022-02-21T16:32:56.421Z</time>
      </trkpt>
      <trkpt lat="43.24405" lon="-1.30696">
        <ele>107.300669</ele>
        <time>2022-02-21T16:33:20.470Z</time>
      </trkpt>
      <trkpt lat="43.24414" lon="-1.30485">
        <ele>111.077141</ele>
        <time>2022-02-21T16:34:16.936Z</time>
      </trkpt>
      <trkpt lat="43.24418" lon="-1.30368">
        <ele>113.468253</ele>
        <time>2022-02-21T16:34:51.217Z</time>
      </trkpt>
      <trkpt lat="43.24415" lon="-1.30333">
        <ele>113.964467</ele>
        <time>2022-02-21T16:35:01.199Z</time>
      </trkpt>
      <trkpt lat="43.24392" lon="-1.30228">
        <ele>115.494118</ele>
        <time>2022-02-21T16:35:29.101Z</time>
      </trkpt>
      <trkpt lat="43.24337" lon="-1.30082">
        <ele>115.898162</ele>
        <time>2022-02-21T16:35:55.729Z</time>
      </trkpt>
      <trkpt lat="43.24313" lon="-1.30025">
        <ele>115.355857</ele>
        <time>2022-02-21T16:36:04.940Z</time>
      </trkpt>
      <trkpt lat="43.24287" lon="-1.29979">
        <ele>114.884349</ele>
        <time>2022-02-21T16:36:12.714Z</time>
      </trkpt>
      <trkpt lat="43.24183" lon="-1.29862">
        <ele>112.29249</ele>
        <time>2022-02-21T16:36:37.126Z</time>
      </trkpt>
      <trkpt lat="43.24098" lon="-1.29772">
        <ele>109.944825</ele>
        <time>2022-02-21T16:36:56.688Z</time>
      </trkpt>
      <trkpt lat="43.24082" lon="-1.29755">
        <ele>109.489994</ele>
        <time>2022-02-21T16:37:00.230Z</time>
      </trkpt>
      <trkpt lat="43.2404" lon="-1.29711">
        <ele>108.278172</ele>
        <time>2022-02-21T16:37:09.716Z</time>
      </trkpt>
      <trkpt lat="43.2398" lon="-1.29672">
        <ele>106.767498</ele>
        <time>2022-02-21T16:37:21.576Z</time>
      </trkpt>
      <trkpt lat="43.23978" lon="-1.29671">
        <ele>106.69605</ele>
        <time>2022-02-21T16:37:22.149Z</time>
      </trkpt>
      <trkpt lat="43.23971" lon="-1.29666">
        <ele>106.555575</ele>
        <time>2022-02-21T16:37:23.411Z</time>
      </trkpt>
      <trkpt lat="43.23883" lon="-1.29613">
        <ele>104.843349</ele>
        <time>2022-02-21T16:37:40.937Z</time>
      </trkpt>
      <trkpt lat="43.23825" lon="-1.29602">
        <ele>103.808218</ele>
        <time>2022-02-21T16:37:51.940Z</time>
      </trkpt>
      <trkpt lat="43.23802" lon="-1.29604">
        <ele>103.427151</ele>
        <time>2022-02-21T16:37:56.559Z</time>
      </trkpt>
      <trkpt lat="43.2371" lon="-1.2963">
        <ele>103.056977</ele>
        <time>2022-02-21T16:38:15.783Z</time>
      </trkpt>
      <trkpt lat="43.23645" lon="-1.2964">
        <ele>102.79808</ele>
        <time>2022-02-21T16:38:30.031Z</time>
      </trkpt>
      <trkpt lat="43.23533" lon="-1.29654">
        <ele>103.976068</ele>
        <time>2022-02-21T16:38:58.425Z</time>
      </trkpt>
      <trkpt lat="43.23499" lon="-1.29668">
        <ele>104.446726</ele>
        <time>2022-02-21T16:39:09.429Z</time>
      </trkpt>
      <trkpt lat="43.23463" lon="-1.29699">
        <ele>105.019463</ele>
        <time>2022-02-21T16:39:24.223Z</time>
      </trkpt>
      <trkpt lat="43.23419" lon="-1.29739">
        <ele>106.39489</ele>
        <time>2022-02-21T16:39:42.559Z</time>
      </trkpt>
      <trkpt lat="43.23334" lon="-1.29819">
        <ele>109.342204</ele>
        <time>2022-02-21T16:40:18.867Z</time>
      </trkpt>
      <trkpt lat="43.23227" lon="-1.29918">
        <ele>113.515683</ele>
        <time>2022-02-21T16:41:12.489Z</time>
      </trkpt>
      <trkpt lat="43.23081" lon="-1.30053">
        <ele>116.863813</ele>
        <time>2022-02-21T16:42:17.405Z</time>
      </trkpt>
      <trkpt lat="43.23043" lon="-1.30082">
        <ele>117.128616</ele>
        <time>2022-02-21T16:42:25.447Z</time>
      </trkpt>
      <trkpt lat="43.23023" lon="-1.30088">
        <ele>117.257519</ele>
        <time>2022-02-21T16:42:29.975Z</time>
      </trkpt>
      <trkpt lat="43.23023" lon="-1.30113">
        <ele>117.368404</ele>
        <time>2022-02-21T16:42:32.952Z</time>
      </trkpt>
      <trkpt lat="43.23025" lon="-1.30168">
        <ele>116.594706</ele>
        <time>2022-02-21T16:42:40.267Z</time>
      </trkpt>
      <trkpt lat="43.23025" lon="-1.30171">
        <ele>116.539327</ele>
        <time>2022-02-21T16:42:40.805Z</time>
      </trkpt>
      <trkpt lat="43.2302" lon="-1.30196">
        <ele>116.12648</ele>
        <time>2022-02-21T16:42:44.201Z</time>
      </trkpt>
      <trkpt lat="43.23011" lon="-1.30205">
        <ele>115.865137</ele>
        <time>2022-02-21T16:42:46.077Z</time>
      </trkpt>
      <trkpt lat="43.22978" lon="-1.30213">
        <ele>115.129454</ele>
        <time>2022-02-21T16:42:51.684Z</time>
      </trkpt>
      <trkpt lat="43.22933" lon="-1.30222">
        <ele>114.118027</ele>
        <time>2022-02-21T16:42:59.305Z</time>
      </trkpt>
      <trkpt lat="43.22887" lon="-1.30245">
        <ele>113.58469</ele>
        <time>2022-02-21T16:43:09.082Z</time>
      </trkpt>
      <trkpt lat="43.22846" lon="-1.30279">
        <ele>114.212456</ele>
        <time>2022-02-21T16:43:22.819Z</time>
      </trkpt>
      <trkpt lat="43.22814" lon="-1.30332">
        <ele>114.868533</ele>
        <time>2022-02-21T16:43:39.302Z</time>
      </trkpt>
      <trkpt lat="43.22805" lon="-1.30366">
        <ele>115.21555</ele>
        <time>2022-02-21T16:43:47.893Z</time>
      </trkpt>
      <trkpt lat="43.22803" lon="-1.30444">
        <ele>116.125877</ele>
        <time>2022-02-21T16:44:06.336Z</time>
      </trkpt>
      <trkpt lat="43.22796" lon="-1.30513">
        <ele>117.289823</ele>
        <time>2022-02-21T16:44:24.155Z</time>
      </trkpt>
      <trkpt lat="43.2276" lon="-1.30697">
        <ele>120.128849</ele>
        <time>2022-02-21T16:45:11.467Z</time>
      </trkpt>
      <trkpt lat="43.22707" lon="-1.30839">
        <ele>121.42603</ele>
        <time>2022-02-21T16:45:44.321Z</time>
      </trkpt>
      <trkpt lat="43.22689" lon="-1.30911">
        <ele>121.830824</ele>
        <time>2022-02-21T16:45:56.545Z</time>
      </trkpt>
      <trkpt lat="43.22674" lon="-1.31014">
        <ele>121.828148</ele>
        <time>2022-02-21T16:46:12.596Z</time>
      </trkpt>
      <trkpt lat="43.2259" lon="-1.31302">
        <ele>122.823101</ele>
        <time>2022-02-21T16:47:05.895Z</time>
      </trkpt>
      <trkpt lat="43.22568" lon="-1.31359">
        <ele>123.203533</ele>
        <time>2022-02-21T16:47:20.775Z</time>
      </trkpt>
      <trkpt lat="43.22543" lon="-1.31392">
        <ele>123.639484</ele>
        <time>2022-02-21T16:47:32.128Z</time>
      </trkpt>
      <trkpt lat="43.22521" lon="-1.31407">
        <ele>123.944019</ele>
        <time>2022-02-21T16:47:39.857Z</time>
      </trkpt>
      <trkpt lat="43.22472" lon="-1.31429">
        <ele>124.593736</ele>
        <time>2022-02-21T16:47:55.931Z</time>
      </trkpt>
      <trkpt lat="43.22445" lon="-1.31432">
        <ele>124.938895</ele>
        <time>2022-02-21T16:48:03.684Z</time>
      </trkpt>
      <trkpt lat="43.22404" lon="-1.31421">
        <ele>125.297522</ele>
        <time>2022-02-21T16:48:13.619Z</time>
      </trkpt>
      <trkpt lat="43.22338" lon="-1.31349">
        <ele>124.612518</ele>
        <time>2022-02-21T16:48:30.398Z</time>
      </trkpt>
      <trkpt lat="43.22298" lon="-1.31329">
        <ele>124.260849</ele>
        <time>2022-02-21T16:48:38.739Z</time>
      </trkpt>
      <trkpt lat="43.22251" lon="-1.31329">
        <ele>123.908922</ele>
        <time>2022-02-21T16:48:47.797Z</time>
      </trkpt>
      <trkpt lat="43.2223" lon="-1.31337">
        <ele>123.980263</ele>
        <time>2022-02-21T16:48:52.234Z</time>
      </trkpt>
      <trkpt lat="43.22215" lon="-1.31352">
        <ele>124.039229</ele>
        <time>2022-02-21T16:48:55.945Z</time>
      </trkpt>
      <trkpt lat="43.22151" lon="-1.31456">
        <ele>124.358435</ele>
        <time>2022-02-21T16:49:18.518Z</time>
      </trkpt>
      <trkpt lat="43.22132" lon="-1.31475">
        <ele>124.43482</ele>
        <time>2022-02-21T16:49:25.626Z</time>
      </trkpt>
      <trkpt lat="43.22101" lon="-1.31493">
        <ele>124.975102</ele>
        <time>2022-02-21T16:49:36.920Z</time>
      </trkpt>
      <trkpt lat="43.22024" lon="-1.31512">
        <ele>126.918436</ele>
        <time>2022-02-21T16:50:05.160Z</time>
      </trkpt>
      <trkpt lat="43.21863" lon="-1.31522">
        <ele>129.843013</ele>
        <time>2022-02-21T16:51:02.556Z</time>
      </trkpt>
      <trkpt lat="43.21809" lon="-1.31542">
        <ele>130.439053</ele>
        <time>2022-02-21T16:51:16.838Z</time>
      </trkpt>
      <trkpt lat="43.21777" lon="-1.31567">
        <ele>130.836079</ele>
        <time>2022-02-21T16:51:24.585Z</time>
      </trkpt>
      <trkpt lat="43.21711" lon="-1.31644">
        <ele>130.655236</ele>
        <time>2022-02-21T16:51:41.159Z</time>
      </trkpt>
      <trkpt lat="43.2165" lon="-1.317">
        <ele>130.396686</ele>
        <time>2022-02-21T16:51:56.266Z</time>
      </trkpt>
      <trkpt lat="43.21563" lon="-1.31751">
        <ele>132.08825</ele>
        <time>2022-02-21T16:52:25.744Z</time>
      </trkpt>
      <trkpt lat="43.21451" lon="-1.31802">
        <ele>135.270601</ele>
        <time>2022-02-21T16:53:13.306Z</time>
      </trkpt>
      <trkpt lat="43.21368" lon="-1.31861">
        <ele>137.449269</ele>
        <time>2022-02-21T16:53:47.006Z</time>
      </trkpt>
      <trkpt lat="43.2132" lon="-1.31918">
        <ele>138.942359</ele>
        <time>2022-02-21T16:54:06.671Z</time>
      </trkpt>
      <trkpt lat="43.2127" lon="-1.31998">
        <ele>140.034346</ele>
        <time>2022-02-21T16:54:28.892Z</time>
      </trkpt>
      <trkpt lat="43.21197" lon="-1.32097">
        <ele>141.189983</ele>
        <time>2022-02-21T16:54:57.702Z</time>
      </trkpt>
      <trkpt lat="43.21133" lon="-1.32231">
        <ele>141.547438</ele>
        <time>2022-02-21T16:55:26.869Z</time>
      </trkpt>
      <trkpt lat="43.21079" lon="-1.32295">
        <ele>141.65064</ele>
        <time>2022-02-21T16:55:41.696Z</time>
      </trkpt>
      <trkpt lat="43.21026" lon="-1.32371">
        <ele>141.914459</ele>
        <time>2022-02-21T16:55:58.226Z</time>
      </trkpt>
      <trkpt lat="43.20988" lon="-1.32397">
        <ele>142.074545</ele>
        <time>2022-02-21T16:56:08.454Z</time>
      </trkpt>
      <trkpt lat="43.20968" lon="-1.32403">
        <ele>142.149322</ele>
        <time>2022-02-21T16:56:13.527Z</time>
      </trkpt>
      <trkpt lat="43.20877" lon="-1.32423">
        <ele>142.289022</ele>
        <time>2022-02-21T16:56:40.081Z</time>
      </trkpt>
      <trkpt lat="43.20783" lon="-1.32425">
        <ele>142.165123</ele>
        <time>2022-02-21T16:57:03.078Z</time>
      </trkpt>
      <trkpt lat="43.20761" lon="-1.32437">
        <ele>142.134341</ele>
        <time>2022-02-21T16:57:07.532Z</time>
      </trkpt>
      <trkpt lat="43.20739" lon="-1.32494">
        <ele>141.329021</ele>
        <time>2022-02-21T16:57:15.890Z</time>
      </trkpt>
      <trkpt lat="43.20733" lon="-1.32603">
        <ele>138.982213</ele>
        <time>2022-02-21T16:57:29.404Z</time>
      </trkpt>
      <trkpt lat="43.20714" lon="-1.32652">
        <ele>137.780261</ele>
        <time>2022-02-21T16:57:36.161Z</time>
      </trkpt>
      <trkpt lat="43.20705" lon="-1.32663">
        <ele>137.423462</ele>
        <time>2022-02-21T16:57:38.264Z</time>
      </trkpt>
      <trkpt lat="43.20681" lon="-1.32676">
        <ele>136.712364</ele>
        <time>2022-02-21T16:57:42.694Z</time>
      </trkpt>
      <trkpt lat="43.20562" lon="-1.32711">
        <ele>134.635873</ele>
        <time>2022-02-21T16:58:04.655Z</time>
      </trkpt>
      <trkpt lat="43.20535" lon="-1.32729">
        <ele>134.113654</ele>
        <time>2022-02-21T16:58:10.981Z</time>
      </trkpt>
      <trkpt lat="43.20529" lon="-1.32734">
        <ele>133.996378</ele>
        <time>2022-02-21T16:58:12.461Z</time>
      </trkpt>
      <trkpt lat="43.20504" lon="-1.32754">
        <ele>133.720488</ele>
        <time>2022-02-21T16:58:18.598Z</time>
      </trkpt>
      <trkpt lat="43.20443" lon="-1.32815">
        <ele>133.826963</ele>
        <time>2022-02-21T16:58:36.188Z</time>
      </trkpt>
      <trkpt lat="43.20392" lon="-1.32882">
        <ele>133.925674</ele>
        <time>2022-02-21T16:58:53.113Z</time>
      </trkpt>
      <trkpt lat="43.2035" lon="-1.32954">
        <ele>134.123979</ele>
        <time>2022-02-21T16:59:09.353Z</time>
      </trkpt>
      <trkpt lat="43.20295" lon="-1.33082">
        <ele>134.516819</ele>
        <time>2022-02-21T16:59:35.978Z</time>
      </trkpt>
      <trkpt lat="43.20226" lon="-1.33212">
        <ele>134.966331</ele>
        <time>2022-02-21T17:00:02.591Z</time>
      </trkpt>
      <trkpt lat="43.20199" lon="-1.33246">
        <ele>135.109876</ele>
        <time>2022-02-21T17:00:11.616Z</time>
      </trkpt>
      <trkpt lat="43.20171" lon="-1.33272">
        <ele>135.242637</ele>
        <time>2022-02-21T17:00:20.260Z</time>
      </trkpt>
      <trkpt lat="43.20137" lon="-1.33295">
        <ele>135.518297</ele>
        <time>2022-02-21T17:00:29.967Z</time>
      </trkpt>
      <trkpt lat="43.20097" lon="-1.33312">
        <ele>135.947885</ele>
        <time>2022-02-21T17:00:41.211Z</time>
      </trkpt>
      <trkpt lat="43.20055" lon="-1.33324">
        <ele>136.39292</ele>
        <time>2022-02-21T17:00:53.286Z</time>
      </trkpt>
      <trkpt lat="43.19995" lon="-1.33339">
        <ele>137.027232</ele>
        <time>2022-02-21T17:01:10.721Z</time>
      </trkpt>
      <trkpt lat="43.19883" lon="-1.33389">
        <ele>138.014204</ele>
        <time>2022-02-21T17:01:42.670Z</time>
      </trkpt>
      <trkpt lat="43.19868" lon="-1.33388">
        <ele>138.139268</ele>
        <time>2022-02-21T17:01:46.507Z</time>
      </trkpt>
      <trkpt lat="43.19693" lon="-1.33324">
        <ele>139.388047</ele>
        <time>2022-02-21T17:02:31.302Z</time>
      </trkpt>
      <trkpt lat="43.19661" lon="-1.33329">
        <ele>139.595248</ele>
        <time>2022-02-21T17:02:39.506Z</time>
      </trkpt>
      <trkpt lat="43.19636" lon="-1.33348">
        <ele>139.781417</ele>
        <time>2022-02-21T17:02:47.033Z</time>
      </trkpt>
      <trkpt lat="43.19614" lon="-1.33362">
        <ele>140.112541</ele>
        <time>2022-02-21T17:02:53.577Z</time>
      </trkpt>
      <trkpt lat="43.19552" lon="-1.33361">
        <ele>140.95909</ele>
        <time>2022-02-21T17:03:11.235Z</time>
      </trkpt>
      <trkpt lat="43.19504" lon="-1.33385">
        <ele>141.657519</ele>
        <time>2022-02-21T17:03:26.781Z</time>
      </trkpt>
      <trkpt lat="43.19416" lon="-1.33467">
        <ele>143.461431</ele>
        <time>2022-02-21T17:03:59.421Z</time>
      </trkpt>
      <trkpt lat="43.19405" lon="-1.33491">
        <ele>143.853286</ele>
        <time>2022-02-21T17:04:06.695Z</time>
      </trkpt>
      <trkpt lat="43.19384" lon="-1.3356">
        <ele>144.901234</ele>
        <time>2022-02-21T17:04:23.949Z</time>
      </trkpt>
      <trkpt lat="43.19371" lon="-1.33574">
        <ele>145.205239</ele>
        <time>2022-02-21T17:04:29.810Z</time>
      </trkpt>
      <trkpt lat="43.19343" lon="-1.3358">
        <ele>145.725393</ele>
        <time>2022-02-21T17:04:38.745Z</time>
      </trkpt>
      <trkpt lat="43.19305" lon="-1.3358">
        <ele>146.232965</ele>
        <time>2022-02-21T17:04:50.715Z</time>
      </trkpt>
      <trkpt lat="43.19227" lon="-1.33566">
        <ele>147.298148</ele>
        <time>2022-02-21T17:05:13.908Z</time>
      </trkpt>
      <trkpt lat="43.19182" lon="-1.3358">
        <ele>147.919655</ele>
        <time>2022-02-21T17:05:25.712Z</time>
      </trkpt>
      <trkpt lat="43.19104" lon="-1.33577">
        <ele>148.526519</ele>
        <time>2022-02-21T17:05:45.847Z</time>
      </trkpt>
      <trkpt lat="43.19065" lon="-1.33568">
        <ele>148.793566</ele>
        <time>2022-02-21T17:05:55.737Z</time>
      </trkpt>
      <trkpt lat="43.19007" lon="-1.33535">
        <ele>149.213777</ele>
        <time>2022-02-21T17:06:11.606Z</time>
      </trkpt>
      <trkpt lat="43.18984" lon="-1.3354">
        <ele>149.381727</ele>
        <time>2022-02-21T17:06:18.016Z</time>
      </trkpt>
      <trkpt lat="43.18935" lon="-1.33562">
        <ele>149.756648</ele>
        <time>2022-02-21T17:06:31.205Z</time>
      </trkpt>
      <trkpt lat="43.18907" lon="-1.33562">
        <ele>149.960839</ele>
        <time>2022-02-21T17:06:38.290Z</time>
      </trkpt>
      <trkpt lat="43.18884" lon="-1.33555">
        <ele>150.133977</ele>
        <time>2022-02-21T17:06:44.836Z</time>
      </trkpt>
      <trkpt lat="43.18878" lon="-1.33553">
        <ele>150.178332</ele>
        <time>2022-02-21T17:06:46.135Z</time>
      </trkpt>
      <trkpt lat="43.18755" lon="-1.33504">
        <ele>150.865161</ele>
        <time>2022-02-21T17:07:19.369Z</time>
      </trkpt>
      <trkpt lat="43.18747" lon="-1.33501">
        <ele>150.893307</ele>
        <time>2022-02-21T17:07:21.440Z</time>
      </trkpt>
      <trkpt lat="43.18699" lon="-1.33493">
        <ele>151.070963</ele>
        <time>2022-02-21T17:07:32.099Z</time>
      </trkpt>
      <trkpt lat="43.18651" lon="-1.33499">
        <ele>151.246376</ele>
        <time>2022-02-21T17:07:43.196Z</time>
      </trkpt>
      <trkpt lat="43.18602" lon="-1.33507">
        <ele>151.233643</ele>
        <time>2022-02-21T17:07:55.406Z</time>
      </trkpt>
      <trkpt lat="43.18567" lon="-1.33521">
        <ele>151.203824</ele>
        <time>2022-02-21T17:08:03.789Z</time>
      </trkpt>
      <trkpt lat="43.18551" lon="-1.33533">
        <ele>151.188735</ele>
        <time>2022-02-21T17:08:07.897Z</time>
      </trkpt>
      <trkpt lat="43.18539" lon="-1.33556">
        <ele>151.172176</ele>
        <time>2022-02-21T17:08:12.244Z</time>
      </trkpt>
      <trkpt lat="43.18554" lon="-1.33624">
        <ele>151.130183</ele>
        <time>2022-02-21T17:08:23.209Z</time>
      </trkpt>
      <trkpt lat="43.18549" lon="-1.33674">
        <ele>151.007034</ele>
        <time>2022-02-21T17:08:30.799Z</time>
      </trkpt>
      <trkpt lat="43.18536" lon="-1.3372">
        <ele>150.852604</ele>
        <time>2022-02-21T17:08:38.317Z</time>
      </trkpt>
      <trkpt lat="43.18513" lon="-1.33741">
        <ele>150.731462</ele>
        <time>2022-02-21T17:08:44.246Z</time>
      </trkpt>
      <trkpt lat="43.18503" lon="-1.33745">
        <ele>150.686744</ele>
        <time>2022-02-21T17:08:46.500Z</time>
      </trkpt>
      <trkpt lat="43.18469" lon="-1.33755">
        <ele>150.540215</ele>
        <time>2022-02-21T17:08:53.587Z</time>
      </trkpt>
      <trkpt lat="43.18429" lon="-1.33749">
        <ele>150.366151</ele>
        <time>2022-02-21T17:09:01.729Z</time>
      </trkpt>
      <trkpt lat="43.18365" lon="-1.33696">
        <ele>150.611899</ele>
        <time>2022-02-21T17:09:18.724Z</time>
      </trkpt>
      <trkpt lat="43.18323" lon="-1.33677">
        <ele>150.776254</ele>
        <time>2022-02-21T17:09:29.837Z</time>
      </trkpt>
      <trkpt lat="43.18289" lon="-1.33675">
        <ele>150.904757</ele>
        <time>2022-02-21T17:09:38.815Z</time>
      </trkpt>
      <trkpt lat="43.18253" lon="-1.33689">
        <ele>151.070256</ele>
        <time>2022-02-21T17:09:48.407Z</time>
      </trkpt>
      <trkpt lat="43.18249" lon="-1.33691">
        <ele>151.111186</ele>
        <time>2022-02-21T17:09:49.720Z</time>
      </trkpt>
      <trkpt lat="43.18204" lon="-1.33719">
        <ele>151.513274</ele>
        <time>2022-02-21T17:10:02.494Z</time>
      </trkpt>
      <trkpt lat="43.18157" lon="-1.33763">
        <ele>151.979342</ele>
        <time>2022-02-21T17:10:17.624Z</time>
      </trkpt>
      <trkpt lat="43.18129" lon="-1.33792">
        <ele>152.269757</ele>
        <time>2022-02-21T17:10:27.159Z</time>
      </trkpt>
      <trkpt lat="43.18104" lon="-1.33834">
        <ele>152.583149</ele>
        <time>2022-02-21T17:10:37.685Z</time>
      </trkpt>
      <trkpt lat="43.18076" lon="-1.33899">
        <ele>152.981971</ele>
        <time>2022-02-21T17:10:51.928Z</time>
      </trkpt>
      <trkpt lat="43.18025" lon="-1.33929">
        <ele>153.386884</ele>
        <time>2022-02-21T17:11:06.530Z</time>
      </trkpt>
      <trkpt lat="43.17941" lon="-1.34005">
        <ele>154.361896</ele>
        <time>2022-02-21T17:11:31.572Z</time>
      </trkpt>
      <trkpt lat="43.17924" lon="-1.34021">
        <ele>154.632625</ele>
        <time>2022-02-21T17:11:36.980Z</time>
      </trkpt>
      <trkpt lat="43.17907" lon="-1.34037">
        <ele>154.907088</ele>
        <time>2022-02-21T17:11:42.493Z</time>
      </trkpt>
      <trkpt lat="43.17903" lon="-1.3404">
        <ele>154.967908</ele>
        <time>2022-02-21T17:11:43.822Z</time>
      </trkpt>
      <trkpt lat="43.17883" lon="-1.34063">
        <ele>155.306108</ele>
        <time>2022-02-21T17:11:50.948Z</time>
      </trkpt>
      <trkpt lat="43.17863" lon="-1.34087">
        <ele>155.65419</ele>
        <time>2022-02-21T17:11:58.830Z</time>
      </trkpt>
      <trkpt lat="43.17851" lon="-1.34102">
        <ele>155.863269</ele>
        <time>2022-02-21T17:12:03.620Z</time>
      </trkpt>
      <trkpt lat="43.1777" lon="-1.34195">
        <ele>158.51473</ele>
        <time>2022-02-21T17:12:42.529Z</time>
      </trkpt>
      <trkpt lat="43.17748" lon="-1.34197">
        <ele>159.142043</ele>
        <time>2022-02-21T17:12:50.940Z</time>
      </trkpt>
      <trkpt lat="43.17716" lon="-1.3419">
        <ele>160.073287</ele>
        <time>2022-02-21T17:13:03.530Z</time>
      </trkpt>
      <trkpt lat="43.17696" lon="-1.34187">
        <ele>160.650474</ele>
        <time>2022-02-21T17:13:11.418Z</time>
      </trkpt>
      <trkpt lat="43.17691" lon="-1.34188">
        <ele>160.779331</ele>
        <time>2022-02-21T17:13:13.162Z</time>
      </trkpt>
      <trkpt lat="43.1767" lon="-1.34197">
        <ele>161.306762</ele>
        <time>2022-02-21T17:13:21.202Z</time>
      </trkpt>
      <trkpt lat="43.17655" lon="-1.34236">
        <ele>161.676279</ele>
        <time>2022-02-21T17:13:32.346Z</time>
      </trkpt>
      <trkpt lat="43.17623" lon="-1.34332">
        <ele>162.547431</ele>
        <time>2022-02-21T17:13:55.575Z</time>
      </trkpt>
      <trkpt lat="43.17614" lon="-1.3438">
        <ele>162.955082</ele>
        <time>2022-02-21T17:14:03.949Z</time>
      </trkpt>
      <trkpt lat="43.17609" lon="-1.34488">
        <ele>163.273539</ele>
        <time>2022-02-21T17:14:19.746Z</time>
      </trkpt>
      <trkpt lat="43.17598" lon="-1.34541">
        <ele>163.264195</ele>
        <time>2022-02-21T17:14:28.384Z</time>
      </trkpt>
      <trkpt lat="43.17584" lon="-1.34575">
        <ele>163.257715</ele>
        <time>2022-02-21T17:14:34.577Z</time>
      </trkpt>
      <trkpt lat="43.17578" lon="-1.3458">
        <ele>163.256117</ele>
        <time>2022-02-21T17:14:36.173Z</time>
      </trkpt>
      <trkpt lat="43.17563" lon="-1.34628">
        <ele>163.247369</ele>
        <time>2022-02-21T17:14:45.320Z</time>
      </trkpt>
      <trkpt lat="43.17561" lon="-1.34632">
        <ele>163.246471</ele>
        <time>2022-02-21T17:14:46.372Z</time>
      </trkpt>
      <trkpt lat="43.17548" lon="-1.34667">
        <ele>163.679137</ele>
        <time>2022-02-21T17:14:53.744Z</time>
      </trkpt>
      <trkpt lat="43.17541" lon="-1.3468">
        <ele>163.998495</ele>
        <time>2022-02-21T17:14:57.054Z</time>
      </trkpt>
      <trkpt lat="43.17534" lon="-1.34692">
        <ele>164.306125</ele>
        <time>2022-02-21T17:15:00.116Z</time>
      </trkpt>
      <trkpt lat="43.17515" lon="-1.34719">
        <ele>165.038847</ele>
        <time>2022-02-21T17:15:07.974Z</time>
      </trkpt>
      <trkpt lat="43.17511" lon="-1.3473">
        <ele>165.297388</ele>
        <time>2022-02-21T17:15:10.887Z</time>
      </trkpt>
      <trkpt lat="43.17417" lon="-1.34869">
        <ele>170.043607</ele>
        <time>2022-02-21T17:16:08.783Z</time>
      </trkpt>
      <trkpt lat="43.1736" lon="-1.3493">
        <ele>174.11617</ele>
        <time>2022-02-21T17:16:47.473Z</time>
      </trkpt>
      <trkpt lat="43.17336" lon="-1.34965">
        <ele>176.133391</ele>
        <time>2022-02-21T17:17:07.350Z</time>
      </trkpt>
      <trkpt lat="43.17308" lon="-1.34987">
        <ele>177.928591</ele>
        <time>2022-02-21T17:17:25.239Z</time>
      </trkpt>
      <trkpt lat="43.17273" lon="-1.35039">
        <ele>180.436654</ele>
        <time>2022-02-21T17:17:53.124Z</time>
      </trkpt>
      <trkpt lat="43.17265" lon="-1.35038">
        <ele>180.807315</ele>
        <time>2022-02-21T17:17:58.375Z</time>
      </trkpt>
      <trkpt lat="43.17252" lon="-1.35061">
        <ele>181.790552</ele>
        <time>2022-02-21T17:18:08.294Z</time>
      </trkpt>
      <trkpt lat="43.17236" lon="-1.35096">
        <ele>183.17079</ele>
        <time>2022-02-21T17:18:23.046Z</time>
      </trkpt>
      <trkpt lat="43.17215" lon="-1.35158">
        <ele>185.534626</ele>
        <time>2022-02-21T17:18:43.598Z</time>
      </trkpt>
      <trkpt lat="43.17177" lon="-1.35275">
        <ele>187.287629</ele>
        <time>2022-02-21T17:19:14.688Z</time>
      </trkpt>
      <trkpt lat="43.17125" lon="-1.35498">
        <ele>187.931594</ele>
        <time>2022-02-21T17:19:51.957Z</time>
      </trkpt>
      <trkpt lat="43.17077" lon="-1.35617">
        <ele>187.426272</ele>
        <time>2022-02-21T17:20:10.875Z</time>
      </trkpt>
      <trkpt lat="43.17024" lon="-1.35703">
        <ele>189.454842</ele>
        <time>2022-02-21T17:20:32.330Z</time>
      </trkpt>
      <trkpt lat="43.16989" lon="-1.35744">
        <ele>191.081028</ele>
        <time>2022-02-21T17:20:55.968Z</time>
      </trkpt>
      <trkpt lat="43.16923" lon="-1.35788">
        <ele>193.698321</ele>
        <time>2022-02-21T17:21:33.510Z</time>
      </trkpt>
      <trkpt lat="43.16865" lon="-1.35809">
        <ele>193.838802</ele>
        <time>2022-02-21T17:21:56.984Z</time>
      </trkpt>
      <trkpt lat="43.1682" lon="-1.35841">
        <ele>193.953451</ele>
        <time>2022-02-21T17:22:09.048Z</time>
      </trkpt>
      <trkpt lat="43.16793" lon="-1.35882">
        <ele>194.045318</ele>
        <time>2022-02-21T17:22:17.043Z</time>
      </trkpt>
      <trkpt lat="43.16732" lon="-1.36018">
        <ele>190.977548</ele>
        <time>2022-02-21T17:22:35.478Z</time>
      </trkpt>
      <trkpt lat="43.1671" lon="-1.36036">
        <ele>190.066629</ele>
        <time>2022-02-21T17:22:39.382Z</time>
      </trkpt>
      <trkpt lat="43.16692" lon="-1.36036">
        <ele>189.413098</ele>
        <time>2022-02-21T17:22:42.392Z</time>
      </trkpt>
      <trkpt lat="43.16667" lon="-1.36014">
        <ele>188.348201</ele>
        <time>2022-02-21T17:22:47.630Z</time>
      </trkpt>
      <trkpt lat="43.16636" lon="-1.35902">
        <ele>189.579881</ele>
        <time>2022-02-21T17:23:09.148Z</time>
      </trkpt>
      <trkpt lat="43.16597" lon="-1.35829">
        <ele>191.446435</ele>
        <time>2022-02-21T17:23:42.312Z</time>
      </trkpt>
      <trkpt lat="43.16566" lon="-1.35782">
        <ele>192.770707</ele>
        <time>2022-02-21T17:24:02.422Z</time>
      </trkpt>
      <trkpt lat="43.16528" lon="-1.35745">
        <ele>193.712392</ele>
        <time>2022-02-21T17:24:20.666Z</time>
      </trkpt>
      <trkpt lat="43.16515" lon="-1.35739">
        <ele>193.989547</ele>
        <time>2022-02-21T17:24:27.036Z</time>
      </trkpt>
      <trkpt lat="43.1649" lon="-1.35731">
        <ele>194.50957</ele>
        <time>2022-02-21T17:24:35.045Z</time>
      </trkpt>
      <trkpt lat="43.16456" lon="-1.35736">
        <ele>195.198488</ele>
        <time>2022-02-21T17:24:44.580Z</time>
      </trkpt>
      <trkpt lat="43.16429" lon="-1.35757">
        <ele>195.826892</ele>
        <time>2022-02-21T17:24:52.665Z</time>
      </trkpt>
      <trkpt lat="43.16354" lon="-1.35844">
        <ele>197.546916</ele>
        <time>2022-02-21T17:25:16.063Z</time>
      </trkpt>
      <trkpt lat="43.16319" lon="-1.35856">
        <ele>198.141057</ele>
        <time>2022-02-21T17:25:23.435Z</time>
      </trkpt>
      <trkpt lat="43.16291" lon="-1.35844">
        <ele>198.622617</ele>
        <time>2022-02-21T17:25:32.013Z</time>
      </trkpt>
      <trkpt lat="43.16264" lon="-1.35819">
        <ele>199.153513</ele>
        <time>2022-02-21T17:25:44.585Z</time>
      </trkpt>
      <trkpt lat="43.16203" lon="-1.35714">
        <ele>205.547276</ele>
        <time>2022-02-21T17:26:38.636Z</time>
      </trkpt>
      <trkpt lat="43.16168" lon="-1.35668">
        <ele>209.029795</ele>
        <time>2022-02-21T17:27:10.626Z</time>
      </trkpt>
      <trkpt lat="43.1613" lon="-1.35631">
        <ele>212.397851</ele>
        <time>2022-02-21T17:27:41.958Z</time>
      </trkpt>
      <trkpt lat="43.16093" lon="-1.35607">
        <ele>214.139409</ele>
        <time>2022-02-21T17:28:07.307Z</time>
      </trkpt>
      <trkpt lat="43.16055" lon="-1.35592">
        <ele>215.814688</ele>
        <time>2022-02-21T17:28:29.236Z</time>
      </trkpt>
      <trkpt lat="43.16016" lon="-1.35588">
        <ele>217.475308</ele>
        <time>2022-02-21T17:28:46.076Z</time>
      </trkpt>
      <trkpt lat="43.15998" lon="-1.35595">
        <ele>218.269621</ele>
        <time>2022-02-21T17:28:51.978Z</time>
      </trkpt>
      <trkpt lat="43.15967" lon="-1.35613">
        <ele>219.699912</ele>
        <time>2022-02-21T17:29:00.710Z</time>
      </trkpt>
      <trkpt lat="43.15959" lon="-1.35625">
        <ele>219.804457</ele>
        <time>2022-02-21T17:29:03.295Z</time>
      </trkpt>
      <trkpt lat="43.15934" lon="-1.35687">
        <ele>217.838394</ele>
        <time>2022-02-21T17:29:12.412Z</time>
      </trkpt>
      <trkpt lat="43.1593" lon="-1.35732">
        <ele>216.56785</ele>
        <time>2022-02-21T17:29:17.837Z</time>
      </trkpt>
      <trkpt lat="43.15934" lon="-1.359">
        <ele>211.925468</ele>
        <time>2022-02-21T17:29:36.870Z</time>
      </trkpt>
      <trkpt lat="43.1594" lon="-1.35979">
        <ele>209.778494</ele>
        <time>2022-02-21T17:29:46.188Z</time>
      </trkpt>
      <trkpt lat="43.1594" lon="-1.35992">
        <ele>209.409141</ele>
        <time>2022-02-21T17:29:47.836Z</time>
      </trkpt>
      <trkpt lat="43.15929" lon="-1.36062">
        <ele>207.473576</ele>
        <time>2022-02-21T17:29:56.702Z</time>
      </trkpt>
      <trkpt lat="43.1591" lon="-1.3609">
        <ele>206.437286</ele>
        <time>2022-02-21T17:30:01.645Z</time>
      </trkpt>
      <trkpt lat="43.15899" lon="-1.36096">
        <ele>206.752174</ele>
        <time>2022-02-21T17:30:03.975Z</time>
      </trkpt>
      <trkpt lat="43.15878" lon="-1.36097">
        <ele>207.28659</ele>
        <time>2022-02-21T17:30:08.281Z</time>
      </trkpt>
      <trkpt lat="43.15845" lon="-1.36074">
        <ele>208.249727</ele>
        <time>2022-02-21T17:30:17.854Z</time>
      </trkpt>
      <trkpt lat="43.15811" lon="-1.36022">
        <ele>209.553514</ele>
        <time>2022-02-21T17:30:36.594Z</time>
      </trkpt>
      <trkpt lat="43.158" lon="-1.35986">
        <ele>210.291135</ele>
        <time>2022-02-21T17:30:50.036Z</time>
      </trkpt>
      <trkpt lat="43.15773" lon="-1.35771">
        <ele>218.958981</ele>
        <time>2022-02-21T17:32:20.972Z</time>
      </trkpt>
      <trkpt lat="43.1576" lon="-1.35746">
        <ele>220.274961</ele>
        <time>2022-02-21T17:32:33.249Z</time>
      </trkpt>
      <trkpt lat="43.15738" lon="-1.35722">
        <ele>222.018668</ele>
        <time>2022-02-21T17:32:46.666Z</time>
      </trkpt>
      <trkpt lat="43.15708" lon="-1.35713">
        <ele>222.461626</ele>
        <time>2022-02-21T17:32:58.850Z</time>
      </trkpt>
      <trkpt lat="43.15694" lon="-1.35715">
        <ele>222.649364</ele>
        <time>2022-02-21T17:33:04.258Z</time>
      </trkpt>
      <trkpt lat="43.15665" lon="-1.35733">
        <ele>223.07121</ele>
        <time>2022-02-21T17:33:13.723Z</time>
      </trkpt>
      <trkpt lat="43.1565" lon="-1.35754">
        <ele>223.346931</ele>
        <time>2022-02-21T17:33:18.488Z</time>
      </trkpt>
      <trkpt lat="43.15583" lon="-1.35918">
        <ele>225.244958</ele>
        <time>2022-02-21T17:33:47.687Z</time>
      </trkpt>
      <trkpt lat="43.15554" lon="-1.35962">
        <ele>225.877751</ele>
        <time>2022-02-21T17:33:59.592Z</time>
      </trkpt>
      <trkpt lat="43.15376" lon="-1.36151">
        <ele>230.95875</ele>
        <time>2022-02-21T17:35:23.598Z</time>
      </trkpt>
      <trkpt lat="43.15354" lon="-1.36168">
        <ele>231.629015</ele>
        <time>2022-02-21T17:35:31.986Z</time>
      </trkpt>
      <trkpt lat="43.15188" lon="-1.36246">
        <ele>236.238369</ele>
        <time>2022-02-21T17:36:23.264Z</time>
      </trkpt>
      <trkpt lat="43.15112" lon="-1.36291">
        <ele>242.75987</ele>
        <time>2022-02-21T17:37:12.412Z</time>
      </trkpt>
      <trkpt lat="43.15005" lon="-1.36357">
        <ele>253.122315</ele>
        <time>2022-02-21T17:38:48.908Z</time>
      </trkpt>
      <trkpt lat="43.14986" lon="-1.36372">
        <ele>253.046914</ele>
        <time>2022-02-21T17:39:03.741Z</time>
      </trkpt>
      <trkpt lat="43.1497" lon="-1.36396">
        <ele>252.962615</ele>
        <time>2022-02-21T17:39:17.638Z</time>
      </trkpt>
      <trkpt lat="43.14956" lon="-1.36431">
        <ele>252.862645</ele>
        <time>2022-02-21T17:39:27.711Z</time>
      </trkpt>
      <trkpt lat="43.14952" lon="-1.36466">
        <ele>252.772691</ele>
        <time>2022-02-21T17:39:32.795Z</time>
      </trkpt>
      <trkpt lat="43.14956" lon="-1.365">
        <ele>252.68699</ele>
        <time>2022-02-21T17:39:37.048Z</time>
      </trkpt>
      <trkpt lat="43.14962" lon="-1.36523">
        <ele>252.625701</ele>
        <time>2022-02-21T17:39:39.662Z</time>
      </trkpt>
      <trkpt lat="43.15032" lon="-1.36653">
        <ele>245.00699</ele>
        <time>2022-02-21T17:39:56.242Z</time>
      </trkpt>
      <trkpt lat="43.15053" lon="-1.36716">
        <ele>240.585964</ele>
        <time>2022-02-21T17:40:03.273Z</time>
      </trkpt>
      <trkpt lat="43.15048" lon="-1.36751">
        <ele>238.333725</ele>
        <time>2022-02-21T17:40:07.096Z</time>
      </trkpt>
      <trkpt lat="43.15041" lon="-1.36762">
        <ele>237.376294</ele>
        <time>2022-02-21T17:40:08.803Z</time>
      </trkpt>
      <trkpt lat="43.15024" lon="-1.36769">
        <ele>237.016731</ele>
        <time>2022-02-21T17:40:11.753Z</time>
      </trkpt>
      <trkpt lat="43.14954" lon="-1.3676">
        <ele>238.708489</ele>
        <time>2022-02-21T17:40:30.788Z</time>
      </trkpt>
      <trkpt lat="43.14871" lon="-1.36723">
        <ele>240.836703</ele>
        <time>2022-02-21T17:41:15.674Z</time>
      </trkpt>
      <trkpt lat="43.14773" lon="-1.36706">
        <ele>244.789413</ele>
        <time>2022-02-21T17:42:06.593Z</time>
      </trkpt>
      <trkpt lat="43.14742" lon="-1.36686">
        <ele>246.226089</ele>
        <time>2022-02-21T17:42:22.003Z</time>
      </trkpt>
      <trkpt lat="43.14692" lon="-1.36634">
        <ele>248.656906</ele>
        <time>2022-02-21T17:42:46.892Z</time>
      </trkpt>
      <trkpt lat="43.14516" lon="-1.3661">
        <ele>245.977557</ele>
        <time>2022-02-21T17:43:19.546Z</time>
      </trkpt>
      <trkpt lat="43.14411" lon="-1.36624">
        <ele>241.978934</ele>
        <time>2022-02-21T17:43:36.498Z</time>
      </trkpt>
      <trkpt lat="43.14396" lon="-1.36622">
        <ele>241.42351</ele>
        <time>2022-02-21T17:43:38.860Z</time>
      </trkpt>
      <trkpt lat="43.14305" lon="-1.36541">
        <ele>238.576817</ele>
        <time>2022-02-21T17:43:57.232Z</time>
      </trkpt>
      <trkpt lat="43.14208" lon="-1.36517">
        <ele>237.370609</ele>
        <time>2022-02-21T17:44:17.231Z</time>
      </trkpt>
      <trkpt lat="43.14121" lon="-1.36524">
        <ele>238.957857</ele>
        <time>2022-02-21T17:44:38.812Z</time>
      </trkpt>
      <trkpt lat="43.14004" lon="-1.36499">
        <ele>243.184688</ele>
        <time>2022-02-21T17:45:30.515Z</time>
      </trkpt>
      <trkpt lat="43.1398" lon="-1.36479">
        <ele>245.147896</ele>
        <time>2022-02-21T17:45:47.766Z</time>
      </trkpt>
      <trkpt lat="43.1394" lon="-1.36417">
        <ele>249.996647</ele>
        <time>2022-02-21T17:46:28.311Z</time>
      </trkpt>
      <trkpt lat="43.139" lon="-1.36367">
        <ele>254.30806</ele>
        <time>2022-02-21T17:47:05.398Z</time>
      </trkpt>
      <trkpt lat="43.13856" lon="-1.36343">
        <ele>257.772189</ele>
        <time>2022-02-21T17:47:37.198Z</time>
      </trkpt>
      <trkpt lat="43.13785" lon="-1.36346">
        <ele>258.771934</ele>
        <time>2022-02-21T17:48:10.629Z</time>
      </trkpt>
      <trkpt lat="43.13744" lon="-1.36356">
        <ele>259.365465</ele>
        <time>2022-02-21T17:48:21.569Z</time>
      </trkpt>
      <trkpt lat="43.13689" lon="-1.36396">
        <ele>260.233614</ele>
        <time>2022-02-21T17:48:32.129Z</time>
      </trkpt>
      <trkpt lat="43.13618" lon="-1.3648">
        <ele>256.366919</ele>
        <time>2022-02-21T17:48:46.904Z</time>
      </trkpt>
      <trkpt lat="43.13613" lon="-1.36486">
        <ele>256.08317</ele>
        <time>2022-02-21T17:48:47.989Z</time>
      </trkpt>
      <trkpt lat="43.13585" lon="-1.36501">
        <ele>254.834418</ele>
        <time>2022-02-21T17:48:52.771Z</time>
      </trkpt>
      <trkpt lat="43.13534" lon="-1.36505">
        <ele>252.762594</ele>
        <time>2022-02-21T17:49:01.330Z</time>
      </trkpt>
      <trkpt lat="43.13494" lon="-1.36493">
        <ele>252.637516</ele>
        <time>2022-02-21T17:49:08.743Z</time>
      </trkpt>
      <trkpt lat="43.13475" lon="-1.36494">
        <ele>252.580757</ele>
        <time>2022-02-21T17:49:12.355Z</time>
      </trkpt>
      <trkpt lat="43.13425" lon="-1.36518">
        <ele>252.421874</ele>
        <time>2022-02-21T17:49:25.337Z</time>
      </trkpt>
      <trkpt lat="43.13283" lon="-1.36654">
        <ele>254.131544</ele>
        <time>2022-02-21T17:50:15.760Z</time>
      </trkpt>
      <trkpt lat="43.13155" lon="-1.36732">
        <ele>256.945579</ele>
        <time>2022-02-21T17:51:03.712Z</time>
      </trkpt>
      <trkpt lat="43.13123" lon="-1.36762">
        <ele>257.806953</ele>
        <time>2022-02-21T17:51:16.864Z</time>
      </trkpt>
      <trkpt lat="43.13111" lon="-1.36779">
        <ele>258.197776</ele>
        <time>2022-02-21T17:51:22.827Z</time>
      </trkpt>
      <trkpt lat="43.13095" lon="-1.36819">
        <ele>258.951444</ele>
        <time>2022-02-21T17:51:34.049Z</time>
      </trkpt>
      <trkpt lat="43.13091" lon="-1.36946">
        <ele>259.927096</ele>
        <time>2022-02-21T17:52:02.925Z</time>
      </trkpt>
      <trkpt lat="43.13079" lon="-1.37025">
        <ele>260.315164</ele>
        <time>2022-02-21T17:52:18.911Z</time>
      </trkpt>
      <trkpt lat="43.13064" lon="-1.37062">
        <ele>260.517</ele>
        <time>2022-02-21T17:52:25.605Z</time>
      </trkpt>
      <trkpt lat="43.13024" lon="-1.37136">
        <ele>259.641805</ele>
        <time>2022-02-21T17:52:38.218Z</time>
      </trkpt>
      <trkpt lat="43.13012" lon="-1.3717">
        <ele>259.062652</ele>
        <time>2022-02-21T17:52:43.041Z</time>
      </trkpt>
      <trkpt lat="43.13009" lon="-1.372">
        <ele>258.595156</ele>
        <time>2022-02-21T17:52:46.930Z</time>
      </trkpt>
      <trkpt lat="43.13013" lon="-1.3726">
        <ele>257.65942</ele>
        <time>2022-02-21T17:52:54.574Z</time>
      </trkpt>
      <trkpt lat="43.13008" lon="-1.37312">
        <ele>256.848309</ele>
        <time>2022-02-21T17:53:01.176Z</time>
      </trkpt>
      <trkpt lat="43.12996" lon="-1.37337">
        <ele>257.568161</ele>
        <time>2022-02-21T17:53:05.100Z</time>
      </trkpt>
      <trkpt lat="43.12969" lon="-1.37362">
        <ele>258.666415</ele>
        <time>2022-02-21T17:53:12.119Z</time>
      </trkpt>
      <trkpt lat="43.12944" lon="-1.37371">
        <ele>259.544179</ele>
        <time>2022-02-21T17:53:20.798Z</time>
      </trkpt>
      <trkpt lat="43.12901" lon="-1.37373">
        <ele>260.98256</ele>
        <time>2022-02-21T17:53:38.599Z</time>
      </trkpt>
      <trkpt lat="43.12863" lon="-1.37365">
        <ele>262.284778</ele>
        <time>2022-02-21T17:54:00.386Z</time>
      </trkpt>
      <trkpt lat="43.1285" lon="-1.37348">
        <ele>262.893429</ele>
        <time>2022-02-21T17:54:13.034Z</time>
      </trkpt>
      <trkpt lat="43.1285" lon="-1.3733">
        <ele>263.945053</ele>
        <time>2022-02-21T17:54:22.275Z</time>
      </trkpt>
      <trkpt lat="43.12849" lon="-1.37326">
        <ele>264.191813</ele>
        <time>2022-02-21T17:54:24.332Z</time>
      </trkpt>
      <trkpt lat="43.12832" lon="-1.37315">
        <ele>265.707911</ele>
        <time>2022-02-21T17:54:38.536Z</time>
      </trkpt>
      <trkpt lat="43.12764" lon="-1.37315">
        <ele>271.168408</ele>
        <time>2022-02-21T17:55:24.645Z</time>
      </trkpt>
      <trkpt lat="43.12711" lon="-1.37321">
        <ele>275.465607</ele>
        <time>2022-02-21T17:55:57.983Z</time>
      </trkpt>
      <trkpt lat="43.12684" lon="-1.37341">
        <ele>277.543893</ele>
        <time>2022-02-21T17:56:16.593Z</time>
      </trkpt>
      <trkpt lat="43.12652" lon="-1.37392">
        <ele>278.247921</ele>
        <time>2022-02-21T17:56:38.473Z</time>
      </trkpt>
      <trkpt lat="43.12642" lon="-1.37448">
        <ele>278.845424</ele>
        <time>2022-02-21T17:56:49.925Z</time>
      </trkpt>
      <trkpt lat="43.12639" lon="-1.37482">
        <ele>279.205851</ele>
        <time>2022-02-21T17:56:55.179Z</time>
      </trkpt>
      <trkpt lat="43.12624" lon="-1.37545">
        <ele>279.892955</ele>
        <time>2022-02-21T17:57:04.009Z</time>
      </trkpt>
      <trkpt lat="43.12626" lon="-1.37568">
        <ele>280.040937</ele>
        <time>2022-02-21T17:57:07.198Z</time>
      </trkpt>
      <trkpt lat="43.12653" lon="-1.37602">
        <ele>280.133092</ele>
        <time>2022-02-21T17:57:13.831Z</time>
      </trkpt>
      <trkpt lat="43.1267" lon="-1.37641">
        <ele>280.215029</ele>
        <time>2022-02-21T17:57:20.480Z</time>
      </trkpt>
      <trkpt lat="43.1268" lon="-1.37754">
        <ele>280.420757</ele>
        <time>2022-02-21T17:57:46.321Z</time>
      </trkpt>
      <trkpt lat="43.12699" lon="-1.3781">
        <ele>280.9326</ele>
        <time>2022-02-21T17:57:58.962Z</time>
      </trkpt>
      <trkpt lat="43.12688" lon="-1.37854">
        <ele>281.518796</ele>
        <time>2022-02-21T17:58:11.044Z</time>
      </trkpt>
      <trkpt lat="43.12669" lon="-1.37897">
        <ele>282.162804</ele>
        <time>2022-02-21T17:58:23.825Z</time>
      </trkpt>
      <trkpt lat="43.1266" lon="-1.37913">
        <ele>282.414265</ele>
        <time>2022-02-21T17:58:28.846Z</time>
      </trkpt>
      <trkpt lat="43.12643" lon="-1.37981">
        <ele>283.330056</ele>
        <time>2022-02-21T17:58:45.357Z</time>
      </trkpt>
      <trkpt lat="43.12543" lon="-1.38083">
        <ele>283.739756</ele>
        <time>2022-02-21T17:59:17.735Z</time>
      </trkpt>
      <trkpt lat="43.12447" lon="-1.38147">
        <ele>283.364949</ele>
        <time>2022-02-21T17:59:39.564Z</time>
      </trkpt>
      <trkpt lat="43.12404" lon="-1.38209">
        <ele>282.548639</ele>
        <time>2022-02-21T17:59:50.161Z</time>
      </trkpt>
      <trkpt lat="43.12372" lon="-1.38296">
        <ele>281.631907</ele>
        <time>2022-02-21T18:00:03.978Z</time>
      </trkpt>
      <trkpt lat="43.12371" lon="-1.38317">
        <ele>281.760623</ele>
        <time>2022-02-21T18:00:07.385Z</time>
      </trkpt>
      <trkpt lat="43.1238" lon="-1.38343">
        <ele>282.792932</ele>
        <time>2022-02-21T18:00:13.202Z</time>
      </trkpt>
      <trkpt lat="43.12382" lon="-1.38349">
        <ele>283.015371</ele>
        <time>2022-02-21T18:00:14.335Z</time>
      </trkpt>
      <trkpt lat="43.12385" lon="-1.38357">
        <ele>283.357633</ele>
        <time>2022-02-21T18:00:16.172Z</time>
      </trkpt>
      <trkpt lat="43.12442" lon="-1.38523">
        <ele>289.958819</ele>
        <time>2022-02-21T18:01:19.578Z</time>
      </trkpt>
      <trkpt lat="43.12447" lon="-1.38581">
        <ele>294.227626</ele>
        <time>2022-02-21T18:01:57.313Z</time>
      </trkpt>
      <trkpt lat="43.12445" lon="-1.38642">
        <ele>299.216111</ele>
        <time>2022-02-21T18:02:36.140Z</time>
      </trkpt>
      <trkpt lat="43.12433" lon="-1.38677">
        <ele>302.35883</ele>
        <time>2022-02-21T18:03:01.041Z</time>
      </trkpt>
      <trkpt lat="43.12403" lon="-1.3872">
        <ele>307.157616</ele>
        <time>2022-02-21T18:03:35.140Z</time>
      </trkpt>
      <trkpt lat="43.12367" lon="-1.388">
        <ele>312.941484</ele>
        <time>2022-02-21T18:04:24.320Z</time>
      </trkpt>
      <trkpt lat="43.12354" lon="-1.38846">
        <ele>315.203316</ele>
        <time>2022-02-21T18:04:47.887Z</time>
      </trkpt>
      <trkpt lat="43.12351" lon="-1.38876">
        <ele>316.634405</ele>
        <time>2022-02-21T18:04:59.884Z</time>
      </trkpt>
      <trkpt lat="43.12353" lon="-1.38966">
        <ele>320.780162</ele>
        <time>2022-02-21T18:05:28.160Z</time>
      </trkpt>
      <trkpt lat="43.12329" lon="-1.39074">
        <ele>322.613079</ele>
        <time>2022-02-21T18:05:55.606Z</time>
      </trkpt>
      <trkpt lat="43.12327" lon="-1.39112">
        <ele>322.929231</ele>
        <time>2022-02-21T18:06:02.891Z</time>
      </trkpt>
      <trkpt lat="43.12356" lon="-1.39205">
        <ele>323.776194</ele>
        <time>2022-02-21T18:06:19.464Z</time>
      </trkpt>
      <trkpt lat="43.12357" lon="-1.39224">
        <ele>323.930719</ele>
        <time>2022-02-21T18:06:22.488Z</time>
      </trkpt>
      <trkpt lat="43.12347" lon="-1.39309">
        <ele>324.512631</ele>
        <time>2022-02-21T18:06:36.401Z</time>
      </trkpt>
      <trkpt lat="43.12352" lon="-1.39411">
        <ele>325.207944</ele>
        <time>2022-02-21T18:06:57.250Z</time>
      </trkpt>
      <trkpt lat="43.12322" lon="-1.3949">
        <ele>325.905576</ele>
        <time>2022-02-21T18:07:18.819Z</time>
      </trkpt>
      <trkpt lat="43.1226" lon="-1.39662">
        <ele>327.745324</ele>
        <time>2022-02-21T18:07:58.049Z</time>
      </trkpt>
      <trkpt lat="43.12257" lon="-1.39695">
        <ele>328.100632</ele>
        <time>2022-02-21T18:08:05.175Z</time>
      </trkpt>
      <trkpt lat="43.12271" lon="-1.39778">
        <ele>329.208574</ele>
        <time>2022-02-21T18:08:21.762Z</time>
      </trkpt>
      <trkpt lat="43.1225" lon="-1.39821">
        <ele>329.881194</ele>
        <time>2022-02-21T18:08:31.398Z</time>
      </trkpt>
      <trkpt lat="43.12189" lon="-1.39887">
        <ele>331.39815</ele>
        <time>2022-02-21T18:08:55.769Z</time>
      </trkpt>
      <trkpt lat="43.12148" lon="-1.39964">
        <ele>334.50083</ele>
        <time>2022-02-21T18:09:33.809Z</time>
      </trkpt>
      <trkpt lat="43.12104" lon="-1.40016">
        <ele>337.079871</ele>
        <time>2022-02-21T18:10:00.515Z</time>
      </trkpt>
      <trkpt lat="43.12073" lon="-1.40039">
        <ele>338.624974</ele>
        <time>2022-02-21T18:10:15.601Z</time>
      </trkpt>
      <trkpt lat="43.1206" lon="-1.40043">
        <ele>339.128886</ele>
        <time>2022-02-21T18:10:20.749Z</time>
      </trkpt>
      <trkpt lat="43.12019" lon="-1.4004">
        <ele>339.399788</ele>
        <time>2022-02-21T18:10:36.494Z</time>
      </trkpt>
      <trkpt lat="43.1198" lon="-1.40056">
        <ele>339.661367</ele>
        <time>2022-02-21T18:10:49.222Z</time>
      </trkpt>
      <trkpt lat="43.11954" lon="-1.40095">
        <ele>339.909254</ele>
        <time>2022-02-21T18:10:58.182Z</time>
      </trkpt>
      <trkpt lat="43.11902" lon="-1.40222">
        <ele>339.238789</ele>
        <time>2022-02-21T18:11:17.656Z</time>
      </trkpt>
      <trkpt lat="43.1189" lon="-1.40247">
        <ele>338.769356</ele>
        <time>2022-02-21T18:11:21.410Z</time>
      </trkpt>
      <trkpt lat="43.11879" lon="-1.40259">
        <ele>338.478047</ele>
        <time>2022-02-21T18:11:23.662Z</time>
      </trkpt>
      <trkpt lat="43.11859" lon="-1.40268">
        <ele>338.009176</ele>
        <time>2022-02-21T18:11:27.354Z</time>
      </trkpt>
      <trkpt lat="43.11846" lon="-1.40267">
        <ele>337.733089</ele>
        <time>2022-02-21T18:11:29.519Z</time>
      </trkpt>
      <trkpt lat="43.11771" lon="-1.40246">
        <ele>336.536424</ele>
        <time>2022-02-21T18:11:43.873Z</time>
      </trkpt>
      <trkpt lat="43.11713" lon="-1.40239">
        <ele>336.908481</ele>
        <time>2022-02-21T18:11:58.960Z</time>
      </trkpt>
      <trkpt lat="43.11712" lon="-1.40239">
        <ele>336.918733</ele>
        <time>2022-02-21T18:11:59.336Z</time>
      </trkpt>
      <trkpt lat="43.11667" lon="-1.40237">
        <ele>337.2076</ele>
        <time>2022-02-21T18:12:12.675Z</time>
      </trkpt>
      <trkpt lat="43.11642" lon="-1.40244">
        <ele>337.369052</ele>
        <time>2022-02-21T18:12:19.014Z</time>
      </trkpt>
      <trkpt lat="43.11586" lon="-1.40272">
        <ele>338.15108</ele>
        <time>2022-02-21T18:12:35.851Z</time>
      </trkpt>
      <trkpt lat="43.11495" lon="-1.40416">
        <ele>341.242443</ele>
        <time>2022-02-21T18:13:23.868Z</time>
      </trkpt>
      <trkpt lat="43.11438" lon="-1.40484">
        <ele>343.34851</ele>
        <time>2022-02-21T18:13:50.943Z</time>
      </trkpt>
      <trkpt lat="43.11358" lon="-1.40544">
        <ele>345.998874</ele>
        <time>2022-02-21T18:14:25.324Z</time>
      </trkpt>
      <trkpt lat="43.1134" lon="-1.40564">
        <ele>346.684457</ele>
        <time>2022-02-21T18:14:34.512Z</time>
      </trkpt>
      <trkpt lat="43.1133" lon="-1.40608">
        <ele>347.489428</ele>
        <time>2022-02-21T18:14:46.913Z</time>
      </trkpt>
      <trkpt lat="43.11339" lon="-1.407">
        <ele>349.036712</ele>
        <time>2022-02-21T18:15:09.940Z</time>
      </trkpt>
      <trkpt lat="43.11338" lon="-1.40748">
        <ele>349.830753</ele>
        <time>2022-02-21T18:15:21.322Z</time>
      </trkpt>
      <trkpt lat="43.11328" lon="-1.40796">
        <ele>350.668799</ele>
        <time>2022-02-21T18:15:32.746Z</time>
      </trkpt>
      <trkpt lat="43.11313" lon="-1.40836">
        <ele>351.421423</ele>
        <time>2022-02-21T18:15:42.453Z</time>
      </trkpt>
      <trkpt lat="43.11298" lon="-1.40857">
        <ele>351.912933</ele>
        <time>2022-02-21T18:15:48.798Z</time>
      </trkpt>
      <trkpt lat="43.11238" lon="-1.40935">
        <ele>353.807723</ele>
        <time>2022-02-21T18:16:16.248Z</time>
      </trkpt>
      <trkpt lat="43.11217" lon="-1.40952">
        <ele>354.371872</ele>
        <time>2022-02-21T18:16:24.568Z</time>
      </trkpt>
      <trkpt lat="43.1114" lon="-1.40976">
        <ele>356.565475</ele>
        <time>2022-02-21T18:16:55.177Z</time>
      </trkpt>
      <trkpt lat="43.111" lon="-1.40977">
        <ele>357.789041</ele>
        <time>2022-02-21T18:17:11.425Z</time>
      </trkpt>
      <trkpt lat="43.11084" lon="-1.40985">
        <ele>358.315287</ele>
        <time>2022-02-21T18:17:18.257Z</time>
      </trkpt>
      <trkpt lat="43.1107" lon="-1.41006">
        <ele>358.950032</ele>
        <time>2022-02-21T18:17:26.608Z</time>
      </trkpt>
      <trkpt lat="43.11033" lon="-1.41123">
        <ele>360.902971</ele>
        <time>2022-02-21T18:17:59.110Z</time>
      </trkpt>
      <trkpt lat="43.11006" lon="-1.41183">
        <ele>361.294567</ele>
        <time>2022-02-21T18:18:13.740Z</time>
      </trkpt>
      <trkpt lat="43.10946" lon="-1.41266">
        <ele>361.946854</ele>
        <time>2022-02-21T18:18:31.910Z</time>
      </trkpt>
      <trkpt lat="43.10916" lon="-1.41298">
        <ele>361.829008</ele>
        <time>2022-02-21T18:18:39.529Z</time>
      </trkpt>
      <trkpt lat="43.10828" lon="-1.41336">
        <ele>361.427394</ele>
        <time>2022-02-21T18:18:59.128Z</time>
      </trkpt>
      <trkpt lat="43.10816" lon="-1.41341">
        <ele>361.37299</ele>
        <time>2022-02-21T18:19:01.956Z</time>
      </trkpt>
      <trkpt lat="43.10727" lon="-1.41368">
        <ele>361.218781</ele>
        <time>2022-02-21T18:19:21.133Z</time>
      </trkpt>
      <trkpt lat="43.10703" lon="-1.41391">
        <ele>361.231619</ele>
        <time>2022-02-21T18:19:27.003Z</time>
      </trkpt>
      <trkpt lat="43.10696" lon="-1.41415">
        <ele>361.240092</ele>
        <time>2022-02-21T18:19:31.769Z</time>
      </trkpt>
      <trkpt lat="43.10693" lon="-1.41501">
        <ele>361.268164</ele>
        <time>2022-02-21T18:19:46.318Z</time>
      </trkpt>
      <trkpt lat="43.1068" lon="-1.41552">
        <ele>361.760163</ele>
        <time>2022-02-21T18:19:56.916Z</time>
      </trkpt>
      <trkpt lat="43.10663" lon="-1.41578">
        <ele>362.372146</ele>
        <time>2022-02-21T18:20:03.223Z</time>
      </trkpt>
      <trkpt lat="43.10636" lon="-1.41605">
        <ele>363.162982</ele>
        <time>2022-02-21T18:20:12.816Z</time>
      </trkpt>
      <trkpt lat="43.10606" lon="-1.41623">
        <ele>363.939271</ele>
        <time>2022-02-21T18:20:25.100Z</time>
      </trkpt>
      <trkpt lat="43.10553" lon="-1.41635">
        <ele>365.211635</ele>
        <time>2022-02-21T18:20:48.187Z</time>
      </trkpt>
      <trkpt lat="43.10535" lon="-1.41647">
        <ele>365.653484</ele>
        <time>2022-02-21T18:20:55.560Z</time>
      </trkpt>
      <trkpt lat="43.10504" lon="-1.41692">
        <ele>366.514606</ele>
        <time>2022-02-21T18:21:14.338Z</time>
      </trkpt>
      <trkpt lat="43.1049" lon="-1.41741">
        <ele>367.226864</ele>
        <time>2022-02-21T18:21:29.512Z</time>
      </trkpt>
      <trkpt lat="43.10488" lon="-1.41815">
        <ele>368.241872</ele>
        <time>2022-02-21T18:21:44.692Z</time>
      </trkpt>
      <trkpt lat="43.10477" lon="-1.41853">
        <ele>368.813219</ele>
        <time>2022-02-21T18:21:51.516Z</time>
      </trkpt>
      <trkpt lat="43.10455" lon="-1.41884">
        <ele>368.442231</ele>
        <time>2022-02-21T18:21:57.813Z</time>
      </trkpt>
      <trkpt lat="43.10428" lon="-1.4191">
        <ele>367.790351</ele>
        <time>2022-02-21T18:22:03.901Z</time>
      </trkpt>
      <trkpt lat="43.10374" lon="-1.41949">
        <ele>366.616137</ele>
        <time>2022-02-21T18:22:13.664Z</time>
      </trkpt>
      <trkpt lat="43.10315" lon="-1.41975">
        <ele>365.48331</ele>
        <time>2022-02-21T18:22:25.475Z</time>
      </trkpt>
      <trkpt lat="43.103" lon="-1.41987">
        <ele>366.138569</ele>
        <time>2022-02-21T18:22:29.727Z</time>
      </trkpt>
      <trkpt lat="43.10286" lon="-1.42014">
        <ele>367.04161</ele>
        <time>2022-02-21T18:22:35.767Z</time>
      </trkpt>
      <trkpt lat="43.10285" lon="-1.42042">
        <ele>367.825525</ele>
        <time>2022-02-21T18:22:42.495Z</time>
      </trkpt>
      <trkpt lat="43.10286" lon="-1.42047">
        <ele>367.955199</ele>
        <time>2022-02-21T18:22:43.769Z</time>
      </trkpt>
      <trkpt lat="43.10295" lon="-1.42085">
        <ele>369.055538</ele>
        <time>2022-02-21T18:22:55.600Z</time>
      </trkpt>
      <trkpt lat="43.10299" lon="-1.42104">
        <ele>369.595432</ele>
        <time>2022-02-21T18:23:01.885Z</time>
      </trkpt>
      <trkpt lat="43.10301" lon="-1.42111">
        <ele>369.795246</ele>
        <time>2022-02-21T18:23:04.181Z</time>
      </trkpt>
      <trkpt lat="43.10308" lon="-1.42127">
        <ele>370.318925</ele>
        <time>2022-02-21T18:23:11.703Z</time>
      </trkpt>
      <trkpt lat="43.10339" lon="-1.42166">
        <ele>371.889603</ele>
        <time>2022-02-21T18:23:33.711Z</time>
      </trkpt>
      <trkpt lat="43.10421" lon="-1.42243">
        <ele>380.544933</ele>
        <time>2022-02-21T18:24:41.580Z</time>
      </trkpt>
      <trkpt lat="43.10444" lon="-1.42283">
        <ele>383.980188</ele>
        <time>2022-02-21T18:25:07.984Z</time>
      </trkpt>
      <trkpt lat="43.10449" lon="-1.42299">
        <ele>385.174182</ele>
        <time>2022-02-21T18:25:16.781Z</time>
      </trkpt>
      <trkpt lat="43.1045" lon="-1.42322">
        <ele>386.712294</ele>
        <time>2022-02-21T18:25:29.195Z</time>
      </trkpt>
      <trkpt lat="43.10441" lon="-1.42375">
        <ele>390.187711</ele>
        <time>2022-02-21T18:25:57.974Z</time>
      </trkpt>
      <trkpt lat="43.10419" lon="-1.42434">
        <ele>394.06054</ele>
        <time>2022-02-21T18:26:32.934Z</time>
      </trkpt>
      <trkpt lat="43.10345" lon="-1.42547">
        <ele>403.097904</ele>
        <time>2022-02-21T18:27:41.453Z</time>
      </trkpt>
      <trkpt lat="43.10311" lon="-1.42586">
        <ele>403.718284</ele>
        <time>2022-02-21T18:28:02.034Z</time>
      </trkpt>
      <trkpt lat="43.10215" lon="-1.42667">
        <ele>404.751752</ele>
        <time>2022-02-21T18:28:31.706Z</time>
      </trkpt>
      <trkpt lat="43.1013" lon="-1.42708">
        <ele>400.492557</ele>
        <time>2022-02-21T18:28:45.763Z</time>
      </trkpt>
      <trkpt lat="43.10059" lon="-1.42767">
        <ele>394.701015</ele>
        <time>2022-02-21T18:28:57.883Z</time>
      </trkpt>
      <trkpt lat="43.10007" lon="-1.42796">
        <ele>391.307703</ele>
        <time>2022-02-21T18:29:05.930Z</time>
      </trkpt>
      <trkpt lat="43.09975" lon="-1.42805">
        <ele>389.685263</ele>
        <time>2022-02-21T18:29:10.918Z</time>
      </trkpt>
      <trkpt lat="43.09955" lon="-1.428">
        <ele>388.715196</ele>
        <time>2022-02-21T18:29:13.952Z</time>
      </trkpt>
      <trkpt lat="43.09861" lon="-1.42745">
        <ele>383.68419</ele>
        <time>2022-02-21T18:29:30.976Z</time>
      </trkpt>
      <trkpt lat="43.09845" lon="-1.42728">
        <ele>383.785825</ele>
        <time>2022-02-21T18:29:35.511Z</time>
      </trkpt>
      <trkpt lat="43.09822" lon="-1.42688">
        <ele>384.03247</ele>
        <time>2022-02-21T18:29:45.130Z</time>
      </trkpt>
      <trkpt lat="43.098" lon="-1.42673">
        <ele>384.199098</ele>
        <time>2022-02-21T18:29:52.097Z</time>
      </trkpt>
      <trkpt lat="43.09791" lon="-1.42668">
        <ele>384.264164</ele>
        <time>2022-02-21T18:29:54.961Z</time>
      </trkpt>
      <trkpt lat="43.09761" lon="-1.42652">
        <ele>384.474457</ele>
        <time>2022-02-21T18:30:04.475Z</time>
      </trkpt>
      <trkpt lat="43.09578" lon="-1.42576">
        <ele>387.615372</ele>
        <time>2022-02-21T18:31:03.003Z</time>
      </trkpt>
      <trkpt lat="43.09486" lon="-1.42521">
        <ele>389.6245</ele>
        <time>2022-02-21T18:31:41.103Z</time>
      </trkpt>
      <trkpt lat="43.09439" lon="-1.42502">
        <ele>390.583319</ele>
        <time>2022-02-21T18:31:57.407Z</time>
      </trkpt>
      <trkpt lat="43.09416" lon="-1.42494">
        <ele>391.038249</ele>
        <time>2022-02-21T18:32:04.794Z</time>
      </trkpt>
      <trkpt lat="43.09378" lon="-1.42482">
        <ele>391.803572</ele>
        <time>2022-02-21T18:32:16.729Z</time>
      </trkpt>
      <trkpt lat="43.09347" lon="-1.42479">
        <ele>391.905456</ele>
        <time>2022-02-21T18:32:24.125Z</time>
      </trkpt>
      <trkpt lat="43.09262" lon="-1.42502">
        <ele>391.200815</ele>
        <time>2022-02-21T18:32:41.873Z</time>
      </trkpt>
      <trkpt lat="43.09214" lon="-1.42483">
        <ele>390.791551</ele>
        <time>2022-02-21T18:32:50.773Z</time>
      </trkpt>
      <trkpt lat="43.09045" lon="-1.42465">
        <ele>389.266386</ele>
        <time>2022-02-21T18:33:25.020Z</time>
      </trkpt>
      <trkpt lat="43.08968" lon="-1.4244">
        <ele>389.077318</ele>
        <time>2022-02-21T18:33:41.004Z</time>
      </trkpt>
      <trkpt lat="43.08946" lon="-1.4244">
        <ele>389.150186</ele>
        <time>2022-02-21T18:33:45.634Z</time>
      </trkpt>
      <trkpt lat="43.08891" lon="-1.42439">
        <ele>389.326408</ele>
        <time>2022-02-21T18:33:57.506Z</time>
      </trkpt>
      <trkpt lat="43.08769" lon="-1.42407">
        <ele>391.17842</ele>
        <time>2022-02-21T18:34:37.234Z</time>
      </trkpt>
      <trkpt lat="43.08633" lon="-1.42375">
        <ele>394.131182</ele>
        <time>2022-02-21T18:35:29.824Z</time>
      </trkpt>
      <trkpt lat="43.08576" lon="-1.42365">
        <ele>394.229398</ele>
        <time>2022-02-21T18:35:45.452Z</time>
      </trkpt>
      <trkpt lat="43.08516" lon="-1.42364">
        <ele>394.331242</ele>
        <time>2022-02-21T18:35:57.661Z</time>
      </trkpt>
      <trkpt lat="43.08458" lon="-1.4235">
        <ele>394.402287</ele>
        <time>2022-02-21T18:36:08.465Z</time>
      </trkpt>
      <trkpt lat="43.08418" lon="-1.4234">
        <ele>394.411063</ele>
        <time>2022-02-21T18:36:15.901Z</time>
      </trkpt>
      <trkpt lat="43.08378" lon="-1.42312">
        <ele>394.420801</ele>
        <time>2022-02-21T18:36:24.793Z</time>
      </trkpt>
      <trkpt lat="43.08358" lon="-1.42305">
        <ele>394.425316</ele>
        <time>2022-02-21T18:36:29.292Z</time>
      </trkpt>
      <trkpt lat="43.08262" lon="-1.42299">
        <ele>396.344804</ele>
        <time>2022-02-21T18:37:03.635Z</time>
      </trkpt>
      <trkpt lat="43.0821" lon="-1.42261">
        <ele>398.978161</ele>
        <time>2022-02-21T18:37:32.012Z</time>
      </trkpt>
      <trkpt lat="43.08094" lon="-1.42222">
        <ele>404.310339</ele>
        <time>2022-02-21T18:38:30.323Z</time>
      </trkpt>
      <trkpt lat="43.07953" lon="-1.42225">
        <ele>410.568704</ele>
        <time>2022-02-21T18:39:33.461Z</time>
      </trkpt>
      <trkpt lat="43.07885" lon="-1.42184">
        <ele>411.898416</ele>
        <time>2022-02-21T18:39:58.575Z</time>
      </trkpt>
      <trkpt lat="43.07808" lon="-1.42174">
        <ele>413.27683</ele>
        <time>2022-02-21T18:40:23.174Z</time>
      </trkpt>
      <trkpt lat="43.07711" lon="-1.42115">
        <ele>413.11623</ele>
        <time>2022-02-21T18:40:44.768Z</time>
      </trkpt>
      <trkpt lat="43.07664" lon="-1.42075">
        <ele>412.668344</ele>
        <time>2022-02-21T18:40:55.423Z</time>
      </trkpt>
      <trkpt lat="43.0764" lon="-1.42064">
        <ele>412.456994</ele>
        <time>2022-02-21T18:41:00.128Z</time>
      </trkpt>
      <trkpt lat="43.07596" lon="-1.42058">
        <ele>412.624941</ele>
        <time>2022-02-21T18:41:09.060Z</time>
      </trkpt>
      <trkpt lat="43.07581" lon="-1.42048">
        <ele>412.859026</ele>
        <time>2022-02-21T18:41:12.489Z</time>
      </trkpt>
      <trkpt lat="43.07526" lon="-1.41985">
        <ele>413.845124</ele>
        <time>2022-02-21T18:41:31.268Z</time>
      </trkpt>
      <trkpt lat="43.07512" lon="-1.41969">
        <ele>414.09882</ele>
        <time>2022-02-21T18:41:36.558Z</time>
      </trkpt>
      <trkpt lat="43.07486" lon="-1.41915">
        <ele>414.748701</ele>
        <time>2022-02-21T18:41:55.543Z</time>
      </trkpt>
      <trkpt lat="43.07485" lon="-1.41908">
        <ele>414.937551</ele>
        <time>2022-02-21T18:41:57.504Z</time>
      </trkpt>
      <trkpt lat="43.07471" lon="-1.41876">
        <ele>416.333393</ele>
        <time>2022-02-21T18:42:10.037Z</time>
      </trkpt>
      <trkpt lat="43.07411" lon="-1.4182">
        <ele>420.019826</ele>
        <time>2022-02-21T18:42:46.937Z</time>
      </trkpt>
      <trkpt lat="43.07357" lon="-1.41807">
        <ele>422.834004</ele>
        <time>2022-02-21T18:43:18.655Z</time>
      </trkpt>
      <trkpt lat="43.07323" lon="-1.41792">
        <ele>424.120777</ele>
        <time>2022-02-21T18:43:34.209Z</time>
      </trkpt>
      <trkpt lat="43.07238" lon="-1.41734">
        <ele>425.303305</ele>
        <time>2022-02-21T18:44:03.646Z</time>
      </trkpt>
      <trkpt lat="43.07229" lon="-1.41731">
        <ele>425.411448</ele>
        <time>2022-02-21T18:44:06.223Z</time>
      </trkpt>
      <trkpt lat="43.07175" lon="-1.41751">
        <ele>426.110484</ele>
        <time>2022-02-21T18:44:17.834Z</time>
      </trkpt>
      <trkpt lat="43.07152" lon="-1.4175">
        <ele>425.818476</ele>
        <time>2022-02-21T18:44:22.243Z</time>
      </trkpt>
      <trkpt lat="43.07143" lon="-1.41748">
        <ele>425.615719</ele>
        <time>2022-02-21T18:44:23.895Z</time>
      </trkpt>
      <trkpt lat="43.07103" lon="-1.41706">
        <ele>424.526893</ele>
        <time>2022-02-21T18:44:32.526Z</time>
      </trkpt>
      <trkpt lat="43.07088" lon="-1.41692">
        <ele>424.137692</ele>
        <time>2022-02-21T18:44:35.481Z</time>
      </trkpt>
      <trkpt lat="43.0708" lon="-1.41688">
        <ele>423.960487</ele>
        <time>2022-02-21T18:44:36.771Z</time>
      </trkpt>
      <trkpt lat="43.07039" lon="-1.41668">
        <ele>423.015993</ele>
        <time>2022-02-21T18:44:44.562Z</time>
      </trkpt>
      <trkpt lat="43.06998" lon="-1.41666">
        <ele>422.286839</ele>
        <time>2022-02-21T18:44:52.892Z</time>
      </trkpt>
      <trkpt lat="43.0697" lon="-1.41627">
        <ele>422.192069</ele>
        <time>2022-02-21T18:45:01.332Z</time>
      </trkpt>
      <trkpt lat="43.06951" lon="-1.41623">
        <ele>422.147427</ele>
        <time>2022-02-21T18:45:05.344Z</time>
      </trkpt>
      <trkpt lat="43.06922" lon="-1.41598">
        <ele>422.066773</ele>
        <time>2022-02-21T18:45:12.821Z</time>
      </trkpt>
      <trkpt lat="43.06879" lon="-1.41541">
        <ele>421.925955</ele>
        <time>2022-02-21T18:45:27.239Z</time>
      </trkpt>
      <trkpt lat="43.06864" lon="-1.41523">
        <ele>421.883551</ele>
        <time>2022-02-21T18:45:32.300Z</time>
      </trkpt>
      <trkpt lat="43.06828" lon="-1.41494">
        <ele>422.296532</ele>
        <time>2022-02-21T18:45:43.131Z</time>
      </trkpt>
      <trkpt lat="43.06786" lon="-1.41396">
        <ele>423.113154</ele>
        <time>2022-02-21T18:46:06.395Z</time>
      </trkpt>
      <trkpt lat="43.06754" lon="-1.41356">
        <ele>423.543738</ele>
        <time>2022-02-21T18:46:19.158Z</time>
      </trkpt>
      <trkpt lat="43.06717" lon="-1.41304">
        <ele>424.206942</ele>
        <time>2022-02-21T18:46:35.845Z</time>
      </trkpt>
      <trkpt lat="43.06654" lon="-1.41239">
        <ele>425.26878</ele>
        <time>2022-02-21T18:46:58.744Z</time>
      </trkpt>
      <trkpt lat="43.06621" lon="-1.41197">
        <ele>425.8658</ele>
        <time>2022-02-21T18:47:12.510Z</time>
      </trkpt>
      <trkpt lat="43.06602" lon="-1.41163">
        <ele>426.337668</ele>
        <time>2022-02-21T18:47:21.682Z</time>
      </trkpt>
      <trkpt lat="43.06557" lon="-1.4114">
        <ele>427.123357</ele>
        <time>2022-02-21T18:47:36.673Z</time>
      </trkpt>
      <trkpt lat="43.06544" lon="-1.41127">
        <ele>427.386695</ele>
        <time>2022-02-21T18:47:40.463Z</time>
      </trkpt>
      <trkpt lat="43.0654" lon="-1.4112">
        <ele>427.489063</ele>
        <time>2022-02-21T18:47:42.134Z</time>
      </trkpt>
      <trkpt lat="43.06534" lon="-1.41095">
        <ele>427.808471</ele>
        <time>2022-02-21T18:47:48.557Z</time>
      </trkpt>
      <trkpt lat="43.0651" lon="-1.41065">
        <ele>428.350571</ele>
        <time>2022-02-21T18:47:58.130Z</time>
      </trkpt>
      <trkpt lat="43.06491" lon="-1.41013">
        <ele>429.110442</ele>
        <time>2022-02-21T18:48:10.672Z</time>
      </trkpt>
      <trkpt lat="43.06412" lon="-1.40932">
        <ele>434.313826</ele>
        <time>2022-02-21T18:48:54.059Z</time>
      </trkpt>
      <trkpt lat="43.06384" lon="-1.40844">
        <ele>437.996166</ele>
        <time>2022-02-21T18:49:33.282Z</time>
      </trkpt>
      <trkpt lat="43.0636" lon="-1.40789">
        <ele>442.899186</ele>
        <time>2022-02-21T18:50:04.135Z</time>
      </trkpt>
      <trkpt lat="43.06332" lon="-1.40773">
        <ele>446.477966</ele>
        <time>2022-02-21T18:50:28.103Z</time>
      </trkpt>
      <trkpt lat="43.06368" lon="-1.40722">
        <ele>452.572633</ele>
        <time>2022-02-21T18:51:13.192Z</time>
      </trkpt>
      <trkpt lat="43.06375" lon="-1.40667">
        <ele>457.348357</ele>
        <time>2022-02-21T18:51:52.218Z</time>
      </trkpt>
      <trkpt lat="43.06392" lon="-1.40633">
        <ele>461.056224</ele>
        <time>2022-02-21T18:52:21.990Z</time>
      </trkpt>
      <trkpt lat="43.06439" lon="-1.40564">
        <ele>469.851279</ele>
        <time>2022-02-21T18:53:21.853Z</time>
      </trkpt>
      <trkpt lat="43.06457" lon="-1.40494">
        <ele>476.821239</ele>
        <time>2022-02-21T18:54:13.085Z</time>
      </trkpt>
      <trkpt lat="43.06469" lon="-1.40426">
        <ele>483.283801</ele>
        <time>2022-02-21T18:54:58.601Z</time>
      </trkpt>
      <trkpt lat="43.06451" lon="-1.40363">
        <ele>488.792885</ele>
        <time>2022-02-21T18:55:41.665Z</time>
      </trkpt>
      <trkpt lat="43.06429" lon="-1.40244">
        <ele>498.847968</ele>
        <time>2022-02-21T18:56:53.542Z</time>
      </trkpt>
      <trkpt lat="43.06426" lon="-1.40178">
        <ele>504.689044</ele>
        <time>2022-02-21T18:57:36.705Z</time>
      </trkpt>
      <trkpt lat="43.06438" lon="-1.40116">
        <ele>511.767878</ele>
        <time>2022-02-21T18:58:19.801Z</time>
      </trkpt>
      <trkpt lat="43.06436" lon="-1.40094">
        <ele>514.183764</ele>
        <time>2022-02-21T18:58:35.498Z</time>
      </trkpt>
      <trkpt lat="43.06405" lon="-1.40007">
        <ele>524.777078</ele>
        <time>2022-02-21T19:00:00.466Z</time>
      </trkpt>
      <trkpt lat="43.06396" lon="-1.39959">
        <ele>530.083187</ele>
        <time>2022-02-21T19:00:40.158Z</time>
      </trkpt>
      <trkpt lat="43.06379" lon="-1.39922">
        <ele>533.714149</ele>
        <time>2022-02-21T19:01:12.674Z</time>
      </trkpt>
      <trkpt lat="43.06362" lon="-1.39905">
        <ele>536.081949</ele>
        <time>2022-02-21T19:01:35.108Z</time>
      </trkpt>
      <trkpt lat="43.0635" lon="-1.39869">
        <ele>539.296753</ele>
        <time>2022-02-21T19:02:01.015Z</time>
      </trkpt>
      <trkpt lat="43.06338" lon="-1.39781">
        <ele>546.720804</ele>
        <time>2022-02-21T19:02:49.679Z</time>
      </trkpt>
      <trkpt lat="43.06341" lon="-1.39759">
        <ele>548.577351</ele>
        <time>2022-02-21T19:03:00.388Z</time>
      </trkpt>
      <trkpt lat="43.06364" lon="-1.39699">
        <ele>549.726739</ele>
        <time>2022-02-21T19:03:25.875Z</time>
      </trkpt>
      <trkpt lat="43.06372" lon="-1.39663">
        <ele>549.364901</ele>
        <time>2022-02-21T19:03:32.403Z</time>
      </trkpt>
      <trkpt lat="43.06374" lon="-1.39606">
        <ele>548.833851</ele>
        <time>2022-02-21T19:03:40.352Z</time>
      </trkpt>
      <trkpt lat="43.06366" lon="-1.39566">
        <ele>548.436386</ele>
        <time>2022-02-21T19:03:45.856Z</time>
      </trkpt>
      <trkpt lat="43.06368" lon="-1.39507">
        <ele>547.882785</ele>
        <time>2022-02-21T19:03:52.553Z</time>
      </trkpt>
      <trkpt lat="43.06358" lon="-1.3946">
        <ele>545.440722</ele>
        <time>2022-02-21T19:03:58.086Z</time>
      </trkpt>
      <trkpt lat="43.06331" lon="-1.39396">
        <ele>541.611305</ele>
        <time>2022-02-21T19:04:06.456Z</time>
      </trkpt>
      <trkpt lat="43.06302" lon="-1.39352">
        <ele>538.513376</ele>
        <time>2022-02-21T19:04:13.122Z</time>
      </trkpt>
      <trkpt lat="43.06272" lon="-1.39333">
        <ele>536.175442</ele>
        <time>2022-02-21T19:04:18.407Z</time>
      </trkpt>
      <trkpt lat="43.06211" lon="-1.39275">
        <ele>534.646928</ele>
        <time>2022-02-21T19:04:30.179Z</time>
      </trkpt>
      <trkpt lat="43.06217" lon="-1.39263">
        <ele>534.577978</ele>
        <time>2022-02-21T19:04:31.808Z</time>
      </trkpt>
      <trkpt lat="43.06272" lon="-1.39218">
        <ele>534.152598</ele>
        <time>2022-02-21T19:04:46.134Z</time>
      </trkpt>
      <trkpt lat="43.06301" lon="-1.39168">
        <ele>533.843062</ele>
        <time>2022-02-21T19:05:06.315Z</time>
      </trkpt>
      <trkpt lat="43.06328" lon="-1.39132">
        <ele>538.327216</ele>
        <time>2022-02-21T19:05:34.268Z</time>
      </trkpt>
      <trkpt lat="43.06346" lon="-1.39088">
        <ele>542.82126</ele>
        <time>2022-02-21T19:06:03.597Z</time>
      </trkpt>
      <trkpt lat="43.06387" lon="-1.39029">
        <ele>550.034369</ele>
        <time>2022-02-21T19:06:55.264Z</time>
      </trkpt>
      <trkpt lat="43.06384" lon="-1.38989">
        <ele>553.655474</ele>
        <time>2022-02-21T19:07:23.666Z</time>
      </trkpt>
      <trkpt lat="43.06377" lon="-1.38982">
        <ele>554.679197</ele>
        <time>2022-02-21T19:07:35.321Z</time>
      </trkpt>
      <trkpt lat="43.06368" lon="-1.38982">
        <ele>555.876084</ele>
        <time>2022-02-21T19:07:45.115Z</time>
      </trkpt>
      <trkpt lat="43.06346" lon="-1.38996">
        <ele>559.176412</ele>
        <time>2022-02-21T19:08:12.783Z</time>
      </trkpt>
      <trkpt lat="43.06274" lon="-1.39003">
        <ele>569.10668</ele>
        <time>2022-02-21T19:09:27.733Z</time>
      </trkpt>
      <trkpt lat="43.06223" lon="-1.39017">
        <ele>576.23049</ele>
        <time>2022-02-21T19:10:16.726Z</time>
      </trkpt>
      <trkpt lat="43.06208" lon="-1.39016">
        <ele>578.265433</ele>
        <time>2022-02-21T19:10:25.246Z</time>
      </trkpt>
      <trkpt lat="43.06173" lon="-1.38997">
        <ele>581.735503</ele>
        <time>2022-02-21T19:10:47.841Z</time>
      </trkpt>
      <trkpt lat="43.06121" lon="-1.39014">
        <ele>585.008595</ele>
        <time>2022-02-21T19:11:17.276Z</time>
      </trkpt>
      <trkpt lat="43.06117" lon="-1.39006">
        <ele>585.446913</ele>
        <time>2022-02-21T19:11:20.452Z</time>
      </trkpt>
      <trkpt lat="43.06127" lon="-1.3899">
        <ele>586.381419</ele>
        <time>2022-02-21T19:11:27.640Z</time>
      </trkpt>
      <trkpt lat="43.06165" lon="-1.38959">
        <ele>589.032966</ele>
        <time>2022-02-21T19:11:45.700Z</time>
      </trkpt>
      <trkpt lat="43.06216" lon="-1.38962">
        <ele>592.943174</ele>
        <time>2022-02-21T19:12:08.774Z</time>
      </trkpt>
      <trkpt lat="43.06219" lon="-1.38951">
        <ele>594.017437</ele>
        <time>2022-02-21T19:12:13.697Z</time>
      </trkpt>
      <trkpt lat="43.06216" lon="-1.38947">
        <ele>594.532882</ele>
        <time>2022-02-21T19:12:16.940Z</time>
      </trkpt>
      <trkpt lat="43.06188" lon="-1.38939">
        <ele>597.896037</ele>
        <time>2022-02-21T19:12:35.822Z</time>
      </trkpt>
      <trkpt lat="43.06149" lon="-1.38914">
        <ele>603.150698</ele>
        <time>2022-02-21T19:13:14.424Z</time>
      </trkpt>
      <trkpt lat="43.06105" lon="-1.38941">
        <ele>608.896557</ele>
        <time>2022-02-21T19:14:02.180Z</time>
      </trkpt>
      <trkpt lat="43.05998" lon="-1.38939">
        <ele>623.071411</ele>
        <time>2022-02-21T19:15:52.282Z</time>
      </trkpt>
      <trkpt lat="43.05969" lon="-1.38924">
        <ele>627.329434</ele>
        <time>2022-02-21T19:16:21.218Z</time>
      </trkpt>
      <trkpt lat="43.05933" lon="-1.38877">
        <ele>634.182435</ele>
        <time>2022-02-21T19:17:05.614Z</time>
      </trkpt>
      <trkpt lat="43.0591" lon="-1.38832">
        <ele>639.696027</ele>
        <time>2022-02-21T19:17:36.048Z</time>
      </trkpt>
      <trkpt lat="43.05917" lon="-1.38823">
        <ele>640.915009</ele>
        <time>2022-02-21T19:17:43.140Z</time>
      </trkpt>
      <trkpt lat="43.05946" lon="-1.38849">
        <ele>645.575031</ele>
        <time>2022-02-21T19:18:07.792Z</time>
      </trkpt>
      <trkpt lat="43.05964" lon="-1.38851">
        <ele>647.945377</ele>
        <time>2022-02-21T19:18:21.204Z</time>
      </trkpt>
      <trkpt lat="43.05971" lon="-1.38843">
        <ele>649.134214</ele>
        <time>2022-02-21T19:18:27.793Z</time>
      </trkpt>
      <trkpt lat="43.05953" lon="-1.38824">
        <ele>652.179437</ele>
        <time>2022-02-21T19:18:48.208Z</time>
      </trkpt>
      <trkpt lat="43.05921" lon="-1.38768">
        <ele>659.047142</ele>
        <time>2022-02-21T19:19:38.275Z</time>
      </trkpt>
      <trkpt lat="43.05886" lon="-1.3863">
        <ele>678.410996</ele>
        <time>2022-02-21T19:21:44.678Z</time>
      </trkpt>
      <trkpt lat="43.05878" lon="-1.38609">
        <ele>681.680176</ele>
        <time>2022-02-21T19:22:06.481Z</time>
      </trkpt>
      <trkpt lat="43.05842" lon="-1.38547">
        <ele>692.829177</ele>
        <time>2022-02-21T19:23:22.996Z</time>
      </trkpt>
      <trkpt lat="43.05647" lon="-1.38399">
        <ele>732.708536</ele>
        <time>2022-02-21T19:27:31.674Z</time>
      </trkpt>
      <trkpt lat="43.05579" lon="-1.3834">
        <ele>746.392958</ele>
        <time>2022-02-21T19:28:55.598Z</time>
      </trkpt>
      <trkpt lat="43.05546" lon="-1.38282">
        <ele>755.620822</ele>
        <time>2022-02-21T19:29:54.699Z</time>
      </trkpt>
      <trkpt lat="43.05544" lon="-1.3826">
        <ele>758.392992</ele>
        <time>2022-02-21T19:30:13.376Z</time>
      </trkpt>
      <trkpt lat="43.0556" lon="-1.3824">
        <ele>762.160461</ele>
        <time>2022-02-21T19:30:39.043Z</time>
      </trkpt>
      <trkpt lat="43.05687" lon="-1.38242">
        <ele>784.333419</ele>
        <time>2022-02-21T19:32:57.723Z</time>
      </trkpt>
      <trkpt lat="43.05694" lon="-1.38226">
        <ele>786.763587</ele>
        <time>2022-02-21T19:33:12.554Z</time>
      </trkpt>
      <trkpt lat="43.05694" lon="-1.38212">
        <ele>788.440605</ele>
        <time>2022-02-21T19:33:23.862Z</time>
      </trkpt>
      <trkpt lat="43.05661" lon="-1.38093">
        <ele>804.934091</ele>
        <time>2022-02-21T19:35:08.978Z</time>
      </trkpt>
      <trkpt lat="43.05664" lon="-1.38082">
        <ele>806.460575</ele>
        <time>2022-02-21T19:35:20.887Z</time>
      </trkpt>
      <trkpt lat="43.05682" lon="-1.38063">
        <ele>810.406072</ele>
        <time>2022-02-21T19:35:42.851Z</time>
      </trkpt>
      <trkpt lat="43.05721" lon="-1.38048">
        <ele>817.523419</ele>
        <time>2022-02-21T19:36:23.972Z</time>
      </trkpt>
      <trkpt lat="43.05727" lon="-1.38031">
        <ele>819.961514</ele>
        <time>2022-02-21T19:36:42.975Z</time>
      </trkpt>
      <trkpt lat="43.05688" lon="-1.37998">
        <ele>827.806416</ele>
        <time>2022-02-21T19:37:29.315Z</time>
      </trkpt>
      <trkpt lat="43.0567" lon="-1.37967">
        <ele>832.835772</ele>
        <time>2022-02-21T19:38:04.857Z</time>
      </trkpt>
      <trkpt lat="43.05638" lon="-1.37891">
        <ele>843.623221</ele>
        <time>2022-02-21T19:39:20.781Z</time>
      </trkpt>
      <trkpt lat="43.05564" lon="-1.37774">
        <ele>859.916643</ele>
        <time>2022-02-21T19:41:08.105Z</time>
      </trkpt>
      <trkpt lat="43.05525" lon="-1.37732">
        <ele>865.764502</ele>
        <time>2022-02-21T19:41:48.532Z</time>
      </trkpt>
      <trkpt lat="43.05429" lon="-1.37693">
        <ele>876.664467</ele>
        <time>2022-02-21T19:43:02.350Z</time>
      </trkpt>
      <trkpt lat="43.05384" lon="-1.37666">
        <ele>880.800238</ele>
        <time>2022-02-21T19:43:33.937Z</time>
      </trkpt>
      <trkpt lat="43.05341" lon="-1.37632">
        <ele>884.930796</ele>
        <time>2022-02-21T19:44:05.108Z</time>
      </trkpt>
      <trkpt lat="43.05286" lon="-1.37615">
        <ele>889.580654</ele>
        <time>2022-02-21T19:44:38.767Z</time>
      </trkpt>
      <trkpt lat="43.05232" lon="-1.37612">
        <ele>893.839092</ele>
        <time>2022-02-21T19:45:12.296Z</time>
      </trkpt>
      <trkpt lat="43.05204" lon="-1.37593">
        <ele>896.360261</ele>
        <time>2022-02-21T19:45:31.160Z</time>
      </trkpt>
      <trkpt lat="43.0517" lon="-1.37587">
        <ele>899.027704</ele>
        <time>2022-02-21T19:45:51.163Z</time>
      </trkpt>
      <trkpt lat="43.05152" lon="-1.37585">
        <ele>900.489342</ele>
        <time>2022-02-21T19:46:04.096Z</time>
      </trkpt>
      <trkpt lat="43.0514" lon="-1.37577">
        <ele>901.542942</ele>
        <time>2022-02-21T19:46:12.111Z</time>
      </trkpt>
      <trkpt lat="43.051" lon="-1.37532">
        <ele>906.761726</ele>
        <time>2022-02-21T19:46:46.822Z</time>
      </trkpt>
      <trkpt lat="43.05072" lon="-1.37476">
        <ele>912.818119</ele>
        <time>2022-02-21T19:47:21.901Z</time>
      </trkpt>
      <trkpt lat="43.05031" lon="-1.37425">
        <ele>919.471502</ele>
        <time>2022-02-21T19:48:12.172Z</time>
      </trkpt>
      <trkpt lat="43.04986" lon="-1.37383">
        <ele>926.209606</ele>
        <time>2022-02-21T19:49:06.511Z</time>
      </trkpt>
      <trkpt lat="43.04933" lon="-1.37302">
        <ele>936.225897</ele>
        <time>2022-02-21T19:50:27.033Z</time>
      </trkpt>
      <trkpt lat="43.04872" lon="-1.3725">
        <ele>945.217043</ele>
        <time>2022-02-21T19:51:30.093Z</time>
      </trkpt>
      <trkpt lat="43.04703" lon="-1.37143">
        <ele>956.87188</ele>
        <time>2022-02-21T19:53:01.537Z</time>
      </trkpt>
      <trkpt lat="43.04706" lon="-1.37123">
        <ele>957.664852</ele>
        <time>2022-02-21T19:53:05.930Z</time>
      </trkpt>
      <trkpt lat="43.04668" lon="-1.37103">
        <ele>960.38474</ele>
        <time>2022-02-21T19:53:21.887Z</time>
      </trkpt>
      <trkpt lat="43.04648" lon="-1.37099">
        <ele>961.710179</ele>
        <time>2022-02-21T19:53:31.734Z</time>
      </trkpt>
      <trkpt lat="43.04588" lon="-1.37109">
        <ele>965.710596</ele>
        <time>2022-02-21T19:54:05.137Z</time>
      </trkpt>
      <trkpt lat="43.04557" lon="-1.37132">
        <ele>968.072711</ele>
        <time>2022-02-21T19:54:27.509Z</time>
      </trkpt>
      <trkpt lat="43.04494" lon="-1.37207">
        <ele>975.706897</ele>
        <time>2022-02-21T19:55:31.787Z</time>
      </trkpt>
      <trkpt lat="43.04476" lon="-1.37216">
        <ele>977.650087</ele>
        <time>2022-02-21T19:55:46.744Z</time>
      </trkpt>
      <trkpt lat="43.04428" lon="-1.37213">
        <ele>982.481332</ele>
        <time>2022-02-21T19:56:25.295Z</time>
      </trkpt>
      <trkpt lat="43.04405" lon="-1.37196">
        <ele>985.164978</ele>
        <time>2022-02-21T19:56:45.140Z</time>
      </trkpt>
      <trkpt lat="43.04362" lon="-1.37095">
        <ele>992.994677</ele>
        <time>2022-02-21T19:57:39.725Z</time>
      </trkpt>
      <trkpt lat="43.04329" lon="-1.37043">
        <ele>997.403722</ele>
        <time>2022-02-21T19:58:10.026Z</time>
      </trkpt>
      <trkpt lat="43.04296" lon="-1.37009">
        <ele>1000.994449</ele>
        <time>2022-02-21T19:58:39.000Z</time>
      </trkpt>
      <trkpt lat="43.04277" lon="-1.36998">
        <ele>1002.803734</ele>
        <time>2022-02-21T19:58:53.588Z</time>
      </trkpt>
      <trkpt lat="43.04248" lon="-1.37005">
        <ele>1005.521644</ele>
        <time>2022-02-21T19:59:15.324Z</time>
      </trkpt>
      <trkpt lat="43.04223" lon="-1.36998">
        <ele>1007.900663</ele>
        <time>2022-02-21T19:59:34.787Z</time>
      </trkpt>
      <trkpt lat="43.04203" lon="-1.36982">
        <ele>1010.055653</ele>
        <time>2022-02-21T19:59:51.613Z</time>
      </trkpt>
      <trkpt lat="43.0416" lon="-1.36973">
        <ele>1014.140876</ele>
        <time>2022-02-21T20:00:22.210Z</time>
      </trkpt>
      <trkpt lat="43.04123" lon="-1.36956">
        <ele>1017.743478</ele>
        <time>2022-02-21T20:00:48.726Z</time>
      </trkpt>
      <trkpt lat="43.04087" lon="-1.3692">
        <ele>1021.439949</ele>
        <time>2022-02-21T20:01:18.017Z</time>
      </trkpt>
      <trkpt lat="43.0406" lon="-1.36902">
        <ele>1023.34042</ele>
        <time>2022-02-21T20:01:38.030Z</time>
      </trkpt>
      <trkpt lat="43.04057" lon="-1.3689">
        <ele>1023.929674</ele>
        <time>2022-02-21T20:01:43.754Z</time>
      </trkpt>
      <trkpt lat="43.04073" lon="-1.36857">
        <ele>1025.756882</ele>
        <time>2022-02-21T20:02:01.856Z</time>
      </trkpt>
      <trkpt lat="43.0407" lon="-1.36848">
        <ele>1026.216641</ele>
        <time>2022-02-21T20:02:05.671Z</time>
      </trkpt>
      <trkpt lat="43.04019" lon="-1.3678">
        <ele>1030.705956</ele>
        <time>2022-02-21T20:02:40.572Z</time>
      </trkpt>
      <trkpt lat="43.03959" lon="-1.36723">
        <ele>1032.782857</ele>
        <time>2022-02-21T20:03:08.996Z</time>
      </trkpt>
      <trkpt lat="43.03931" lon="-1.36685">
        <ele>1033.523369</ele>
        <time>2022-02-21T20:03:23.851Z</time>
      </trkpt>
      <trkpt lat="43.0387" lon="-1.36579">
        <ele>1035.044207</ele>
        <time>2022-02-21T20:03:49.186Z</time>
      </trkpt>
      <trkpt lat="43.03851" lon="-1.3656">
        <ele>1034.959065</ele>
        <time>2022-02-21T20:03:53.908Z</time>
      </trkpt>
      <trkpt lat="43.03777" lon="-1.36533">
        <ele>1034.687407</ele>
        <time>2022-02-21T20:04:09.189Z</time>
      </trkpt>
      <trkpt lat="43.03721" lon="-1.36506">
        <ele>1034.473596</ele>
        <time>2022-02-21T20:04:22.250Z</time>
      </trkpt>
      <trkpt lat="43.03687" lon="-1.36508">
        <ele>1035.90902</ele>
        <time>2022-02-21T20:04:30.424Z</time>
      </trkpt>
      <trkpt lat="43.03522" lon="-1.36563">
        <ele>1045.543809</ele>
        <time>2022-02-21T20:06:00.899Z</time>
      </trkpt>
      <trkpt lat="43.03454" lon="-1.36614">
        <ele>1053.689723</ele>
        <time>2022-02-21T20:07:02.992Z</time>
      </trkpt>
      <trkpt lat="43.03403" lon="-1.3667">
        <ele>1060.56784</ele>
        <time>2022-02-21T20:07:56.808Z</time>
      </trkpt>
      <trkpt lat="43.03393" lon="-1.36699">
        <ele>1062.974147</ele>
        <time>2022-02-21T20:08:16.525Z</time>
      </trkpt>
      <trkpt lat="43.03383" lon="-1.36707">
        <ele>1064.064731</ele>
        <time>2022-02-21T20:08:25.482Z</time>
      </trkpt>
      <trkpt lat="43.03358" lon="-1.36712">
        <ele>1066.496792</ele>
        <time>2022-02-21T20:08:45.493Z</time>
      </trkpt>
      <trkpt lat="43.03328" lon="-1.36742">
        <ele>1070.021976</ele>
        <time>2022-02-21T20:09:13.003Z</time>
      </trkpt>
      <trkpt lat="43.03319" lon="-1.36744">
        <ele>1070.889144</ele>
        <time>2022-02-21T20:09:19.378Z</time>
      </trkpt>
      <trkpt lat="43.03283" lon="-1.36728">
        <ele>1074.492478</ele>
        <time>2022-02-21T20:09:44.837Z</time>
      </trkpt>
      <trkpt lat="43.0325" lon="-1.36677">
        <ele>1079.190024</ele>
        <time>2022-02-21T20:10:14.802Z</time>
      </trkpt>
      <trkpt lat="43.03199" lon="-1.36622">
        <ele>1086.649607</ele>
        <time>2022-02-21T20:10:56.424Z</time>
      </trkpt>
      <trkpt lat="43.03127" lon="-1.36559">
        <ele>1096.582622</ele>
        <time>2022-02-21T20:12:10.750Z</time>
      </trkpt>
      <trkpt lat="43.0309" lon="-1.36543">
        <ele>1101.358112</ele>
        <time>2022-02-21T20:12:46.621Z</time>
      </trkpt>
      <trkpt lat="43.03073" lon="-1.36522">
        <ele>1105.242309</ele>
        <time>2022-02-21T20:13:08.862Z</time>
      </trkpt>
      <trkpt lat="43.03068" lon="-1.36491">
        <ele>1109.171511</ele>
        <time>2022-02-21T20:13:36.539Z</time>
      </trkpt>
      <trkpt lat="43.03088" lon="-1.36429">
        <ele>1117.366231</ele>
        <time>2022-02-21T20:14:31.160Z</time>
      </trkpt>
      <trkpt lat="43.03104" lon="-1.36336">
        <ele>1128.993332</ele>
        <time>2022-02-21T20:15:52.528Z</time>
      </trkpt>
      <trkpt lat="43.03092" lon="-1.36292">
        <ele>1133.237842</ele>
        <time>2022-02-21T20:16:28.682Z</time>
      </trkpt>
      <trkpt lat="43.03125" lon="-1.36151">
        <ele>1145.160504</ele>
        <time>2022-02-21T20:17:54.577Z</time>
      </trkpt>
      <trkpt lat="43.03161" lon="-1.36027">
        <ele>1152.843808</ele>
        <time>2022-02-21T20:18:46.962Z</time>
      </trkpt>
      <trkpt lat="43.03156" lon="-1.35971">
        <ele>1154.94135</ele>
        <time>2022-02-21T20:19:05.969Z</time>
      </trkpt>
      <trkpt lat="43.03163" lon="-1.35914">
        <ele>1157.088758</ele>
        <time>2022-02-21T20:19:24.291Z</time>
      </trkpt>
      <trkpt lat="43.03154" lon="-1.35878">
        <ele>1158.485801</ele>
        <time>2022-02-21T20:19:36.743Z</time>
      </trkpt>
      <trkpt lat="43.03145" lon="-1.35861">
        <ele>1159.245434</ele>
        <time>2022-02-21T20:19:44.091Z</time>
      </trkpt>
      <trkpt lat="43.03113" lon="-1.35834">
        <ele>1160.938297</ele>
        <time>2022-02-21T20:20:00.914Z</time>
      </trkpt>
      <trkpt lat="43.03072" lon="-1.35822">
        <ele>1162.802109</ele>
        <time>2022-02-21T20:20:20.391Z</time>
      </trkpt>
      <trkpt lat="43.03017" lon="-1.3579">
        <ele>1165.48332</ele>
        <time>2022-02-21T20:20:50.000Z</time>
      </trkpt>
      <trkpt lat="43.0301" lon="-1.35748">
        <ele>1166.87204</ele>
        <time>2022-02-21T20:21:03.705Z</time>
      </trkpt>
      <trkpt lat="43.02998" lon="-1.35719">
        <ele>1167.851281</ele>
        <time>2022-02-21T20:21:13.075Z</time>
      </trkpt>
      <trkpt lat="43.02931" lon="-1.35612">
        <ele>1171.754321</ele>
        <time>2022-02-21T20:21:53.038Z</time>
      </trkpt>
      <trkpt lat="43.02896" lon="-1.3554">
        <ele>1174.145134</ele>
        <time>2022-02-21T20:22:19.019Z</time>
      </trkpt>
      <trkpt lat="43.02889" lon="-1.35514">
        <ele>1175.08987</ele>
        <time>2022-02-21T20:22:29.781Z</time>
      </trkpt>
      <trkpt lat="43.02857" lon="-1.35487">
        <ele>1176.797643</ele>
        <time>2022-02-21T20:22:51.259Z</time>
      </trkpt>
      <trkpt lat="43.02848" lon="-1.3547">
        <ele>1177.490095</ele>
        <time>2022-02-21T20:23:00.032Z</time>
      </trkpt>
      <trkpt lat="43.02847" lon="-1.35458">
        <ele>1177.879735</ele>
        <time>2022-02-21T20:23:05.290Z</time>
      </trkpt>
      <trkpt lat="43.02873" lon="-1.35407">
        <ele>1179.952625</ele>
        <time>2022-02-21T20:23:28.034Z</time>
      </trkpt>
      <trkpt lat="43.02851" lon="-1.35397">
        <ele>1181.021178</ele>
        <time>2022-02-21T20:23:38.743Z</time>
      </trkpt>
      <trkpt lat="43.02836" lon="-1.35382">
        <ele>1181.840319</ele>
        <time>2022-02-21T20:23:45.681Z</time>
      </trkpt>
      <trkpt lat="43.02818" lon="-1.35371">
        <ele>1181.873797</ele>
        <time>2022-02-21T20:23:52.569Z</time>
      </trkpt>
      <trkpt lat="43.02801" lon="-1.3535">
        <ele>1180.677241</ele>
        <time>2022-02-21T20:23:58.302Z</time>
      </trkpt>
      <trkpt lat="43.02787" lon="-1.35316">
        <ele>1179.206702</ele>
        <time>2022-02-21T20:24:03.545Z</time>
      </trkpt>
      <trkpt lat="43.02777" lon="-1.35251">
        <ele>1176.704975</ele>
        <time>2022-02-21T20:24:11.265Z</time>
      </trkpt>
      <trkpt lat="43.02771" lon="-1.35164">
        <ele>1173.397467</ele>
        <time>2022-02-21T20:24:20.470Z</time>
      </trkpt>
      <trkpt lat="43.02739" lon="-1.35017">
        <ele>1158.147721</ele>
        <time>2022-02-21T20:24:35.721Z</time>
      </trkpt>
      <trkpt lat="43.02698" lon="-1.34893">
        <ele>1143.469527</ele>
        <time>2022-02-21T20:24:49.029Z</time>
      </trkpt>
      <trkpt lat="43.02684" lon="-1.34791">
        <ele>1130.637428</ele>
        <time>2022-02-21T20:24:59.122Z</time>
      </trkpt>
      <trkpt lat="43.02669" lon="-1.347">
        <ele>1119.05531</ele>
        <time>2022-02-21T20:25:08.188Z</time>
      </trkpt>
      <trkpt lat="43.0264" lon="-1.34621">
        <ele>1109.350342</ele>
        <time>2022-02-21T20:25:16.705Z</time>
      </trkpt>
      <trkpt lat="43.02607" lon="-1.34547">
        <ele>1099.978622</ele>
        <time>2022-02-21T20:25:25.204Z</time>
      </trkpt>
      <trkpt lat="43.0259" lon="-1.34409">
        <ele>1088.57838</ele>
        <time>2022-02-21T20:25:39.373Z</time>
      </trkpt>
      <trkpt lat="43.0259" lon="-1.3436">
        <ele>1086.659485</ele>
        <time>2022-02-21T20:25:44.741Z</time>
      </trkpt>
      <trkpt lat="43.02599" lon="-1.34284">
        <ele>1083.639731</ele>
        <time>2022-02-21T20:25:54.026Z</time>
      </trkpt>
      <trkpt lat="43.02601" lon="-1.34228">
        <ele>1081.456568</ele>
        <time>2022-02-21T20:26:01.424Z</time>
      </trkpt>
      <trkpt lat="43.02584" lon="-1.33991">
        <ele>1086.036455</ele>
        <time>2022-02-21T20:27:02.880Z</time>
      </trkpt>
      <trkpt lat="43.0259" lon="-1.33891">
        <ele>1091.013908</ele>
        <time>2022-02-21T20:27:49.211Z</time>
      </trkpt>
      <trkpt lat="43.0258" lon="-1.33824">
        <ele>1094.820774</ele>
        <time>2022-02-21T20:28:24.206Z</time>
      </trkpt>
      <trkpt lat="43.02567" lon="-1.33748">
        <ele>1099.164954</ele>
        <time>2022-02-21T20:28:58.803Z</time>
      </trkpt>
      <trkpt lat="43.02564" lon="-1.33727">
        <ele>1100.189081</ele>
        <time>2022-02-21T20:29:10.103Z</time>
      </trkpt>
      <trkpt lat="43.02525" lon="-1.33626">
        <ele>1101.745416</ele>
        <time>2022-02-21T20:29:49.704Z</time>
      </trkpt>
      <trkpt lat="43.02521" lon="-1.33602">
        <ele>1102.0888</ele>
        <time>2022-02-21T20:29:55.125Z</time>
      </trkpt>
      <trkpt lat="43.02514" lon="-1.33535">
        <ele>1103.019756</ele>
        <time>2022-02-21T20:30:06.769Z</time>
      </trkpt>
      <trkpt lat="43.02517" lon="-1.33508">
        <ele>1103.385389</ele>
        <time>2022-02-21T20:30:09.962Z</time>
      </trkpt>
      <trkpt lat="43.02531" lon="-1.3346">
        <ele>1101.372432</ele>
        <time>2022-02-21T20:30:15.844Z</time>
      </trkpt>
      <trkpt lat="43.02532" lon="-1.33402">
        <ele>1098.524282</ele>
        <time>2022-02-21T20:30:22.077Z</time>
      </trkpt>
      <trkpt lat="43.02526" lon="-1.33358">
        <ele>1096.297484</ele>
        <time>2022-02-21T20:30:26.879Z</time>
      </trkpt>
      <trkpt lat="43.02475" lon="-1.3328">
        <ele>1091.304721</ele>
        <time>2022-02-21T20:30:37.937Z</time>
      </trkpt>
      <trkpt lat="43.02374" lon="-1.3316">
        <ele>1088.820609</ele>
        <time>2022-02-21T20:31:00.941Z</time>
      </trkpt>
      <trkpt lat="43.02277" lon="-1.33132">
        <ele>1089.363124</ele>
        <time>2022-02-21T20:31:44.765Z</time>
      </trkpt>
      <trkpt lat="43.02213" lon="-1.33071">
        <ele>1091.173572</ele>
        <time>2022-02-21T20:32:17.629Z</time>
      </trkpt>
      <trkpt lat="43.0221" lon="-1.33055">
        <ele>1091.449358</ele>
        <time>2022-02-21T20:32:20.859Z</time>
      </trkpt>
      <trkpt lat="43.02214" lon="-1.3291">
        <ele>1088.512834</ele>
        <time>2022-02-21T20:32:40.546Z</time>
      </trkpt>
      <trkpt lat="43.0223" lon="-1.32816">
        <ele>1084.954589</ele>
        <time>2022-02-21T20:32:51.080Z</time>
      </trkpt>
      <trkpt lat="43.02226" lon="-1.32799">
        <ele>1084.302724</ele>
        <time>2022-02-21T20:32:52.988Z</time>
      </trkpt>
      <trkpt lat="43.02208" lon="-1.32755">
        <ele>1082.102307</ele>
        <time>2022-02-21T20:32:58.289Z</time>
      </trkpt>
      <trkpt lat="43.02168" lon="-1.32683">
        <ele>1076.97272</ele>
        <time>2022-02-21T20:33:07.937Z</time>
      </trkpt>
      <trkpt lat="43.0209" lon="-1.32583">
        <ele>1068.733841</ele>
        <time>2022-02-21T20:33:23.938Z</time>
      </trkpt>
      <trkpt lat="43.02034" lon="-1.32491">
        <ele>1062.75071</ele>
        <time>2022-02-21T20:33:36.811Z</time>
      </trkpt>
      <trkpt lat="43.01986" lon="-1.32413">
        <ele>1057.665922</ele>
        <time>2022-02-21T20:33:48.130Z</time>
      </trkpt>
      <trkpt lat="43.01972" lon="-1.324">
        <ele>1056.699261</ele>
        <time>2022-02-21T20:33:50.740Z</time>
      </trkpt>
      <trkpt lat="43.01939" lon="-1.32373">
        <ele>1055.315783</ele>
        <time>2022-02-21T20:33:56.947Z</time>
      </trkpt>
      <trkpt lat="43.01913" lon="-1.32361">
        <ele>1054.35048</ele>
        <time>2022-02-21T20:34:01.343Z</time>
      </trkpt>
      <trkpt lat="43.01759" lon="-1.32328">
        <ele>1048.653054</ele>
        <time>2022-02-21T20:34:29.214Z</time>
      </trkpt>
      <trkpt lat="43.01693" lon="-1.32296">
        <ele>1045.908259</ele>
        <time>2022-02-21T20:34:41.716Z</time>
      </trkpt>
      <trkpt lat="43.0166" lon="-1.32256">
        <ele>1044.186527</ele>
        <time>2022-02-21T20:34:48.718Z</time>
      </trkpt>
      <trkpt lat="43.01631" lon="-1.32165">
        <ele>1037.270699</ele>
        <time>2022-02-21T20:34:59.376Z</time>
      </trkpt>
      <trkpt lat="43.01604" lon="-1.3211">
        <ele>1031.747074</ele>
        <time>2022-02-21T20:35:06.097Z</time>
      </trkpt>
      <trkpt lat="43.01509" lon="-1.31988">
        <ele>1015.153042</ele>
        <time>2022-02-21T20:35:23.693Z</time>
      </trkpt>
      <trkpt lat="43.01476" lon="-1.31951">
        <ele>1008.822137</ele>
        <time>2022-02-21T20:35:29.463Z</time>
      </trkpt>
      <trkpt lat="43.01452" lon="-1.31933">
        <ele>1004.808537</ele>
        <time>2022-02-21T20:35:33.121Z</time>
      </trkpt>
      <trkpt lat="43.0142" lon="-1.31923">
        <ele>999.913384</ele>
        <time>2022-02-21T20:35:37.584Z</time>
      </trkpt>
      <trkpt lat="43.01359" lon="-1.31926">
        <ele>991.893088</ele>
        <time>2022-02-21T20:35:45.847Z</time>
      </trkpt>
      <trkpt lat="43.01269" lon="-1.31945">
        <ele>980.837735</ele>
        <time>2022-02-21T20:35:58.339Z</time>
      </trkpt>
      <trkpt lat="43.01188" lon="-1.31973">
        <ele>972.586168</ele>
        <time>2022-02-21T20:36:10.135Z</time>
      </trkpt>
      <trkpt lat="43.01134" lon="-1.31964">
        <ele>969.295113</ele>
        <time>2022-02-21T20:36:18.203Z</time>
      </trkpt>
      <trkpt lat="43.01099" lon="-1.31965">
        <ele>967.167873</ele>
        <time>2022-02-21T20:36:23.846Z</time>
      </trkpt>
      <trkpt lat="43.01048" lon="-1.31997">
        <ele>963.762349</ele>
        <time>2022-02-21T20:36:33.309Z</time>
      </trkpt>
      <trkpt lat="43.01035" lon="-1.32011">
        <ele>963.203</ele>
        <time>2022-02-21T20:36:36.305Z</time>
      </trkpt>
      <trkpt lat="43.01006" lon="-1.32086">
        <ele>961.505559</ele>
        <time>2022-02-21T20:36:47.435Z</time>
      </trkpt>
      <trkpt lat="43.00974" lon="-1.32108">
        <ele>960.507988</ele>
        <time>2022-02-21T20:36:53.952Z</time>
      </trkpt>
      <trkpt lat="43.00956" lon="-1.3213">
        <ele>959.853084</ele>
        <time>2022-02-21T20:36:58.970Z</time>
      </trkpt>
      <trkpt lat="43.00952" lon="-1.3214">
        <ele>959.624523</ele>
        <time>2022-02-21T20:37:00.246Z</time>
      </trkpt>
      <trkpt lat="43.00954" lon="-1.32167">
        <ele>959.080932</ele>
        <time>2022-02-21T20:37:03.793Z</time>
      </trkpt>
      <trkpt lat="43.00964" lon="-1.3221">
        <ele>957.735863</ele>
        <time>2022-02-21T20:37:09.278Z</time>
      </trkpt>
      <trkpt lat="43.00962" lon="-1.32219">
        <ele>957.368988</ele>
        <time>2022-02-21T20:37:10.523Z</time>
      </trkpt>
      <trkpt lat="43.00955" lon="-1.3222">
        <ele>956.974898</ele>
        <time>2022-02-21T20:37:11.881Z</time>
      </trkpt>
      <trkpt lat="43.00948" lon="-1.32213">
        <ele>956.541279</ele>
        <time>2022-02-21T20:37:12.988Z</time>
      </trkpt>
      <trkpt lat="43.00927" lon="-1.32141">
        <ele>953.443086</ele>
        <time>2022-02-21T20:37:21.855Z</time>
      </trkpt>
      <trkpt lat="43.00924" lon="-1.32055">
        <ele>950.002536</ele>
        <time>2022-02-21T20:37:31.472Z</time>
      </trkpt>
      <trkpt lat="43.00907" lon="-1.32027">
        <ele>948.621399</ele>
        <time>2022-02-21T20:37:35.452Z</time>
      </trkpt>
      <trkpt lat="43.00884" lon="-1.32002">
        <ele>947.322113</ele>
        <time>2022-02-21T20:37:40.075Z</time>
      </trkpt>
      <trkpt lat="43.0088" lon="-1.31998">
        <ele>947.109204</ele>
        <time>2022-02-21T20:37:40.823Z</time>
      </trkpt>
      <trkpt lat="43.00873" lon="-1.31991">
        <ele>946.716431</ele>
        <time>2022-02-21T20:37:42.224Z</time>
      </trkpt>
      <trkpt lat="43.00871" lon="-1.31989">
        <ele>946.614576</ele>
        <time>2022-02-21T20:37:42.592Z</time>
      </trkpt>
      <trkpt lat="43.00867" lon="-1.31987">
        <ele>946.42266</ele>
        <time>2022-02-21T20:37:43.278Z</time>
      </trkpt>
      <trkpt lat="43.00863" lon="-1.31983">
        <ele>946.187749</ele>
        <time>2022-02-21T20:37:44.127Z</time>
      </trkpt>
      <trkpt lat="43.0086" lon="-1.31981">
        <ele>946.054199</ele>
        <time>2022-02-21T20:37:44.587Z</time>
      </trkpt>
      <trkpt lat="43.00852" lon="-1.31973">
        <ele>945.606387</ele>
        <time>2022-02-21T20:37:46.169Z</time>
      </trkpt>
      <trkpt lat="43.00824" lon="-1.31959">
        <ele>944.282358</ele>
        <time>2022-02-21T20:37:50.899Z</time>
      </trkpt>
      <trkpt lat="43.00747" lon="-1.3194">
        <ele>940.852987</ele>
        <time>2022-02-21T20:38:03.854Z</time>
      </trkpt>
      <trkpt lat="43.00591" lon="-1.31921">
        <ele>938.313309</ele>
        <time>2022-02-21T20:38:34.112Z</time>
      </trkpt>
      <trkpt lat="43.00552" lon="-1.31922">
        <ele>937.763532</ele>
        <time>2022-02-21T20:38:41.712Z</time>
      </trkpt>
      <trkpt lat="43.00441" lon="-1.31953">
        <ele>936.448868</ele>
        <time>2022-02-21T20:39:04.188Z</time>
      </trkpt>
      <trkpt lat="43.00397" lon="-1.31982">
        <ele>935.890124</ele>
        <time>2022-02-21T20:39:13.752Z</time>
      </trkpt>
      <trkpt lat="43.00265" lon="-1.32099">
        <ele>933.242379</ele>
        <time>2022-02-21T20:39:43.616Z</time>
      </trkpt>
      <trkpt lat="42.99436" lon="-1.32914">
        <ele>906.608081</ele>
        <time>2022-02-21T20:42:43.674Z</time>
      </trkpt>
      <trkpt lat="42.99402" lon="-1.32948">
        <ele>905.474026</ele>
        <time>2022-02-21T20:42:50.841Z</time>
      </trkpt>
      <trkpt lat="42.99393" lon="-1.32957">
        <ele>905.155422</ele>
        <time>2022-02-21T20:42:52.875Z</time>
      </trkpt>
      <trkpt lat="42.9938" lon="-1.32969">
        <ele>904.724238</ele>
        <time>2022-02-21T20:42:55.627Z</time>
      </trkpt>
      <trkpt lat="42.99297" lon="-1.33051">
        <ele>902.002951</ele>
        <time>2022-02-21T20:43:13.477Z</time>
      </trkpt>
      <trkpt lat="42.99237" lon="-1.33114">
        <ele>899.981342</ele>
        <time>2022-02-21T20:43:26.743Z</time>
      </trkpt>
      <trkpt lat="42.99228" lon="-1.33101">
        <ele>899.632342</ele>
        <time>2022-02-21T20:43:29.162Z</time>
      </trkpt>
      <trkpt lat="42.99224" lon="-1.33095">
        <ele>899.507139</ele>
        <time>2022-02-21T20:43:30.300Z</time>
      </trkpt>
      <trkpt lat="42.9921" lon="-1.33072">
        <ele>899.086616</ele>
        <time>2022-02-21T20:43:34.492Z</time>
      </trkpt>
      <trkpt lat="42.99195" lon="-1.33079">
        <ele>898.794295</ele>
        <time>2022-02-21T20:43:37.430Z</time>
      </trkpt>
      <trkpt lat="42.99123" lon="-1.33166">
        <ele>896.993858</ele>
        <time>2022-02-21T20:43:56.025Z</time>
      </trkpt>
      <trkpt lat="42.99013" lon="-1.3332">
        <ele>894.714411</ele>
        <time>2022-02-21T20:44:27.938Z</time>
      </trkpt>
      <trkpt lat="42.9899" lon="-1.33353">
        <ele>894.288675</ele>
        <time>2022-02-21T20:44:34.666Z</time>
      </trkpt>
      <trkpt lat="42.98944" lon="-1.33417">
        <ele>893.513566</ele>
        <time>2022-02-21T20:44:48.034Z</time>
      </trkpt>
      <trkpt lat="42.98929" lon="-1.33437">
        <ele>893.287525</ele>
        <time>2022-02-21T20:44:52.273Z</time>
      </trkpt>
      <trkpt lat="42.98916" lon="-1.33455">
        <ele>893.087076</ele>
        <time>2022-02-21T20:44:56.059Z</time>
      </trkpt>
      <trkpt lat="42.98906" lon="-1.33468">
        <ele>892.93362</ele>
        <time>2022-02-21T20:44:58.951Z</time>
      </trkpt>
      <trkpt lat="42.98898" lon="-1.33481">
        <ele>892.799224</ele>
        <time>2022-02-21T20:45:01.533Z</time>
      </trkpt>
      <trkpt lat="42.98886" lon="-1.33499">
        <ele>892.608181</ele>
        <time>2022-02-21T20:45:05.109Z</time>
      </trkpt>
      <trkpt lat="42.98875" lon="-1.33533">
        <ele>892.308957</ele>
        <time>2022-02-21T20:45:10.836Z</time>
      </trkpt>
      <trkpt lat="42.9877" lon="-1.33613">
        <ele>890.987162</ele>
        <time>2022-02-21T20:45:36.234Z</time>
      </trkpt>
      <trkpt lat="42.98784" lon="-1.33637">
        <ele>890.742062</ele>
        <time>2022-02-21T20:45:40.928Z</time>
      </trkpt>
      <trkpt lat="42.98773" lon="-1.33648">
        <ele>890.591669</ele>
        <time>2022-02-21T20:45:43.750Z</time>
      </trkpt>
      <trkpt lat="42.98762" lon="-1.3364">
        <ele>890.455905</ele>
        <time>2022-02-21T20:45:46.256Z</time>
      </trkpt>
      <trkpt lat="42.98744" lon="-1.3365">
        <ele>890.245892</ele>
        <time>2022-02-21T20:45:50.098Z</time>
      </trkpt>
      <trkpt lat="42.98753" lon="-1.33691">
        <ele>889.855109</ele>
        <time>2022-02-21T20:45:56.293Z</time>
      </trkpt>
      <trkpt lat="42.98741" lon="-1.33697">
        <ele>889.585795</ele>
        <time>2022-02-21T20:45:58.741Z</time>
      </trkpt>
      <trkpt lat="42.98692" lon="-1.33724">
        <ele>888.507502</ele>
        <time>2022-02-21T20:46:08.354Z</time>
      </trkpt>
      <trkpt lat="42.98659" lon="-1.33751">
        <ele>887.721282</ele>
        <time>2022-02-21T20:46:15.300Z</time>
      </trkpt>
      <trkpt lat="42.98588" lon="-1.33838">
        <ele>885.968221</ele>
        <time>2022-02-21T20:46:32.331Z</time>
      </trkpt>
      <trkpt lat="42.98288" lon="-1.34205">
        <ele>882.078219</ele>
        <time>2022-02-21T20:47:52.728Z</time>
      </trkpt>
      <trkpt lat="42.98008" lon="-1.34529">
        <ele>879.955614</ele>
        <time>2022-02-21T20:49:11.546Z</time>
      </trkpt>
      <trkpt lat="42.97866" lon="-1.34687">
        <ele>876.399913</ele>
        <time>2022-02-21T20:49:44.705Z</time>
      </trkpt>
      <trkpt lat="42.97737" lon="-1.34819">
        <ele>872.117403</ele>
        <time>2022-02-21T20:50:12.496Z</time>
      </trkpt>
      <trkpt lat="42.97716" lon="-1.34845">
        <ele>871.38078</ele>
        <time>2022-02-21T20:50:17.440Z</time>
      </trkpt>
      <trkpt lat="42.97689" lon="-1.34877">
        <ele>870.467895</ele>
        <time>2022-02-21T20:50:23.672Z</time>
      </trkpt>
      <trkpt lat="42.97639" lon="-1.3493">
        <ele>868.941661</ele>
        <time>2022-02-21T20:50:35.143Z</time>
      </trkpt>
      <trkpt lat="42.97585" lon="-1.34992">
        <ele>868.181492</ele>
        <time>2022-02-21T20:50:48.892Z</time>
      </trkpt>
      <trkpt lat="42.9752" lon="-1.35063">
        <ele>867.291944</ele>
        <time>2022-02-21T20:51:05.861Z</time>
      </trkpt>
      <trkpt lat="42.97481" lon="-1.35107">
        <ele>866.790944</ele>
        <time>2022-02-21T20:51:16.487Z</time>
      </trkpt>
      <trkpt lat="42.97451" lon="-1.3514">
        <ele>866.443709</ele>
        <time>2022-02-21T20:51:24.146Z</time>
      </trkpt>
      <trkpt lat="42.9735" lon="-1.35251">
        <ele>865.571403</ele>
        <time>2022-02-21T20:51:49.478Z</time>
      </trkpt>
      <trkpt lat="42.97329" lon="-1.35245">
        <ele>865.732851</ele>
        <time>2022-02-21T20:51:54.003Z</time>
      </trkpt>
      <trkpt lat="42.97317" lon="-1.35252">
        <ele>865.826475</ele>
        <time>2022-02-21T20:51:56.624Z</time>
      </trkpt>
      <trkpt lat="42.97304" lon="-1.35259">
        <ele>865.939265</ele>
        <time>2022-02-21T20:52:00.096Z</time>
      </trkpt>
      <trkpt lat="42.97281" lon="-1.35275">
        <ele>866.129565</ele>
        <time>2022-02-21T20:52:06.142Z</time>
      </trkpt>
      <trkpt lat="42.97219" lon="-1.35344">
        <ele>866.733105</ele>
        <time>2022-02-21T20:52:30.314Z</time>
      </trkpt>
      <trkpt lat="42.97198" lon="-1.35358">
        <ele>867.294146</ele>
        <time>2022-02-21T20:52:38.193Z</time>
      </trkpt>
      <trkpt lat="42.97081" lon="-1.35375">
        <ele>871.024945</ele>
        <time>2022-02-21T20:53:24.838Z</time>
      </trkpt>
      <trkpt lat="42.97059" lon="-1.35383">
        <ele>871.749304</ele>
        <time>2022-02-21T20:53:33.809Z</time>
      </trkpt>
      <trkpt lat="42.97012" lon="-1.35417">
        <ele>873.425132</ele>
        <time>2022-02-21T20:53:54.665Z</time>
      </trkpt>
      <trkpt lat="42.96968" lon="-1.35434">
        <ele>874.864415</ele>
        <time>2022-02-21T20:54:12.814Z</time>
      </trkpt>
      <trkpt lat="42.96893" lon="-1.35437">
        <ele>877.19553</ele>
        <time>2022-02-21T20:54:41.054Z</time>
      </trkpt>
      <trkpt lat="42.96803" lon="-1.35425">
        <ele>879.202731</ele>
        <time>2022-02-21T20:55:13.240Z</time>
      </trkpt>
      <trkpt lat="42.96752" lon="-1.35436">
        <ele>880.123333</ele>
        <time>2022-02-21T20:55:29.728Z</time>
      </trkpt>
      <trkpt lat="42.9673" lon="-1.35463">
        <ele>880.641873</ele>
        <time>2022-02-21T20:55:38.430Z</time>
      </trkpt>
      <trkpt lat="42.96723" lon="-1.35491">
        <ele>881.02187</ele>
        <time>2022-02-21T20:55:44.284Z</time>
      </trkpt>
      <trkpt lat="42.96742" lon="-1.35556">
        <ele>881.15286</ele>
        <time>2022-02-21T20:55:56.023Z</time>
      </trkpt>
      <trkpt lat="42.96743" lon="-1.3559">
        <ele>881.043778</ele>
        <time>2022-02-21T20:56:01.321Z</time>
      </trkpt>
      <trkpt lat="42.96731" lon="-1.35619">
        <ele>880.937946</ele>
        <time>2022-02-21T20:56:06.449Z</time>
      </trkpt>
      <trkpt lat="42.96714" lon="-1.35634">
        <ele>880.850845</ele>
        <time>2022-02-21T20:56:10.585Z</time>
      </trkpt>
      <trkpt lat="42.9667" lon="-1.35668">
        <ele>880.629983</ele>
        <time>2022-02-21T20:56:20.879Z</time>
      </trkpt>
      <trkpt lat="42.96632" lon="-1.35688">
        <ele>880.286606</ele>
        <time>2022-02-21T20:56:28.989Z</time>
      </trkpt>
      <trkpt lat="42.96582" lon="-1.35693">
        <ele>879.558467</ele>
        <time>2022-02-21T20:56:38.743Z</time>
      </trkpt>
      <trkpt lat="42.96547" lon="-1.35705">
        <ele>879.021723</ele>
        <time>2022-02-21T20:56:45.699Z</time>
      </trkpt>
      <trkpt lat="42.96485" lon="-1.35736">
        <ele>878.055165</ele>
        <time>2022-02-21T20:56:58.134Z</time>
      </trkpt>
      <trkpt lat="42.9644" lon="-1.35773">
        <ele>876.893699</ele>
        <time>2022-02-21T20:57:07.654Z</time>
      </trkpt>
      <trkpt lat="42.96416" lon="-1.35786">
        <ele>876.240056</ele>
        <time>2022-02-21T20:57:12.416Z</time>
      </trkpt>
      <trkpt lat="42.96239" lon="-1.35847">
        <ele>871.576233</ele>
        <time>2022-02-21T20:57:44.460Z</time>
      </trkpt>
      <trkpt lat="42.96191" lon="-1.35873">
        <ele>870.18435</ele>
        <time>2022-02-21T20:57:53.612Z</time>
      </trkpt>
      <trkpt lat="42.96171" lon="-1.35906">
        <ele>869.331254</ele>
        <time>2022-02-21T20:57:59.064Z</time>
      </trkpt>
      <trkpt lat="42.96143" lon="-1.35977">
        <ele>867.576899</ele>
        <time>2022-02-21T20:58:09.234Z</time>
      </trkpt>
      <trkpt lat="42.96133" lon="-1.36043">
        <ele>866.034242</ele>
        <time>2022-02-21T20:58:17.609Z</time>
      </trkpt>
      <trkpt lat="42.96135" lon="-1.36121">
        <ele>864.217354</ele>
        <time>2022-02-21T20:58:27.399Z</time>
      </trkpt>
      <trkpt lat="42.96158" lon="-1.36219">
        <ele>862.233319</ele>
        <time>2022-02-21T20:58:40.143Z</time>
      </trkpt>
      <trkpt lat="42.96161" lon="-1.36252">
        <ele>861.733245</ele>
        <time>2022-02-21T20:58:44.538Z</time>
      </trkpt>
      <trkpt lat="42.96128" lon="-1.36308">
        <ele>860.665074</ele>
        <time>2022-02-21T20:58:54.328Z</time>
      </trkpt>
      <trkpt lat="42.961" lon="-1.36322">
        <ele>860.077403</ele>
        <time>2022-02-21T20:58:59.930Z</time>
      </trkpt>
      <trkpt lat="42.96071" lon="-1.36341">
        <ele>859.415313</ele>
        <time>2022-02-21T20:59:06.339Z</time>
      </trkpt>
      <trkpt lat="42.96053" lon="-1.36357">
        <ele>859.085158</ele>
        <time>2022-02-21T20:59:10.465Z</time>
      </trkpt>
      <trkpt lat="42.96045" lon="-1.36366">
        <ele>858.9377</ele>
        <time>2022-02-21T20:59:12.526Z</time>
      </trkpt>
      <trkpt lat="42.96039" lon="-1.3637">
        <ele>858.851971</ele>
        <time>2022-02-21T20:59:13.788Z</time>
      </trkpt>
      <trkpt lat="42.96036" lon="-1.36373">
        <ele>858.793553</ele>
        <time>2022-02-21T20:59:14.673Z</time>
      </trkpt>
      <trkpt lat="42.96004" lon="-1.36391">
        <ele>858.325827</ele>
        <time>2022-02-21T20:59:21.294Z</time>
      </trkpt>
      <trkpt lat="42.95882" lon="-1.36429">
        <ele>857.052642</ele>
        <time>2022-02-21T20:59:44.939Z</time>
      </trkpt>
      <trkpt lat="42.95851" lon="-1.36456">
        <ele>857.667204</ele>
        <time>2022-02-21T20:59:52.092Z</time>
      </trkpt>
      <trkpt lat="42.95806" lon="-1.36472">
        <ele>858.440969</ele>
        <time>2022-02-21T21:00:03.374Z</time>
      </trkpt>
      <trkpt lat="42.95792" lon="-1.36471">
        <ele>858.663485</ele>
        <time>2022-02-21T21:00:07.683Z</time>
      </trkpt>
      <trkpt lat="42.95779" lon="-1.36461">
        <ele>858.918213</ele>
        <time>2022-02-21T21:00:12.281Z</time>
      </trkpt>
      <trkpt lat="42.9577" lon="-1.36446">
        <ele>859.158326</ele>
        <time>2022-02-21T21:00:19.324Z</time>
      </trkpt>
      <trkpt lat="42.95752" lon="-1.36369">
        <ele>860.922568</ele>
        <time>2022-02-21T21:00:46.249Z</time>
      </trkpt>
      <trkpt lat="42.95727" lon="-1.36334">
        <ele>862.899311</ele>
        <time>2022-02-21T21:01:07.875Z</time>
      </trkpt>
      <trkpt lat="42.95711" lon="-1.36322">
        <ele>863.940184</ele>
        <time>2022-02-21T21:01:20.989Z</time>
      </trkpt>
      <trkpt lat="42.95696" lon="-1.36323">
        <ele>864.798001</ele>
        <time>2022-02-21T21:01:30.129Z</time>
      </trkpt>
      <trkpt lat="42.9568" lon="-1.36329">
        <ele>865.690138</ele>
        <time>2022-02-21T21:01:42.258Z</time>
      </trkpt>
      <trkpt lat="42.95657" lon="-1.36352">
        <ele>867.267712</ele>
        <time>2022-02-21T21:01:57.026Z</time>
      </trkpt>
      <trkpt lat="42.95641" lon="-1.36379">
        <ele>868.731076</ele>
        <time>2022-02-21T21:02:07.510Z</time>
      </trkpt>
      <trkpt lat="42.95629" lon="-1.36411">
        <ele>869.548913</ele>
        <time>2022-02-21T21:02:16.702Z</time>
      </trkpt>
      <trkpt lat="42.95626" lon="-1.36443">
        <ele>868.64</ele>
        <time>2022-02-21T21:02:23.173Z</time>
      </trkpt>
      <trkpt lat="42.9563" lon="-1.36505">
        <ele>866.922896</ele>
        <time>2022-02-21T21:02:31.440Z</time>
      </trkpt>
      <trkpt lat="42.95638" lon="-1.3653">
        <ele>866.14304</ele>
        <time>2022-02-21T21:02:34.756Z</time>
      </trkpt>
      <trkpt lat="42.95662" lon="-1.36569">
        <ele>864.755826</ele>
        <time>2022-02-21T21:02:40.395Z</time>
      </trkpt>
      <trkpt lat="42.95676" lon="-1.36617">
        <ele>863.301877</ele>
        <time>2022-02-21T21:02:46.064Z</time>
      </trkpt>
      <trkpt lat="42.95684" lon="-1.36715">
        <ele>858.936942</ele>
        <time>2022-02-21T21:02:56.403Z</time>
      </trkpt>
      <trkpt lat="42.9568" lon="-1.36747">
        <ele>857.469203</ele>
        <time>2022-02-21T21:02:59.801Z</time>
      </trkpt>
      <trkpt lat="42.9567" lon="-1.36771">
        <ele>856.157718</ele>
        <time>2022-02-21T21:03:02.873Z</time>
      </trkpt>
      <trkpt lat="42.95622" lon="-1.36823">
        <ele>852.291665</ele>
        <time>2022-02-21T21:03:12.894Z</time>
      </trkpt>
      <trkpt lat="42.9556" lon="-1.36877">
        <ele>850.194027</ele>
        <time>2022-02-21T21:03:26.309Z</time>
      </trkpt>
      <trkpt lat="42.95491" lon="-1.36918">
        <ele>848.541118</ele>
        <time>2022-02-21T21:03:40.369Z</time>
      </trkpt>
      <trkpt lat="42.9545" lon="-1.36965">
        <ele>847.359172</ele>
        <time>2022-02-21T21:03:50.010Z</time>
      </trkpt>
      <trkpt lat="42.95382" lon="-1.3707">
        <ele>844.931431</ele>
        <time>2022-02-21T21:04:08.631Z</time>
      </trkpt>
      <trkpt lat="42.9534" lon="-1.37115">
        <ele>843.666987</ele>
        <time>2022-02-21T21:04:18.189Z</time>
      </trkpt>
      <trkpt lat="42.95301" lon="-1.37172">
        <ele>841.447963</ele>
        <time>2022-02-21T21:04:28.187Z</time>
      </trkpt>
      <trkpt lat="42.95294" lon="-1.37223">
        <ele>839.805488</ele>
        <time>2022-02-21T21:04:34.550Z</time>
      </trkpt>
      <trkpt lat="42.95256" lon="-1.3729">
        <ele>837.137392</ele>
        <time>2022-02-21T21:04:44.480Z</time>
      </trkpt>
      <trkpt lat="42.95215" lon="-1.37325">
        <ele>834.780942</ele>
        <time>2022-02-21T21:04:51.885Z</time>
      </trkpt>
      <trkpt lat="42.95132" lon="-1.3744">
        <ele>827.135988</ele>
        <time>2022-02-21T21:05:09.554Z</time>
      </trkpt>
      <trkpt lat="42.95102" lon="-1.37474">
        <ele>824.609149</ele>
        <time>2022-02-21T21:05:15.477Z</time>
      </trkpt>
      <trkpt lat="42.95074" lon="-1.37482">
        <ele>823.351287</ele>
        <time>2022-02-21T21:05:19.941Z</time>
      </trkpt>
      <trkpt lat="42.94998" lon="-1.37453">
        <ele>820.857989</ele>
        <time>2022-02-21T21:05:32.958Z</time>
      </trkpt>
      <trkpt lat="42.94917" lon="-1.37435">
        <ele>818.25752</ele>
        <time>2022-02-21T21:05:48.673Z</time>
      </trkpt>
      <trkpt lat="42.94823" lon="-1.37474">
        <ele>815.87004</ele>
        <time>2022-02-21T21:06:07.348Z</time>
      </trkpt>
      <trkpt lat="42.94719" lon="-1.37569">
        <ele>812.6019</ele>
        <time>2022-02-21T21:06:28.545Z</time>
      </trkpt>
      <trkpt lat="42.94663" lon="-1.37605">
        <ele>810.751657</ele>
        <time>2022-02-21T21:06:38.690Z</time>
      </trkpt>
      <trkpt lat="42.94618" lon="-1.37605">
        <ele>809.406933</ele>
        <time>2022-02-21T21:06:46.462Z</time>
      </trkpt>
      <trkpt lat="42.94537" lon="-1.37581">
        <ele>807.811364</ele>
        <time>2022-02-21T21:07:02.862Z</time>
      </trkpt>
      <trkpt lat="42.94476" lon="-1.37546">
        <ele>806.956943</ele>
        <time>2022-02-21T21:07:17.804Z</time>
      </trkpt>
      <trkpt lat="42.94441" lon="-1.37548">
        <ele>806.503652</ele>
        <time>2022-02-21T21:07:24.865Z</time>
      </trkpt>
      <trkpt lat="42.94399" lon="-1.37579">
        <ele>804.881348</ele>
        <time>2022-02-21T21:07:33.876Z</time>
      </trkpt>
      <trkpt lat="42.94263" lon="-1.37804">
        <ele>791.764855</ele>
        <time>2022-02-21T21:08:05.903Z</time>
      </trkpt>
      <trkpt lat="42.94183" lon="-1.37867">
        <ele>785.489262</ele>
        <time>2022-02-21T21:08:19.490Z</time>
      </trkpt>
      <trkpt lat="42.94153" lon="-1.37877">
        <ele>783.435702</ele>
        <time>2022-02-21T21:08:24.192Z</time>
      </trkpt>
      <trkpt lat="42.94125" lon="-1.37863">
        <ele>782.787262</ele>
        <time>2022-02-21T21:08:29.085Z</time>
      </trkpt>
      <trkpt lat="42.9409" lon="-1.37833">
        <ele>782.066053</ele>
        <time>2022-02-21T21:08:36.042Z</time>
      </trkpt>
      <trkpt lat="42.94067" lon="-1.37797">
        <ele>781.452488</ele>
        <time>2022-02-21T21:08:42.557Z</time>
      </trkpt>
      <trkpt lat="42.94054" lon="-1.37739">
        <ele>780.671823</ele>
        <time>2022-02-21T21:08:53.648Z</time>
      </trkpt>
      <trkpt lat="42.94032" lon="-1.37681">
        <ele>780.110466</ele>
        <time>2022-02-21T21:09:07.723Z</time>
      </trkpt>
      <trkpt lat="42.93982" lon="-1.37642">
        <ele>780.06066</ele>
        <time>2022-02-21T21:09:22.613Z</time>
      </trkpt>
      <trkpt lat="42.93956" lon="-1.37632">
        <ele>780.037711</ele>
        <time>2022-02-21T21:09:28.270Z</time>
      </trkpt>
      <trkpt lat="42.93939" lon="-1.37638">
        <ele>780.022589</ele>
        <time>2022-02-21T21:09:32.168Z</time>
      </trkpt>
      <trkpt lat="42.93888" lon="-1.37686">
        <ele>779.932999</ele>
        <time>2022-02-21T21:09:44.808Z</time>
      </trkpt>
      <trkpt lat="42.93845" lon="-1.37693">
        <ele>778.80849</ele>
        <time>2022-02-21T21:09:53.353Z</time>
      </trkpt>
      <trkpt lat="42.93713" lon="-1.37673">
        <ele>775.365342</ele>
        <time>2022-02-21T21:10:16.462Z</time>
      </trkpt>
      <trkpt lat="42.93662" lon="-1.377">
        <ele>772.08868</ele>
        <time>2022-02-21T21:10:25.133Z</time>
      </trkpt>
      <trkpt lat="42.9357" lon="-1.37784">
        <ele>765.224978</ele>
        <time>2022-02-21T21:10:41.795Z</time>
      </trkpt>
      <trkpt lat="42.93518" lon="-1.37799">
        <ele>761.745873</ele>
        <time>2022-02-21T21:10:49.600Z</time>
      </trkpt>
      <trkpt lat="42.9332" lon="-1.37799">
        <ele>748.644178</ele>
        <time>2022-02-21T21:11:19.691Z</time>
      </trkpt>
      <trkpt lat="42.93258" lon="-1.37834">
        <ele>744.361005</ele>
        <time>2022-02-21T21:11:30.056Z</time>
      </trkpt>
      <trkpt lat="42.93079" lon="-1.37889">
        <ele>732.405412</ele>
        <time>2022-02-21T21:11:57.844Z</time>
      </trkpt>
      <trkpt lat="42.93051" lon="-1.37887">
        <ele>730.56404</ele>
        <time>2022-02-21T21:12:02.162Z</time>
      </trkpt>
      <trkpt lat="42.92886" lon="-1.37822">
        <ele>720.103747</ele>
        <time>2022-02-21T21:12:28.328Z</time>
      </trkpt>
      <trkpt lat="42.92868" lon="-1.37825">
        <ele>719.002671</ele>
        <time>2022-02-21T21:12:31.114Z</time>
      </trkpt>
      <trkpt lat="42.92848" lon="-1.37842">
        <ele>717.738699</ele>
        <time>2022-02-21T21:12:34.754Z</time>
      </trkpt>
      <trkpt lat="42.92825" lon="-1.37844">
        <ele>716.841789</ele>
        <time>2022-02-21T21:12:38.322Z</time>
      </trkpt>
      <trkpt lat="42.92654" lon="-1.37819">
        <ele>710.649746</ele>
        <time>2022-02-21T21:13:07.190Z</time>
      </trkpt>
      <trkpt lat="42.92422" lon="-1.37819">
        <ele>707.486678</ele>
        <time>2022-02-21T21:13:54.090Z</time>
      </trkpt>
      <trkpt lat="42.92366" lon="-1.37817">
        <ele>706.772953</ele>
        <time>2022-02-21T21:14:04.867Z</time>
      </trkpt>
      <trkpt lat="42.92351" lon="-1.37814">
        <ele>706.587108</ele>
        <time>2022-02-21T21:14:07.577Z</time>
      </trkpt>
      <trkpt lat="42.92312" lon="-1.37782">
        <ele>705.933438</ele>
        <time>2022-02-21T21:14:16.008Z</time>
      </trkpt>
      <trkpt lat="42.92292" lon="-1.37778">
        <ele>705.529163</ele>
        <time>2022-02-21T21:14:19.873Z</time>
      </trkpt>
      <trkpt lat="42.92232" lon="-1.37777">
        <ele>704.34977</ele>
        <time>2022-02-21T21:14:30.695Z</time>
      </trkpt>
      <trkpt lat="42.91983" lon="-1.37814">
        <ele>699.434893</ele>
        <time>2022-02-21T21:15:16.916Z</time>
      </trkpt>
      <trkpt lat="42.91965" lon="-1.37808">
        <ele>699.060114</ele>
        <time>2022-02-21T21:15:20.442Z</time>
      </trkpt>
      <trkpt lat="42.91849" lon="-1.37745">
        <ele>696.064472</ele>
        <time>2022-02-21T21:15:42.830Z</time>
      </trkpt>
      <trkpt lat="42.91782" lon="-1.37729">
        <ele>694.413686</ele>
        <time>2022-02-21T21:15:54.756Z</time>
      </trkpt>
      <trkpt lat="42.91732" lon="-1.37735">
        <ele>693.095226</ele>
        <time>2022-02-21T21:16:03.549Z</time>
      </trkpt>
      <trkpt lat="42.91654" lon="-1.37754">
        <ele>691.032062</ele>
        <time>2022-02-21T21:16:17.340Z</time>
      </trkpt>
      <trkpt lat="42.91587" lon="-1.37738">
        <ele>689.518599</ele>
        <time>2022-02-21T21:16:29.468Z</time>
      </trkpt>
      <trkpt lat="42.9147" lon="-1.37742">
        <ele>687.466497</ele>
        <time>2022-02-21T21:16:51.358Z</time>
      </trkpt>
      <trkpt lat="42.9144" lon="-1.37764">
        <ele>686.877496</ele>
        <time>2022-02-21T21:16:58.075Z</time>
      </trkpt>
      <trkpt lat="42.91379" lon="-1.37847">
        <ele>685.9373</ele>
        <time>2022-02-21T21:17:15.330Z</time>
      </trkpt>
      <trkpt lat="42.91348" lon="-1.37983">
        <ele>684.775154</ele>
        <time>2022-02-21T21:17:35.983Z</time>
      </trkpt>
      <trkpt lat="42.91328" lon="-1.38032">
        <ele>684.24694</ele>
        <time>2022-02-21T21:17:43.773Z</time>
      </trkpt>
      <trkpt lat="42.91254" lon="-1.38163">
        <ele>682.65576</ele>
        <time>2022-02-21T21:18:07.187Z</time>
      </trkpt>
      <trkpt lat="42.91243" lon="-1.38174">
        <ele>682.470158</ele>
        <time>2022-02-21T21:18:09.853Z</time>
      </trkpt>
      <trkpt lat="42.91231" lon="-1.38176">
        <ele>682.314543</ele>
        <time>2022-02-21T21:18:12.077Z</time>
      </trkpt>
      <trkpt lat="42.91198" lon="-1.38172">
        <ele>681.871882</ele>
        <time>2022-02-21T21:18:18.449Z</time>
      </trkpt>
      <trkpt lat="42.91052" lon="-1.38143">
        <ele>680.01794</ele>
        <time>2022-02-21T21:18:47.072Z</time>
      </trkpt>
      <trkpt lat="42.91027" lon="-1.38133">
        <ele>679.806221</ele>
        <time>2022-02-21T21:18:52.030Z</time>
      </trkpt>
      <trkpt lat="42.90714" lon="-1.37934">
        <ele>678.111777</ele>
        <time>2022-02-21T21:20:03.599Z</time>
      </trkpt>
      <trkpt lat="42.90663" lon="-1.37914">
        <ele>678.462937</ele>
        <time>2022-02-21T21:20:19.844Z</time>
      </trkpt>
      <trkpt lat="42.90578" lon="-1.37906">
        <ele>679.019811</ele>
        <time>2022-02-21T21:20:44.016Z</time>
      </trkpt>
      <trkpt lat="42.90547" lon="-1.37913">
        <ele>678.763612</ele>
        <time>2022-02-21T21:20:51.294Z</time>
      </trkpt>
      <trkpt lat="42.90434" lon="-1.37971">
        <ele>677.152282</ele>
        <time>2022-02-21T21:21:14.204Z</time>
      </trkpt>
      <trkpt lat="42.90408" lon="-1.37976">
        <ele>676.790791</ele>
        <time>2022-02-21T21:21:18.948Z</time>
      </trkpt>
      <trkpt lat="42.90374" lon="-1.37962">
        <ele>675.910133</ele>
        <time>2022-02-21T21:21:25.180Z</time>
      </trkpt>
      <trkpt lat="42.90277" lon="-1.37896">
        <ele>672.674118</ele>
        <time>2022-02-21T21:21:43.946Z</time>
      </trkpt>
      <trkpt lat="42.90249" lon="-1.37885">
        <ele>671.820749</ele>
        <time>2022-02-21T21:21:49.001Z</time>
      </trkpt>
      <trkpt lat="42.90134" lon="-1.37866">
        <ele>667.182003</ele>
        <time>2022-02-21T21:22:08.174Z</time>
      </trkpt>
      <trkpt lat="42.89982" lon="-1.37871">
        <ele>661.326322</ele>
        <time>2022-02-21T21:22:32.548Z</time>
      </trkpt>
      <trkpt lat="42.89645" lon="-1.37772">
        <ele>652.082163</ele>
        <time>2022-02-21T21:23:33.711Z</time>
      </trkpt>
      <trkpt lat="42.89568" lon="-1.3775">
        <ele>650.602764</ele>
        <time>2022-02-21T21:23:48.797Z</time>
      </trkpt>
      <trkpt lat="42.89524" lon="-1.37747">
        <ele>649.781437</ele>
        <time>2022-02-21T21:23:57.033Z</time>
      </trkpt>
      <trkpt lat="42.89457" lon="-1.37765">
        <ele>648.121378</ele>
        <time>2022-02-21T21:24:09.683Z</time>
      </trkpt>
      <trkpt lat="42.89327" lon="-1.37831">
        <ele>645.261257</ele>
        <time>2022-02-21T21:24:33.849Z</time>
      </trkpt>
      <trkpt lat="42.89305" lon="-1.37835">
        <ele>645.146402</ele>
        <time>2022-02-21T21:24:37.696Z</time>
      </trkpt>
      <trkpt lat="42.89274" lon="-1.37821">
        <ele>644.980213</ele>
        <time>2022-02-21T21:24:43.704Z</time>
      </trkpt>
      <trkpt lat="42.89178" lon="-1.37721">
        <ele>645.125137</ele>
        <time>2022-02-21T21:25:16.743Z</time>
      </trkpt>
      <trkpt lat="42.8915" lon="-1.37692">
        <ele>646.138226</ele>
        <time>2022-02-21T21:25:29.406Z</time>
      </trkpt>
      <trkpt lat="42.89113" lon="-1.37663">
        <ele>647.368111</ele>
        <time>2022-02-21T21:25:46.097Z</time>
      </trkpt>
      <trkpt lat="42.89071" lon="-1.37654">
        <ele>648.603001</ele>
        <time>2022-02-21T21:26:03.776Z</time>
      </trkpt>
      <trkpt lat="42.88993" lon="-1.37679">
        <ele>650.015893</ele>
        <time>2022-02-21T21:26:36.323Z</time>
      </trkpt>
      <trkpt lat="42.88959" lon="-1.37696">
        <ele>650.274833</ele>
        <time>2022-02-21T21:26:46.888Z</time>
      </trkpt>
      <trkpt lat="42.88911" lon="-1.37743">
        <ele>650.691276</ele>
        <time>2022-02-21T21:26:59.327Z</time>
      </trkpt>
      <trkpt lat="42.88884" lon="-1.37761">
        <ele>650.91008</ele>
        <time>2022-02-21T21:27:05.337Z</time>
      </trkpt>
      <trkpt lat="42.88809" lon="-1.37788">
        <ele>649.103683</ele>
        <time>2022-02-21T21:27:19.679Z</time>
      </trkpt>
      <trkpt lat="42.88777" lon="-1.37794">
        <ele>648.153921</ele>
        <time>2022-02-21T21:27:25.506Z</time>
      </trkpt>
      <trkpt lat="42.88609" lon="-1.37793">
        <ele>641.026383</ele>
        <time>2022-02-21T21:27:52.986Z</time>
      </trkpt>
      <trkpt lat="42.88398" lon="-1.37718">
        <ele>627.9886</ele>
        <time>2022-02-21T21:28:25.922Z</time>
      </trkpt>
      <trkpt lat="42.88372" lon="-1.37718">
        <ele>626.380396</ele>
        <time>2022-02-21T21:28:29.865Z</time>
      </trkpt>
      <trkpt lat="42.88359" lon="-1.3773">
        <ele>625.382488</ele>
        <time>2022-02-21T21:28:32.275Z</time>
      </trkpt>
      <trkpt lat="42.88357" lon="-1.37732">
        <ele>625.236108</ele>
        <time>2022-02-21T21:28:32.653Z</time>
      </trkpt>
      <trkpt lat="42.88327" lon="-1.37792">
        <ele>623.000595</ele>
        <time>2022-02-21T21:28:41.148Z</time>
      </trkpt>
      <trkpt lat="42.88326" lon="-1.37796">
        <ele>622.885495</ele>
        <time>2022-02-21T21:28:41.654Z</time>
      </trkpt>
      <trkpt lat="42.88304" lon="-1.37828">
        <ele>621.738317</ele>
        <time>2022-02-21T21:28:46.887Z</time>
      </trkpt>
      <trkpt lat="42.8829" lon="-1.37838">
        <ele>621.150364</ele>
        <time>2022-02-21T21:28:49.586Z</time>
      </trkpt>
      <trkpt lat="42.88191" lon="-1.37885">
        <ele>617.765465</ele>
        <time>2022-02-21T21:29:07.959Z</time>
      </trkpt>
      <trkpt lat="42.8808" lon="-1.37938">
        <ele>616.042382</ele>
        <time>2022-02-21T21:29:30.670Z</time>
      </trkpt>
      <trkpt lat="42.88061" lon="-1.37948">
        <ele>615.751039</ele>
        <time>2022-02-21T21:29:34.655Z</time>
      </trkpt>
      <trkpt lat="42.88021" lon="-1.37966">
        <ele>615.247037</ele>
        <time>2022-02-21T21:29:43.129Z</time>
      </trkpt>
      <trkpt lat="42.87947" lon="-1.37999">
        <ele>614.601905</ele>
        <time>2022-02-21T21:29:58.920Z</time>
      </trkpt>
      <trkpt lat="42.87732" lon="-1.37954">
        <ele>612.766031</ele>
        <time>2022-02-21T21:30:42.924Z</time>
      </trkpt>
      <trkpt lat="42.87612" lon="-1.37957">
        <ele>611.716084</ele>
        <time>2022-02-21T21:31:06.954Z</time>
      </trkpt>
      <trkpt lat="42.87549" lon="-1.37982">
        <ele>611.133252</ele>
        <time>2022-02-21T21:31:20.154Z</time>
      </trkpt>
      <trkpt lat="42.87545" lon="-1.37983">
        <ele>611.10049</ele>
        <time>2022-02-21T21:31:20.862Z</time>
      </trkpt>
      <trkpt lat="42.87541" lon="-1.37985">
        <ele>611.06623</ele>
        <time>2022-02-21T21:31:21.620Z</time>
      </trkpt>
      <trkpt lat="42.87514" lon="-1.37997">
        <ele>610.810413</ele>
        <time>2022-02-21T21:31:27.495Z</time>
      </trkpt>
      <trkpt lat="42.87485" lon="-1.38016">
        <ele>610.615438</ele>
        <time>2022-02-21T21:31:33.951Z</time>
      </trkpt>
      <trkpt lat="42.87475" lon="-1.38022">
        <ele>610.552468</ele>
        <time>2022-02-21T21:31:36.113Z</time>
      </trkpt>
      <trkpt lat="42.87339" lon="-1.38105">
        <ele>609.695372</ele>
        <time>2022-02-21T21:32:07.466Z</time>
      </trkpt>
      <trkpt lat="42.87228" lon="-1.38125">
        <ele>609.0732</ele>
        <time>2022-02-21T21:32:31.098Z</time>
      </trkpt>
      <trkpt lat="42.86664" lon="-1.38209">
        <ele>604.930312</ele>
        <time>2022-02-21T21:34:26.365Z</time>
      </trkpt>
      <trkpt lat="42.86601" lon="-1.38193">
        <ele>604.495266</ele>
        <time>2022-02-21T21:34:39.769Z</time>
      </trkpt>
      <trkpt lat="42.86534" lon="-1.38157">
        <ele>604.05765</ele>
        <time>2022-02-21T21:34:54.288Z</time>
      </trkpt>
      <trkpt lat="42.86454" lon="-1.38096">
        <ele>603.570674</ele>
        <time>2022-02-21T21:35:13.446Z</time>
      </trkpt>
      <trkpt lat="42.86366" lon="-1.38022">
        <ele>603.423564</ele>
        <time>2022-02-21T21:35:35.744Z</time>
      </trkpt>
      <trkpt lat="42.86321" lon="-1.37987">
        <ele>603.349794</ele>
        <time>2022-02-21T21:35:47.809Z</time>
      </trkpt>
      <trkpt lat="42.8626" lon="-1.37942">
        <ele>603.227639</ele>
        <time>2022-02-21T21:36:04.261Z</time>
      </trkpt>
      <trkpt lat="42.86099" lon="-1.37842">
        <ele>602.514203</ele>
        <time>2022-02-21T21:36:41.722Z</time>
      </trkpt>
      <trkpt lat="42.85876" lon="-1.37665">
        <ele>600.694427</ele>
        <time>2022-02-21T21:37:32.690Z</time>
      </trkpt>
      <trkpt lat="42.85841" lon="-1.37643">
        <ele>600.471856</ele>
        <time>2022-02-21T21:37:41.997Z</time>
      </trkpt>
      <trkpt lat="42.85778" lon="-1.37616">
        <ele>601.374625</ele>
        <time>2022-02-21T21:37:59.847Z</time>
      </trkpt>
      <trkpt lat="42.85706" lon="-1.37605">
        <ele>602.486788</ele>
        <time>2022-02-21T21:38:22.475Z</time>
      </trkpt>
      <trkpt lat="42.85546" lon="-1.37602">
        <ele>605.417573</ele>
        <time>2022-02-21T21:39:16.512Z</time>
      </trkpt>
      <trkpt lat="42.85506" lon="-1.37601">
        <ele>606.186464</ele>
        <time>2022-02-21T21:39:28.496Z</time>
      </trkpt>
      <trkpt lat="42.85438" lon="-1.37602">
        <ele>606.468553</ele>
        <time>2022-02-21T21:39:48.217Z</time>
      </trkpt>
      <trkpt lat="42.85384" lon="-1.37618">
        <ele>606.146077</ele>
        <time>2022-02-21T21:40:02.044Z</time>
      </trkpt>
      <trkpt lat="42.85362" lon="-1.37633">
        <ele>606.006865</ele>
        <time>2022-02-21T21:40:06.848Z</time>
      </trkpt>
      <trkpt lat="42.85326" lon="-1.37675">
        <ele>605.728057</ele>
        <time>2022-02-21T21:40:15.380Z</time>
      </trkpt>
      <trkpt lat="42.85286" lon="-1.37743">
        <ele>603.835391</ele>
        <time>2022-02-21T21:40:26.161Z</time>
      </trkpt>
      <trkpt lat="42.85263" lon="-1.37842">
        <ele>601.182465</ele>
        <time>2022-02-21T21:40:38.779Z</time>
      </trkpt>
      <trkpt lat="42.85253" lon="-1.37931">
        <ele>599.185962</ele>
        <time>2022-02-21T21:40:49.731Z</time>
      </trkpt>
      <trkpt lat="42.85236" lon="-1.38077">
        <ele>597.642438</ele>
        <time>2022-02-21T21:41:09.217Z</time>
      </trkpt>
      <trkpt lat="42.852" lon="-1.38383">
        <ele>598.807661</ele>
        <time>2022-02-21T21:42:12.089Z</time>
      </trkpt>
      <trkpt lat="42.85181" lon="-1.38461">
        <ele>599.90556</ele>
        <time>2022-02-21T21:42:31.160Z</time>
      </trkpt>
      <trkpt lat="42.85128" lon="-1.38603">
        <ele>602.190491</ele>
        <time>2022-02-21T21:43:09.298Z</time>
      </trkpt>
      <trkpt lat="42.85105" lon="-1.38682">
        <ele>603.674989</ele>
        <time>2022-02-21T21:43:29.480Z</time>
      </trkpt>
      <trkpt lat="42.85098" lon="-1.38774">
        <ele>605.37985</ele>
        <time>2022-02-21T21:43:52.929Z</time>
      </trkpt>
      <trkpt lat="42.85107" lon="-1.38934">
        <ele>608.951395</ele>
        <time>2022-02-21T21:44:36.109Z</time>
      </trkpt>
      <trkpt lat="42.85102" lon="-1.38993">
        <ele>610.539003</ele>
        <time>2022-02-21T21:44:53.802Z</time>
      </trkpt>
      <trkpt lat="42.8509" lon="-1.39049">
        <ele>612.122559</ele>
        <time>2022-02-21T21:45:12.055Z</time>
      </trkpt>
      <trkpt lat="42.85072" lon="-1.39095">
        <ele>613.496662</ele>
        <time>2022-02-21T21:45:28.321Z</time>
      </trkpt>
      <trkpt lat="42.85047" lon="-1.3914">
        <ele>615.57657</ele>
        <time>2022-02-21T21:45:46.597Z</time>
      </trkpt>
      <trkpt lat="42.84974" lon="-1.39229">
        <ele>620.511043</ele>
        <time>2022-02-21T21:46:31.542Z</time>
      </trkpt>
      <trkpt lat="42.84938" lon="-1.39279">
        <ele>623.276263</ele>
        <time>2022-02-21T21:46:58.450Z</time>
      </trkpt>
      <trkpt lat="42.8491" lon="-1.39337">
        <ele>626.815926</ele>
        <time>2022-02-21T21:47:27.187Z</time>
      </trkpt>
      <trkpt lat="42.84885" lon="-1.39412">
        <ele>630.951488</ele>
        <time>2022-02-21T21:48:00.894Z</time>
      </trkpt>
      <trkpt lat="42.84855" lon="-1.39527">
        <ele>637.417564</ele>
        <time>2022-02-21T21:48:54.278Z</time>
      </trkpt>
      <trkpt lat="42.84829" lon="-1.39595">
        <ele>641.892316</ele>
        <time>2022-02-21T21:49:30.356Z</time>
      </trkpt>
      <trkpt lat="42.84792" lon="-1.39659">
        <ele>646.576722</ele>
        <time>2022-02-21T21:50:08.655Z</time>
      </trkpt>
      <trkpt lat="42.84715" lon="-1.39777">
        <ele>655.110829</ele>
        <time>2022-02-21T21:51:16.590Z</time>
      </trkpt>
      <trkpt lat="42.84697" lon="-1.39812">
        <ele>657.316681</ele>
        <time>2022-02-21T21:51:34.572Z</time>
      </trkpt>
      <trkpt lat="42.84669" lon="-1.39889">
        <ele>661.848587</ele>
        <time>2022-02-21T21:52:10.640Z</time>
      </trkpt>
      <trkpt lat="42.84651" lon="-1.39966">
        <ele>666.095427</ele>
        <time>2022-02-21T21:52:43.697Z</time>
      </trkpt>
      <trkpt lat="42.84647" lon="-1.40007">
        <ele>668.291251</ele>
        <time>2022-02-21T21:53:00.639Z</time>
      </trkpt>
      <trkpt lat="42.84636" lon="-1.40203">
        <ele>679.435677</ele>
        <time>2022-02-21T21:54:26.786Z</time>
      </trkpt>
      <trkpt lat="42.84603" lon="-1.40357">
        <ele>689.728982</ele>
        <time>2022-02-21T21:55:50.421Z</time>
      </trkpt>
      <trkpt lat="42.84596" lon="-1.40436">
        <ele>692.701018</ele>
        <time>2022-02-21T21:56:29.741Z</time>
      </trkpt>
      <trkpt lat="42.84585" lon="-1.40792">
        <ele>696.886284</ele>
        <time>2022-02-21T21:57:58.817Z</time>
      </trkpt>
      <trkpt lat="42.8456" lon="-1.40893">
        <ele>693.405984</ele>
        <time>2022-02-21T21:58:10.234Z</time>
      </trkpt>
      <trkpt lat="42.84517" lon="-1.41007">
        <ele>683.497098</ele>
        <time>2022-02-21T21:58:23.349Z</time>
      </trkpt>
      <trkpt lat="42.84473" lon="-1.4107">
        <ele>676.84276</ele>
        <time>2022-02-21T21:58:32.198Z</time>
      </trkpt>
      <trkpt lat="42.84444" lon="-1.41094">
        <ele>673.682586</ele>
        <time>2022-02-21T21:58:36.944Z</time>
      </trkpt>
      <trkpt lat="42.84414" lon="-1.41111">
        <ele>670.645964</ele>
        <time>2022-02-21T21:58:41.527Z</time>
      </trkpt>
      <trkpt lat="42.84352" lon="-1.41122">
        <ele>664.745682</ele>
        <time>2022-02-21T21:58:50.582Z</time>
      </trkpt>
      <trkpt lat="42.84265" lon="-1.41122">
        <ele>658.037321</ele>
        <time>2022-02-21T21:59:03.498Z</time>
      </trkpt>
      <trkpt lat="42.84133" lon="-1.41163">
        <ele>649.860567</ele>
        <time>2022-02-21T21:59:24.646Z</time>
      </trkpt>
      <trkpt lat="42.84024" lon="-1.41156">
        <ele>643.035074</ele>
        <time>2022-02-21T21:59:41.713Z</time>
      </trkpt>
      <trkpt lat="42.83996" lon="-1.41158">
        <ele>641.227387</ele>
        <time>2022-02-21T21:59:46.017Z</time>
      </trkpt>
      <trkpt lat="42.83951" lon="-1.41171">
        <ele>638.318513</ele>
        <time>2022-02-21T21:59:52.843Z</time>
      </trkpt>
      <trkpt lat="42.83835" lon="-1.41217">
        <ele>629.25278</ele>
        <time>2022-02-21T22:00:10.456Z</time>
      </trkpt>
      <trkpt lat="42.83771" lon="-1.41231">
        <ele>624.609683</ele>
        <time>2022-02-21T22:00:20.150Z</time>
      </trkpt>
      <trkpt lat="42.83699" lon="-1.41229">
        <ele>621.567917</ele>
        <time>2022-02-21T22:00:31.456Z</time>
      </trkpt>
      <trkpt lat="42.83638" lon="-1.41215">
        <ele>618.942952</ele>
        <time>2022-02-21T22:00:41.904Z</time>
      </trkpt>
      <trkpt lat="42.83582" lon="-1.41193">
        <ele>616.806384</ele>
        <time>2022-02-21T22:00:52.364Z</time>
      </trkpt>
      <trkpt lat="42.83476" lon="-1.41133">
        <ele>613.94651</ele>
        <time>2022-02-21T22:01:13.257Z</time>
      </trkpt>
      <trkpt lat="42.83231" lon="-1.41055">
        <ele>605.901334</ele>
        <time>2022-02-21T22:01:56.424Z</time>
      </trkpt>
      <trkpt lat="42.83006" lon="-1.41042">
        <ele>596.773356</ele>
        <time>2022-02-21T22:02:32.500Z</time>
      </trkpt>
      <trkpt lat="42.8292" lon="-1.41021">
        <ele>593.843071</ele>
        <time>2022-02-21T22:02:47.659Z</time>
      </trkpt>
      <trkpt lat="42.82852" lon="-1.40997">
        <ele>592.432957</ele>
        <time>2022-02-21T22:03:00.929Z</time>
      </trkpt>
      <trkpt lat="42.82764" lon="-1.40956">
        <ele>591.13412</ele>
        <time>2022-02-21T22:03:19.277Z</time>
      </trkpt>
      <trkpt lat="42.82696" lon="-1.40908">
        <ele>590.613421</ele>
        <time>2022-02-21T22:03:33.815Z</time>
      </trkpt>
      <trkpt lat="42.82548" lon="-1.40785">
        <ele>591.32912</ele>
        <time>2022-02-21T22:04:15.064Z</time>
      </trkpt>
      <trkpt lat="42.82482" lon="-1.40737">
        <ele>592.949251</ele>
        <time>2022-02-21T22:04:42.520Z</time>
      </trkpt>
      <trkpt lat="42.82436" lon="-1.40713">
        <ele>594.024293</ele>
        <time>2022-02-21T22:05:01.774Z</time>
      </trkpt>
      <trkpt lat="42.82404" lon="-1.40703">
        <ele>594.454951</ele>
        <time>2022-02-21T22:05:13.565Z</time>
      </trkpt>
      <trkpt lat="42.8233" lon="-1.40696">
        <ele>593.738353</ele>
        <time>2022-02-21T22:05:32.908Z</time>
      </trkpt>
      <trkpt lat="42.82296" lon="-1.40699">
        <ele>593.412535</ele>
        <time>2022-02-21T22:05:39.260Z</time>
      </trkpt>
      <trkpt lat="42.82225" lon="-1.4072">
        <ele>592.393882</ele>
        <time>2022-02-21T22:05:51.565Z</time>
      </trkpt>
      <trkpt lat="42.82086" lon="-1.40782">
        <ele>586.295856</ele>
        <time>2022-02-21T22:06:15.159Z</time>
      </trkpt>
      <trkpt lat="42.82022" lon="-1.4079">
        <ele>584.146087</ele>
        <time>2022-02-21T22:06:25.839Z</time>
      </trkpt>
      <trkpt lat="42.8196" lon="-1.40779">
        <ele>582.318537</ele>
        <time>2022-02-21T22:06:36.696Z</time>
      </trkpt>
      <trkpt lat="42.81912" lon="-1.40758">
        <ele>580.847937</ele>
        <time>2022-02-21T22:06:45.723Z</time>
      </trkpt>
      <trkpt lat="42.81767" lon="-1.40668">
        <ele>576.768291</ele>
        <time>2022-02-21T22:07:14.292Z</time>
      </trkpt>
      <trkpt lat="42.81694" lon="-1.4064">
        <ele>574.73579</ele>
        <time>2022-02-21T22:07:27.628Z</time>
      </trkpt>
      <trkpt lat="42.8154" lon="-1.40596">
        <ele>569.946731</ele>
        <time>2022-02-21T22:07:54.826Z</time>
      </trkpt>
      <trkpt lat="42.81462" lon="-1.40562">
        <ele>567.060842</ele>
        <time>2022-02-21T22:08:08.487Z</time>
      </trkpt>
      <trkpt lat="42.81219" lon="-1.40417">
        <ele>558.285133</ele>
        <time>2022-02-21T22:08:53.044Z</time>
      </trkpt>
      <trkpt lat="42.81091" lon="-1.40341">
        <ele>557.6573</ele>
        <time>2022-02-21T22:09:21.241Z</time>
      </trkpt>
      <trkpt lat="42.81011" lon="-1.40281">
        <ele>558.802888</ele>
        <time>2022-02-21T22:09:48.874Z</time>
      </trkpt>
      <trkpt lat="42.8085" lon="-1.40098">
        <ele>565.848171</ele>
        <time>2022-02-21T22:11:12.628Z</time>
      </trkpt>
      <trkpt lat="42.80743" lon="-1.40008">
        <ele>571.344888</ele>
        <time>2022-02-21T22:12:08.317Z</time>
      </trkpt>
      <trkpt lat="42.80652" lon="-1.3988">
        <ele>579.179976</ele>
        <time>2022-02-21T22:13:12.065Z</time>
      </trkpt>
      <trkpt lat="42.8063" lon="-1.39857">
        <ele>580.84557</ele>
        <time>2022-02-21T22:13:30.565Z</time>
      </trkpt>
      <trkpt lat="42.80583" lon="-1.39828">
        <ele>585.207502</ele>
        <time>2022-02-21T22:14:06.528Z</time>
      </trkpt>
      <trkpt lat="42.80559" lon="-1.39821">
        <ele>587.313428</ele>
        <time>2022-02-21T22:14:23.078Z</time>
      </trkpt>
      <trkpt lat="42.80484" lon="-1.39824">
        <ele>593.697954</ele>
        <time>2022-02-21T22:15:12.913Z</time>
      </trkpt>
      <trkpt lat="42.80441" lon="-1.39831">
        <ele>596.885061</ele>
        <time>2022-02-21T22:15:40.167Z</time>
      </trkpt>
      <trkpt lat="42.8039" lon="-1.3983">
        <ele>599.326097</ele>
        <time>2022-02-21T22:16:10.142Z</time>
      </trkpt>
      <trkpt lat="42.80335" lon="-1.39811">
        <ele>602.044617</ele>
        <time>2022-02-21T22:16:36.342Z</time>
      </trkpt>
      <trkpt lat="42.80309" lon="-1.39794">
        <ele>603.389046</ele>
        <time>2022-02-21T22:16:45.395Z</time>
      </trkpt>
      <trkpt lat="42.80261" lon="-1.39746">
        <ele>605.211128</ele>
        <time>2022-02-21T22:17:02.755Z</time>
      </trkpt>
      <trkpt lat="42.8024" lon="-1.39712">
        <ele>605.664027</ele>
        <time>2022-02-21T22:17:12.341Z</time>
      </trkpt>
      <trkpt lat="42.802" lon="-1.39624">
        <ele>606.68495</ele>
        <time>2022-02-21T22:17:33.896Z</time>
      </trkpt>
      <trkpt lat="42.80149" lon="-1.39479">
        <ele>608.904632</ele>
        <time>2022-02-21T22:18:06.920Z</time>
      </trkpt>
      <trkpt lat="42.80142" lon="-1.39441">
        <ele>609.524646</ele>
        <time>2022-02-21T22:18:15.919Z</time>
      </trkpt>
      <trkpt lat="42.80137" lon="-1.39368">
        <ele>610.685169</ele>
        <time>2022-02-21T22:18:33.781Z</time>
      </trkpt>
      <trkpt lat="42.80144" lon="-1.39301">
        <ele>613.00322</ele>
        <time>2022-02-21T22:18:54.772Z</time>
      </trkpt>
      <trkpt lat="42.80178" lon="-1.39176">
        <ele>619.354022</ele>
        <time>2022-02-21T22:19:48.034Z</time>
      </trkpt>
      <trkpt lat="42.80194" lon="-1.39094">
        <ele>623.703781</ele>
        <time>2022-02-21T22:20:27.867Z</time>
      </trkpt>
      <trkpt lat="42.80193" lon="-1.3899">
        <ele>631.293291</ele>
        <time>2022-02-21T22:21:20.645Z</time>
      </trkpt>
      <trkpt lat="42.80181" lon="-1.38922">
        <ele>636.408567</ele>
        <time>2022-02-21T22:22:05.226Z</time>
      </trkpt>
      <trkpt lat="42.8016" lon="-1.38857">
        <ele>640.883725</ele>
        <time>2022-02-21T22:22:43.834Z</time>
      </trkpt>
      <trkpt lat="42.80143" lon="-1.38822">
        <ele>641.464532</ele>
        <time>2022-02-21T22:23:02.109Z</time>
      </trkpt>
      <trkpt lat="42.80104" lon="-1.38761">
        <ele>642.597191</ele>
        <time>2022-02-21T22:23:31.617Z</time>
      </trkpt>
      <trkpt lat="42.79918" lon="-1.38491">
        <ele>633.888032</ele>
        <time>2022-02-21T22:24:17.194Z</time>
      </trkpt>
      <trkpt lat="42.79786" lon="-1.38372">
        <ele>620.094492</ele>
        <time>2022-02-21T22:24:41.017Z</time>
      </trkpt>
      <trkpt lat="42.79721" lon="-1.38325">
        <ele>612.37288</ele>
        <time>2022-02-21T22:24:51.959Z</time>
      </trkpt>
      <trkpt lat="42.79401" lon="-1.38159">
        <ele>575.073362</ele>
        <time>2022-02-21T22:25:39.699Z</time>
      </trkpt>
      <trkpt lat="42.7914" lon="-1.38027">
        <ele>549.503933</ele>
        <time>2022-02-21T22:26:19.879Z</time>
      </trkpt>
      <trkpt lat="42.79079" lon="-1.38013">
        <ele>544.838047</ele>
        <time>2022-02-21T22:26:28.860Z</time>
      </trkpt>
      <trkpt lat="42.78931" lon="-1.37995">
        <ele>535.684537</ele>
        <time>2022-02-21T22:26:51.712Z</time>
      </trkpt>
      <trkpt lat="42.78932" lon="-1.37948">
        <ele>534.712002</ele>
        <time>2022-02-21T22:26:57.646Z</time>
      </trkpt>
      <trkpt lat="42.78955" lon="-1.37874">
        <ele>533.452228</ele>
        <time>2022-02-21T22:27:08.379Z</time>
      </trkpt>
      <trkpt lat="42.79056" lon="-1.37751">
        <ele>531.182746</ele>
        <time>2022-02-21T22:27:38.165Z</time>
      </trkpt>
      <trkpt lat="42.79102" lon="-1.37654">
        <ele>530.575718</ele>
        <time>2022-02-21T22:27:56.788Z</time>
      </trkpt>
      <trkpt lat="42.79129" lon="-1.37628">
        <ele>530.338515</ele>
        <time>2022-02-21T22:28:03.707Z</time>
      </trkpt>
      <trkpt lat="42.79133" lon="-1.3762">
        <ele>530.291921</ele>
        <time>2022-02-21T22:28:05.054Z</time>
      </trkpt>
      <trkpt lat="42.79129" lon="-1.37603">
        <ele>530.182504</ele>
        <time>2022-02-21T22:28:07.663Z</time>
      </trkpt>
      <trkpt lat="42.79129" lon="-1.37573">
        <ele>529.771179</ele>
        <time>2022-02-21T22:28:12.055Z</time>
      </trkpt>
      <trkpt lat="42.79124" lon="-1.37556">
        <ele>529.518519</ele>
        <time>2022-02-21T22:28:14.704Z</time>
      </trkpt>
      <trkpt lat="42.79126" lon="-1.37534">
        <ele>529.202251</ele>
        <time>2022-02-21T22:28:17.986Z</time>
      </trkpt>
      <trkpt lat="42.79122" lon="-1.37462">
        <ele>528.21335</ele>
        <time>2022-02-21T22:28:28.046Z</time>
      </trkpt>
      <trkpt lat="42.79082" lon="-1.37322">
        <ele>526.155111</ele>
        <time>2022-02-21T22:28:49.021Z</time>
      </trkpt>
      <trkpt lat="42.79072" lon="-1.37288">
        <ele>525.661855</ele>
        <time>2022-02-21T22:28:54.276Z</time>
      </trkpt>
      <trkpt lat="42.79009" lon="-1.37073">
        <ele>521.191029</ele>
        <time>2022-02-21T22:29:27.780Z</time>
      </trkpt>
      <trkpt lat="42.79003" lon="-1.37015">
        <ele>519.342982</ele>
        <time>2022-02-21T22:29:35.452Z</time>
      </trkpt>
      <trkpt lat="42.79011" lon="-1.36961">
        <ele>517.589179</ele>
        <time>2022-02-21T22:29:42.170Z</time>
      </trkpt>
      <trkpt lat="42.78999" lon="-1.3695">
        <ele>516.942903</ele>
        <time>2022-02-21T22:29:44.483Z</time>
      </trkpt>
      <trkpt lat="42.78998" lon="-1.36936">
        <ele>516.49824</ele>
        <time>2022-02-21T22:29:46.002Z</time>
      </trkpt>
      <trkpt lat="42.79005" lon="-1.36921">
        <ele>515.909527</ele>
        <time>2022-02-21T22:29:48.006Z</time>
      </trkpt>
      <trkpt lat="42.79018" lon="-1.36918">
        <ele>514.860365</ele>
        <time>2022-02-21T22:29:49.874Z</time>
      </trkpt>
      <trkpt lat="42.79008" lon="-1.36871">
        <ele>511.12902</ele>
        <time>2022-02-21T22:29:55.259Z</time>
      </trkpt>
      <trkpt lat="42.78997" lon="-1.36853">
        <ele>509.296551</ele>
        <time>2022-02-21T22:29:57.823Z</time>
      </trkpt>
      <trkpt lat="42.78876" lon="-1.36723">
        <ele>494.046784</ele>
        <time>2022-02-21T22:30:20.368Z</time>
      </trkpt>
      <trkpt lat="42.78858" lon="-1.36694">
        <ele>491.851341</ele>
        <time>2022-02-21T22:30:24.389Z</time>
      </trkpt>
      <trkpt lat="42.78853" lon="-1.36654">
        <ele>489.440248</ele>
        <time>2022-02-21T22:30:28.915Z</time>
      </trkpt>
      <trkpt lat="42.7886" lon="-1.36624">
        <ele>487.621508</ele>
        <time>2022-02-21T22:30:32.421Z</time>
      </trkpt>
      <trkpt lat="42.78918" lon="-1.36553">
        <ele>482.506091</ele>
        <time>2022-02-21T22:30:45.115Z</time>
      </trkpt>
      <trkpt lat="42.78802" lon="-1.36612">
        <ele>482.413953</ele>
        <time>2022-02-21T22:31:11.495Z</time>
      </trkpt>
      <trkpt lat="42.78766" lon="-1.3662">
        <ele>482.386891</ele>
        <time>2022-02-21T22:31:27.460Z</time>
      </trkpt>
      <trkpt lat="42.78753" lon="-1.36637">
        <ele>483.245388</ele>
        <time>2022-02-21T22:31:37.340Z</time>
      </trkpt>
      <trkpt lat="42.78759" lon="-1.36614">
        <ele>484.479685</ele>
        <time>2022-02-21T22:31:45.231Z</time>
      </trkpt>
      <trkpt lat="42.78756" lon="-1.36596">
        <ele>485.359849</ele>
        <time>2022-02-21T22:31:53.105Z</time>
      </trkpt>
      <trkpt lat="42.7873" lon="-1.36526">
        <ele>489.270276</ele>
        <time>2022-02-21T22:32:24.259Z</time>
      </trkpt>
      <trkpt lat="42.78727" lon="-1.36505">
        <ele>490.317905</ele>
        <time>2022-02-21T22:32:37.096Z</time>
      </trkpt>
      <trkpt lat="42.78599" lon="-1.36558">
        <ele>499.087194</ele>
        <time>2022-02-21T22:34:05.672Z</time>
      </trkpt>
      <trkpt lat="42.78541" lon="-1.36589">
        <ele>503.021113</ele>
        <time>2022-02-21T22:34:36.210Z</time>
      </trkpt>
      <trkpt lat="42.78524" lon="-1.36588">
        <ele>504.157233</ele>
        <time>2022-02-21T22:34:45.399Z</time>
      </trkpt>
      <trkpt lat="42.78512" lon="-1.36585">
        <ele>504.888573</ele>
        <time>2022-02-21T22:34:50.355Z</time>
      </trkpt>
      <trkpt lat="42.78479" lon="-1.36592">
        <ele>506.263568</ele>
        <time>2022-02-21T22:35:06.045Z</time>
      </trkpt>
      <trkpt lat="42.78466" lon="-1.36603">
        <ele>506.501211</ele>
        <time>2022-02-21T22:35:11.814Z</time>
      </trkpt>
      <trkpt lat="42.78456" lon="-1.36612">
        <ele>506.684669</ele>
        <time>2022-02-21T22:35:17.914Z</time>
      </trkpt>
      <trkpt lat="42.78436" lon="-1.36612">
        <ele>506.982167</ele>
        <time>2022-02-21T22:35:24.409Z</time>
      </trkpt>
      <trkpt lat="42.7843" lon="-1.36623">
        <ele>507.139525</ele>
        <time>2022-02-21T22:35:28.816Z</time>
      </trkpt>
      <trkpt lat="42.78425" lon="-1.36647">
        <ele>507.41688</ele>
        <time>2022-02-21T22:35:34.933Z</time>
      </trkpt>
      <trkpt lat="42.7841" lon="-1.36644">
        <ele>507.645652</ele>
        <time>2022-02-21T22:35:39.286Z</time>
      </trkpt>
      <trkpt lat="42.78365" lon="-1.36668">
        <ele>508.384933</ele>
        <time>2022-02-21T22:35:50.488Z</time>
      </trkpt>
      <trkpt lat="42.78324" lon="-1.36674">
        <ele>508.430801</ele>
        <time>2022-02-21T22:35:58.516Z</time>
      </trkpt>
      <trkpt lat="42.78308" lon="-1.367">
        <ele>507.9043</ele>
        <time>2022-02-21T22:36:03.281Z</time>
      </trkpt>
      <trkpt lat="42.78243" lon="-1.36742">
        <ele>506.389336</ele>
        <time>2022-02-21T22:36:17.130Z</time>
      </trkpt>
      <trkpt lat="42.78223" lon="-1.3677">
        <ele>505.797598</ele>
        <time>2022-02-21T22:36:22.219Z</time>
      </trkpt>
      <trkpt lat="42.78198" lon="-1.36789">
        <ele>505.18405</ele>
        <time>2022-02-21T22:36:27.547Z</time>
      </trkpt>
      <trkpt lat="42.78189" lon="-1.36792">
        <ele>504.995036</ele>
        <time>2022-02-21T22:36:29.227Z</time>
      </trkpt>
      <trkpt lat="42.78164" lon="-1.36779">
        <ele>504.469895</ele>
        <time>2022-02-21T22:36:34.351Z</time>
      </trkpt>
      <trkpt lat="42.78157" lon="-1.3678">
        <ele>504.344942</ele>
        <time>2022-02-21T22:36:35.590Z</time>
      </trkpt>
      <trkpt lat="42.78154" lon="-1.36786">
        <ele>504.241134</ele>
        <time>2022-02-21T22:36:36.613Z</time>
      </trkpt>
      <trkpt lat="42.78161" lon="-1.36816">
        <ele>503.789826</ele>
        <time>2022-02-21T22:36:41.066Z</time>
      </trkpt>
      <trkpt lat="42.78159" lon="-1.36827">
        <ele>503.633717</ele>
        <time>2022-02-21T22:36:42.619Z</time>
      </trkpt>
      <trkpt lat="42.78141" lon="-1.36853">
        <ele>503.128707</ele>
        <time>2022-02-21T22:36:47.673Z</time>
      </trkpt>
      <trkpt lat="42.78083" lon="-1.3692">
        <ele>501.6628</ele>
        <time>2022-02-21T22:37:02.890Z</time>
      </trkpt>
      <trkpt lat="42.78049" lon="-1.36942">
        <ele>501.391554</ele>
        <time>2022-02-21T22:37:10.632Z</time>
      </trkpt>
      <trkpt lat="42.78025" lon="-1.3698">
        <ele>501.227009</ele>
        <time>2022-02-21T22:37:17.787Z</time>
      </trkpt>
      <trkpt lat="42.77979" lon="-1.37007">
        <ele>501.00654</ele>
        <time>2022-02-21T22:37:27.738Z</time>
      </trkpt>
      <trkpt lat="42.77928" lon="-1.37051">
        <ele>500.736953</ele>
        <time>2022-02-21T22:37:43.348Z</time>
      </trkpt>
      <trkpt lat="42.77919" lon="-1.37054">
        <ele>501.136921</ele>
        <time>2022-02-21T22:37:46.412Z</time>
      </trkpt>
      <trkpt lat="42.77886" lon="-1.37044">
        <ele>503.020222</ele>
        <time>2022-02-21T22:37:59.536Z</time>
      </trkpt>
      <trkpt lat="42.77836" lon="-1.36975">
        <ele>506.910248</ele>
        <time>2022-02-21T22:38:32.784Z</time>
      </trkpt>
      <trkpt lat="42.778" lon="-1.36935">
        <ele>509.446946</ele>
        <time>2022-02-21T22:39:01.868Z</time>
      </trkpt>
      <trkpt lat="42.77779" lon="-1.36925">
        <ele>510.709141</ele>
        <time>2022-02-21T22:39:16.704Z</time>
      </trkpt>
      <trkpt lat="42.77769" lon="-1.36897">
        <ele>512.72759</ele>
        <time>2022-02-21T22:39:33.725Z</time>
      </trkpt>
      <trkpt lat="42.77734" lon="-1.36848">
        <ele>517.099317</ele>
        <time>2022-02-21T22:40:10.928Z</time>
      </trkpt>
      <trkpt lat="42.77676" lon="-1.36818">
        <ele>522.588373</ele>
        <time>2022-02-21T22:40:55.386Z</time>
      </trkpt>
      <trkpt lat="42.77607" lon="-1.3676">
        <ele>527.759404</ele>
        <time>2022-02-21T22:41:42.325Z</time>
      </trkpt>
      <trkpt lat="42.77565" lon="-1.36763">
        <ele>529.31006</ele>
        <time>2022-02-21T22:42:02.300Z</time>
      </trkpt>
      <trkpt lat="42.7755" lon="-1.36753">
        <ele>529.92821</ele>
        <time>2022-02-21T22:42:09.988Z</time>
      </trkpt>
      <trkpt lat="42.77524" lon="-1.36727">
        <ele>531.09412</ele>
        <time>2022-02-21T22:42:20.927Z</time>
      </trkpt>
      <trkpt lat="42.77458" lon="-1.36695">
        <ele>532.770297</ele>
        <time>2022-02-21T22:42:40.090Z</time>
      </trkpt>
      <trkpt lat="42.77416" lon="-1.36667">
        <ele>532.262873</ele>
        <time>2022-02-21T22:42:50.251Z</time>
      </trkpt>
      <trkpt lat="42.77334" lon="-1.36521">
        <ele>530.431849</ele>
        <time>2022-02-21T22:43:16.556Z</time>
      </trkpt>
      <trkpt lat="42.77306" lon="-1.36485">
        <ele>529.342161</ele>
        <time>2022-02-21T22:43:23.880Z</time>
      </trkpt>
      <trkpt lat="42.77273" lon="-1.36447">
        <ele>528.123012</ele>
        <time>2022-02-21T22:43:31.878Z</time>
      </trkpt>
      <trkpt lat="42.77203" lon="-1.36412">
        <ele>526.027785</ele>
        <time>2022-02-21T22:43:45.264Z</time>
      </trkpt>
      <trkpt lat="42.77141" lon="-1.36361">
        <ele>522.406345</ele>
        <time>2022-02-21T22:43:57.499Z</time>
      </trkpt>
      <trkpt lat="42.77094" lon="-1.3628">
        <ele>518.563971</ele>
        <time>2022-02-21T22:44:09.860Z</time>
      </trkpt>
      <trkpt lat="42.77082" lon="-1.36268">
        <ele>517.793971</ele>
        <time>2022-02-21T22:44:12.272Z</time>
      </trkpt>
      <trkpt lat="42.77006" lon="-1.36235">
        <ele>513.704907</ele>
        <time>2022-02-21T22:44:25.263Z</time>
      </trkpt>
      <trkpt lat="42.76961" lon="-1.36201">
        <ele>511.057548</ele>
        <time>2022-02-21T22:44:33.626Z</time>
      </trkpt>
      <trkpt lat="42.76974" lon="-1.36159">
        <ele>509.34169</ele>
        <time>2022-02-21T22:44:39.080Z</time>
      </trkpt>
      <trkpt lat="42.76985" lon="-1.36085">
        <ele>507.628946</ele>
        <time>2022-02-21T22:44:48.827Z</time>
      </trkpt>
      <trkpt lat="42.76983" lon="-1.36061">
        <ele>507.663888</ele>
        <time>2022-02-21T22:44:52.326Z</time>
      </trkpt>
      <trkpt lat="42.7697" lon="-1.36026">
        <ele>507.719895</ele>
        <time>2022-02-21T22:44:58.440Z</time>
      </trkpt>
      <trkpt lat="42.76955" lon="-1.36006">
        <ele>507.761515</ele>
        <time>2022-02-21T22:45:03.950Z</time>
      </trkpt>
      <trkpt lat="42.76915" lon="-1.35973">
        <ele>507.851595</ele>
        <time>2022-02-21T22:45:17.444Z</time>
      </trkpt>
      <trkpt lat="42.76896" lon="-1.35941">
        <ele>507.910881</ele>
        <time>2022-02-21T22:45:27.841Z</time>
      </trkpt>
      <trkpt lat="42.7683" lon="-1.35881">
        <ele>510.154916</ele>
        <time>2022-02-21T22:46:00.655Z</time>
      </trkpt>
      <trkpt lat="42.76795" lon="-1.35863">
        <ele>511.425222</ele>
        <time>2022-02-21T22:46:17.601Z</time>
      </trkpt>
      <trkpt lat="42.76759" lon="-1.35857">
        <ele>512.682051</ele>
        <time>2022-02-21T22:46:34.066Z</time>
      </trkpt>
      <trkpt lat="42.76716" lon="-1.35825">
        <ele>514.123296</ele>
        <time>2022-02-21T22:46:52.246Z</time>
      </trkpt>
      <trkpt lat="42.76693" lon="-1.35783">
        <ele>514.443502</ele>
        <time>2022-02-21T22:47:04.242Z</time>
      </trkpt>
      <trkpt lat="42.76684" lon="-1.35753">
        <ele>514.642423</ele>
        <time>2022-02-21T22:47:10.870Z</time>
      </trkpt>
      <trkpt lat="42.76674" lon="-1.3568">
        <ele>515.093207</ele>
        <time>2022-02-21T22:47:25.492Z</time>
      </trkpt>
      <trkpt lat="42.76646" lon="-1.35592">
        <ele>515.261626</ele>
        <time>2022-02-21T22:47:41.626Z</time>
      </trkpt>
      <trkpt lat="42.76544" lon="-1.35499">
        <ele>512.975789</ele>
        <time>2022-02-21T22:48:05.721Z</time>
      </trkpt>
      <trkpt lat="42.76512" lon="-1.35454">
        <ele>512.016906</ele>
        <time>2022-02-21T22:48:14.111Z</time>
      </trkpt>
      <trkpt lat="42.76502" lon="-1.35447">
        <ele>511.588101</ele>
        <time>2022-02-21T22:48:16.013Z</time>
      </trkpt>
      <trkpt lat="42.76488" lon="-1.35491">
        <ele>510.21776</ele>
        <time>2022-02-21T22:48:21.827Z</time>
      </trkpt>
      <trkpt lat="42.76429" lon="-1.35622">
        <ele>505.80674</ele>
        <time>2022-02-21T22:48:40.310Z</time>
      </trkpt>
      <trkpt lat="42.76411" lon="-1.35646">
        <ele>504.787138</ele>
        <time>2022-02-21T22:48:44.290Z</time>
      </trkpt>
      <trkpt lat="42.76392" lon="-1.35658">
        <ele>503.845361</ele>
        <time>2022-02-21T22:48:47.750Z</time>
      </trkpt>
      <trkpt lat="42.76367" lon="-1.3566">
        <ele>502.710665</ele>
        <time>2022-02-21T22:48:51.896Z</time>
      </trkpt>
      <trkpt lat="42.76294" lon="-1.35615">
        <ele>499.117564</ele>
        <time>2022-02-21T22:49:04.898Z</time>
      </trkpt>
      <trkpt lat="42.76258" lon="-1.3561">
        <ele>497.508424</ele>
        <time>2022-02-21T22:49:10.664Z</time>
      </trkpt>
      <trkpt lat="42.76138" lon="-1.35669">
        <ele>491.380212</ele>
        <time>2022-02-21T22:49:30.980Z</time>
      </trkpt>
      <trkpt lat="42.76016" lon="-1.35703">
        <ele>485.854011</ele>
        <time>2022-02-21T22:49:50.954Z</time>
      </trkpt>
      <trkpt lat="42.75849" lon="-1.35801">
        <ele>479.436985</ele>
        <time>2022-02-21T22:50:21.231Z</time>
      </trkpt>
      <trkpt lat="42.75656" lon="-1.3581">
        <ele>474.852218</ele>
        <time>2022-02-21T22:50:56.730Z</time>
      </trkpt>
      <trkpt lat="42.7559" lon="-1.35849">
        <ele>473.398731</ele>
        <time>2022-02-21T22:51:09.902Z</time>
      </trkpt>
      <trkpt lat="42.75464" lon="-1.35939">
        <ele>470.274086</ele>
        <time>2022-02-21T22:51:35.797Z</time>
      </trkpt>
      <trkpt lat="42.75419" lon="-1.36">
        <ele>468.833136</ele>
        <time>2022-02-21T22:51:47.079Z</time>
      </trkpt>
      <trkpt lat="42.75359" lon="-1.36015">
        <ele>467.534353</ele>
        <time>2022-02-21T22:51:57.907Z</time>
      </trkpt>
      <trkpt lat="42.75315" lon="-1.36023">
        <ele>466.587742</ele>
        <time>2022-02-21T22:52:05.935Z</time>
      </trkpt>
      <trkpt lat="42.7528" lon="-1.36029">
        <ele>465.815672</ele>
        <time>2022-02-21T22:52:12.537Z</time>
      </trkpt>
      <trkpt lat="42.7517" lon="-1.36049">
        <ele>463.887514</ele>
        <time>2022-02-21T22:52:33.070Z</time>
      </trkpt>
      <trkpt lat="42.75142" lon="-1.36068">
        <ele>463.431687</ele>
        <time>2022-02-21T22:52:38.921Z</time>
      </trkpt>
      <trkpt lat="42.75082" lon="-1.36142">
        <ele>462.222688</ele>
        <time>2022-02-21T22:52:54.821Z</time>
      </trkpt>
      <trkpt lat="42.75006" lon="-1.36175">
        <ele>461.440804</ele>
        <time>2022-02-21T22:53:10.389Z</time>
      </trkpt>
      <trkpt lat="42.74982" lon="-1.36194">
        <ele>461.165899</ele>
        <time>2022-02-21T22:53:15.836Z</time>
      </trkpt>
      <trkpt lat="42.74986" lon="-1.3618">
        <ele>461.058621</ele>
        <time>2022-02-21T22:53:17.930Z</time>
      </trkpt>
      <trkpt lat="42.74984" lon="-1.36156">
        <ele>460.889479</ele>
        <time>2022-02-21T22:53:21.240Z</time>
      </trkpt>
      <trkpt lat="42.7491" lon="-1.35972">
        <ele>461.029893</ele>
        <time>2022-02-21T22:53:54.330Z</time>
      </trkpt>
      <trkpt lat="42.74851" lon="-1.35731">
        <ele>463.612179</ele>
        <time>2022-02-21T22:54:52.662Z</time>
      </trkpt>
      <trkpt lat="42.74826" lon="-1.35681">
        <ele>464.44785</ele>
        <time>2022-02-21T22:55:07.406Z</time>
      </trkpt>
      <trkpt lat="42.74802" lon="-1.35656">
        <ele>465.024928</ele>
        <time>2022-02-21T22:55:17.419Z</time>
      </trkpt>
      <trkpt lat="42.74587" lon="-1.35529">
        <ele>469.037865</ele>
        <time>2022-02-21T22:56:30.278Z</time>
      </trkpt>
      <trkpt lat="42.74456" lon="-1.35477">
        <ele>470.680294</ele>
        <time>2022-02-21T22:57:09.551Z</time>
      </trkpt>
      <trkpt lat="42.74281" lon="-1.35499">
        <ele>470.601439</ele>
        <time>2022-02-21T22:57:49.360Z</time>
      </trkpt>
      <trkpt lat="42.74194" lon="-1.3552">
        <ele>468.934313</ele>
        <time>2022-02-21T22:58:06.090Z</time>
      </trkpt>
      <trkpt lat="42.74007" lon="-1.35601">
        <ele>464.124988</ele>
        <time>2022-02-21T22:58:40.086Z</time>
      </trkpt>
      <trkpt lat="42.73966" lon="-1.35605">
        <ele>462.961919</ele>
        <time>2022-02-21T22:58:47.423Z</time>
      </trkpt>
      <trkpt lat="42.73913" lon="-1.35596">
        <ele>461.753713</ele>
        <time>2022-02-21T22:58:56.785Z</time>
      </trkpt>
      <trkpt lat="42.73902" lon="-1.35592">
        <ele>461.521676</ele>
        <time>2022-02-21T22:58:58.755Z</time>
      </trkpt>
      <trkpt lat="42.73853" lon="-1.35563">
        <ele>460.42451</ele>
        <time>2022-02-21T22:59:08.518Z</time>
      </trkpt>
      <trkpt lat="42.73779" lon="-1.35506">
        <ele>458.715036</ele>
        <time>2022-02-21T22:59:24.547Z</time>
      </trkpt>
      <trkpt lat="42.73744" lon="-1.35467">
        <ele>458.042459</ele>
        <time>2022-02-21T22:59:33.050Z</time>
      </trkpt>
      <trkpt lat="42.73717" lon="-1.35423">
        <ele>457.407491</ele>
        <time>2022-02-21T22:59:40.869Z</time>
      </trkpt>
      <trkpt lat="42.73562" lon="-1.35122">
        <ele>453.889387</ele>
        <time>2022-02-21T23:00:33.159Z</time>
      </trkpt>
      <trkpt lat="42.73448" lon="-1.34898">
        <ele>452.142555</ele>
        <time>2022-02-21T23:01:13.379Z</time>
      </trkpt>
      <trkpt lat="42.73429" lon="-1.34839">
        <ele>451.920935</ele>
        <time>2022-02-21T23:01:23.155Z</time>
      </trkpt>
      <trkpt lat="42.73407" lon="-1.34643">
        <ele>451.341349</ele>
        <time>2022-02-21T23:01:54.489Z</time>
      </trkpt>
      <trkpt lat="42.73397" lon="-1.34301">
        <ele>451.036246</ele>
        <time>2022-02-21T23:02:49.115Z</time>
      </trkpt>
      <trkpt lat="42.7339" lon="-1.34216">
        <ele>451.013657</ele>
        <time>2022-02-21T23:03:02.512Z</time>
      </trkpt>
      <trkpt lat="42.73376" lon="-1.34161">
        <ele>451.88029</ele>
        <time>2022-02-21T23:03:13.389Z</time>
      </trkpt>
      <trkpt lat="42.73356" lon="-1.34111">
        <ele>452.906338</ele>
        <time>2022-02-21T23:03:27.667Z</time>
      </trkpt>
      <trkpt lat="42.73319" lon="-1.34053">
        <ele>454.280531</ele>
        <time>2022-02-21T23:03:49.518Z</time>
      </trkpt>
      <trkpt lat="42.73302" lon="-1.34031">
        <ele>454.857706</ele>
        <time>2022-02-21T23:03:58.878Z</time>
      </trkpt>
      <trkpt lat="42.73258" lon="-1.33979">
        <ele>456.114098</ele>
        <time>2022-02-21T23:04:22.353Z</time>
      </trkpt>
      <trkpt lat="42.73208" lon="-1.33944">
        <ele>457.236043</ele>
        <time>2022-02-21T23:04:43.726Z</time>
      </trkpt>
      <trkpt lat="42.73119" lon="-1.33908">
        <ele>458.848903</ele>
        <time>2022-02-21T23:05:10.849Z</time>
      </trkpt>
      <trkpt lat="42.73061" lon="-1.33863">
        <ele>457.194629</ele>
        <time>2022-02-21T23:05:22.947Z</time>
      </trkpt>
      <trkpt lat="42.72997" lon="-1.33806">
        <ele>455.298211</ele>
        <time>2022-02-21T23:05:35.821Z</time>
      </trkpt>
      <trkpt lat="42.7295" lon="-1.33756">
        <ele>453.782759</ele>
        <time>2022-02-21T23:05:45.725Z</time>
      </trkpt>
      <trkpt lat="42.72904" lon="-1.33675">
        <ele>451.828409</ele>
        <time>2022-02-21T23:05:58.546Z</time>
      </trkpt>
      <trkpt lat="42.72889" lon="-1.33621">
        <ele>450.712836</ele>
        <time>2022-02-21T23:06:06.421Z</time>
      </trkpt>
      <trkpt lat="42.72884" lon="-1.33582">
        <ele>449.963663</ele>
        <time>2022-02-21T23:06:11.869Z</time>
      </trkpt>
      <trkpt lat="42.72839" lon="-1.33048">
        <ele>446.625447</ele>
        <time>2022-02-21T23:07:31.646Z</time>
      </trkpt>
      <trkpt lat="42.72838" lon="-1.32987">
        <ele>446.525178</ele>
        <time>2022-02-21T23:07:40.991Z</time>
      </trkpt>
      <trkpt lat="42.72849" lon="-1.32872">
        <ele>446.337044</ele>
        <time>2022-02-21T23:07:59.353Z</time>
      </trkpt>
      <trkpt lat="42.72858" lon="-1.32822">
        <ele>446.983528</ele>
        <time>2022-02-21T23:08:08.637Z</time>
      </trkpt>
      <trkpt lat="42.72882" lon="-1.3275">
        <ele>449.162498</ele>
        <time>2022-02-21T23:08:25.467Z</time>
      </trkpt>
      <trkpt lat="42.72919" lon="-1.32691">
        <ele>451.280999</ele>
        <time>2022-02-21T23:08:51.777Z</time>
      </trkpt>
      <trkpt lat="42.7297" lon="-1.32614">
        <ele>455.823604</ele>
        <time>2022-02-21T23:09:33.934Z</time>
      </trkpt>
      <trkpt lat="42.72993" lon="-1.3254">
        <ele>461.325135</ele>
        <time>2022-02-21T23:10:13.165Z</time>
      </trkpt>
      <trkpt lat="42.72996" lon="-1.32479">
        <ele>465.566075</ele>
        <time>2022-02-21T23:10:47.119Z</time>
      </trkpt>
      <trkpt lat="42.72979" lon="-1.324">
        <ele>470.924508</ele>
        <time>2022-02-21T23:11:35.682Z</time>
      </trkpt>
      <trkpt lat="42.72953" lon="-1.32349">
        <ele>474.480667</ele>
        <time>2022-02-21T23:12:09.802Z</time>
      </trkpt>
      <trkpt lat="42.72909" lon="-1.32305">
        <ele>478.674414</ele>
        <time>2022-02-21T23:12:42.871Z</time>
      </trkpt>
      <trkpt lat="42.72877" lon="-1.32289">
        <ele>481.323687</ele>
        <time>2022-02-21T23:13:02.705Z</time>
      </trkpt>
      <trkpt lat="42.72668" lon="-1.32242">
        <ele>488.766003</ele>
        <time>2022-02-21T23:14:23.565Z</time>
      </trkpt>
      <trkpt lat="42.72463" lon="-1.32225">
        <ele>484.992676</ele>
        <time>2022-02-21T23:15:01.879Z</time>
      </trkpt>
      <trkpt lat="42.72283" lon="-1.32212">
        <ele>476.409198</ele>
        <time>2022-02-21T23:15:29.978Z</time>
      </trkpt>
      <trkpt lat="42.72222" lon="-1.32215">
        <ele>473.472706</ele>
        <time>2022-02-21T23:15:39.559Z</time>
      </trkpt>
      <trkpt lat="42.72032" lon="-1.32277">
        <ele>465.519541</ele>
        <time>2022-02-21T23:16:11.675Z</time>
      </trkpt>
      <trkpt lat="42.71874" lon="-1.32287">
        <ele>461.306485</ele>
        <time>2022-02-21T23:16:39.503Z</time>
      </trkpt>
      <trkpt lat="42.71736" lon="-1.32326">
        <ele>459.177168</ele>
        <time>2022-02-21T23:17:06.603Z</time>
      </trkpt>
      <trkpt lat="42.71701" lon="-1.32337">
        <ele>458.964447</ele>
        <time>2022-02-21T23:17:14.091Z</time>
      </trkpt>
      <trkpt lat="42.71557" lon="-1.32378">
        <ele>458.057664</ele>
        <time>2022-02-21T23:17:45.890Z</time>
      </trkpt>
      <trkpt lat="42.71525" lon="-1.32383">
        <ele>457.838424</ele>
        <time>2022-02-21T23:17:52.599Z</time>
      </trkpt>
      <trkpt lat="42.71491" lon="-1.32381">
        <ele>457.605174</ele>
        <time>2022-02-21T23:17:59.587Z</time>
      </trkpt>
      <trkpt lat="42.71473" lon="-1.32375">
        <ele>457.480978</ele>
        <time>2022-02-21T23:18:03.295Z</time>
      </trkpt>
      <trkpt lat="42.71411" lon="-1.32347">
        <ele>456.909086</ele>
        <time>2022-02-21T23:18:16.202Z</time>
      </trkpt>
      <trkpt lat="42.71323" lon="-1.32303">
        <ele>455.503253</ele>
        <time>2022-02-21T23:18:34.118Z</time>
      </trkpt>
      <trkpt lat="42.71273" lon="-1.32281">
        <ele>454.724044</ele>
        <time>2022-02-21T23:18:43.873Z</time>
      </trkpt>
      <trkpt lat="42.71219" lon="-1.32256">
        <ele>453.930173</ele>
        <time>2022-02-21T23:18:54.561Z</time>
      </trkpt>
      <trkpt lat="42.70973" lon="-1.32139">
        <ele>450.405608</ele>
        <time>2022-02-21T23:19:45.217Z</time>
      </trkpt>
      <trkpt lat="42.70125" lon="-1.3174">
        <ele>438.016112</ele>
        <time>2022-02-21T23:22:36.062Z</time>
      </trkpt>
      <trkpt lat="42.69643" lon="-1.31514">
        <ele>440.123669</ele>
        <time>2022-02-21T23:24:47.085Z</time>
      </trkpt>
      <trkpt lat="42.69304" lon="-1.31285">
        <ele>440.240961</ele>
        <time>2022-02-21T23:26:11.104Z</time>
      </trkpt>
      <trkpt lat="42.68865" lon="-1.30833">
        <ele>436.886695</ele>
        <time>2022-02-21T23:28:04.751Z</time>
      </trkpt>
      <trkpt lat="42.68833" lon="-1.30796">
        <ele>436.553271</ele>
        <time>2022-02-21T23:28:12.907Z</time>
      </trkpt>
      <trkpt lat="42.6879" lon="-1.30725">
        <ele>436.152132</ele>
        <time>2022-02-21T23:28:26.253Z</time>
      </trkpt>
      <trkpt lat="42.68694" lon="-1.30558">
        <ele>435.803965</ele>
        <time>2022-02-21T23:28:59.220Z</time>
      </trkpt>
      <trkpt lat="42.68668" lon="-1.30523">
        <ele>436.273495</ele>
        <time>2022-02-21T23:29:09.090Z</time>
      </trkpt>
      <trkpt lat="42.68529" lon="-1.3038">
        <ele>439.227968</ele>
        <time>2022-02-21T23:30:03.889Z</time>
      </trkpt>
      <trkpt lat="42.68497" lon="-1.30347">
        <ele>440.255595</ele>
        <time>2022-02-21T23:30:18.271Z</time>
      </trkpt>
      <trkpt lat="42.68492" lon="-1.30341">
        <ele>440.442437</ele>
        <time>2022-02-21T23:30:20.914Z</time>
      </trkpt>
      <trkpt lat="42.68456" lon="-1.30303">
        <ele>441.605366</ele>
        <time>2022-02-21T23:30:37.787Z</time>
      </trkpt>
      <trkpt lat="42.68296" lon="-1.30136">
        <ele>447.679401</ele>
        <time>2022-02-21T23:31:54.199Z</time>
      </trkpt>
      <trkpt lat="42.68207" lon="-1.30059">
        <ele>450.762612</ele>
        <time>2022-02-21T23:32:33.628Z</time>
      </trkpt>
      <trkpt lat="42.68107" lon="-1.29982">
        <ele>453.949659</ele>
        <time>2022-02-21T23:33:14.752Z</time>
      </trkpt>
      <trkpt lat="42.67724" lon="-1.29687">
        <ele>463.590431</ele>
        <time>2022-02-21T23:35:45.494Z</time>
      </trkpt>
      <trkpt lat="42.67665" lon="-1.29654">
        <ele>464.526739</ele>
        <time>2022-02-21T23:36:01.033Z</time>
      </trkpt>
      <trkpt lat="42.67638" lon="-1.29645">
        <ele>464.13944</ele>
        <time>2022-02-21T23:36:06.931Z</time>
      </trkpt>
      <trkpt lat="42.67577" lon="-1.2964">
        <ele>462.814449</ele>
        <time>2022-02-21T23:36:19.083Z</time>
      </trkpt>
      <trkpt lat="42.66986" lon="-1.2967">
        <ele>450.385231</ele>
        <time>2022-02-21T23:38:04.402Z</time>
      </trkpt>
      <trkpt lat="42.66534" lon="-1.29693">
        <ele>448.136122</ele>
        <time>2022-02-21T23:39:40.096Z</time>
      </trkpt>
      <trkpt lat="42.66442" lon="-1.297">
        <ele>448.351464</ele>
        <time>2022-02-21T23:40:02.245Z</time>
      </trkpt>
      <trkpt lat="42.6639" lon="-1.29715">
        <ele>448.543649</ele>
        <time>2022-02-21T23:40:16.128Z</time>
      </trkpt>
      <trkpt lat="42.66211" lon="-1.29808">
        <ele>449.691327</ele>
        <time>2022-02-21T23:41:06.470Z</time>
      </trkpt>
      <trkpt lat="42.66159" lon="-1.29842">
        <ele>449.441719</ele>
        <time>2022-02-21T23:41:19.305Z</time>
      </trkpt>
      <trkpt lat="42.65865" lon="-1.30084">
        <ele>446.300609</ele>
        <time>2022-02-21T23:42:27.036Z</time>
      </trkpt>
      <trkpt lat="42.65846" lon="-1.30102">
        <ele>446.047668</ele>
        <time>2022-02-21T23:42:31.639Z</time>
      </trkpt>
      <trkpt lat="42.65754" lon="-1.30179">
        <ele>444.848035</ele>
        <time>2022-02-21T23:42:52.883Z</time>
      </trkpt>
      <trkpt lat="42.65654" lon="-1.30297">
        <ele>443.31845</ele>
        <time>2022-02-21T23:43:18.366Z</time>
      </trkpt>
      <trkpt lat="42.65585" lon="-1.30382">
        <ele>444.664255</ele>
        <time>2022-02-21T23:43:37.588Z</time>
      </trkpt>
      <trkpt lat="42.65575" lon="-1.30399">
        <ele>445.098324</ele>
        <time>2022-02-21T23:43:42.619Z</time>
      </trkpt>
      <trkpt lat="42.65562" lon="-1.30419">
        <ele>445.624091</ele>
        <time>2022-02-21T23:43:49.493Z</time>
      </trkpt>
      <trkpt lat="42.65558" lon="-1.30422">
        <ele>445.733285</ele>
        <time>2022-02-21T23:43:51.286Z</time>
      </trkpt>
      <trkpt lat="42.65544" lon="-1.30418">
        <ele>446.115495</ele>
        <time>2022-02-21T23:43:57.432Z</time>
      </trkpt>
      <trkpt lat="42.65536" lon="-1.30431">
        <ele>446.44462</ele>
        <time>2022-02-21T23:44:03.157Z</time>
      </trkpt>
      <trkpt lat="42.65524" lon="-1.30422">
        <ele>446.814257</ele>
        <time>2022-02-21T23:44:09.484Z</time>
      </trkpt>
      <trkpt lat="42.65482" lon="-1.30422">
        <ele>448.207047</ele>
        <time>2022-02-21T23:44:31.724Z</time>
      </trkpt>
      <trkpt lat="42.65462" lon="-1.3042">
        <ele>449.543301</ele>
        <time>2022-02-21T23:44:42.480Z</time>
      </trkpt>
      <trkpt lat="42.65453" lon="-1.30475">
        <ele>452.336134</ele>
        <time>2022-02-21T23:45:07.297Z</time>
      </trkpt>
      <trkpt lat="42.65441" lon="-1.30501">
        <ele>453.889738</ele>
        <time>2022-02-21T23:45:22.588Z</time>
      </trkpt>
      <trkpt lat="42.65413" lon="-1.30575">
        <ele>458.050323</ele>
        <time>2022-02-21T23:46:00.923Z</time>
      </trkpt>
      <trkpt lat="42.65406" lon="-1.30633">
        <ele>459.726692</ele>
        <time>2022-02-21T23:46:25.810Z</time>
      </trkpt>
      <trkpt lat="42.65407" lon="-1.30647">
        <ele>459.537899</ele>
        <time>2022-02-21T23:46:30.338Z</time>
      </trkpt>
      <trkpt lat="42.65384" lon="-1.30648">
        <ele>459.102836</ele>
        <time>2022-02-21T23:46:38.413Z</time>
      </trkpt>
      <trkpt lat="42.65376" lon="-1.30651">
        <ele>458.946813</ele>
        <time>2022-02-21T23:46:40.627Z</time>
      </trkpt>
      <trkpt lat="42.65339" lon="-1.30669">
        <ele>458.209055</ele>
        <time>2022-02-21T23:46:47.798Z</time>
      </trkpt>
      <trkpt lat="42.65307" lon="-1.3068">
        <ele>457.608197</ele>
        <time>2022-02-21T23:46:53.245Z</time>
      </trkpt>
      <trkpt lat="42.65304" lon="-1.30696">
        <ele>457.384674</ele>
        <time>2022-02-21T23:46:55.220Z</time>
      </trkpt>
      <trkpt lat="42.65275" lon="-1.307">
        <ele>456.835911</ele>
        <time>2022-02-21T23:46:59.915Z</time>
      </trkpt>
      <trkpt lat="42.65264" lon="-1.30689">
        <ele>456.353102</ele>
        <time>2022-02-21T23:47:02.134Z</time>
      </trkpt>
      <trkpt lat="42.65227" lon="-1.3067">
        <ele>453.265435</ele>
        <time>2022-02-21T23:47:08.294Z</time>
      </trkpt>
      <trkpt lat="42.65215" lon="-1.30666">
        <ele>452.347368</ele>
        <time>2022-02-21T23:47:10.113Z</time>
      </trkpt>
      <trkpt lat="42.65196" lon="-1.30712">
        <ele>449.380332</ele>
        <time>2022-02-21T23:47:15.940Z</time>
      </trkpt>
      <trkpt lat="42.65183" lon="-1.30735">
        <ele>447.688715</ele>
        <time>2022-02-21T23:47:19.230Z</time>
      </trkpt>
      <trkpt lat="42.65173" lon="-1.3074">
        <ele>446.886368</ele>
        <time>2022-02-21T23:47:20.791Z</time>
      </trkpt>
      <trkpt lat="42.65135" lon="-1.30827">
        <ele>441.635041</ele>
        <time>2022-02-21T23:47:32.409Z</time>
      </trkpt>
      <trkpt lat="42.65098" lon="-1.30892">
        <ele>438.482653</ele>
        <time>2022-02-21T23:47:42.633Z</time>
      </trkpt>
      <trkpt lat="42.65078" lon="-1.30951">
        <ele>436.030777</ele>
        <time>2022-02-21T23:47:50.689Z</time>
      </trkpt>
      <trkpt lat="42.6505" lon="-1.30971">
        <ele>434.379749</ele>
        <time>2022-02-21T23:47:55.995Z</time>
      </trkpt>
      <trkpt lat="42.65037" lon="-1.31001">
        <ele>433.277481</ele>
        <time>2022-02-21T23:48:00.355Z</time>
      </trkpt>
      <trkpt lat="42.65018" lon="-1.31024">
        <ele>432.857049</ele>
        <time>2022-02-21T23:48:04.559Z</time>
      </trkpt>
      <trkpt lat="42.65012" lon="-1.31032">
        <ele>432.711597</ele>
        <time>2022-02-21T23:48:06.002Z</time>
      </trkpt>
      <trkpt lat="42.64999" lon="-1.31036">
        <ele>432.478985</ele>
        <time>2022-02-21T23:48:08.385Z</time>
      </trkpt>
      <trkpt lat="42.64963" lon="-1.31064">
        <ele>431.783109</ele>
        <time>2022-02-21T23:48:15.821Z</time>
      </trkpt>
      <trkpt lat="42.64945" lon="-1.31082">
        <ele>431.414607</ele>
        <time>2022-02-21T23:48:19.868Z</time>
      </trkpt>
      <trkpt lat="42.64919" lon="-1.31067">
        <ele>430.928297</ele>
        <time>2022-02-21T23:48:26.772Z</time>
      </trkpt>
      <trkpt lat="42.64886" lon="-1.31032">
        <ele>430.674876</ele>
        <time>2022-02-21T23:48:42.084Z</time>
      </trkpt>
      <trkpt lat="42.64839" lon="-1.30974">
        <ele>432.979071</ele>
        <time>2022-02-21T23:49:06.882Z</time>
      </trkpt>
      <trkpt lat="42.64816" lon="-1.30955">
        <ele>433.97958</ele>
        <time>2022-02-21T23:49:18.068Z</time>
      </trkpt>
      <trkpt lat="42.64774" lon="-1.3094">
        <ele>435.558778</ele>
        <time>2022-02-21T23:49:38.641Z</time>
      </trkpt>
      <trkpt lat="42.64736" lon="-1.3094">
        <ele>436.9779</ele>
        <time>2022-02-21T23:49:57.127Z</time>
      </trkpt>
      <trkpt lat="42.64694" lon="-1.30958">
        <ele>437.432384</ele>
        <time>2022-02-21T23:50:15.809Z</time>
      </trkpt>
      <trkpt lat="42.6463" lon="-1.31002">
        <ele>438.163864</ele>
        <time>2022-02-21T23:50:37.977Z</time>
      </trkpt>
      <trkpt lat="42.646" lon="-1.31006">
        <ele>438.480017</ele>
        <time>2022-02-21T23:50:44.025Z</time>
      </trkpt>
      <trkpt lat="42.64429" lon="-1.31033">
        <ele>435.73783</ele>
        <time>2022-02-21T23:51:15.095Z</time>
      </trkpt>
      <trkpt lat="42.64272" lon="-1.31034">
        <ele>432.210946</ele>
        <time>2022-02-21T23:51:43.158Z</time>
      </trkpt>
      <trkpt lat="42.64177" lon="-1.31015">
        <ele>430.276033</ele>
        <time>2022-02-21T23:52:00.552Z</time>
      </trkpt>
      <trkpt lat="42.64074" lon="-1.30995">
        <ele>428.68845</ele>
        <time>2022-02-21T23:52:20.354Z</time>
      </trkpt>
      <trkpt lat="42.64005" lon="-1.30968">
        <ele>427.779427</ele>
        <time>2022-02-21T23:52:34.492Z</time>
      </trkpt>
      <trkpt lat="42.63972" lon="-1.30944">
        <ele>427.440046</ele>
        <time>2022-02-21T23:52:42.182Z</time>
      </trkpt>
      <trkpt lat="42.63887" lon="-1.30852">
        <ele>426.480027</ele>
        <time>2022-02-21T23:53:03.961Z</time>
      </trkpt>
      <trkpt lat="42.63796" lon="-1.30749">
        <ele>426.423585</ele>
        <time>2022-02-21T23:53:28.919Z</time>
      </trkpt>
      <trkpt lat="42.63791" lon="-1.30744">
        <ele>426.423712</ele>
        <time>2022-02-21T23:53:30.342Z</time>
      </trkpt>
      <trkpt lat="42.6379" lon="-1.30742">
        <ele>426.423742</ele>
        <time>2022-02-21T23:53:30.671Z</time>
      </trkpt>
      <trkpt lat="42.63729" lon="-1.30675">
        <ele>427.297385</ele>
        <time>2022-02-21T23:54:03.564Z</time>
      </trkpt>
      <trkpt lat="42.63657" lon="-1.30596">
        <ele>431.616982</ele>
        <time>2022-02-21T23:54:56.382Z</time>
      </trkpt>
      <trkpt lat="42.63616" lon="-1.30569">
        <ele>433.761682</ele>
        <time>2022-02-21T23:55:29.044Z</time>
      </trkpt>
      <trkpt lat="42.63554" lon="-1.30543">
        <ele>437.600969</ele>
        <time>2022-02-21T23:56:17.775Z</time>
      </trkpt>
      <trkpt lat="42.63539" lon="-1.30532">
        <ele>438.747427</ele>
        <time>2022-02-21T23:56:28.778Z</time>
      </trkpt>
      <trkpt lat="42.63525" lon="-1.30512">
        <ele>440.093019</ele>
        <time>2022-02-21T23:56:45.911Z</time>
      </trkpt>
      <trkpt lat="42.63422" lon="-1.30385">
        <ele>449.875136</ele>
        <time>2022-02-21T23:58:18.808Z</time>
      </trkpt>
      <trkpt lat="42.63355" lon="-1.30317">
        <ele>456.66204</ele>
        <time>2022-02-21T23:59:15.980Z</time>
      </trkpt>
      <trkpt lat="42.63294" lon="-1.30228">
        <ele>466.062729</ele>
        <time>2022-02-22T00:00:39.674Z</time>
      </trkpt>
      <trkpt lat="42.63183" lon="-1.30106">
        <ele>487.169491</ele>
        <time>2022-02-22T00:03:26.803Z</time>
      </trkpt>
      <trkpt lat="42.63102" lon="-1.30058">
        <ele>497.630854</ele>
        <time>2022-02-22T00:05:11.053Z</time>
      </trkpt>
      <trkpt lat="42.63028" lon="-1.30033">
        <ele>506.537073</ele>
        <time>2022-02-22T00:06:17.465Z</time>
      </trkpt>
      <trkpt lat="42.6301" lon="-1.3003">
        <ele>508.595488</ele>
        <time>2022-02-22T00:06:29.529Z</time>
      </trkpt>
      <trkpt lat="42.62991" lon="-1.30038">
        <ele>508.961914</ele>
        <time>2022-02-22T00:06:41.597Z</time>
      </trkpt>
      <trkpt lat="42.62915" lon="-1.30085">
        <ele>508.981475</ele>
        <time>2022-02-22T00:07:21.978Z</time>
      </trkpt>
      <trkpt lat="42.62902" lon="-1.30102">
        <ele>508.985557</ele>
        <time>2022-02-22T00:07:27.859Z</time>
      </trkpt>
      <trkpt lat="42.62877" lon="-1.30099">
        <ele>508.991483</ele>
        <time>2022-02-22T00:07:35.981Z</time>
      </trkpt>
      <trkpt lat="42.62759" lon="-1.30158">
        <ele>496.940312</ele>
        <time>2022-02-22T00:08:10.130Z</time>
      </trkpt>
      <trkpt lat="42.62651" lon="-1.30195">
        <ele>479.892384</ele>
        <time>2022-02-22T00:08:36.248Z</time>
      </trkpt>
      <trkpt lat="42.62596" lon="-1.30201">
        <ele>467.127235</ele>
        <time>2022-02-22T00:08:49.127Z</time>
      </trkpt>
      <trkpt lat="42.62545" lon="-1.30186">
        <ele>455.203505</ele>
        <time>2022-02-22T00:09:01.102Z</time>
      </trkpt>
      <trkpt lat="42.6252" lon="-1.30171">
        <ele>448.794909</ele>
        <time>2022-02-22T00:09:07.558Z</time>
      </trkpt>
      <trkpt lat="42.62513" lon="-1.30164">
        <ele>446.840787</ele>
        <time>2022-02-22T00:09:09.550Z</time>
      </trkpt>
      <trkpt lat="42.62501" lon="-1.30146">
        <ele>443.054689</ele>
        <time>2022-02-22T00:09:13.656Z</time>
      </trkpt>
      <trkpt lat="42.62485" lon="-1.30102">
        <ele>438.54571</ele>
        <time>2022-02-22T00:09:22.038Z</time>
      </trkpt>
      <trkpt lat="42.62447" lon="-1.29879">
        <ele>420.062202</ele>
        <time>2022-02-22T00:10:05.842Z</time>
      </trkpt>
      <trkpt lat="42.62432" lon="-1.29752">
        <ele>416.738127</ele>
        <time>2022-02-22T00:10:35.605Z</time>
      </trkpt>
      <trkpt lat="42.62427" lon="-1.29631">
        <ele>414.534905</ele>
        <time>2022-02-22T00:11:06.336Z</time>
      </trkpt>
      <trkpt lat="42.6241" lon="-1.29446">
        <ele>413.753575</ele>
        <time>2022-02-22T00:11:55.055Z</time>
      </trkpt>
      <trkpt lat="42.62384" lon="-1.29221">
        <ele>414.313916</ele>
        <time>2022-02-22T00:12:57.606Z</time>
      </trkpt>
      <trkpt lat="42.62372" lon="-1.29162">
        <ele>415.099035</ele>
        <time>2022-02-22T00:13:18.063Z</time>
      </trkpt>
      <trkpt lat="42.62334" lon="-1.29046">
        <ele>418.119522</ele>
        <time>2022-02-22T00:14:07.218Z</time>
      </trkpt>
      <trkpt lat="42.62293" lon="-1.2897">
        <ele>420.306878</ele>
        <time>2022-02-22T00:14:49.076Z</time>
      </trkpt>
      <trkpt lat="42.62245" lon="-1.28909">
        <ele>421.74248</ele>
        <time>2022-02-22T00:15:26.848Z</time>
      </trkpt>
      <trkpt lat="42.62208" lon="-1.28878">
        <ele>422.702633</ele>
        <time>2022-02-22T00:15:49.541Z</time>
      </trkpt>
      <trkpt lat="42.62181" lon="-1.28868">
        <ele>423.323629</ele>
        <time>2022-02-22T00:16:01.931Z</time>
      </trkpt>
      <trkpt lat="42.62156" lon="-1.2887">
        <ele>423.874507</ele>
        <time>2022-02-22T00:16:11.385Z</time>
      </trkpt>
      <trkpt lat="42.62086" lon="-1.28899">
        <ele>422.460176</ele>
        <time>2022-02-22T00:16:35.257Z</time>
      </trkpt>
      <trkpt lat="42.62039" lon="-1.28886">
        <ele>421.103727</ele>
        <time>2022-02-22T00:16:49.688Z</time>
      </trkpt>
      <trkpt lat="42.62005" lon="-1.28857">
        <ele>419.959959</ele>
        <time>2022-02-22T00:17:01.585Z</time>
      </trkpt>
      <trkpt lat="42.6198" lon="-1.28814">
        <ele>418.824417</ele>
        <time>2022-02-22T00:17:13.543Z</time>
      </trkpt>
      <trkpt lat="42.61865" lon="-1.28556">
        <ele>413.334769</ele>
        <time>2022-02-22T00:18:24.657Z</time>
      </trkpt>
      <trkpt lat="42.6184" lon="-1.28492">
        <ele>412.224503</ele>
        <time>2022-02-22T00:18:42.158Z</time>
      </trkpt>
      <trkpt lat="42.61828" lon="-1.28443">
        <ele>411.439051</ele>
        <time>2022-02-22T00:18:54.510Z</time>
      </trkpt>
      <trkpt lat="42.61806" lon="-1.28506">
        <ele>410.434454</ele>
        <time>2022-02-22T00:19:11.095Z</time>
      </trkpt>
      <trkpt lat="42.61791" lon="-1.28554">
        <ele>409.792768</ele>
        <time>2022-02-22T00:19:23.539Z</time>
      </trkpt>
      <trkpt lat="42.61758" lon="-1.28707">
        <ele>407.812183</ele>
        <time>2022-02-22T00:20:02.118Z</time>
      </trkpt>
      <trkpt lat="42.61744" lon="-1.28832">
        <ele>407.392087</ele>
        <time>2022-02-22T00:20:35.865Z</time>
      </trkpt>
      <trkpt lat="42.6174" lon="-1.28844">
        <ele>407.363978</ele>
        <time>2022-02-22T00:20:39.325Z</time>
      </trkpt>
      <trkpt lat="42.61724" lon="-1.28852">
        <ele>407.313762</ele>
        <time>2022-02-22T00:20:45.263Z</time>
      </trkpt>
      <trkpt lat="42.6169" lon="-1.28846">
        <ele>407.210295</ele>
        <time>2022-02-22T00:20:58.090Z</time>
      </trkpt>
      <trkpt lat="42.61681" lon="-1.28844">
        <ele>407.181695</ele>
        <time>2022-02-22T00:21:02.112Z</time>
      </trkpt>
      <trkpt lat="42.61671" lon="-1.28826">
        <ele>407.134196</ele>
        <time>2022-02-22T00:21:07.954Z</time>
      </trkpt>
      <trkpt lat="42.61669" lon="-1.28805">
        <ele>407.116536</ele>
        <time>2022-02-22T00:21:13.649Z</time>
      </trkpt>
      <trkpt lat="42.61673" lon="-1.2878">
        <ele>407.172057</ele>
        <time>2022-02-22T00:21:20.972Z</time>
      </trkpt>
      <trkpt lat="42.61736" lon="-1.28538">
        <ele>407.822482</ele>
        <time>2022-02-22T00:22:33.923Z</time>
      </trkpt>
      <trkpt lat="42.61801" lon="-1.28332">
        <ele>408.783749</ele>
        <time>2022-02-22T00:23:40.770Z</time>
      </trkpt>
      <trkpt lat="42.61784" lon="-1.28228">
        <ele>409.177846</ele>
        <time>2022-02-22T00:24:12.899Z</time>
      </trkpt>
      <trkpt lat="42.61728" lon="-1.27948">
        <ele>409.824184</ele>
        <time>2022-02-22T00:25:34.303Z</time>
      </trkpt>
      <trkpt lat="42.61716" lon="-1.27869">
        <ele>409.896623</ele>
        <time>2022-02-22T00:25:56.515Z</time>
      </trkpt>
      <trkpt lat="42.61695" lon="-1.27765">
        <ele>409.770547</ele>
        <time>2022-02-22T00:26:26.492Z</time>
      </trkpt>
      <trkpt lat="42.6168" lon="-1.27689">
        <ele>409.677591</ele>
        <time>2022-02-22T00:26:47.625Z</time>
      </trkpt>
      <trkpt lat="42.61692" lon="-1.27687">
        <ele>409.657718</ele>
        <time>2022-02-22T00:26:50.378Z</time>
      </trkpt>
      <trkpt lat="42.61704" lon="-1.27672">
        <ele>409.632399</ele>
        <time>2022-02-22T00:26:53.928Z</time>
      </trkpt>
      <trkpt lat="42.61653" lon="-1.27575">
        <ele>409.147368</ele>
        <time>2022-02-22T00:27:12.275Z</time>
      </trkpt>
      <trkpt lat="42.61646" lon="-1.27582">
        <ele>409.099419</ele>
        <time>2022-02-22T00:27:14.031Z</time>
      </trkpt>
      <trkpt lat="42.61577" lon="-1.27646">
        <ele>408.619931</ele>
        <time>2022-02-22T00:27:31.303Z</time>
      </trkpt>
      <trkpt lat="42.61553" lon="-1.27665">
        <ele>408.795053</ele>
        <time>2022-02-22T00:27:37.563Z</time>
      </trkpt>
      <trkpt lat="42.61536" lon="-1.2767">
        <ele>408.942963</ele>
        <time>2022-02-22T00:27:41.476Z</time>
      </trkpt>
      <trkpt lat="42.61491" lon="-1.27684">
        <ele>409.344994</ele>
        <time>2022-02-22T00:27:53.978Z</time>
      </trkpt>
      <trkpt lat="42.6147" lon="-1.2769">
        <ele>409.527182</ele>
        <time>2022-02-22T00:27:59.576Z</time>
      </trkpt>
      <trkpt lat="42.61461" lon="-1.27699">
        <ele>409.62727</ele>
        <time>2022-02-22T00:28:03.126Z</time>
      </trkpt>
      <trkpt lat="42.6142" lon="-1.27764">
        <ele>410.144185</ele>
        <time>2022-02-22T00:28:21.863Z</time>
      </trkpt>
      <trkpt lat="42.61411" lon="-1.27778">
        <ele>410.155212</ele>
        <time>2022-02-22T00:28:26.856Z</time>
      </trkpt>
      <trkpt lat="42.61406" lon="-1.27769">
        <ele>410.161888</ele>
        <time>2022-02-22T00:28:29.633Z</time>
      </trkpt>
      <trkpt lat="42.61383" lon="-1.27783">
        <ele>410.181251</ele>
        <time>2022-02-22T00:28:38.799Z</time>
      </trkpt>
      <trkpt lat="42.61323" lon="-1.27793">
        <ele>410.22971</ele>
        <time>2022-02-22T00:28:57.863Z</time>
      </trkpt>
      <trkpt lat="42.61318" lon="-1.27811">
        <ele>410.240502</ele>
        <time>2022-02-22T00:29:01.954Z</time>
      </trkpt>
      <trkpt lat="42.61192" lon="-1.27751">
        <ele>409.060111</ele>
        <time>2022-02-22T00:29:26.978Z</time>
      </trkpt>
      <trkpt lat="42.61158" lon="-1.27741">
        <ele>408.516938</ele>
        <time>2022-02-22T00:29:33.320Z</time>
      </trkpt>
      <trkpt lat="42.60962" lon="-1.27782">
        <ele>406.683341</ele>
        <time>2022-02-22T00:30:12.325Z</time>
      </trkpt>
      <trkpt lat="42.60792" lon="-1.27818">
        <ele>407.682784</ele>
        <time>2022-02-22T00:30:55.577Z</time>
      </trkpt>
      <trkpt lat="42.6072" lon="-1.27833">
        <ele>408.61076</ele>
        <time>2022-02-22T00:31:18.756Z</time>
      </trkpt>
      <trkpt lat="42.6065" lon="-1.27835">
        <ele>409.986239</ele>
        <time>2022-02-22T00:31:42.293Z</time>
      </trkpt>
      <trkpt lat="42.60555" lon="-1.27819">
        <ele>411.830666</ele>
        <time>2022-02-22T00:32:13.735Z</time>
      </trkpt>
      <trkpt lat="42.60513" lon="-1.27804">
        <ele>411.814218</ele>
        <time>2022-02-22T00:32:26.097Z</time>
      </trkpt>
      <trkpt lat="42.60438" lon="-1.27763">
        <ele>411.783475</ele>
        <time>2022-02-22T00:32:44.647Z</time>
      </trkpt>
      <trkpt lat="42.60192" lon="-1.27613">
        <ele>408.386064</ele>
        <time>2022-02-22T00:33:34.883Z</time>
      </trkpt>
      <trkpt lat="42.60134" lon="-1.27593">
        <ele>407.988063</ele>
        <time>2022-02-22T00:33:46.665Z</time>
      </trkpt>
      <trkpt lat="42.60079" lon="-1.27586">
        <ele>407.611021</ele>
        <time>2022-02-22T00:33:58.960Z</time>
      </trkpt>
      <trkpt lat="42.60017" lon="-1.27595">
        <ele>407.558201</ele>
        <time>2022-02-22T00:34:13.948Z</time>
      </trkpt>
      <trkpt lat="42.59993" lon="-1.27606">
        <ele>407.653784</ele>
        <time>2022-02-22T00:34:20.501Z</time>
      </trkpt>
      <trkpt lat="42.5996" lon="-1.27623">
        <ele>407.789871</ele>
        <time>2022-02-22T00:34:29.585Z</time>
      </trkpt>
      <trkpt lat="42.59745" lon="-1.27765">
        <ele>408.203032</ele>
        <time>2022-02-22T00:35:25.634Z</time>
      </trkpt>
      <trkpt lat="42.59728" lon="-1.27788">
        <ele>408.217322</ele>
        <time>2022-02-22T00:35:30.659Z</time>
      </trkpt>
      <trkpt lat="42.5972" lon="-1.27809">
        <ele>408.120459</ele>
        <time>2022-02-22T00:35:34.215Z</time>
      </trkpt>
      <trkpt lat="42.59709" lon="-1.27815">
        <ele>408.045303</ele>
        <time>2022-02-22T00:35:36.737Z</time>
      </trkpt>
      <trkpt lat="42.59694" lon="-1.27808">
        <ele>407.951344</ele>
        <time>2022-02-22T00:35:39.940Z</time>
      </trkpt>
      <trkpt lat="42.59673" lon="-1.2781">
        <ele>407.82339</ele>
        <time>2022-02-22T00:35:44.222Z</time>
      </trkpt>
      <trkpt lat="42.59641" lon="-1.27829">
        <ele>407.609143</ele>
        <time>2022-02-22T00:35:51.399Z</time>
      </trkpt>
      <trkpt lat="42.59201" lon="-1.28106">
        <ele>404.635596</ele>
        <time>2022-02-22T00:37:31.618Z</time>
      </trkpt>
      <trkpt lat="42.59169" lon="-1.2814">
        <ele>404.341708</ele>
        <time>2022-02-22T00:37:39.911Z</time>
      </trkpt>
      <trkpt lat="42.59162" lon="-1.28162">
        <ele>404.213828</ele>
        <time>2022-02-22T00:37:43.494Z</time>
      </trkpt>
      <trkpt lat="42.59151" lon="-1.28168">
        <ele>404.127028</ele>
        <time>2022-02-22T00:37:45.910Z</time>
      </trkpt>
      <trkpt lat="42.59135" lon="-1.28162">
        <ele>404.011391</ele>
        <time>2022-02-22T00:37:49.156Z</time>
      </trkpt>
      <trkpt lat="42.59104" lon="-1.28167">
        <ele>403.78652</ele>
        <time>2022-02-22T00:37:55.422Z</time>
      </trkpt>
      <trkpt lat="42.59094" lon="-1.28173">
        <ele>403.706757</ele>
        <time>2022-02-22T00:37:57.683Z</time>
      </trkpt>
      <trkpt lat="42.58976" lon="-1.28248">
        <ele>402.874842</ele>
        <time>2022-02-22T00:38:24.403Z</time>
      </trkpt>
      <trkpt lat="42.58945" lon="-1.28267">
        <ele>402.6639</ele>
        <time>2022-02-22T00:38:31.351Z</time>
      </trkpt>
      <trkpt lat="42.58846" lon="-1.28326">
        <ele>402.079715</ele>
        <time>2022-02-22T00:38:54.382Z</time>
      </trkpt>
      <trkpt lat="42.5824" lon="-1.2854">
        <ele>398.839259</ele>
        <time>2022-02-22T00:41:04.930Z</time>
      </trkpt>
      <trkpt lat="42.58168" lon="-1.28564">
        <ele>398.585865</ele>
        <time>2022-02-22T00:41:20.507Z</time>
      </trkpt>
      <trkpt lat="42.58148" lon="-1.28559">
        <ele>398.517956</ele>
        <time>2022-02-22T00:41:24.994Z</time>
      </trkpt>
      <trkpt lat="42.58129" lon="-1.28563">
        <ele>398.456665</ele>
        <time>2022-02-22T00:41:28.946Z</time>
      </trkpt>
      <trkpt lat="42.58092" lon="-1.28578">
        <ele>398.328121</ele>
        <time>2022-02-22T00:41:37.401Z</time>
      </trkpt>
      <trkpt lat="42.58087" lon="-1.28594">
        <ele>398.286443</ele>
        <time>2022-02-22T00:41:40.197Z</time>
      </trkpt>
      <trkpt lat="42.58065" lon="-1.28601">
        <ele>398.215681</ele>
        <time>2022-02-22T00:41:44.893Z</time>
      </trkpt>
      <trkpt lat="42.57983" lon="-1.2863">
        <ele>398.112406</ele>
        <time>2022-02-22T00:42:03.278Z</time>
      </trkpt>
      <trkpt lat="42.57969" lon="-1.28635">
        <ele>398.094593</ele>
        <time>2022-02-22T00:42:06.452Z</time>
      </trkpt>
      <trkpt lat="42.57926" lon="-1.28649">
        <ele>398.04108</ele>
        <time>2022-02-22T00:42:15.987Z</time>
      </trkpt>
      <trkpt lat="42.57885" lon="-1.28664">
        <ele>398.045885</ele>
        <time>2022-02-22T00:42:25.519Z</time>
      </trkpt>
      <trkpt lat="42.57792" lon="-1.28696">
        <ele>398.694092</ele>
        <time>2022-02-22T00:42:48.805Z</time>
      </trkpt>
      <trkpt lat="42.57782" lon="-1.28699">
        <ele>398.765283</ele>
        <time>2022-02-22T00:42:51.746Z</time>
      </trkpt>
      <trkpt lat="42.57759" lon="-1.28705">
        <ele>398.923629</ele>
        <time>2022-02-22T00:42:58.343Z</time>
      </trkpt>
      <trkpt lat="42.57737" lon="-1.28699">
        <ele>399.07512</ele>
        <time>2022-02-22T00:43:04.891Z</time>
      </trkpt>
      <trkpt lat="42.57729" lon="-1.28684">
        <ele>399.172545</ele>
        <time>2022-02-22T00:43:08.876Z</time>
      </trkpt>
      <trkpt lat="42.57727" lon="-1.28679">
        <ele>399.200388</ele>
        <time>2022-02-22T00:43:10.060Z</time>
      </trkpt>
      <trkpt lat="42.57698" lon="-1.28553">
        <ele>399.925413</ele>
        <time>2022-02-22T00:43:35.927Z</time>
      </trkpt>
      <trkpt lat="42.57694" lon="-1.28531">
        <ele>400.047409</ele>
        <time>2022-02-22T00:43:40.264Z</time>
      </trkpt>
      <trkpt lat="42.57615" lon="-1.28535">
        <ele>400.543832</ele>
        <time>2022-02-22T00:44:05.703Z</time>
      </trkpt>
      <trkpt lat="42.57576" lon="-1.28528">
        <ele>400.450803</ele>
        <time>2022-02-22T00:44:17.502Z</time>
      </trkpt>
      <trkpt lat="42.57527" lon="-1.28517">
        <ele>400.335285</ele>
        <time>2022-02-22T00:44:31.381Z</time>
      </trkpt>
      <trkpt lat="42.57502" lon="-1.28489">
        <ele>400.258445</ele>
        <time>2022-02-22T00:44:40.454Z</time>
      </trkpt>
      <trkpt lat="42.57498" lon="-1.28458">
        <ele>400.203604</ele>
        <time>2022-02-22T00:44:47.035Z</time>
      </trkpt>
      <trkpt lat="42.57485" lon="-1.28455">
        <ele>400.172358</ele>
        <time>2022-02-22T00:44:50.621Z</time>
      </trkpt>
      <trkpt lat="42.57479" lon="-1.2845">
        <ele>400.156457</ele>
        <time>2022-02-22T00:44:52.503Z</time>
      </trkpt>
      <trkpt lat="42.57437" lon="-1.28418">
        <ele>399.896219</ele>
        <time>2022-02-22T00:45:05.936Z</time>
      </trkpt>
      <trkpt lat="42.57407" lon="-1.28396">
        <ele>399.698479</ele>
        <time>2022-02-22T00:45:15.411Z</time>
      </trkpt>
      <trkpt lat="42.5738" lon="-1.28377">
        <ele>399.524337</ele>
        <time>2022-02-22T00:45:23.773Z</time>
      </trkpt>
      <trkpt lat="42.5737" lon="-1.2837">
        <ele>399.45812</ele>
        <time>2022-02-22T00:45:27.010Z</time>
      </trkpt>
      <trkpt lat="42.57341" lon="-1.2835">
        <ele>399.270912</ele>
        <time>2022-02-22T00:45:35.826Z</time>
      </trkpt>
      <trkpt lat="42.57291" lon="-1.28313">
        <ele>398.981186</ele>
        <time>2022-02-22T00:45:51.684Z</time>
      </trkpt>
      <trkpt lat="42.57288" lon="-1.28311">
        <ele>398.968995</ele>
        <time>2022-02-22T00:45:52.495Z</time>
      </trkpt>
      <trkpt lat="42.57277" lon="-1.2831">
        <ele>398.921593</ele>
        <time>2022-02-22T00:45:54.749Z</time>
      </trkpt>
      <trkpt lat="42.57274" lon="-1.28304">
        <ele>398.895722</ele>
        <time>2022-02-22T00:45:56.043Z</time>
      </trkpt>
      <trkpt lat="42.57262" lon="-1.28302">
        <ele>398.845442</ele>
        <time>2022-02-22T00:45:58.409Z</time>
      </trkpt>
      <trkpt lat="42.57207" lon="-1.28275">
        <ele>398.595499</ele>
        <time>2022-02-22T00:46:10.616Z</time>
      </trkpt>
      <trkpt lat="42.57145" lon="-1.28243">
        <ele>398.401471</ele>
        <time>2022-02-22T00:46:24.939Z</time>
      </trkpt>
      <trkpt lat="42.57138" lon="-1.28239">
        <ele>398.492994</ele>
        <time>2022-02-22T00:46:26.649Z</time>
      </trkpt>
      <trkpt lat="42.5713" lon="-1.28237">
        <ele>398.588533</ele>
        <time>2022-02-22T00:46:28.345Z</time>
      </trkpt>
      <trkpt lat="42.57124" lon="-1.28235">
        <ele>398.663159</ele>
        <time>2022-02-22T00:46:29.656Z</time>
      </trkpt>
      <trkpt lat="42.5711" lon="-1.28232">
        <ele>398.831896</ele>
        <time>2022-02-22T00:46:32.683Z</time>
      </trkpt>
      <trkpt lat="42.57017" lon="-1.28219">
        <ele>399.934738</ele>
        <time>2022-02-22T00:46:59.977Z</time>
      </trkpt>
      <trkpt lat="42.5701" lon="-1.28218">
        <ele>400.028973</ele>
        <time>2022-02-22T00:47:02.408Z</time>
      </trkpt>
      <trkpt lat="42.56966" lon="-1.28213">
        <ele>400.65327</ele>
        <time>2022-02-22T00:47:16.576Z</time>
      </trkpt>
      <trkpt lat="42.56958" lon="-1.28211">
        <ele>400.882828</ele>
        <time>2022-02-22T00:47:19.077Z</time>
      </trkpt>
      <trkpt lat="42.56963" lon="-1.28159">
        <ele>402.003415</ele>
        <time>2022-02-22T00:47:32.601Z</time>
      </trkpt>
      <trkpt lat="42.56963" lon="-1.28154">
        <ele>402.110356</ele>
        <time>2022-02-22T00:47:34.229Z</time>
      </trkpt>
      <trkpt lat="42.56824" lon="-1.28155">
        <ele>405.984033</ele>
        <time>2022-02-22T00:48:28.070Z</time>
      </trkpt>
      <trkpt lat="42.56773" lon="-1.28152">
        <ele>407.082852</ele>
        <time>2022-02-22T00:48:47.101Z</time>
      </trkpt>
      <trkpt lat="42.56751" lon="-1.28157">
        <ele>407.564305</ele>
        <time>2022-02-22T00:48:54.712Z</time>
      </trkpt>
      <trkpt lat="42.56659" lon="-1.28209">
        <ele>409.537542</ele>
        <time>2022-02-22T00:49:28.139Z</time>
      </trkpt>
      <trkpt lat="42.56573" lon="-1.28265">
        <ele>409.953035</ele>
        <time>2022-02-22T00:49:56.598Z</time>
      </trkpt>
      <trkpt lat="42.56553" lon="-1.28271">
        <ele>410.041313</ele>
        <time>2022-02-22T00:50:02.321Z</time>
      </trkpt>
      <trkpt lat="42.56525" lon="-1.28256">
        <ele>410.173361</ele>
        <time>2022-02-22T00:50:10.190Z</time>
      </trkpt>
      <trkpt lat="42.56394" lon="-1.28309">
        <ele>407.410099</ele>
        <time>2022-02-22T00:50:35.734Z</time>
      </trkpt>
      <trkpt lat="42.56337" lon="-1.28327">
        <ele>405.915498</ele>
        <time>2022-02-22T00:50:45.344Z</time>
      </trkpt>
      <trkpt lat="42.56306" lon="-1.28332">
        <ele>404.939059</ele>
        <time>2022-02-22T00:50:50.410Z</time>
      </trkpt>
      <trkpt lat="42.5627" lon="-1.28335">
        <ele>403.719093</ele>
        <time>2022-02-22T00:50:56.279Z</time>
      </trkpt>
      <trkpt lat="42.56182" lon="-1.28324">
        <ele>400.73578</ele>
        <time>2022-02-22T00:51:10.951Z</time>
      </trkpt>
      <trkpt lat="42.56134" lon="-1.28307">
        <ele>399.765827</ele>
        <time>2022-02-22T00:51:19.978Z</time>
      </trkpt>
      <trkpt lat="42.56065" lon="-1.28265">
        <ele>400.45151</ele>
        <time>2022-02-22T00:51:38.625Z</time>
      </trkpt>
      <trkpt lat="42.56025" lon="-1.2823">
        <ele>400.881625</ele>
        <time>2022-02-22T00:51:55.207Z</time>
      </trkpt>
      <trkpt lat="42.55982" lon="-1.28187">
        <ele>401.447533</ele>
        <time>2022-02-22T00:52:14.090Z</time>
      </trkpt>
      <trkpt lat="42.55977" lon="-1.2818">
        <ele>401.55707</ele>
        <time>2022-02-22T00:52:16.174Z</time>
      </trkpt>
      <trkpt lat="42.55954" lon="-1.28152">
        <ele>402.02206</ele>
        <time>2022-02-22T00:52:25.902Z</time>
      </trkpt>
      <trkpt lat="42.55933" lon="-1.2813">
        <ele>402.430397</ele>
        <time>2022-02-22T00:52:34.673Z</time>
      </trkpt>
      <trkpt lat="42.55919" lon="-1.28127">
        <ele>402.635457</ele>
        <time>2022-02-22T00:52:38.694Z</time>
      </trkpt>
      <trkpt lat="42.55893" lon="-1.28136">
        <ele>403.041899</ele>
        <time>2022-02-22T00:52:47.428Z</time>
      </trkpt>
      <trkpt lat="42.55879" lon="-1.28155">
        <ele>403.345404</ele>
        <time>2022-02-22T00:52:52.527Z</time>
      </trkpt>
      <trkpt lat="42.55874" lon="-1.28172">
        <ele>403.552294</ele>
        <time>2022-02-22T00:52:56.806Z</time>
      </trkpt>
      <trkpt lat="42.55876" lon="-1.28235">
        <ele>403.827542</ele>
        <time>2022-02-22T00:53:07.824Z</time>
      </trkpt>
      <trkpt lat="42.55873" lon="-1.28274">
        <ele>403.594873</ele>
        <time>2022-02-22T00:53:14.507Z</time>
      </trkpt>
      <trkpt lat="42.55857" lon="-1.28322">
        <ele>403.278314</ele>
        <time>2022-02-22T00:53:22.326Z</time>
      </trkpt>
      <trkpt lat="42.55565" lon="-1.28904">
        <ele>398.744183</ele>
        <time>2022-02-22T00:55:05.044Z</time>
      </trkpt>
      <trkpt lat="42.55546" lon="-1.28933">
        <ele>398.548596</ele>
        <time>2022-02-22T00:55:10.981Z</time>
      </trkpt>
      <trkpt lat="42.55476" lon="-1.29005">
        <ele>397.967566</ele>
        <time>2022-02-22T00:55:29.174Z</time>
      </trkpt>
      <trkpt lat="42.55174" lon="-1.29267">
        <ele>397.448238</ele>
        <time>2022-02-22T00:56:47.414Z</time>
      </trkpt>
      <trkpt lat="42.55096" lon="-1.29316">
        <ele>398.320723</ele>
        <time>2022-02-22T00:57:08.604Z</time>
      </trkpt>
      <trkpt lat="42.54971" lon="-1.29409">
        <ele>400.815975</ele>
        <time>2022-02-22T00:57:51.428Z</time>
      </trkpt>
      <trkpt lat="42.54939" lon="-1.29424">
        <ele>401.852905</ele>
        <time>2022-02-22T00:58:03.893Z</time>
      </trkpt>
      <trkpt lat="42.54852" lon="-1.29451">
        <ele>404.651545</ele>
        <time>2022-02-22T00:58:40.697Z</time>
      </trkpt>
      <trkpt lat="42.54775" lon="-1.29501">
        <ele>408.153397</ele>
        <time>2022-02-22T00:59:19.300Z</time>
      </trkpt>
      <trkpt lat="42.54643" lon="-1.296">
        <ele>414.376393</ele>
        <time>2022-02-22T01:00:23.509Z</time>
      </trkpt>
      <trkpt lat="42.54579" lon="-1.29626">
        <ele>417.073864</ele>
        <time>2022-02-22T01:00:52.131Z</time>
      </trkpt>
      <trkpt lat="42.54524" lon="-1.29636">
        <ele>419.260444</ele>
        <time>2022-02-22T01:01:15.139Z</time>
      </trkpt>
      <trkpt lat="42.54448" lon="-1.29651">
        <ele>421.981354</ele>
        <time>2022-02-22T01:01:47.218Z</time>
      </trkpt>
      <trkpt lat="42.54289" lon="-1.29713">
        <ele>426.745001</ele>
        <time>2022-02-22T01:02:51.288Z</time>
      </trkpt>
      <trkpt lat="42.54272" lon="-1.29718">
        <ele>427.020969</ele>
        <time>2022-02-22T01:02:56.216Z</time>
      </trkpt>
      <trkpt lat="42.54227" lon="-1.29732">
        <ele>427.762485</ele>
        <time>2022-02-22T01:03:09.026Z</time>
      </trkpt>
      <trkpt lat="42.54181" lon="-1.29746">
        <ele>428.510468</ele>
        <time>2022-02-22T01:03:21.132Z</time>
      </trkpt>
      <trkpt lat="42.54152" lon="-1.29759">
        <ele>428.830947</ele>
        <time>2022-02-22T01:03:28.578Z</time>
      </trkpt>
      <trkpt lat="42.54109" lon="-1.29772">
        <ele>429.050498</ele>
        <time>2022-02-22T01:03:38.784Z</time>
      </trkpt>
      <trkpt lat="42.54076" lon="-1.29782">
        <ele>429.220328</ele>
        <time>2022-02-22T01:03:46.825Z</time>
      </trkpt>
      <trkpt lat="42.53893" lon="-1.29838">
        <ele>430.455624</ele>
        <time>2022-02-22T01:04:34.749Z</time>
      </trkpt>
      <trkpt lat="42.53726" lon="-1.29894">
        <ele>432.718083</ele>
        <time>2022-02-22T01:05:21.381Z</time>
      </trkpt>
      <trkpt lat="42.53162" lon="-1.30187">
        <ele>447.896432</ele>
        <time>2022-02-22T01:08:53.707Z</time>
      </trkpt>
      <trkpt lat="42.53135" lon="-1.30205">
        <ele>448.751045</ele>
        <time>2022-02-22T01:09:06.181Z</time>
      </trkpt>
      <trkpt lat="42.53073" lon="-1.3026">
        <ele>450.806523</ele>
        <time>2022-02-22T01:09:35.534Z</time>
      </trkpt>
      <trkpt lat="42.53027" lon="-1.30305">
        <ele>452.376447</ele>
        <time>2022-02-22T01:09:56.123Z</time>
      </trkpt>
      <trkpt lat="42.53011" lon="-1.30342">
        <ele>453.254783</ele>
        <time>2022-02-22T01:10:06.962Z</time>
      </trkpt>
      <trkpt lat="42.53004" lon="-1.30377">
        <ele>453.647572</ele>
        <time>2022-02-22T01:10:15.483Z</time>
      </trkpt>
      <trkpt lat="42.53006" lon="-1.30587">
        <ele>454.620102</ele>
        <time>2022-02-22T01:10:53.245Z</time>
      </trkpt>
      <trkpt lat="42.52999" lon="-1.3066">
        <ele>454.507343</ele>
        <time>2022-02-22T01:11:04.667Z</time>
      </trkpt>
      <trkpt lat="42.52855" lon="-1.31204">
        <ele>453.037963</ele>
        <time>2022-02-22T01:12:34.608Z</time>
      </trkpt>
      <trkpt lat="42.52855" lon="-1.31242">
        <ele>452.960519</ele>
        <time>2022-02-22T01:12:40.593Z</time>
      </trkpt>
      <trkpt lat="42.52899" lon="-1.31349">
        <ele>452.910554</ele>
        <time>2022-02-22T01:13:00.849Z</time>
      </trkpt>
      <trkpt lat="42.52902" lon="-1.31368">
        <ele>452.927447</ele>
        <time>2022-02-22T01:13:04.299Z</time>
      </trkpt>
      <trkpt lat="42.52897" lon="-1.31405">
        <ele>452.96145</ele>
        <time>2022-02-22T01:13:11.312Z</time>
      </trkpt>
      <trkpt lat="42.52879" lon="-1.31437">
        <ele>452.996458</ele>
        <time>2022-02-22T01:13:18.844Z</time>
      </trkpt>
      <trkpt lat="42.52845" lon="-1.31468">
        <ele>453.046751</ele>
        <time>2022-02-22T01:13:29.058Z</time>
      </trkpt>
      <trkpt lat="42.52746" lon="-1.31487">
        <ele>451.770507</ele>
        <time>2022-02-22T01:13:49.281Z</time>
      </trkpt>
      <trkpt lat="42.52723" lon="-1.31498">
        <ele>451.384413</ele>
        <time>2022-02-22T01:13:53.875Z</time>
      </trkpt>
      <trkpt lat="42.52688" lon="-1.31543">
        <ele>450.630662</ele>
        <time>2022-02-22T01:14:02.455Z</time>
      </trkpt>
      <trkpt lat="42.52633" lon="-1.31598">
        <ele>449.228956</ele>
        <time>2022-02-22T01:14:14.242Z</time>
      </trkpt>
      <trkpt lat="42.52623" lon="-1.3163">
        <ele>448.633117</ele>
        <time>2022-02-22T01:14:18.595Z</time>
      </trkpt>
      <trkpt lat="42.52623" lon="-1.31657">
        <ele>448.155683</ele>
        <time>2022-02-22T01:14:22.057Z</time>
      </trkpt>
      <trkpt lat="42.52636" lon="-1.31684">
        <ele>447.594732</ele>
        <time>2022-02-22T01:14:26.161Z</time>
      </trkpt>
      <trkpt lat="42.52671" lon="-1.31719">
        <ele>446.587226</ele>
        <time>2022-02-22T01:14:33.994Z</time>
      </trkpt>
      <trkpt lat="42.52695" lon="-1.31731">
        <ele>446.051508</ele>
        <time>2022-02-22T01:14:38.963Z</time>
      </trkpt>
      <trkpt lat="42.52719" lon="-1.3173">
        <ele>446.309768</ele>
        <time>2022-02-22T01:14:43.792Z</time>
      </trkpt>
      <trkpt lat="42.52735" lon="-1.3172">
        <ele>446.506513</ele>
        <time>2022-02-22T01:14:47.645Z</time>
      </trkpt>
      <trkpt lat="42.52783" lon="-1.31667">
        <ele>447.18578</ele>
        <time>2022-02-22T01:15:04.367Z</time>
      </trkpt>
      <trkpt lat="42.52793" lon="-1.31663">
        <ele>447.302687</ele>
        <time>2022-02-22T01:15:07.915Z</time>
      </trkpt>
      <trkpt lat="42.52807" lon="-1.31668">
        <ele>447.45977</ele>
        <time>2022-02-22T01:15:12.611Z</time>
      </trkpt>
      <trkpt lat="42.52818" lon="-1.31679">
        <ele>447.612043</ele>
        <time>2022-02-22T01:15:17.030Z</time>
      </trkpt>
      <trkpt lat="42.52834" lon="-1.31727">
        <ele>448.085123</ele>
        <time>2022-02-22T01:15:30.860Z</time>
      </trkpt>
      <trkpt lat="42.52862" lon="-1.32026">
        <ele>454.43218</ele>
        <time>2022-02-22T01:16:57.958Z</time>
      </trkpt>
      <trkpt lat="42.5286" lon="-1.32048">
        <ele>454.661304</ele>
        <time>2022-02-22T01:17:03.206Z</time>
      </trkpt>
      <trkpt lat="42.52846" lon="-1.32088">
        <ele>455.121243</ele>
        <time>2022-02-22T01:17:13.357Z</time>
      </trkpt>
      <trkpt lat="42.52732" lon="-1.32346">
        <ele>455.955421</ele>
        <time>2022-02-22T01:18:03.026Z</time>
      </trkpt>
      <trkpt lat="42.5264" lon="-1.3246">
        <ele>454.396957</ele>
        <time>2022-02-22T01:18:27.400Z</time>
      </trkpt>
      <trkpt lat="42.52611" lon="-1.32467">
        <ele>453.867565</ele>
        <time>2022-02-22T01:18:32.724Z</time>
      </trkpt>
      <trkpt lat="42.52533" lon="-1.32448">
        <ele>452.441408</ele>
        <time>2022-02-22T01:18:46.862Z</time>
      </trkpt>
      <trkpt lat="42.52505" lon="-1.32433">
        <ele>451.887175</ele>
        <time>2022-02-22T01:18:52.207Z</time>
      </trkpt>
      <trkpt lat="42.52464" lon="-1.32423">
        <ele>451.107532</ele>
        <time>2022-02-22T01:18:59.900Z</time>
      </trkpt>
      <trkpt lat="42.52453" lon="-1.32425">
        <ele>450.907311</ele>
        <time>2022-02-22T01:19:01.870Z</time>
      </trkpt>
      <trkpt lat="42.52437" lon="-1.3244">
        <ele>450.554613</ele>
        <time>2022-02-22T01:19:05.400Z</time>
      </trkpt>
      <trkpt lat="42.52402" lon="-1.32527">
        <ele>449.329051</ele>
        <time>2022-02-22T01:19:19.183Z</time>
      </trkpt>
      <trkpt lat="42.52401" lon="-1.32569">
        <ele>449.527132</ele>
        <time>2022-02-22T01:19:25.743Z</time>
      </trkpt>
      <trkpt lat="42.52409" lon="-1.32605">
        <ele>449.700865</ele>
        <time>2022-02-22T01:19:32.123Z</time>
      </trkpt>
      <trkpt lat="42.52479" lon="-1.32665">
        <ele>450.221089</ele>
        <time>2022-02-22T01:19:55.358Z</time>
      </trkpt>
      <trkpt lat="42.52553" lon="-1.32701">
        <ele>451.610662</ele>
        <time>2022-02-22T01:20:19.318Z</time>
      </trkpt>
      <trkpt lat="42.52564" lon="-1.32722">
        <ele>452.086297</ele>
        <time>2022-02-22T01:20:25.513Z</time>
      </trkpt>
      <trkpt lat="42.52563" lon="-1.32741">
        <ele>452.454469</ele>
        <time>2022-02-22T01:20:30.437Z</time>
      </trkpt>
      <trkpt lat="42.52543" lon="-1.32785">
        <ele>453.435461</ele>
        <time>2022-02-22T01:20:44.094Z</time>
      </trkpt>
      <trkpt lat="42.52528" lon="-1.32836">
        <ele>454.498801</ele>
        <time>2022-02-22T01:20:59.759Z</time>
      </trkpt>
      <trkpt lat="42.5248" lon="-1.3308">
        <ele>460.316838</ele>
        <time>2022-02-22T01:22:14.329Z</time>
      </trkpt>
      <trkpt lat="42.52473" lon="-1.33094">
        <ele>460.713261</ele>
        <time>2022-02-22T01:22:18.995Z</time>
      </trkpt>
      <trkpt lat="42.52447" lon="-1.33108">
        <ele>460.738924</ele>
        <time>2022-02-22T01:22:28.329Z</time>
      </trkpt>
      <trkpt lat="42.52378" lon="-1.33117">
        <ele>460.33382</ele>
        <time>2022-02-22T01:22:44.141Z</time>
      </trkpt>
      <trkpt lat="42.52352" lon="-1.33133">
        <ele>460.163785</ele>
        <time>2022-02-22T01:22:49.551Z</time>
      </trkpt>
      <trkpt lat="42.52339" lon="-1.33162">
        <ele>460.015916</ele>
        <time>2022-02-22T01:22:54.148Z</time>
      </trkpt>
      <trkpt lat="42.5234" lon="-1.33299">
        <ele>458.117228</ele>
        <time>2022-02-22T01:23:11.538Z</time>
      </trkpt>
      <trkpt lat="42.52333" lon="-1.33315">
        <ele>457.780158</ele>
        <time>2022-02-22T01:23:13.844Z</time>
      </trkpt>
      <trkpt lat="42.52271" lon="-1.33382">
        <ele>455.773726</ele>
        <time>2022-02-22T01:23:27.702Z</time>
      </trkpt>
      <trkpt lat="42.52255" lon="-1.3341">
        <ele>455.24044</ele>
        <time>2022-02-22T01:23:32.702Z</time>
      </trkpt>
      <trkpt lat="42.52237" lon="-1.33476">
        <ele>455.040783</ele>
        <time>2022-02-22T01:23:43.256Z</time>
      </trkpt>
      <trkpt lat="42.52221" lon="-1.33592">
        <ele>454.704583</ele>
        <time>2022-02-22T01:24:03.167Z</time>
      </trkpt>
      <trkpt lat="42.52166" lon="-1.3371">
        <ele>454.661905</ele>
        <time>2022-02-22T01:24:26.905Z</time>
      </trkpt>
      <trkpt lat="42.52142" lon="-1.33778">
        <ele>454.735465</ele>
        <time>2022-02-22T01:24:39.211Z</time>
      </trkpt>
      <trkpt lat="42.52096" lon="-1.33859">
        <ele>454.854861</ele>
        <time>2022-02-22T01:24:56.328Z</time>
      </trkpt>
      <trkpt lat="42.52084" lon="-1.33897">
        <ele>454.926725</ele>
        <time>2022-02-22T01:25:03.626Z</time>
      </trkpt>
      <trkpt lat="42.52088" lon="-1.33962">
        <ele>455.038547</ele>
        <time>2022-02-22T01:25:15.213Z</time>
      </trkpt>
      <trkpt lat="42.52129" lon="-1.34209">
        <ele>454.905751</ele>
        <time>2022-02-22T01:25:58.253Z</time>
      </trkpt>
      <trkpt lat="42.52174" lon="-1.34311">
        <ele>454.496999</ele>
        <time>2022-02-22T01:26:16.012Z</time>
      </trkpt>
      <trkpt lat="42.52201" lon="-1.34567">
        <ele>451.775186</ele>
        <time>2022-02-22T01:26:52.182Z</time>
      </trkpt>
      <trkpt lat="42.52197" lon="-1.34602">
        <ele>451.381313</ele>
        <time>2022-02-22T01:26:57.097Z</time>
      </trkpt>
      <trkpt lat="42.52191" lon="-1.34619">
        <ele>451.161738</ele>
        <time>2022-02-22T01:26:59.859Z</time>
      </trkpt>
      <trkpt lat="42.52153" lon="-1.34682">
        <ele>450.250415</ele>
        <time>2022-02-22T01:27:11.308Z</time>
      </trkpt>
      <trkpt lat="42.52149" lon="-1.34774">
        <ele>449.26861</ele>
        <time>2022-02-22T01:27:24.192Z</time>
      </trkpt>
      <trkpt lat="42.52134" lon="-1.34805">
        <ele>448.937917</ele>
        <time>2022-02-22T01:27:29.551Z</time>
      </trkpt>
      <trkpt lat="42.52042" lon="-1.34863">
        <ele>447.748652</ele>
        <time>2022-02-22T01:27:48.862Z</time>
      </trkpt>
      <trkpt lat="42.5198" lon="-1.3487">
        <ele>447.782531</ele>
        <time>2022-02-22T01:28:00.962Z</time>
      </trkpt>
      <trkpt lat="42.51965" lon="-1.34865">
        <ele>448.124323</ele>
        <time>2022-02-22T01:28:05.996Z</time>
      </trkpt>
      <trkpt lat="42.51926" lon="-1.34833">
        <ele>449.132662</ele>
        <time>2022-02-22T01:28:20.959Z</time>
      </trkpt>
      <trkpt lat="42.51899" lon="-1.34793">
        <ele>450.026634</ele>
        <time>2022-02-22T01:28:34.663Z</time>
      </trkpt>
      <trkpt lat="42.51885" lon="-1.34745">
        <ele>450.858383</ele>
        <time>2022-02-22T01:28:49.138Z</time>
      </trkpt>
      <trkpt lat="42.51876" lon="-1.34707">
        <ele>451.862615</ele>
        <time>2022-02-22T01:29:02.993Z</time>
      </trkpt>
      <trkpt lat="42.51856" lon="-1.34688">
        <ele>453.186677</ele>
        <time>2022-02-22T01:29:14.174Z</time>
      </trkpt>
      <trkpt lat="42.51845" lon="-1.34685">
        <ele>453.803216</ele>
        <time>2022-02-22T01:29:19.734Z</time>
      </trkpt>
      <trkpt lat="42.51804" lon="-1.34707">
        <ele>456.183087</ele>
        <time>2022-02-22T01:29:41.152Z</time>
      </trkpt>
      <trkpt lat="42.51794" lon="-1.34717">
        <ele>456.910261</ele>
        <time>2022-02-22T01:29:49.349Z</time>
      </trkpt>
      <trkpt lat="42.51785" lon="-1.34746">
        <ele>458.133894</ele>
        <time>2022-02-22T01:30:01.407Z</time>
      </trkpt>
      <trkpt lat="42.51803" lon="-1.34895">
        <ele>463.719441</ele>
        <time>2022-02-22T01:30:57.937Z</time>
      </trkpt>
      <trkpt lat="42.51801" lon="-1.34969">
        <ele>466.20474</ele>
        <time>2022-02-22T01:31:22.860Z</time>
      </trkpt>
      <trkpt lat="42.51803" lon="-1.34982">
        <ele>466.630441</ele>
        <time>2022-02-22T01:31:26.818Z</time>
      </trkpt>
      <trkpt lat="42.51835" lon="-1.35047">
        <ele>469.279781</ele>
        <time>2022-02-22T01:31:50.878Z</time>
      </trkpt>
      <trkpt lat="42.51837" lon="-1.35076">
        <ele>469.703318</ele>
        <time>2022-02-22T01:31:58.949Z</time>
      </trkpt>
      <trkpt lat="42.51831" lon="-1.35096">
        <ele>470.008607</ele>
        <time>2022-02-22T01:32:04.538Z</time>
      </trkpt>
      <trkpt lat="42.51753" lon="-1.35218">
        <ele>472.346812</ele>
        <time>2022-02-22T01:32:40.366Z</time>
      </trkpt>
      <trkpt lat="42.5169" lon="-1.35308">
        <ele>473.608113</ele>
        <time>2022-02-22T01:33:07.092Z</time>
      </trkpt>
      <trkpt lat="42.51659" lon="-1.35343">
        <ele>474.070218</ele>
        <time>2022-02-22T01:33:18.122Z</time>
      </trkpt>
      <trkpt lat="42.51641" lon="-1.35347">
        <ele>474.288168</ele>
        <time>2022-02-22T01:33:23.560Z</time>
      </trkpt>
      <trkpt lat="42.51594" lon="-1.35325">
        <ele>474.856735</ele>
        <time>2022-02-22T01:33:35.916Z</time>
      </trkpt>
      <trkpt lat="42.51539" lon="-1.3534">
        <ele>476.245494</ele>
        <time>2022-02-22T01:33:51.040Z</time>
      </trkpt>
      <trkpt lat="42.51515" lon="-1.35356">
        <ele>476.932393</ele>
        <time>2022-02-22T01:33:59.529Z</time>
      </trkpt>
      <trkpt lat="42.51509" lon="-1.3537">
        <ele>477.240216</ele>
        <time>2022-02-22T01:34:04.462Z</time>
      </trkpt>
      <trkpt lat="42.51512" lon="-1.35401">
        <ele>477.830733</ele>
        <time>2022-02-22T01:34:12.891Z</time>
      </trkpt>
      <trkpt lat="42.51551" lon="-1.35426">
        <ele>478.932833</ele>
        <time>2022-02-22T01:34:29.868Z</time>
      </trkpt>
      <trkpt lat="42.5156" lon="-1.35448">
        <ele>479.398</ele>
        <time>2022-02-22T01:34:37.552Z</time>
      </trkpt>
      <trkpt lat="42.51558" lon="-1.35468">
        <ele>480.043385</ele>
        <time>2022-02-22T01:34:43.748Z</time>
      </trkpt>
      <trkpt lat="42.51539" lon="-1.35488">
        <ele>481.354247</ele>
        <time>2022-02-22T01:34:54.652Z</time>
      </trkpt>
      <trkpt lat="42.51511" lon="-1.35472">
        <ele>482.97428</ele>
        <time>2022-02-22T01:35:08.758Z</time>
      </trkpt>
      <trkpt lat="42.51454" lon="-1.35353">
        <ele>488.551584</ele>
        <time>2022-02-22T01:36:03.396Z</time>
      </trkpt>
      <trkpt lat="42.51445" lon="-1.35296">
        <ele>490.471562</ele>
        <time>2022-02-22T01:36:27.146Z</time>
      </trkpt>
      <trkpt lat="42.51434" lon="-1.35111">
        <ele>496.277511</ele>
        <time>2022-02-22T01:37:25.471Z</time>
      </trkpt>
      <trkpt lat="42.51398" lon="-1.34952">
        <ele>498.131139</ele>
        <time>2022-02-22T01:38:04.182Z</time>
      </trkpt>
      <trkpt lat="42.51378" lon="-1.34885">
        <ele>498.803609</ele>
        <time>2022-02-22T01:38:15.920Z</time>
      </trkpt>
      <trkpt lat="42.51351" lon="-1.34851">
        <ele>499.10088</ele>
        <time>2022-02-22T01:38:23.428Z</time>
      </trkpt>
      <trkpt lat="42.5131" lon="-1.34826">
        <ele>499.333214</ele>
        <time>2022-02-22T01:38:32.836Z</time>
      </trkpt>
      <trkpt lat="42.51209" lon="-1.34816">
        <ele>499.854169</ele>
        <time>2022-02-22T01:38:58.173Z</time>
      </trkpt>
      <trkpt lat="42.51197" lon="-1.34816">
        <ele>499.925913</ele>
        <time>2022-02-22T01:39:02.173Z</time>
      </trkpt>
      <trkpt lat="42.51171" lon="-1.34825">
        <ele>500.983091</ele>
        <time>2022-02-22T01:39:11.777Z</time>
      </trkpt>
      <trkpt lat="42.51145" lon="-1.34847">
        <ele>502.183918</ele>
        <time>2022-02-22T01:39:23.189Z</time>
      </trkpt>
      <trkpt lat="42.51109" lon="-1.34913">
        <ele>504.516699</ele>
        <time>2022-02-22T01:39:48.609Z</time>
      </trkpt>
      <trkpt lat="42.51084" lon="-1.34937">
        <ele>505.698992</ele>
        <time>2022-02-22T01:40:03.501Z</time>
      </trkpt>
      <trkpt lat="42.51069" lon="-1.34945">
        <ele>506.308944</ele>
        <time>2022-02-22T01:40:11.049Z</time>
      </trkpt>
      <trkpt lat="42.51006" lon="-1.34958">
        <ele>509.316615</ele>
        <time>2022-02-22T01:40:43.460Z</time>
      </trkpt>
      <trkpt lat="42.50937" lon="-1.34991">
        <ele>512.87871</ele>
        <time>2022-02-22T01:41:18.881Z</time>
      </trkpt>
      <trkpt lat="42.50895" lon="-1.35019">
        <ele>515.189477</ele>
        <time>2022-02-22T01:41:38.821Z</time>
      </trkpt>
      <trkpt lat="42.50835" lon="-1.35071">
        <ele>518.51324</ele>
        <time>2022-02-22T01:42:09.110Z</time>
      </trkpt>
      <trkpt lat="42.50727" lon="-1.351">
        <ele>523.598342</ele>
        <time>2022-02-22T01:42:58.631Z</time>
      </trkpt>
      <trkpt lat="42.50623" lon="-1.35136">
        <ele>530.353172</ele>
        <time>2022-02-22T01:43:55.079Z</time>
      </trkpt>
      <trkpt lat="42.5053" lon="-1.35188">
        <ele>536.777003</ele>
        <time>2022-02-22T01:44:53.580Z</time>
      </trkpt>
      <trkpt lat="42.50502" lon="-1.35183">
        <ele>538.613438</ele>
        <time>2022-02-22T01:45:10.948Z</time>
      </trkpt>
      <trkpt lat="42.50437" lon="-1.35116">
        <ele>543.896998</ele>
        <time>2022-02-22T01:45:55.988Z</time>
      </trkpt>
      <trkpt lat="42.50387" lon="-1.35086">
        <ele>547.319229</ele>
        <time>2022-02-22T01:46:24.541Z</time>
      </trkpt>
      <trkpt lat="42.50342" lon="-1.35095">
        <ele>549.385169</ele>
        <time>2022-02-22T01:46:44.191Z</time>
      </trkpt>
      <trkpt lat="42.50278" lon="-1.35088">
        <ele>552.280714</ele>
        <time>2022-02-22T01:47:11.355Z</time>
      </trkpt>
      <trkpt lat="42.50219" lon="-1.35056">
        <ele>555.14315</ele>
        <time>2022-02-22T01:47:38.824Z</time>
      </trkpt>
      <trkpt lat="42.50157" lon="-1.35041">
        <ele>558.808477</ele>
        <time>2022-02-22T01:48:08.259Z</time>
      </trkpt>
      <trkpt lat="42.50131" lon="-1.35043">
        <ele>560.293339</ele>
        <time>2022-02-22T01:48:21.683Z</time>
      </trkpt>
      <trkpt lat="42.50051" lon="-1.3509">
        <ele>565.424445</ele>
        <time>2022-02-22T01:49:09.870Z</time>
      </trkpt>
      <trkpt lat="42.5" lon="-1.35105">
        <ele>568.695457</ele>
        <time>2022-02-22T01:49:39.523Z</time>
      </trkpt>
      <trkpt lat="42.49913" lon="-1.35078">
        <ele>574.416666</ele>
        <time>2022-02-22T01:50:27.141Z</time>
      </trkpt>
      <trkpt lat="42.49861" lon="-1.35088">
        <ele>577.798169</ele>
        <time>2022-02-22T01:50:55.649Z</time>
      </trkpt>
      <trkpt lat="42.4982" lon="-1.35056">
        <ele>580.928207</ele>
        <time>2022-02-22T01:51:20.663Z</time>
      </trkpt>
      <trkpt lat="42.49781" lon="-1.35047">
        <ele>583.490044</ele>
        <time>2022-02-22T01:51:41.939Z</time>
      </trkpt>
      <trkpt lat="42.49738" lon="-1.35054">
        <ele>586.307945</ele>
        <time>2022-02-22T01:52:05.620Z</time>
      </trkpt>
      <trkpt lat="42.49639" lon="-1.35106">
        <ele>593.529181</ele>
        <time>2022-02-22T01:53:07.132Z</time>
      </trkpt>
      <trkpt lat="42.49562" lon="-1.35113">
        <ele>598.984841</ele>
        <time>2022-02-22T01:53:53.402Z</time>
      </trkpt>
      <trkpt lat="42.49496" lon="-1.35064">
        <ele>603.910161</ele>
        <time>2022-02-22T01:54:33.854Z</time>
      </trkpt>
      <trkpt lat="42.49446" lon="-1.35059">
        <ele>606.959597</ele>
        <time>2022-02-22T01:54:58.690Z</time>
      </trkpt>
      <trkpt lat="42.49414" lon="-1.35072">
        <ele>608.996044</ele>
        <time>2022-02-22T01:55:13.943Z</time>
      </trkpt>
      <trkpt lat="42.49375" lon="-1.35098">
        <ele>611.650754</ele>
        <time>2022-02-22T01:55:35.410Z</time>
      </trkpt>
      <trkpt lat="42.49358" lon="-1.35131">
        <ele>613.644066</ele>
        <time>2022-02-22T01:55:55.835Z</time>
      </trkpt>
      <trkpt lat="42.49353" lon="-1.35171">
        <ele>615.820105</ele>
        <time>2022-02-22T01:56:15.495Z</time>
      </trkpt>
      <trkpt lat="42.49376" lon="-1.35242">
        <ele>619.960367</ele>
        <time>2022-02-22T01:56:47.019Z</time>
      </trkpt>
      <trkpt lat="42.49383" lon="-1.35286">
        <ele>622.404711</ele>
        <time>2022-02-22T01:57:06.080Z</time>
      </trkpt>
      <trkpt lat="42.49383" lon="-1.35301">
        <ele>623.183979</ele>
        <time>2022-02-22T01:57:15.417Z</time>
      </trkpt>
      <trkpt lat="42.49373" lon="-1.35325">
        <ele>624.679973</ele>
        <time>2022-02-22T01:57:25.067Z</time>
      </trkpt>
      <trkpt lat="42.4935" lon="-1.35334">
        <ele>626.28971</ele>
        <time>2022-02-22T01:57:40.227Z</time>
      </trkpt>
      <trkpt lat="42.49339" lon="-1.35331">
        <ele>626.927158</ele>
        <time>2022-02-22T01:57:45.214Z</time>
      </trkpt>
      <trkpt lat="42.49309" lon="-1.3531">
        <ele>628.974036</ele>
        <time>2022-02-22T01:58:06.163Z</time>
      </trkpt>
      <trkpt lat="42.49242" lon="-1.35211">
        <ele>634.834627</ele>
        <time>2022-02-22T01:58:59.635Z</time>
      </trkpt>
      <trkpt lat="42.49157" lon="-1.35204">
        <ele>635.959809</ele>
        <time>2022-02-22T01:59:32.300Z</time>
      </trkpt>
      <trkpt lat="42.49096" lon="-1.35171">
        <ele>635.402173</ele>
        <time>2022-02-22T01:59:44.178Z</time>
      </trkpt>
      <trkpt lat="42.49079" lon="-1.35171">
        <ele>635.263552</ele>
        <time>2022-02-22T01:59:47.002Z</time>
      </trkpt>
      <trkpt lat="42.49052" lon="-1.35173">
        <ele>635.033849</ele>
        <time>2022-02-22T01:59:51.426Z</time>
      </trkpt>
      <trkpt lat="42.49027" lon="-1.35158">
        <ele>634.098213</ele>
        <time>2022-02-22T01:59:55.880Z</time>
      </trkpt>
      <trkpt lat="42.48988" lon="-1.35121">
        <ele>631.464847</ele>
        <time>2022-02-22T02:00:03.368Z</time>
      </trkpt>
      <trkpt lat="42.48932" lon="-1.35041">
        <ele>627.005002</ele>
        <time>2022-02-22T02:00:15.797Z</time>
      </trkpt>
      <trkpt lat="42.4893" lon="-1.35015">
        <ele>625.948749</ele>
        <time>2022-02-22T02:00:18.674Z</time>
      </trkpt>
      <trkpt lat="42.48953" lon="-1.34977">
        <ele>624.074338</ele>
        <time>2022-02-22T02:00:24.221Z</time>
      </trkpt>
      <trkpt lat="42.4896" lon="-1.34951">
        <ele>623.111928</ele>
        <time>2022-02-22T02:00:27.541Z</time>
      </trkpt>
      <trkpt lat="42.48949" lon="-1.34892">
        <ele>620.950871</ele>
        <time>2022-02-22T02:00:35.295Z</time>
      </trkpt>
      <trkpt lat="42.48932" lon="-1.34855">
        <ele>619.401055</ele>
        <time>2022-02-22T02:00:40.496Z</time>
      </trkpt>
      <trkpt lat="42.48907" lon="-1.34826">
        <ele>617.806016</ele>
        <time>2022-02-22T02:00:45.738Z</time>
      </trkpt>
      <trkpt lat="42.48887" lon="-1.34814">
        <ele>616.736466</ele>
        <time>2022-02-22T02:00:49.126Z</time>
      </trkpt>
      <trkpt lat="42.48869" lon="-1.34809">
        <ele>615.794691</ele>
        <time>2022-02-22T02:00:52.060Z</time>
      </trkpt>
      <trkpt lat="42.48817" lon="-1.34816">
        <ele>612.913867</ele>
        <time>2022-02-22T02:01:00.275Z</time>
      </trkpt>
      <trkpt lat="42.48781" lon="-1.34794">
        <ele>610.751041</ele>
        <time>2022-02-22T02:01:06.394Z</time>
      </trkpt>
      <trkpt lat="42.48776" lon="-1.34797">
        <ele>610.435602</ele>
        <time>2022-02-22T02:01:07.542Z</time>
      </trkpt>
      <trkpt lat="42.48775" lon="-1.34807">
        <ele>610.051556</ele>
        <time>2022-02-22T02:01:08.654Z</time>
      </trkpt>
      <trkpt lat="42.48784" lon="-1.34821">
        <ele>609.295434</ele>
        <time>2022-02-22T02:01:10.764Z</time>
      </trkpt>
      <trkpt lat="42.48853" lon="-1.34858">
        <ele>605.022089</ele>
        <time>2022-02-22T02:01:22.258Z</time>
      </trkpt>
      <trkpt lat="42.48865" lon="-1.34877">
        <ele>603.834422</ele>
        <time>2022-02-22T02:01:25.140Z</time>
      </trkpt>
      <trkpt lat="42.48865" lon="-1.34901">
        <ele>602.73221</ele>
        <time>2022-02-22T02:01:27.660Z</time>
      </trkpt>
      <trkpt lat="42.4885" lon="-1.34933">
        <ele>600.971039</ele>
        <time>2022-02-22T02:01:32.019Z</time>
      </trkpt>
      <trkpt lat="42.48832" lon="-1.34958">
        <ele>599.306068</ele>
        <time>2022-02-22T02:01:36.052Z</time>
      </trkpt>
      <trkpt lat="42.48758" lon="-1.35">
        <ele>594.452084</ele>
        <time>2022-02-22T02:01:48.137Z</time>
      </trkpt>
      <trkpt lat="42.48705" lon="-1.35051">
        <ele>591.378951</ele>
        <time>2022-02-22T02:01:58.015Z</time>
      </trkpt>
      <trkpt lat="42.48698" lon="-1.35073">
        <ele>590.52847</ele>
        <time>2022-02-22T02:02:00.766Z</time>
      </trkpt>
      <trkpt lat="42.48706" lon="-1.35127">
        <ele>588.610778</ele>
        <time>2022-02-22T02:02:07.269Z</time>
      </trkpt>
      <trkpt lat="42.48702" lon="-1.35137">
        <ele>588.185724</ele>
        <time>2022-02-22T02:02:08.781Z</time>
      </trkpt>
      <trkpt lat="42.48694" lon="-1.35139">
        <ele>587.805573</ele>
        <time>2022-02-22T02:02:10.148Z</time>
      </trkpt>
      <trkpt lat="42.48679" lon="-1.35132">
        <ele>587.04929</ele>
        <time>2022-02-22T02:02:12.910Z</time>
      </trkpt>
      <trkpt lat="42.48642" lon="-1.35101">
        <ele>586.397045</ele>
        <time>2022-02-22T02:02:21.723Z</time>
      </trkpt>
      <trkpt lat="42.48629" lon="-1.3508">
        <ele>586.305996</ele>
        <time>2022-02-22T02:02:26.022Z</time>
      </trkpt>
      <trkpt lat="42.48626" lon="-1.35044">
        <ele>586.182308</ele>
        <time>2022-02-22T02:02:31.805Z</time>
      </trkpt>
      <trkpt lat="42.48614" lon="-1.3502">
        <ele>586.08484</ele>
        <time>2022-02-22T02:02:37.474Z</time>
      </trkpt>
      <trkpt lat="42.4857" lon="-1.35004">
        <ele>585.87334</ele>
        <time>2022-02-22T02:02:48.011Z</time>
      </trkpt>
      <trkpt lat="42.48549" lon="-1.35007">
        <ele>585.773176</ele>
        <time>2022-02-22T02:02:54.495Z</time>
      </trkpt>
      <trkpt lat="42.48532" lon="-1.35022">
        <ele>585.467315</ele>
        <time>2022-02-22T02:02:58.186Z</time>
      </trkpt>
      <trkpt lat="42.48498" lon="-1.35087">
        <ele>583.673914</ele>
        <time>2022-02-22T02:03:10.122Z</time>
      </trkpt>
      <trkpt lat="42.48474" lon="-1.35109">
        <ele>582.803407</ele>
        <time>2022-02-22T02:03:15.606Z</time>
      </trkpt>
      <trkpt lat="42.47724" lon="-1.35711">
        <ele>537.336965</ele>
        <time>2022-02-22T02:05:31.602Z</time>
      </trkpt>
      <trkpt lat="42.47646" lon="-1.35777">
        <ele>533.09954</ele>
        <time>2022-02-22T02:05:46.435Z</time>
      </trkpt>
      <trkpt lat="42.47611" lon="-1.35816">
        <ele>531.460556</ele>
        <time>2022-02-22T02:05:54.066Z</time>
      </trkpt>
      <trkpt lat="42.47422" lon="-1.36128">
        <ele>523.370265</ele>
        <time>2022-02-22T02:06:46.743Z</time>
      </trkpt>
      <trkpt lat="42.47302" lon="-1.36379">
        <ele>516.549197</ele>
        <time>2022-02-22T02:07:25.134Z</time>
      </trkpt>
      <trkpt lat="42.47282" lon="-1.36409">
        <ele>515.037633</ele>
        <time>2022-02-22T02:07:29.903Z</time>
      </trkpt>
      <trkpt lat="42.4709" lon="-1.36634">
        <ele>503.172198</ele>
        <time>2022-02-22T02:08:09.425Z</time>
      </trkpt>
      <trkpt lat="42.46959" lon="-1.36788">
        <ele>497.860808</ele>
        <time>2022-02-22T02:08:41.360Z</time>
      </trkpt>
      <trkpt lat="42.46843" lon="-1.36901">
        <ele>493.877342</ele>
        <time>2022-02-22T02:09:06.354Z</time>
      </trkpt>
      <trkpt lat="42.46811" lon="-1.36924">
        <ele>492.67501</ele>
        <time>2022-02-22T02:09:12.311Z</time>
      </trkpt>
      <trkpt lat="42.46737" lon="-1.36966">
        <ele>489.969869</ele>
        <time>2022-02-22T02:09:25.861Z</time>
      </trkpt>
      <trkpt lat="42.46641" lon="-1.37003">
        <ele>486.1914</ele>
        <time>2022-02-22T02:09:42.415Z</time>
      </trkpt>
      <trkpt lat="42.46352" lon="-1.37143">
        <ele>475.883338</ele>
        <time>2022-02-22T02:10:33.133Z</time>
      </trkpt>
      <trkpt lat="42.46174" lon="-1.37206">
        <ele>474.662538</ele>
        <time>2022-02-22T02:11:17.549Z</time>
      </trkpt>
      <trkpt lat="42.46125" lon="-1.37235">
        <ele>474.610895</ele>
        <time>2022-02-22T02:11:31.680Z</time>
      </trkpt>
      <trkpt lat="42.46093" lon="-1.37246">
        <ele>474.579804</ele>
        <time>2022-02-22T02:11:39.339Z</time>
      </trkpt>
      <trkpt lat="42.45854" lon="-1.37252">
        <ele>470.27642</ele>
        <time>2022-02-22T02:12:24.053Z</time>
      </trkpt>
      <trkpt lat="42.45528" lon="-1.37202">
        <ele>455.404523</ele>
        <time>2022-02-22T02:13:16.326Z</time>
      </trkpt>
      <trkpt lat="42.45403" lon="-1.3717">
        <ele>451.048701</ele>
        <time>2022-02-22T02:13:37.386Z</time>
      </trkpt>
      <trkpt lat="42.4535" lon="-1.37151">
        <ele>449.242446</ele>
        <time>2022-02-22T02:13:47.113Z</time>
      </trkpt>
      <trkpt lat="42.45323" lon="-1.37156">
        <ele>448.97474</ele>
        <time>2022-02-22T02:13:52.164Z</time>
      </trkpt>
      <trkpt lat="42.45273" lon="-1.37163">
        <ele>449.270369</ele>
        <time>2022-02-22T02:14:01.703Z</time>
      </trkpt>
      <trkpt lat="42.45144" lon="-1.37153">
        <ele>450.903501</ele>
        <time>2022-02-22T02:14:40.163Z</time>
      </trkpt>
      <trkpt lat="42.45129" lon="-1.37163">
        <ele>451.910917</ele>
        <time>2022-02-22T02:14:49.062Z</time>
      </trkpt>
      <trkpt lat="42.45109" lon="-1.37196">
        <ele>453.74721</ele>
        <time>2022-02-22T02:15:05.672Z</time>
      </trkpt>
      <trkpt lat="42.45092" lon="-1.37284">
        <ele>457.765751</ele>
        <time>2022-02-22T02:15:42.310Z</time>
      </trkpt>
      <trkpt lat="42.4508" lon="-1.37335">
        <ele>460.121719</ele>
        <time>2022-02-22T02:16:06.992Z</time>
      </trkpt>
      <trkpt lat="42.45049" lon="-1.37422">
        <ele>464.382912</ele>
        <time>2022-02-22T02:16:50.462Z</time>
      </trkpt>
      <trkpt lat="42.4502" lon="-1.37459">
        <ele>466.809349</ele>
        <time>2022-02-22T02:17:13.178Z</time>
      </trkpt>
      <trkpt lat="42.45003" lon="-1.37464">
        <ele>467.843925</ele>
        <time>2022-02-22T02:17:20.934Z</time>
      </trkpt>
      <trkpt lat="42.44999" lon="-1.37455">
        <ele>468.298328</ele>
        <time>2022-02-22T02:17:26.480Z</time>
      </trkpt>
      <trkpt lat="42.45004" lon="-1.37442">
        <ele>468.969936</ele>
        <time>2022-02-22T02:17:31.175Z</time>
      </trkpt>
      <trkpt lat="42.45028" lon="-1.37418">
        <ele>470.759296</ele>
        <time>2022-02-22T02:17:42.629Z</time>
      </trkpt>
      <trkpt lat="42.45034" lon="-1.374">
        <ele>471.603295</ele>
        <time>2022-02-22T02:17:47.634Z</time>
      </trkpt>
      <trkpt lat="42.45033" lon="-1.37325">
        <ele>473.679665</ele>
        <time>2022-02-22T02:18:11.475Z</time>
      </trkpt>
      <trkpt lat="42.45022" lon="-1.37301">
        <ele>474.44285</ele>
        <time>2022-02-22T02:18:18.813Z</time>
      </trkpt>
      <trkpt lat="42.44993" lon="-1.37276">
        <ele>475.728387</ele>
        <time>2022-02-22T02:18:33.910Z</time>
      </trkpt>
      <trkpt lat="42.44949" lon="-1.37194">
        <ele>478.453668</ele>
        <time>2022-02-22T02:19:03.872Z</time>
      </trkpt>
      <trkpt lat="42.44862" lon="-1.37138">
        <ele>481.048059</ele>
        <time>2022-02-22T02:19:42.481Z</time>
      </trkpt>
      <trkpt lat="42.44844" lon="-1.37119">
        <ele>481.671108</ele>
        <time>2022-02-22T02:19:50.605Z</time>
      </trkpt>
      <trkpt lat="42.44837" lon="-1.37099">
        <ele>482.108647</ele>
        <time>2022-02-22T02:19:56.255Z</time>
      </trkpt>
      <trkpt lat="42.44817" lon="-1.37066">
        <ele>482.962247</ele>
        <time>2022-02-22T02:20:06.110Z</time>
      </trkpt>
      <trkpt lat="42.44774" lon="-1.37026">
        <ele>482.33765</ele>
        <time>2022-02-22T02:20:17.977Z</time>
      </trkpt>
      <trkpt lat="42.44756" lon="-1.37019">
        <ele>482.037829</ele>
        <time>2022-02-22T02:20:21.908Z</time>
      </trkpt>
      <trkpt lat="42.44685" lon="-1.37021">
        <ele>480.929304</ele>
        <time>2022-02-22T02:20:34.704Z</time>
      </trkpt>
      <trkpt lat="42.44585" lon="-1.36979">
        <ele>477.828866</ele>
        <time>2022-02-22T02:20:52.332Z</time>
      </trkpt>
      <trkpt lat="42.44505" lon="-1.36962">
        <ele>474.683954</ele>
        <time>2022-02-22T02:21:05.561Z</time>
      </trkpt>
      <trkpt lat="42.44485" lon="-1.36969">
        <ele>473.865521</ele>
        <time>2022-02-22T02:21:08.999Z</time>
      </trkpt>
      <trkpt lat="42.4446" lon="-1.37017">
        <ele>472.053402</ele>
        <time>2022-02-22T02:21:16.057Z</time>
      </trkpt>
      <trkpt lat="42.44443" lon="-1.37036">
        <ele>471.096061</ele>
        <time>2022-02-22T02:21:19.648Z</time>
      </trkpt>
      <trkpt lat="42.443" lon="-1.37001">
        <ele>464.802902</ele>
        <time>2022-02-22T02:21:43.388Z</time>
      </trkpt>
      <trkpt lat="42.44273" lon="-1.37004">
        <ele>463.685908</ele>
        <time>2022-02-22T02:21:47.655Z</time>
      </trkpt>
      <trkpt lat="42.4416" lon="-1.37037">
        <ele>458.788706</ele>
        <time>2022-02-22T02:22:06.633Z</time>
      </trkpt>
      <trkpt lat="42.44113" lon="-1.37081">
        <ele>456.4143</ele>
        <time>2022-02-22T02:22:15.998Z</time>
      </trkpt>
      <trkpt lat="42.44024" lon="-1.37172">
        <ele>451.723218</ele>
        <time>2022-02-22T02:22:34.338Z</time>
      </trkpt>
      <trkpt lat="42.43923" lon="-1.37202">
        <ele>447.489421</ele>
        <time>2022-02-22T02:22:51.038Z</time>
      </trkpt>
      <trkpt lat="42.43822" lon="-1.37226">
        <ele>443.287244</ele>
        <time>2022-02-22T02:23:07.983Z</time>
      </trkpt>
      <trkpt lat="42.43753" lon="-1.37259">
        <ele>440.719935</ele>
        <time>2022-02-22T02:23:20.149Z</time>
      </trkpt>
      <trkpt lat="42.4369" lon="-1.37219">
        <ele>438.307846</ele>
        <time>2022-02-22T02:23:32.497Z</time>
      </trkpt>
      <trkpt lat="42.43579" lon="-1.37252">
        <ele>434.737702</ele>
        <time>2022-02-22T02:23:52.985Z</time>
      </trkpt>
      <trkpt lat="42.43471" lon="-1.37282">
        <ele>431.522692</ele>
        <time>2022-02-22T02:24:13.279Z</time>
      </trkpt>
      <trkpt lat="42.43445" lon="-1.37278">
        <ele>430.85406</ele>
        <time>2022-02-22T02:24:17.845Z</time>
      </trkpt>
      <trkpt lat="42.43249" lon="-1.37223">
        <ele>425.907303</ele>
        <time>2022-02-22T02:24:53.208Z</time>
      </trkpt>
      <trkpt lat="42.43122" lon="-1.37221">
        <ele>423.147683</ele>
        <time>2022-02-22T02:25:16.557Z</time>
      </trkpt>
      <trkpt lat="42.43081" lon="-1.3724">
        <ele>422.317961</ele>
        <time>2022-02-22T02:25:24.499Z</time>
      </trkpt>
      <trkpt lat="42.43027" lon="-1.3728">
        <ele>421.140758</ele>
        <time>2022-02-22T02:25:35.964Z</time>
      </trkpt>
      <trkpt lat="42.42997" lon="-1.37287">
        <ele>420.577132</ele>
        <time>2022-02-22T02:25:41.419Z</time>
      </trkpt>
      <trkpt lat="42.42875" lon="-1.37227">
        <ele>419.07085</ele>
        <time>2022-02-22T02:26:05.636Z</time>
      </trkpt>
      <trkpt lat="42.42829" lon="-1.37222">
        <ele>418.755301</ele>
        <time>2022-02-22T02:26:15.202Z</time>
      </trkpt>
      <trkpt lat="42.42811" lon="-1.37226">
        <ele>418.623926</ele>
        <time>2022-02-22T02:26:19.203Z</time>
      </trkpt>
      <trkpt lat="42.42669" lon="-1.37091">
        <ele>419.484217</ele>
        <time>2022-02-22T02:27:08.337Z</time>
      </trkpt>
      <trkpt lat="42.4247" lon="-1.36822">
        <ele>421.128594</ele>
        <time>2022-02-22T02:28:19.227Z</time>
      </trkpt>
      <trkpt lat="42.42456" lon="-1.36801">
        <ele>421.326994</ele>
        <time>2022-02-22T02:28:24.508Z</time>
      </trkpt>
      <trkpt lat="42.42429" lon="-1.36779">
        <ele>421.625122</ele>
        <time>2022-02-22T02:28:32.921Z</time>
      </trkpt>
      <trkpt lat="42.42052" lon="-1.36617">
        <ele>427.652724</ele>
        <time>2022-02-22T02:30:38.191Z</time>
      </trkpt>
      <trkpt lat="42.42029" lon="-1.36598">
        <ele>428.068754</ele>
        <time>2022-02-22T02:30:46.151Z</time>
      </trkpt>
      <trkpt lat="42.41956" lon="-1.36505">
        <ele>428.970202</ele>
        <time>2022-02-22T02:31:15.004Z</time>
      </trkpt>
      <trkpt lat="42.41939" lon="-1.36486">
        <ele>429.158796</ele>
        <time>2022-02-22T02:31:21.134Z</time>
      </trkpt>
      <trkpt lat="42.41921" lon="-1.36476">
        <ele>429.318561</ele>
        <time>2022-02-22T02:31:26.046Z</time>
      </trkpt>
      <trkpt lat="42.41775" lon="-1.36432">
        <ele>429.805042</ele>
        <time>2022-02-22T02:32:02.762Z</time>
      </trkpt>
      <trkpt lat="42.41472" lon="-1.36284">
        <ele>428.813785</ele>
        <time>2022-02-22T02:33:15.809Z</time>
      </trkpt>
      <trkpt lat="42.41165" lon="-1.36834">
        <ele>422.513716</ele>
        <time>2022-02-22T02:34:58.179Z</time>
      </trkpt>
      <trkpt lat="42.41151" lon="-1.36854">
        <ele>422.243181</ele>
        <time>2022-02-22T02:35:02.282Z</time>
      </trkpt>
      <trkpt lat="42.40963" lon="-1.37019">
        <ele>419.27812</ele>
        <time>2022-02-22T02:35:47.602Z</time>
      </trkpt>
      <trkpt lat="42.40938" lon="-1.37049">
        <ele>418.838092</ele>
        <time>2022-02-22T02:35:54.344Z</time>
      </trkpt>
      <trkpt lat="42.4093" lon="-1.37068">
        <ele>418.6217</ele>
        <time>2022-02-22T02:35:57.656Z</time>
      </trkpt>
      <trkpt lat="42.40751" lon="-1.37744">
        <ele>411.023102</ele>
        <time>2022-02-22T02:37:43.482Z</time>
      </trkpt>
      <trkpt lat="42.40731" lon="-1.37781">
        <ele>410.570355</ele>
        <time>2022-02-22T02:37:50.604Z</time>
      </trkpt>
      <trkpt lat="42.40717" lon="-1.37792">
        <ele>410.404517</ele>
        <time>2022-02-22T02:37:54.146Z</time>
      </trkpt>
      <trkpt lat="42.40712" lon="-1.37796">
        <ele>410.357459</ele>
        <time>2022-02-22T02:37:55.305Z</time>
      </trkpt>
      <trkpt lat="42.40503" lon="-1.37838">
        <ele>408.164252</ele>
        <time>2022-02-22T02:38:39.946Z</time>
      </trkpt>
      <trkpt lat="42.40214" lon="-1.37894">
        <ele>403.173126</ele>
        <time>2022-02-22T02:39:36.447Z</time>
      </trkpt>
      <trkpt lat="42.39863" lon="-1.3802">
        <ele>398.160209</ele>
        <time>2022-02-22T02:40:49.751Z</time>
      </trkpt>
      <trkpt lat="42.3985" lon="-1.38034">
        <ele>397.931966</ele>
        <time>2022-02-22T02:40:53.122Z</time>
      </trkpt>
      <trkpt lat="42.3969" lon="-1.38279">
        <ele>394.314611</ele>
        <time>2022-02-22T02:41:40.991Z</time>
      </trkpt>
      <trkpt lat="42.39651" lon="-1.38302">
        <ele>393.708448</ele>
        <time>2022-02-22T02:41:49.663Z</time>
      </trkpt>
      <trkpt lat="42.39628" lon="-1.38309">
        <ele>393.385245</ele>
        <time>2022-02-22T02:41:54.306Z</time>
      </trkpt>
      <trkpt lat="42.39257" lon="-1.38318">
        <ele>388.728016</ele>
        <time>2022-02-22T02:43:09.955Z</time>
      </trkpt>
      <trkpt lat="42.39168" lon="-1.38362">
        <ele>387.630687</ele>
        <time>2022-02-22T02:43:29.349Z</time>
      </trkpt>
      <trkpt lat="42.39045" lon="-1.38333">
        <ele>386.241604</ele>
        <time>2022-02-22T02:43:54.867Z</time>
      </trkpt>
      <trkpt lat="42.38961" lon="-1.38275">
        <ele>385.456017</ele>
        <time>2022-02-22T02:44:14.673Z</time>
      </trkpt>
      <trkpt lat="42.38945" lon="-1.38275">
        <ele>385.32722</ele>
        <time>2022-02-22T02:44:18.012Z</time>
      </trkpt>
      <trkpt lat="42.38888" lon="-1.38306">
        <ele>384.81441</ele>
        <time>2022-02-22T02:44:31.452Z</time>
      </trkpt>
      <trkpt lat="42.38873" lon="-1.38304">
        <ele>384.726147</ele>
        <time>2022-02-22T02:44:34.550Z</time>
      </trkpt>
      <trkpt lat="42.38817" lon="-1.38276">
        <ele>384.45899</ele>
        <time>2022-02-22T02:44:47.660Z</time>
      </trkpt>
      <trkpt lat="42.38774" lon="-1.38268">
        <ele>384.267034</ele>
        <time>2022-02-22T02:44:57.146Z</time>
      </trkpt>
      <trkpt lat="42.38744" lon="-1.38278">
        <ele>384.128805</ele>
        <time>2022-02-22T02:45:04.066Z</time>
      </trkpt>
      <trkpt lat="42.38664" lon="-1.3832">
        <ele>383.788758</ele>
        <time>2022-02-22T02:45:23.103Z</time>
      </trkpt>
      <trkpt lat="42.38623" lon="-1.38335">
        <ele>383.637081</ele>
        <time>2022-02-22T02:45:32.473Z</time>
      </trkpt>
      <trkpt lat="42.38435" lon="-1.38318">
        <ele>382.963147</ele>
        <time>2022-02-22T02:46:14.374Z</time>
      </trkpt>
      <trkpt lat="42.38412" lon="-1.38324">
        <ele>382.88031</ele>
        <time>2022-02-22T02:46:19.527Z</time>
      </trkpt>
      <trkpt lat="42.3832" lon="-1.38383">
        <ele>382.508352</ele>
        <time>2022-02-22T02:46:42.001Z</time>
      </trkpt>
      <trkpt lat="42.38078" lon="-1.3854">
        <ele>381.223164</ele>
        <time>2022-02-22T02:47:41.489Z</time>
      </trkpt>
      <trkpt lat="42.38018" lon="-1.38571">
        <ele>380.719249</ele>
        <time>2022-02-22T02:47:54.894Z</time>
      </trkpt>
      <trkpt lat="42.37798" lon="-1.38627">
        <ele>377.628466</ele>
        <time>2022-02-22T02:48:39.472Z</time>
      </trkpt>
      <trkpt lat="42.37764" lon="-1.38655">
        <ele>377.054748</ele>
        <time>2022-02-22T02:48:47.438Z</time>
      </trkpt>
      <trkpt lat="42.37701" lon="-1.3873">
        <ele>375.882553</ele>
        <time>2022-02-22T02:49:04.278Z</time>
      </trkpt>
      <trkpt lat="42.37665" lon="-1.38753">
        <ele>375.502779</ele>
        <time>2022-02-22T02:49:12.480Z</time>
      </trkpt>
      <trkpt lat="42.37528" lon="-1.38786">
        <ele>374.200111</ele>
        <time>2022-02-22T02:49:41.854Z</time>
      </trkpt>
      <trkpt lat="42.3726" lon="-1.38838">
        <ele>372.90928</ele>
        <time>2022-02-22T02:50:40.978Z</time>
      </trkpt>
      <trkpt lat="42.37223" lon="-1.3884">
        <ele>372.748732</ele>
        <time>2022-02-22T02:50:49.170Z</time>
      </trkpt>
      <trkpt lat="42.37199" lon="-1.38854">
        <ele>372.633762</ele>
        <time>2022-02-22T02:50:55.043Z</time>
      </trkpt>
      <trkpt lat="42.36824" lon="-1.3896">
        <ele>371.210411</ele>
        <time>2022-02-22T02:52:20.196Z</time>
      </trkpt>
      <trkpt lat="42.3674" lon="-1.38965">
        <ele>370.516</ele>
        <time>2022-02-22T02:52:37.905Z</time>
      </trkpt>
      <trkpt lat="42.36678" lon="-1.38987">
        <ele>369.976371</ele>
        <time>2022-02-22T02:52:51.366Z</time>
      </trkpt>
      <trkpt lat="42.3659" lon="-1.3903">
        <ele>369.27955</ele>
        <time>2022-02-22T02:53:10.893Z</time>
      </trkpt>
      <trkpt lat="42.3655" lon="-1.39054">
        <ele>368.968523</ele>
        <time>2022-02-22T02:53:20.253Z</time>
      </trkpt>
      <trkpt lat="42.36429" lon="-1.39076">
        <ele>368.239596</ele>
        <time>2022-02-22T02:53:46.916Z</time>
      </trkpt>
      <trkpt lat="42.36394" lon="-1.3909">
        <ele>368.079641</ele>
        <time>2022-02-22T02:53:55.095Z</time>
      </trkpt>
      <trkpt lat="42.36188" lon="-1.39309">
        <ele>367.071369</ele>
        <time>2022-02-22T02:54:52.517Z</time>
      </trkpt>
      <trkpt lat="42.36175" lon="-1.39294">
        <ele>367.044474</ele>
        <time>2022-02-22T02:54:56.462Z</time>
      </trkpt>
      <trkpt lat="42.36152" lon="-1.39278">
        <ele>367.125143</ele>
        <time>2022-02-22T02:55:02.795Z</time>
      </trkpt>
      <trkpt lat="42.36137" lon="-1.39279">
        <ele>367.172165</ele>
        <time>2022-02-22T02:55:06.447Z</time>
      </trkpt>
      <trkpt lat="42.35962" lon="-1.39352">
        <ele>367.678753</ele>
        <time>2022-02-22T02:55:52.972Z</time>
      </trkpt>
      <trkpt lat="42.35945" lon="-1.39356">
        <ele>367.712607</ele>
        <time>2022-02-22T02:55:57.230Z</time>
      </trkpt>
      <trkpt lat="42.35609" lon="-1.39327">
        <ele>368.196538</ele>
        <time>2022-02-22T02:57:16.038Z</time>
      </trkpt>
      <trkpt lat="42.35578" lon="-1.39331">
        <ele>368.332187</ele>
        <time>2022-02-22T02:57:23.667Z</time>
      </trkpt>
      <trkpt lat="42.35544" lon="-1.39353">
        <ele>368.498736</ele>
        <time>2022-02-22T02:57:33.301Z</time>
      </trkpt>
      <trkpt lat="42.35325" lon="-1.39577">
        <ele>369.919524</ele>
        <time>2022-02-22T02:58:46.860Z</time>
      </trkpt>
      <trkpt lat="42.35184" lon="-1.39778">
        <ele>369.048833</ele>
        <time>2022-02-22T02:59:31.836Z</time>
      </trkpt>
      <trkpt lat="42.35168" lon="-1.39792">
        <ele>368.83845</ele>
        <time>2022-02-22T02:59:35.809Z</time>
      </trkpt>
      <trkpt lat="42.35135" lon="-1.398">
        <ele>368.47932</ele>
        <time>2022-02-22T02:59:42.615Z</time>
      </trkpt>
      <trkpt lat="42.35033" lon="-1.39785">
        <ele>367.387772</ele>
        <time>2022-02-22T03:00:03.009Z</time>
      </trkpt>
      <trkpt lat="42.3495" lon="-1.39837">
        <ele>366.422745</ele>
        <time>2022-02-22T03:00:21.807Z</time>
      </trkpt>
      <trkpt lat="42.34895" lon="-1.39881">
        <ele>365.76053</ele>
        <time>2022-02-22T03:00:35.442Z</time>
      </trkpt>
      <trkpt lat="42.34873" lon="-1.39907">
        <ele>365.574494</ele>
        <time>2022-02-22T03:00:41.672Z</time>
      </trkpt>
      <trkpt lat="42.34843" lon="-1.39917">
        <ele>365.370727</ele>
        <time>2022-02-22T03:00:52.934Z</time>
      </trkpt>
      <trkpt lat="42.34783" lon="-1.39968">
        <ele>364.917915</ele>
        <time>2022-02-22T03:01:18.081Z</time>
      </trkpt>
      <trkpt lat="42.34746" lon="-1.39986">
        <ele>364.664356</ele>
        <time>2022-02-22T03:01:32.029Z</time>
      </trkpt>
      <trkpt lat="42.34465" lon="-1.40075">
        <ele>362.067817</ele>
        <time>2022-02-22T03:03:10.965Z</time>
      </trkpt>
      <trkpt lat="42.34427" lon="-1.40101">
        <ele>361.763968</ele>
        <time>2022-02-22T03:03:26.234Z</time>
      </trkpt>
      <trkpt lat="42.34419" lon="-1.40099">
        <ele>361.706459</ele>
        <time>2022-02-22T03:03:29.218Z</time>
      </trkpt>
      <trkpt lat="42.3441" lon="-1.40084">
        <ele>361.602766</ele>
        <time>2022-02-22T03:03:34.578Z</time>
      </trkpt>
      <trkpt lat="42.34375" lon="-1.40035">
        <ele>361.731175</ele>
        <time>2022-02-22T03:03:52.969Z</time>
      </trkpt>
      <trkpt lat="42.3436" lon="-1.40063">
        <ele>361.882921</ele>
        <time>2022-02-22T03:03:59.285Z</time>
      </trkpt>
      <trkpt lat="42.34337" lon="-1.40078">
        <ele>362.035379</ele>
        <time>2022-02-22T03:04:05.737Z</time>
      </trkpt>
      <trkpt lat="42.34221" lon="-1.40064">
        <ele>363.067407</ele>
        <time>2022-02-22T03:04:38.498Z</time>
      </trkpt>
      <trkpt lat="42.34169" lon="-1.40076">
        <ele>364.134715</ele>
        <time>2022-02-22T03:04:55.514Z</time>
      </trkpt>
      <trkpt lat="42.3387" lon="-1.40205">
        <ele>370.998747</ele>
        <time>2022-02-22T03:06:46.245Z</time>
      </trkpt>
      <trkpt lat="42.33821" lon="-1.40246">
        <ele>371.963368</ele>
        <time>2022-02-22T03:07:04.603Z</time>
      </trkpt>
      <trkpt lat="42.33575" lon="-1.40494">
        <ele>376.511726</ele>
        <time>2022-02-22T03:08:35.499Z</time>
      </trkpt>
      <trkpt lat="42.33543" lon="-1.40534">
        <ele>377.320116</ele>
        <time>2022-02-22T03:08:48.826Z</time>
      </trkpt>
      <trkpt lat="42.33481" lon="-1.40572">
        <ele>378.604064</ele>
        <time>2022-02-22T03:09:11.634Z</time>
      </trkpt>
      <trkpt lat="42.33437" lon="-1.4057">
        <ele>379.506016</ele>
        <time>2022-02-22T03:09:27.431Z</time>
      </trkpt>
      <trkpt lat="42.33356" lon="-1.40578">
        <ele>381.645816</ele>
        <time>2022-02-22T03:09:57.734Z</time>
      </trkpt>
      <trkpt lat="42.33265" lon="-1.40595">
        <ele>384.003223</ele>
        <time>2022-02-22T03:10:31.008Z</time>
      </trkpt>
      <trkpt lat="42.33169" lon="-1.40646">
        <ele>386.055204</ele>
        <time>2022-02-22T03:11:06.678Z</time>
      </trkpt>
      <trkpt lat="42.33086" lon="-1.40655">
        <ele>387.67298</ele>
        <time>2022-02-22T03:11:31.614Z</time>
      </trkpt>
      <trkpt lat="42.33042" lon="-1.40714">
        <ele>388.753338</ele>
        <time>2022-02-22T03:11:58.631Z</time>
      </trkpt>
      <trkpt lat="42.32964" lon="-1.40804">
        <ele>390.581658</ele>
        <time>2022-02-22T03:12:47.121Z</time>
      </trkpt>
      <trkpt lat="42.32849" lon="-1.40919">
        <ele>393.857815</ele>
        <time>2022-02-22T03:13:55.640Z</time>
      </trkpt>
      <trkpt lat="42.32814" lon="-1.40961">
        <ele>394.969175</ele>
        <time>2022-02-22T03:14:19.548Z</time>
      </trkpt>
      <trkpt lat="42.3275" lon="-1.41006">
        <ele>396.862316</ele>
        <time>2022-02-22T03:14:56.238Z</time>
      </trkpt>
      <trkpt lat="42.32706" lon="-1.41052">
        <ele>398.328607</ele>
        <time>2022-02-22T03:15:24.311Z</time>
      </trkpt>
      <trkpt lat="42.32633" lon="-1.41115">
        <ele>400.345286</ele>
        <time>2022-02-22T03:16:07.511Z</time>
      </trkpt>
      <trkpt lat="42.32629" lon="-1.41124">
        <ele>400.494505</ele>
        <time>2022-02-22T03:16:11.071Z</time>
      </trkpt>
      <trkpt lat="42.32572" lon="-1.41113">
        <ele>401.635747</ele>
        <time>2022-02-22T03:16:30.280Z</time>
      </trkpt>
      <trkpt lat="42.32405" lon="-1.41127">
        <ele>404.245464</ele>
        <time>2022-02-22T03:17:20.125Z</time>
      </trkpt>
      <trkpt lat="42.32157" lon="-1.41149">
        <ele>406.697874</ele>
        <time>2022-02-22T03:18:26.583Z</time>
      </trkpt>
      <trkpt lat="42.32136" lon="-1.41162">
        <ele>406.90023</ele>
        <time>2022-02-22T03:18:32.370Z</time>
      </trkpt>
      <trkpt lat="42.32132" lon="-1.41167">
        <ele>406.955019</ele>
        <time>2022-02-22T03:18:33.776Z</time>
      </trkpt>
      <trkpt lat="42.3212" lon="-1.4118">
        <ele>407.104075</ele>
        <time>2022-02-22T03:18:37.656Z</time>
      </trkpt>
      <trkpt lat="42.32107" lon="-1.41185">
        <ele>407.234444</ele>
        <time>2022-02-22T03:18:43.224Z</time>
      </trkpt>
      <trkpt lat="42.32057" lon="-1.41166">
        <ele>407.736325</ele>
        <time>2022-02-22T03:19:04.494Z</time>
      </trkpt>
      <trkpt lat="42.31963" lon="-1.41145">
        <ele>408.653228</ele>
        <time>2022-02-22T03:19:45.571Z</time>
      </trkpt>
      <trkpt lat="42.31822" lon="-1.41169">
        <ele>410.070956</ele>
        <time>2022-02-22T03:20:46.413Z</time>
      </trkpt>
      <trkpt lat="42.31746" lon="-1.41183">
        <ele>410.258065</ele>
        <time>2022-02-22T03:21:16.788Z</time>
      </trkpt>
      <trkpt lat="42.31703" lon="-1.41205">
        <ele>410.146476</ele>
        <time>2022-02-22T03:21:33.463Z</time>
      </trkpt>
      <trkpt lat="42.31425" lon="-1.41451">
        <ele>407.858029</ele>
        <time>2022-02-22T03:23:29.016Z</time>
      </trkpt>
      <trkpt lat="42.31101" lon="-1.41502">
        <ele>405.741252</ele>
        <time>2022-02-22T03:25:23.444Z</time>
      </trkpt>
      <trkpt lat="42.30994" lon="-1.41554">
        <ele>405.840442</ele>
        <time>2022-02-22T03:26:07.017Z</time>
      </trkpt>
      <trkpt lat="42.30947" lon="-1.41577">
        <ele>405.965629</ele>
        <time>2022-02-22T03:26:26.878Z</time>
      </trkpt>
      <trkpt lat="42.3087" lon="-1.41605">
        <ele>406.479654</ele>
        <time>2022-02-22T03:26:59.346Z</time>
      </trkpt>
      <trkpt lat="42.30537" lon="-1.41678">
        <ele>407.989307</ele>
        <time>2022-02-22T03:29:15.086Z</time>
      </trkpt>
      <trkpt lat="42.30522" lon="-1.41679">
        <ele>407.955945</ele>
        <time>2022-02-22T03:29:20.632Z</time>
      </trkpt>
      <trkpt lat="42.30455" lon="-1.41685">
        <ele>407.808209</ele>
        <time>2022-02-22T03:29:44.735Z</time>
      </trkpt>
      <trkpt lat="42.30351" lon="-1.41706">
        <ele>406.471955</ele>
        <time>2022-02-22T03:30:19.695Z</time>
      </trkpt>
      <trkpt lat="42.3021" lon="-1.41738">
        <ele>404.069654</ele>
        <time>2022-02-22T03:31:06.997Z</time>
      </trkpt>
      <trkpt lat="42.30174" lon="-1.41756">
        <ele>403.383183</ele>
        <time>2022-02-22T03:31:19.307Z</time>
      </trkpt>
      <trkpt lat="42.30156" lon="-1.41782">
        <ele>402.892691</ele>
        <time>2022-02-22T03:31:28.079Z</time>
      </trkpt>
      <trkpt lat="42.30139" lon="-1.41903">
        <ele>401.023041</ele>
        <time>2022-02-22T03:31:58.115Z</time>
      </trkpt>
      <trkpt lat="42.30108" lon="-1.41986">
        <ele>399.032833</ele>
        <time>2022-02-22T03:32:20.016Z</time>
      </trkpt>
      <trkpt lat="42.30083" lon="-1.42086">
        <ele>396.781016</ele>
        <time>2022-02-22T03:32:43.740Z</time>
      </trkpt>
      <trkpt lat="42.30055" lon="-1.42144">
        <ele>395.172569</ele>
        <time>2022-02-22T03:32:59.101Z</time>
      </trkpt>
      <trkpt lat="42.30038" lon="-1.42161">
        <ele>394.476417</ele>
        <time>2022-02-22T03:33:05.416Z</time>
      </trkpt>
      <trkpt lat="42.29981" lon="-1.42194">
        <ele>392.424772</ele>
        <time>2022-02-22T03:33:24.454Z</time>
      </trkpt>
      <trkpt lat="42.29942" lon="-1.42225">
        <ele>390.946586</ele>
        <time>2022-02-22T03:33:38.217Z</time>
      </trkpt>
      <trkpt lat="42.29857" lon="-1.42241">
        <ele>389.330885</ele>
        <time>2022-02-22T03:34:05.827Z</time>
      </trkpt>
      <trkpt lat="42.2982" lon="-1.42236">
        <ele>388.744877</ele>
        <time>2022-02-22T03:34:18.205Z</time>
      </trkpt>
      <trkpt lat="42.29745" lon="-1.42205">
        <ele>387.552833</ele>
        <time>2022-02-22T03:34:45.517Z</time>
      </trkpt>
      <trkpt lat="42.29725" lon="-1.42194">
        <ele>387.417459</ele>
        <time>2022-02-22T03:34:52.933Z</time>
      </trkpt>
      <trkpt lat="42.29709" lon="-1.42175">
        <ele>387.282022</ele>
        <time>2022-02-22T03:35:00.508Z</time>
      </trkpt>
      <trkpt lat="42.29663" lon="-1.42166">
        <ele>386.983206</ele>
        <time>2022-02-22T03:35:17.084Z</time>
      </trkpt>
      <trkpt lat="42.29644" lon="-1.42149">
        <ele>386.837809</ele>
        <time>2022-02-22T03:35:25.279Z</time>
      </trkpt>
      <trkpt lat="42.29614" lon="-1.4213">
        <ele>386.629151</ele>
        <time>2022-02-22T03:35:36.867Z</time>
      </trkpt>
      <trkpt lat="42.29532" lon="-1.42105">
        <ele>386.461676</ele>
        <time>2022-02-22T03:36:06.511Z</time>
      </trkpt>
      <trkpt lat="42.29444" lon="-1.42047">
        <ele>386.484156</ele>
        <time>2022-02-22T03:36:42.860Z</time>
      </trkpt>
      <trkpt lat="42.29372" lon="-1.41961">
        <ele>387.150534</ele>
        <time>2022-02-22T03:37:23.666Z</time>
      </trkpt>
      <trkpt lat="42.29299" lon="-1.41829">
        <ele>388.164174</ele>
        <time>2022-02-22T03:38:15.837Z</time>
      </trkpt>
      <trkpt lat="42.29293" lon="-1.41822">
        <ele>388.151953</ele>
        <time>2022-02-22T03:38:18.547Z</time>
      </trkpt>
      <trkpt lat="42.29276" lon="-1.41817">
        <ele>388.124042</ele>
        <time>2022-02-22T03:38:25.760Z</time>
      </trkpt>
      <trkpt lat="42.292" lon="-1.41832">
        <ele>388.003407</ele>
        <time>2022-02-22T03:38:54.069Z</time>
      </trkpt>
      <trkpt lat="42.29159" lon="-1.41827">
        <ele>387.938426</ele>
        <time>2022-02-22T03:39:08.399Z</time>
      </trkpt>
      <trkpt lat="42.28985" lon="-1.41752">
        <ele>386.454701</ele>
        <time>2022-02-22T03:40:11.127Z</time>
      </trkpt>
      <trkpt lat="42.28944" lon="-1.41744">
        <ele>386.137387</ele>
        <time>2022-02-22T03:40:26.078Z</time>
      </trkpt>
      <trkpt lat="42.28647" lon="-1.41783">
        <ele>383.813714</ele>
        <time>2022-02-22T03:42:12.167Z</time>
      </trkpt>
      <trkpt lat="42.28575" lon="-1.41791">
        <ele>382.846139</ele>
        <time>2022-02-22T03:42:35.371Z</time>
      </trkpt>
      <trkpt lat="42.28527" lon="-1.41782">
        <ele>381.954013</ele>
        <time>2022-02-22T03:42:50.933Z</time>
      </trkpt>
      <trkpt lat="42.28425" lon="-1.41707">
        <ele>380.0101</ele>
        <time>2022-02-22T03:43:29.092Z</time>
      </trkpt>
      <trkpt lat="42.28354" lon="-1.41696">
        <ele>379.518904</ele>
        <time>2022-02-22T03:43:54.920Z</time>
      </trkpt>
      <trkpt lat="42.28334" lon="-1.41686">
        <ele>379.373394</ele>
        <time>2022-02-22T03:44:02.587Z</time>
      </trkpt>
      <trkpt lat="42.28276" lon="-1.41648">
        <ele>378.929211</ele>
        <time>2022-02-22T03:44:25.844Z</time>
      </trkpt>
      <trkpt lat="42.2823" lon="-1.4163">
        <ele>378.286299</ele>
        <time>2022-02-22T03:44:42.684Z</time>
      </trkpt>
      <trkpt lat="42.28021" lon="-1.41591">
        <ele>375.08969</ele>
        <time>2022-02-22T03:45:52.209Z</time>
      </trkpt>
      <trkpt lat="42.27821" lon="-1.41577">
        <ele>372.652539</ele>
        <time>2022-02-22T03:46:59.093Z</time>
      </trkpt>
      <trkpt lat="42.27698" lon="-1.41532">
        <ele>372.221272</ele>
        <time>2022-02-22T03:47:46.437Z</time>
      </trkpt>
      <trkpt lat="42.27451" lon="-1.41574">
        <ele>372.860003</ele>
        <time>2022-02-22T03:49:27.105Z</time>
      </trkpt>
      <trkpt lat="42.27388" lon="-1.41582">
        <ele>372.802023</ele>
        <time>2022-02-22T03:49:49.282Z</time>
      </trkpt>
      <trkpt lat="42.2733" lon="-1.41638">
        <ele>371.354596</ele>
        <time>2022-02-22T03:50:12.628Z</time>
      </trkpt>
      <trkpt lat="42.27252" lon="-1.41637">
        <ele>369.552759</ele>
        <time>2022-02-22T03:50:37.547Z</time>
      </trkpt>
      <trkpt lat="42.27218" lon="-1.41654">
        <ele>368.725412</ele>
        <time>2022-02-22T03:50:48.779Z</time>
      </trkpt>
      <trkpt lat="42.2718" lon="-1.41689">
        <ele>367.304641</ele>
        <time>2022-02-22T03:51:02.965Z</time>
      </trkpt>
      <trkpt lat="42.27163" lon="-1.41693">
        <ele>366.749392</ele>
        <time>2022-02-22T03:51:08.348Z</time>
      </trkpt>
      <trkpt lat="42.27031" lon="-1.41669">
        <ele>362.828985</ele>
        <time>2022-02-22T03:51:48.948Z</time>
      </trkpt>
      <trkpt lat="42.26972" lon="-1.4167">
        <ele>361.979465</ele>
        <time>2022-02-22T03:52:07.833Z</time>
      </trkpt>
      <trkpt lat="42.26909" lon="-1.41683">
        <ele>361.078434</ele>
        <time>2022-02-22T03:52:29.010Z</time>
      </trkpt>
      <trkpt lat="42.26777" lon="-1.41759">
        <ele>361.3957</ele>
        <time>2022-02-22T03:53:26.556Z</time>
      </trkpt>
      <trkpt lat="42.26747" lon="-1.41793">
        <ele>361.757532</ele>
        <time>2022-02-22T03:53:44.959Z</time>
      </trkpt>
      <trkpt lat="42.26712" lon="-1.41852">
        <ele>362.18344</ele>
        <time>2022-02-22T03:54:09.469Z</time>
      </trkpt>
      <trkpt lat="42.26688" lon="-1.4187">
        <ele>362.277594</ele>
        <time>2022-02-22T03:54:20.630Z</time>
      </trkpt>
      <trkpt lat="42.26648" lon="-1.4188">
        <ele>362.420986</ele>
        <time>2022-02-22T03:54:37.383Z</time>
      </trkpt>
      <trkpt lat="42.26618" lon="-1.41923">
        <ele>362.575299</ele>
        <time>2022-02-22T03:54:53.971Z</time>
      </trkpt>
      <trkpt lat="42.26597" lon="-1.41941">
        <ele>362.662126</ele>
        <time>2022-02-22T03:55:02.988Z</time>
      </trkpt>
      <trkpt lat="42.26547" lon="-1.41956">
        <ele>362.507107</ele>
        <time>2022-02-22T03:55:21.037Z</time>
      </trkpt>
      <trkpt lat="42.26415" lon="-1.42021">
        <ele>360.981672</ele>
        <time>2022-02-22T03:56:08.712Z</time>
      </trkpt>
      <trkpt lat="42.26379" lon="-1.42073">
        <ele>360.408409</ele>
        <time>2022-02-22T03:56:26.848Z</time>
      </trkpt>
      <trkpt lat="42.26362" lon="-1.42122">
        <ele>359.982377</ele>
        <time>2022-02-22T03:56:40.481Z</time>
      </trkpt>
      <trkpt lat="42.26333" lon="-1.42137">
        <ele>359.652817</ele>
        <time>2022-02-22T03:56:51.020Z</time>
      </trkpt>
      <trkpt lat="42.26313" lon="-1.42161">
        <ele>359.367749</ele>
        <time>2022-02-22T03:57:00.105Z</time>
      </trkpt>
      <trkpt lat="42.26306" lon="-1.42183">
        <ele>359.183738</ele>
        <time>2022-02-22T03:57:06.009Z</time>
      </trkpt>
      <trkpt lat="42.26304" lon="-1.42212">
        <ele>358.947887</ele>
        <time>2022-02-22T03:57:13.666Z</time>
      </trkpt>
      <trkpt lat="42.26295" lon="-1.42233">
        <ele>358.764134</ele>
        <time>2022-02-22T03:57:19.887Z</time>
      </trkpt>
      <trkpt lat="42.26259" lon="-1.42273">
        <ele>358.290953</ele>
        <time>2022-02-22T03:57:36.375Z</time>
      </trkpt>
      <trkpt lat="42.26236" lon="-1.4229">
        <ele>358.036499</ele>
        <time>2022-02-22T03:57:45.079Z</time>
      </trkpt>
      <trkpt lat="42.26213" lon="-1.42306">
        <ele>357.771365</ele>
        <time>2022-02-22T03:57:54.171Z</time>
      </trkpt>
      <trkpt lat="42.26161" lon="-1.4231">
        <ele>357.248025</ele>
        <time>2022-02-22T03:58:12.047Z</time>
      </trkpt>
      <trkpt lat="42.26024" lon="-1.42358">
        <ele>356.083446</ele>
        <time>2022-02-22T03:59:01.046Z</time>
      </trkpt>
      <trkpt lat="42.26016" lon="-1.4237">
        <ele>355.98643</ele>
        <time>2022-02-22T03:59:05.322Z</time>
      </trkpt>
      <trkpt lat="42.26011" lon="-1.42381">
        <ele>355.911819</ele>
        <time>2022-02-22T03:59:08.592Z</time>
      </trkpt>
      <trkpt lat="42.26024" lon="-1.42417">
        <ele>355.67672</ele>
        <time>2022-02-22T03:59:18.960Z</time>
      </trkpt>
      <trkpt lat="42.26027" lon="-1.42448">
        <ele>355.622701</ele>
        <time>2022-02-22T03:59:27.170Z</time>
      </trkpt>
      <trkpt lat="42.2601" lon="-1.42474">
        <ele>355.600305</ele>
        <time>2022-02-22T03:59:36.402Z</time>
      </trkpt>
      <trkpt lat="42.26002" lon="-1.42504">
        <ele>355.579612</ele>
        <time>2022-02-22T03:59:45.046Z</time>
      </trkpt>
      <trkpt lat="42.26006" lon="-1.42552">
        <ele>355.547947</ele>
        <time>2022-02-22T03:59:58.409Z</time>
      </trkpt>
      <trkpt lat="42.2602" lon="-1.42617">
        <ele>355.504402</ele>
        <time>2022-02-22T04:00:17.026Z</time>
      </trkpt>
      <trkpt lat="42.26016" lon="-1.42637">
        <ele>355.49048</ele>
        <time>2022-02-22T04:00:23.043Z</time>
      </trkpt>
      <trkpt lat="42.25973" lon="-1.42637">
        <ele>355.595766</ele>
        <time>2022-02-22T04:00:39.639Z</time>
      </trkpt>
      <trkpt lat="42.25956" lon="-1.42608">
        <ele>355.695329</ele>
        <time>2022-02-22T04:00:50.222Z</time>
      </trkpt>
      <trkpt lat="42.2594" lon="-1.4256">
        <ele>355.835057</ele>
        <time>2022-02-22T04:01:05.247Z</time>
      </trkpt>
      <trkpt lat="42.25932" lon="-1.42551">
        <ele>355.874582</ele>
        <time>2022-02-22T04:01:09.511Z</time>
      </trkpt>
      <trkpt lat="42.2592" lon="-1.42548">
        <ele>355.917077</ele>
        <time>2022-02-22T04:01:14.060Z</time>
      </trkpt>
      <trkpt lat="42.25869" lon="-1.4256">
        <ele>356.104218</ele>
        <time>2022-02-22T04:01:34.254Z</time>
      </trkpt>
      <trkpt lat="42.25844" lon="-1.42585">
        <ele>356.29732</ele>
        <time>2022-02-22T04:01:46.602Z</time>
      </trkpt>
      <trkpt lat="42.25787" lon="-1.42599">
        <ele>356.69294</ele>
        <time>2022-02-22T04:02:09.493Z</time>
      </trkpt>
      <trkpt lat="42.25754" lon="-1.42628">
        <ele>356.965476</ele>
        <time>2022-02-22T04:02:25.566Z</time>
      </trkpt>
      <trkpt lat="42.25732" lon="-1.42623">
        <ele>357.117544</ele>
        <time>2022-02-22T04:02:34.638Z</time>
      </trkpt>
      <trkpt lat="42.2571" lon="-1.4264">
        <ele>357.290787</ele>
        <time>2022-02-22T04:02:44.971Z</time>
      </trkpt>
      <trkpt lat="42.25667" lon="-1.42644">
        <ele>357.791614</ele>
        <time>2022-02-22T04:03:03.101Z</time>
      </trkpt>
      <trkpt lat="42.25628" lon="-1.42686">
        <ele>358.467949</ele>
        <time>2022-02-22T04:03:25.088Z</time>
      </trkpt>
      <trkpt lat="42.25551" lon="-1.42736">
        <ele>359.610597</ele>
        <time>2022-02-22T04:04:03.053Z</time>
      </trkpt>
      <trkpt lat="42.25529" lon="-1.42758">
        <ele>359.930835</ele>
        <time>2022-02-22T04:04:15.273Z</time>
      </trkpt>
      <trkpt lat="42.25507" lon="-1.42786">
        <ele>360.242216</ele>
        <time>2022-02-22T04:04:29.123Z</time>
      </trkpt>
      <trkpt lat="42.25444" lon="-1.42891">
        <ele>361.268665</ele>
        <time>2022-02-22T04:05:12.114Z</time>
      </trkpt>
      <trkpt lat="42.25427" lon="-1.42909">
        <ele>361.495517</ele>
        <time>2022-02-22T04:05:21.061Z</time>
      </trkpt>
      <trkpt lat="42.25395" lon="-1.42922">
        <ele>361.43513</ele>
        <time>2022-02-22T04:05:33.448Z</time>
      </trkpt>
      <trkpt lat="42.2537" lon="-1.42949">
        <ele>361.105014</ele>
        <time>2022-02-22T04:05:44.787Z</time>
      </trkpt>
      <trkpt lat="42.25333" lon="-1.42952">
        <ele>360.721003</ele>
        <time>2022-02-22T04:05:57.648Z</time>
      </trkpt>
      <trkpt lat="42.253" lon="-1.42949">
        <ele>360.375976</ele>
        <time>2022-02-22T04:06:08.977Z</time>
      </trkpt>
      <trkpt lat="42.25237" lon="-1.43002">
        <ele>359.460809</ele>
        <time>2022-02-22T04:06:33.121Z</time>
      </trkpt>
      <trkpt lat="42.25197" lon="-1.43093">
        <ele>357.916907</ele>
        <time>2022-02-22T04:06:58.215Z</time>
      </trkpt>
      <trkpt lat="42.2516" lon="-1.43111">
        <ele>357.138017</ele>
        <time>2022-02-22T04:07:10.859Z</time>
      </trkpt>
      <trkpt lat="42.25127" lon="-1.43116">
        <ele>356.46335</ele>
        <time>2022-02-22T04:07:22.022Z</time>
      </trkpt>
      <trkpt lat="42.25071" lon="-1.43095">
        <ele>355.501742</ele>
        <time>2022-02-22T04:07:41.282Z</time>
      </trkpt>
      <trkpt lat="42.25035" lon="-1.43089">
        <ele>354.911644</ele>
        <time>2022-02-22T04:07:53.737Z</time>
      </trkpt>
      <trkpt lat="42.24927" lon="-1.43107">
        <ele>353.119805</ele>
        <time>2022-02-22T04:08:29.820Z</time>
      </trkpt>
      <trkpt lat="42.24753" lon="-1.43125">
        <ele>349.26487</ele>
        <time>2022-02-22T04:09:26.109Z</time>
      </trkpt>
      <trkpt lat="42.24718" lon="-1.43135">
        <ele>348.417343</ele>
        <time>2022-02-22T04:09:37.039Z</time>
      </trkpt>
      <trkpt lat="42.24672" lon="-1.43186">
        <ele>346.955704</ele>
        <time>2022-02-22T04:09:55.925Z</time>
      </trkpt>
      <trkpt lat="42.24592" lon="-1.43316">
        <ele>344.454452</ele>
        <time>2022-02-22T04:10:36.234Z</time>
      </trkpt>
      <trkpt lat="42.24558" lon="-1.43348">
        <ele>343.93237</ele>
        <time>2022-02-22T04:10:50.148Z</time>
      </trkpt>
      <trkpt lat="42.24453" lon="-1.43401">
        <ele>342.749878</ele>
        <time>2022-02-22T04:11:28.944Z</time>
      </trkpt>
      <trkpt lat="42.24236" lon="-1.43526">
        <ele>342.688326</ele>
        <time>2022-02-22T04:12:57.177Z</time>
      </trkpt>
      <trkpt lat="42.24214" lon="-1.4353">
        <ele>342.723311</ele>
        <time>2022-02-22T04:13:05.554Z</time>
      </trkpt>
      <trkpt lat="42.24172" lon="-1.43525">
        <ele>342.790643</ele>
        <time>2022-02-22T04:13:21.714Z</time>
      </trkpt>
      <trkpt lat="42.24141" lon="-1.43528">
        <ele>342.84028</ele>
        <time>2022-02-22T04:13:33.738Z</time>
      </trkpt>
      <trkpt lat="42.24089" lon="-1.43555">
        <ele>343.077275</ele>
        <time>2022-02-22T04:13:55.451Z</time>
      </trkpt>
      <trkpt lat="42.23858" lon="-1.43812">
        <ele>344.725304</ele>
        <time>2022-02-22T04:15:54.136Z</time>
      </trkpt>
      <trkpt lat="42.23784" lon="-1.43885">
        <ele>345.723663</ele>
        <time>2022-02-22T04:16:32.560Z</time>
      </trkpt>
      <trkpt lat="42.23676" lon="-1.44033">
        <ele>347.702773</ele>
        <time>2022-02-22T04:17:40.372Z</time>
      </trkpt>
      <trkpt lat="42.23657" lon="-1.44069">
        <ele>348.19088</ele>
        <time>2022-02-22T04:17:55.716Z</time>
      </trkpt>
      <trkpt lat="42.23568" lon="-1.44302">
        <ele>350.036098</ele>
        <time>2022-02-22T04:19:21.649Z</time>
      </trkpt>
      <trkpt lat="42.23565" lon="-1.44344">
        <ele>350.16443</ele>
        <time>2022-02-22T04:19:33.101Z</time>
      </trkpt>
      <trkpt lat="42.23584" lon="-1.44402">
        <ele>350.358649</ele>
        <time>2022-02-22T04:19:49.484Z</time>
      </trkpt>
      <trkpt lat="42.23589" lon="-1.44445">
        <ele>349.904307</ele>
        <time>2022-02-22T04:20:00.527Z</time>
      </trkpt>
      <trkpt lat="42.23586" lon="-1.44583">
        <ele>348.29841</ele>
        <time>2022-02-22T04:20:33.878Z</time>
      </trkpt>
      <trkpt lat="42.23575" lon="-1.44645">
        <ele>347.561472</ele>
        <time>2022-02-22T04:20:49.369Z</time>
      </trkpt>
      <trkpt lat="42.23562" lon="-1.44669">
        <ele>347.476437</ele>
        <time>2022-02-22T04:20:56.741Z</time>
      </trkpt>
      <trkpt lat="42.23529" lon="-1.44703">
        <ele>347.335734</ele>
        <time>2022-02-22T04:21:11.093Z</time>
      </trkpt>
      <trkpt lat="42.23446" lon="-1.44773">
        <ele>347.004108</ele>
        <time>2022-02-22T04:21:47.370Z</time>
      </trkpt>
      <trkpt lat="42.23355" lon="-1.4486">
        <ele>347.687734</ele>
        <time>2022-02-22T04:22:32.983Z</time>
      </trkpt>
      <trkpt lat="42.23316" lon="-1.44934">
        <ele>348.232895</ele>
        <time>2022-02-22T04:23:01.400Z</time>
      </trkpt>
      <trkpt lat="42.23296" lon="-1.45007">
        <ele>348.46585</ele>
        <time>2022-02-22T04:23:25.658Z</time>
      </trkpt>
      <trkpt lat="42.23273" lon="-1.45059">
        <ele>348.544342</ele>
        <time>2022-02-22T04:23:43.997Z</time>
      </trkpt>
      <trkpt lat="42.23246" lon="-1.45095">
        <ele>348.610876</ele>
        <time>2022-02-22T04:23:58.348Z</time>
      </trkpt>
      <trkpt lat="42.23163" lon="-1.45182">
        <ele>347.878851</ele>
        <time>2022-02-22T04:24:35.470Z</time>
      </trkpt>
      <trkpt lat="42.23098" lon="-1.45245">
        <ele>346.417276</ele>
        <time>2022-02-22T04:25:01.429Z</time>
      </trkpt>
      <trkpt lat="42.23053" lon="-1.45302">
        <ele>345.172464</ele>
        <time>2022-02-22T04:25:21.077Z</time>
      </trkpt>
      <trkpt lat="42.23037" lon="-1.45323">
        <ele>344.448665</ele>
        <time>2022-02-22T04:25:27.755Z</time>
      </trkpt>
      <trkpt lat="42.2301" lon="-1.45375">
        <ele>342.886007</ele>
        <time>2022-02-22T04:25:42.329Z</time>
      </trkpt>
      <trkpt lat="42.22997" lon="-1.45417">
        <ele>341.77148</ele>
        <time>2022-02-22T04:25:52.691Z</time>
      </trkpt>
      <trkpt lat="42.22978" lon="-1.45439">
        <ele>340.942277</ele>
        <time>2022-02-22T04:26:00.311Z</time>
      </trkpt>
      <trkpt lat="42.2288" lon="-1.45472">
        <ele>337.215963</ele>
        <time>2022-02-22T04:26:30.760Z</time>
      </trkpt>
      <trkpt lat="42.22853" lon="-1.45489">
        <ele>335.980099</ele>
        <time>2022-02-22T04:26:39.849Z</time>
      </trkpt>
      <trkpt lat="42.22814" lon="-1.45525">
        <ele>334.058739</ele>
        <time>2022-02-22T04:26:53.717Z</time>
      </trkpt>
      <trkpt lat="42.2279" lon="-1.45536">
        <ele>333.017452</ele>
        <time>2022-02-22T04:27:01.271Z</time>
      </trkpt>
      <trkpt lat="42.22564" lon="-1.45559">
        <ele>322.891345</ele>
        <time>2022-02-22T04:28:06.788Z</time>
      </trkpt>
      <trkpt lat="42.22524" lon="-1.45575">
        <ele>321.530042</ele>
        <time>2022-02-22T04:28:19.363Z</time>
      </trkpt>
      <trkpt lat="42.22343" lon="-1.45636">
        <ele>316.229382</ele>
        <time>2022-02-22T04:29:18.619Z</time>
      </trkpt>
      <trkpt lat="42.22169" lon="-1.45726">
        <ele>312.431097</ele>
        <time>2022-02-22T04:30:19.040Z</time>
      </trkpt>
      <trkpt lat="42.22121" lon="-1.45766">
        <ele>311.389495</ele>
        <time>2022-02-22T04:30:37.895Z</time>
      </trkpt>
      <trkpt lat="42.22063" lon="-1.45828">
        <ele>310.057798</ele>
        <time>2022-02-22T04:31:02.320Z</time>
      </trkpt>
      <trkpt lat="42.22047" lon="-1.45852">
        <ele>309.642368</ele>
        <time>2022-02-22T04:31:10.134Z</time>
      </trkpt>
      <trkpt lat="42.22034" lon="-1.45889">
        <ele>309.100868</ele>
        <time>2022-02-22T04:31:20.171Z</time>
      </trkpt>
      <trkpt lat="42.22018" lon="-1.46034">
        <ele>307.155385</ele>
        <time>2022-02-22T04:31:55.924Z</time>
      </trkpt>
      <trkpt lat="42.2199" lon="-1.46131">
        <ele>305.698782</ele>
        <time>2022-02-22T04:32:20.980Z</time>
      </trkpt>
      <trkpt lat="42.21965" lon="-1.46157">
        <ele>305.113499</ele>
        <time>2022-02-22T04:32:31.097Z</time>
      </trkpt>
      <trkpt lat="42.21912" lon="-1.46188">
        <ele>304.022686</ele>
        <time>2022-02-22T04:32:50.129Z</time>
      </trkpt>
      <trkpt lat="42.21792" lon="-1.46361">
        <ele>301.729119</ele>
        <time>2022-02-22T04:33:49.401Z</time>
      </trkpt>
      <trkpt lat="42.21827" lon="-1.46424">
        <ele>301.87469</ele>
        <time>2022-02-22T04:34:10.322Z</time>
      </trkpt>
      <trkpt lat="42.21858" lon="-1.46454">
        <ele>302.007293</ele>
        <time>2022-02-22T04:34:24.950Z</time>
      </trkpt>
      <trkpt lat="42.22026" lon="-1.46572">
        <ele>303.515477</ele>
        <time>2022-02-22T04:35:46.241Z</time>
      </trkpt>
      <trkpt lat="42.22087" lon="-1.46676">
        <ele>304.526564</ele>
        <time>2022-02-22T04:36:28.820Z</time>
      </trkpt>
      <trkpt lat="42.22122" lon="-1.46786">
        <ele>304.973465</ele>
        <time>2022-02-22T04:37:04.657Z</time>
      </trkpt>
      <trkpt lat="42.22135" lon="-1.4681">
        <ele>305.085203</ele>
        <time>2022-02-22T04:37:13.336Z</time>
      </trkpt>
      <trkpt lat="42.22503" lon="-1.47307">
        <ele>304.697906</ele>
        <time>2022-02-22T04:40:24.642Z</time>
      </trkpt>
      <trkpt lat="42.22654" lon="-1.47509">
        <ele>303.813692</ele>
        <time>2022-02-22T04:41:39.898Z</time>
      </trkpt>
      <trkpt lat="42.22668" lon="-1.4754">
        <ele>303.681181</ele>
        <time>2022-02-22T04:41:49.766Z</time>
      </trkpt>
      <trkpt lat="42.22678" lon="-1.47602">
        <ele>303.615689</ele>
        <time>2022-02-22T04:42:06.888Z</time>
      </trkpt>
      <trkpt lat="42.22675" lon="-1.47648">
        <ele>303.59033</ele>
        <time>2022-02-22T04:42:19.565Z</time>
      </trkpt>
      <trkpt lat="42.22665" lon="-1.47696">
        <ele>303.563409</ele>
        <time>2022-02-22T04:42:33.100Z</time>
      </trkpt>
      <trkpt lat="42.22654" lon="-1.47753">
        <ele>303.531413</ele>
        <time>2022-02-22T04:42:49.325Z</time>
      </trkpt>
      <trkpt lat="42.22653" lon="-1.47819">
        <ele>303.532441</ele>
        <time>2022-02-22T04:43:07.572Z</time>
      </trkpt>
      <trkpt lat="42.22701" lon="-1.48088">
        <ele>303.966531</ele>
        <time>2022-02-22T04:44:24.759Z</time>
      </trkpt>
      <trkpt lat="42.22709" lon="-1.48114">
        <ele>304.092307</ele>
        <time>2022-02-22T04:44:32.815Z</time>
      </trkpt>
      <trkpt lat="42.22734" lon="-1.48157">
        <ele>304.338308</ele>
        <time>2022-02-22T04:44:48.788Z</time>
      </trkpt>
      <trkpt lat="42.22834" lon="-1.48304">
        <ele>305.750761</ele>
        <time>2022-02-22T04:45:51.517Z</time>
      </trkpt>
      <trkpt lat="42.22987" lon="-1.48531">
        <ele>308.238114</ele>
        <time>2022-02-22T04:47:31.593Z</time>
      </trkpt>
      <trkpt lat="42.2302" lon="-1.4862">
        <ele>308.619453</ele>
        <time>2022-02-22T04:47:59.772Z</time>
      </trkpt>
      <trkpt lat="42.23028" lon="-1.48679">
        <ele>308.266142</ele>
        <time>2022-02-22T04:48:15.863Z</time>
      </trkpt>
      <trkpt lat="42.23023" lon="-1.48778">
        <ele>307.687179</ele>
        <time>2022-02-22T04:48:41.278Z</time>
      </trkpt>
      <trkpt lat="42.23007" lon="-1.48846">
        <ele>307.165803</ele>
        <time>2022-02-22T04:48:58.971Z</time>
      </trkpt>
      <trkpt lat="42.22977" lon="-1.4893">
        <ele>305.888917</ele>
        <time>2022-02-22T04:49:21.533Z</time>
      </trkpt>
      <trkpt lat="42.22824" lon="-1.49196">
        <ele>301.374052</ele>
        <time>2022-02-22T04:50:42.995Z</time>
      </trkpt>
      <trkpt lat="42.22805" lon="-1.49215">
        <ele>300.958935</ele>
        <time>2022-02-22T04:50:50.839Z</time>
      </trkpt>
      <trkpt lat="42.22794" lon="-1.49222">
        <ele>300.779854</ele>
        <time>2022-02-22T04:50:54.777Z</time>
      </trkpt>
      <trkpt lat="42.22573" lon="-1.49263">
        <ele>298.647066</ele>
        <time>2022-02-22T04:52:12.333Z</time>
      </trkpt>
      <trkpt lat="42.22551" lon="-1.49276">
        <ele>298.449177</ele>
        <time>2022-02-22T04:52:20.921Z</time>
      </trkpt>
      <trkpt lat="42.22529" lon="-1.49304">
        <ele>298.204783</ele>
        <time>2022-02-22T04:52:31.501Z</time>
      </trkpt>
      <trkpt lat="42.22472" lon="-1.49416">
        <ele>297.390292</ele>
        <time>2022-02-22T04:53:06.616Z</time>
      </trkpt>
      <trkpt lat="42.2227" lon="-1.49975">
        <ele>293.629781</ele>
        <time>2022-02-22T04:55:47.477Z</time>
      </trkpt>
      <trkpt lat="42.22177" lon="-1.50234">
        <ele>292.135619</ele>
        <time>2022-02-22T04:57:02.152Z</time>
      </trkpt>
      <trkpt lat="42.21993" lon="-1.50639">
        <ele>290.957986</ele>
        <time>2022-02-22T04:59:09.205Z</time>
      </trkpt>
      <trkpt lat="42.21949" lon="-1.50716">
        <ele>290.755066</ele>
        <time>2022-02-22T04:59:35.608Z</time>
      </trkpt>
      <trkpt lat="42.21897" lon="-1.50777">
        <ele>290.553045</ele>
        <time>2022-02-22T05:00:01.040Z</time>
      </trkpt>
      <trkpt lat="42.21884" lon="-1.50792">
        <ele>290.503647</ele>
        <time>2022-02-22T05:00:07.218Z</time>
      </trkpt>
      <trkpt lat="42.21476" lon="-1.51252">
        <ele>287.94965</ele>
        <time>2022-02-22T05:03:15.464Z</time>
      </trkpt>
      <trkpt lat="42.21458" lon="-1.51267">
        <ele>287.915949</ele>
        <time>2022-02-22T05:03:23.398Z</time>
      </trkpt>
      <trkpt lat="42.21435" lon="-1.51278">
        <ele>287.87807</ele>
        <time>2022-02-22T05:03:32.846Z</time>
      </trkpt>
      <trkpt lat="42.2136" lon="-1.51285">
        <ele>288.768982</ele>
        <time>2022-02-22T05:04:04.488Z</time>
      </trkpt>
      <trkpt lat="42.21304" lon="-1.5131">
        <ele>289.683571</ele>
        <time>2022-02-22T05:04:31.354Z</time>
      </trkpt>
      <trkpt lat="42.2128" lon="-1.5131">
        <ele>290.050756</ele>
        <time>2022-02-22T05:04:42.800Z</time>
      </trkpt>
      <trkpt lat="42.21153" lon="-1.51275">
        <ele>291.865042</ele>
        <time>2022-02-22T05:05:44.387Z</time>
      </trkpt>
      <trkpt lat="42.21127" lon="-1.5128">
        <ele>292.222687</ele>
        <time>2022-02-22T05:05:56.248Z</time>
      </trkpt>
      <trkpt lat="42.21102" lon="-1.51293">
        <ele>292.587756</ele>
        <time>2022-02-22T05:06:08.024Z</time>
      </trkpt>
      <trkpt lat="42.20986" lon="-1.5149">
        <ele>292.187395</ele>
        <time>2022-02-22T05:07:15.366Z</time>
      </trkpt>
      <trkpt lat="42.20966" lon="-1.51525">
        <ele>291.96578</ele>
        <time>2022-02-22T05:07:25.994Z</time>
      </trkpt>
    </trkseg>
  </trk>
</gpx>